<?xml version="1.0" encoding="UTF-8" standalone="no" ?>
<gpx xmlns="http://www.topografix.com/GPX/1/1" xmlns:xsi="http://www.w3.org/2001/XMLSchema-instance" xsi:schemaLocation="http://www.topografix.com/GPX/1/1 http://www.topografix.com/GPX/1/1/gpx.xsd" version="1.1" creator="VisuGPX - https://www.visugpx.com">
  <metadata>
    <name>Pornichet 19/12/2021</name>
    <desc><![CDATA[Sortie vin chaud vtt dimanche 19 décembre 2021]]></desc>
  </metadata>
  <trk>
    <name><![CDATA[Pornichet Cyclisme]]></name>
    <trkseg>
      <trkpt lat="47.26409" lon="-2.31563">
        <ele>13</ele>
        <time>2021-12-19T07:56:24.000Z</time>
      </trkpt>
      <trkpt lat="47.26409" lon="-2.31579">
        <ele>13.199999809265</ele>
        <time>2021-12-19T07:56:27.000Z</time>
      </trkpt>
      <trkpt lat="47.2641" lon="-2.31596">
        <ele>13.199999809265</ele>
        <time>2021-12-19T07:56:30.000Z</time>
      </trkpt>
      <trkpt lat="47.26409" lon="-2.31633">
        <ele>13.199999809265</ele>
        <time>2021-12-19T07:56:36.000Z</time>
      </trkpt>
      <trkpt lat="47.26409" lon="-2.31654">
        <ele>13.199999809265</ele>
        <time>2021-12-19T07:56:40.000Z</time>
      </trkpt>
      <trkpt lat="47.26406" lon="-2.31656">
        <ele>13.199999809265</ele>
        <time>2021-12-19T07:56:41.000Z</time>
      </trkpt>
      <trkpt lat="47.26396" lon="-2.31661">
        <ele>13.199999809265</ele>
        <time>2021-12-19T07:56:45.000Z</time>
      </trkpt>
      <trkpt lat="47.26373" lon="-2.31672">
        <ele>13.199999809265</ele>
        <time>2021-12-19T07:56:51.000Z</time>
      </trkpt>
      <trkpt lat="47.26344" lon="-2.31685">
        <ele>13.199999809265</ele>
        <time>2021-12-19T07:56:58.000Z</time>
      </trkpt>
      <trkpt lat="47.2634" lon="-2.31686">
        <ele>12.800000190735</ele>
        <time>2021-12-19T07:56:59.000Z</time>
      </trkpt>
      <trkpt lat="47.26336" lon="-2.31688">
        <ele>12.39999961853</ele>
        <time>2021-12-19T07:57:00.000Z</time>
      </trkpt>
      <trkpt lat="47.26333" lon="-2.3169">
        <ele>12</ele>
        <time>2021-12-19T07:57:01.000Z</time>
      </trkpt>
      <trkpt lat="47.2633" lon="-2.31693">
        <ele>11.60000038147</ele>
        <time>2021-12-19T07:57:02.000Z</time>
      </trkpt>
      <trkpt lat="47.26328" lon="-2.31698">
        <ele>11</ele>
        <time>2021-12-19T07:57:03.000Z</time>
      </trkpt>
      <trkpt lat="47.26318" lon="-2.31708">
        <ele>11</ele>
        <time>2021-12-19T07:57:06.000Z</time>
      </trkpt>
      <trkpt lat="47.26314" lon="-2.31711">
        <ele>11</ele>
        <time>2021-12-19T07:57:07.000Z</time>
      </trkpt>
      <trkpt lat="47.26305" lon="-2.31716">
        <ele>10.199999809265</ele>
        <time>2021-12-19T07:57:09.000Z</time>
      </trkpt>
      <trkpt lat="47.26302" lon="-2.31719">
        <ele>9.8000001907349</ele>
        <time>2021-12-19T07:57:10.000Z</time>
      </trkpt>
      <trkpt lat="47.263" lon="-2.31723">
        <ele>9.3999996185303</ele>
        <time>2021-12-19T07:57:11.000Z</time>
      </trkpt>
      <trkpt lat="47.26298" lon="-2.31727">
        <ele>9</ele>
        <time>2021-12-19T07:57:12.000Z</time>
      </trkpt>
      <trkpt lat="47.26299" lon="-2.31731">
        <ele>9</ele>
        <time>2021-12-19T07:57:13.000Z</time>
      </trkpt>
      <trkpt lat="47.26302" lon="-2.31739">
        <ele>9</ele>
        <time>2021-12-19T07:57:15.000Z</time>
      </trkpt>
      <trkpt lat="47.26304" lon="-2.3175">
        <ele>9</ele>
        <time>2021-12-19T07:57:17.000Z</time>
      </trkpt>
      <trkpt lat="47.26305" lon="-2.31761">
        <ele>9</ele>
        <time>2021-12-19T07:57:19.000Z</time>
      </trkpt>
      <trkpt lat="47.26305" lon="-2.31767">
        <ele>9</ele>
        <time>2021-12-19T07:57:20.000Z</time>
      </trkpt>
      <trkpt lat="47.26307" lon="-2.31799">
        <ele>9</ele>
        <time>2021-12-19T07:57:25.000Z</time>
      </trkpt>
      <trkpt lat="47.26306" lon="-2.31806">
        <ele>9</ele>
        <time>2021-12-19T07:57:26.000Z</time>
      </trkpt>
      <trkpt lat="47.263" lon="-2.31854">
        <ele>9</ele>
        <time>2021-12-19T07:57:33.000Z</time>
      </trkpt>
      <trkpt lat="47.263" lon="-2.31881">
        <ele>9</ele>
        <time>2021-12-19T07:57:38.000Z</time>
      </trkpt>
      <trkpt lat="47.26298" lon="-2.31886">
        <ele>9</ele>
        <time>2021-12-19T07:57:39.000Z</time>
      </trkpt>
      <trkpt lat="47.26295" lon="-2.31889">
        <ele>9</ele>
        <time>2021-12-19T07:57:41.000Z</time>
      </trkpt>
      <trkpt lat="47.26281" lon="-2.31904">
        <ele>9</ele>
        <time>2021-12-19T07:57:46.000Z</time>
      </trkpt>
      <trkpt lat="47.26266" lon="-2.31929">
        <ele>9</ele>
        <time>2021-12-19T07:57:52.000Z</time>
      </trkpt>
      <trkpt lat="47.26257" lon="-2.3195">
        <ele>9</ele>
        <time>2021-12-19T07:57:57.000Z</time>
      </trkpt>
      <trkpt lat="47.2624" lon="-2.31969">
        <ele>9</ele>
        <time>2021-12-19T07:58:03.000Z</time>
      </trkpt>
      <trkpt lat="47.26225" lon="-2.31984">
        <ele>9</ele>
        <time>2021-12-19T07:58:09.000Z</time>
      </trkpt>
      <trkpt lat="47.26216" lon="-2.31993">
        <ele>9</ele>
        <time>2021-12-19T07:58:12.000Z</time>
      </trkpt>
      <trkpt lat="47.26208" lon="-2.31999">
        <ele>9</ele>
        <time>2021-12-19T07:58:15.000Z</time>
      </trkpt>
      <trkpt lat="47.26206" lon="-2.32006">
        <ele>9</ele>
        <time>2021-12-19T07:58:17.000Z</time>
      </trkpt>
      <trkpt lat="47.26203" lon="-2.32018">
        <ele>9</ele>
        <time>2021-12-19T07:58:20.000Z</time>
      </trkpt>
      <trkpt lat="47.26197" lon="-2.32018">
        <ele>9</ele>
        <time>2021-12-19T07:58:23.000Z</time>
      </trkpt>
      <trkpt lat="47.26195" lon="-2.32018">
        <ele>9</ele>
        <time>2021-12-19T07:58:24.000Z</time>
      </trkpt>
      <trkpt lat="47.26178" lon="-2.32021">
        <ele>9</ele>
        <time>2021-12-19T07:58:29.000Z</time>
      </trkpt>
      <trkpt lat="47.26166" lon="-2.32028">
        <ele>9</ele>
        <time>2021-12-19T07:58:32.000Z</time>
      </trkpt>
      <trkpt lat="47.2616" lon="-2.32035">
        <ele>9</ele>
        <time>2021-12-19T07:58:34.000Z</time>
      </trkpt>
      <trkpt lat="47.26151" lon="-2.32059">
        <ele>9</ele>
        <time>2021-12-19T07:58:38.000Z</time>
      </trkpt>
      <trkpt lat="47.26149" lon="-2.32066">
        <ele>9</ele>
        <time>2021-12-19T07:58:39.000Z</time>
      </trkpt>
      <trkpt lat="47.26135" lon="-2.32115">
        <ele>9</ele>
        <time>2021-12-19T07:58:47.000Z</time>
      </trkpt>
      <trkpt lat="47.26119" lon="-2.32161">
        <ele>9</ele>
        <time>2021-12-19T07:58:55.000Z</time>
      </trkpt>
      <trkpt lat="47.26097" lon="-2.32211">
        <ele>9</ele>
        <time>2021-12-19T07:59:04.000Z</time>
      </trkpt>
      <trkpt lat="47.26074" lon="-2.32244">
        <ele>9</ele>
        <time>2021-12-19T07:59:11.000Z</time>
      </trkpt>
      <trkpt lat="47.26071" lon="-2.32248">
        <ele>9</ele>
        <time>2021-12-19T07:59:12.000Z</time>
      </trkpt>
      <trkpt lat="47.26064" lon="-2.32257">
        <ele>9</ele>
        <time>2021-12-19T07:59:14.000Z</time>
      </trkpt>
      <trkpt lat="47.26047" lon="-2.32278">
        <ele>9</ele>
        <time>2021-12-19T07:59:19.000Z</time>
      </trkpt>
      <trkpt lat="47.26018" lon="-2.3231">
        <ele>9</ele>
        <time>2021-12-19T07:59:27.000Z</time>
      </trkpt>
      <trkpt lat="47.2599" lon="-2.32345">
        <ele>9</ele>
        <time>2021-12-19T07:59:35.000Z</time>
      </trkpt>
      <trkpt lat="47.25965" lon="-2.32376">
        <ele>9</ele>
        <time>2021-12-19T07:59:42.000Z</time>
      </trkpt>
      <trkpt lat="47.25942" lon="-2.32407">
        <ele>9</ele>
        <time>2021-12-19T07:59:49.000Z</time>
      </trkpt>
      <trkpt lat="47.25914" lon="-2.32443">
        <ele>9</ele>
        <time>2021-12-19T07:59:57.000Z</time>
      </trkpt>
      <trkpt lat="47.25894" lon="-2.32466">
        <ele>9</ele>
        <time>2021-12-19T08:00:03.000Z</time>
      </trkpt>
      <trkpt lat="47.25883" lon="-2.32474">
        <ele>9</ele>
        <time>2021-12-19T08:00:06.000Z</time>
      </trkpt>
      <trkpt lat="47.25875" lon="-2.32477">
        <ele>9</ele>
        <time>2021-12-19T08:00:08.000Z</time>
      </trkpt>
      <trkpt lat="47.25866" lon="-2.32478">
        <ele>9</ele>
        <time>2021-12-19T08:00:10.000Z</time>
      </trkpt>
      <trkpt lat="47.25844" lon="-2.32476">
        <ele>9</ele>
        <time>2021-12-19T08:00:15.000Z</time>
      </trkpt>
      <trkpt lat="47.25827" lon="-2.3247">
        <ele>9</ele>
        <time>2021-12-19T08:00:19.000Z</time>
      </trkpt>
      <trkpt lat="47.25818" lon="-2.32466">
        <ele>9</ele>
        <time>2021-12-19T08:00:21.000Z</time>
      </trkpt>
      <trkpt lat="47.25811" lon="-2.32462">
        <ele>9</ele>
        <time>2021-12-19T08:00:23.000Z</time>
      </trkpt>
      <trkpt lat="47.258" lon="-2.32458">
        <ele>9</ele>
        <time>2021-12-19T08:00:27.000Z</time>
      </trkpt>
      <trkpt lat="47.25787" lon="-2.32459">
        <ele>9</ele>
        <time>2021-12-19T08:00:32.000Z</time>
      </trkpt>
      <trkpt lat="47.25775" lon="-2.32445">
        <ele>9</ele>
        <time>2021-12-19T08:00:36.000Z</time>
      </trkpt>
      <trkpt lat="47.25767" lon="-2.32432">
        <ele>9</ele>
        <time>2021-12-19T08:00:39.000Z</time>
      </trkpt>
      <trkpt lat="47.25759" lon="-2.32428">
        <ele>9</ele>
        <time>2021-12-19T08:00:41.000Z</time>
      </trkpt>
      <trkpt lat="47.25749" lon="-2.32427">
        <ele>9</ele>
        <time>2021-12-19T08:00:43.000Z</time>
      </trkpt>
      <trkpt lat="47.25718" lon="-2.32426">
        <ele>9</ele>
        <time>2021-12-19T08:00:49.000Z</time>
      </trkpt>
      <trkpt lat="47.25677" lon="-2.32423">
        <ele>9</ele>
        <time>2021-12-19T08:00:57.000Z</time>
      </trkpt>
      <trkpt lat="47.25669" lon="-2.32422">
        <ele>9</ele>
        <time>2021-12-19T08:00:59.000Z</time>
      </trkpt>
      <trkpt lat="47.25662" lon="-2.32428">
        <ele>9</ele>
        <time>2021-12-19T08:01:01.000Z</time>
      </trkpt>
      <trkpt lat="47.25662" lon="-2.32447">
        <ele>9</ele>
        <time>2021-12-19T08:01:04.000Z</time>
      </trkpt>
      <trkpt lat="47.25665" lon="-2.32459">
        <ele>9</ele>
        <time>2021-12-19T08:01:06.000Z</time>
      </trkpt>
      <trkpt lat="47.25674" lon="-2.32489">
        <ele>9.3999996185303</ele>
        <time>2021-12-19T08:01:11.000Z</time>
      </trkpt>
      <trkpt lat="47.25676" lon="-2.32495">
        <ele>9.8000001907349</ele>
        <time>2021-12-19T08:01:12.000Z</time>
      </trkpt>
      <trkpt lat="47.25677" lon="-2.32501">
        <ele>10.199999809265</ele>
        <time>2021-12-19T08:01:13.000Z</time>
      </trkpt>
      <trkpt lat="47.25679" lon="-2.32506">
        <ele>10.60000038147</ele>
        <time>2021-12-19T08:01:14.000Z</time>
      </trkpt>
      <trkpt lat="47.25681" lon="-2.32512">
        <ele>11</ele>
        <time>2021-12-19T08:01:15.000Z</time>
      </trkpt>
      <trkpt lat="47.25685" lon="-2.32523">
        <ele>11</ele>
        <time>2021-12-19T08:01:17.000Z</time>
      </trkpt>
      <trkpt lat="47.25697" lon="-2.3256">
        <ele>11</ele>
        <time>2021-12-19T08:01:24.000Z</time>
      </trkpt>
      <trkpt lat="47.257" lon="-2.32565">
        <ele>11.39999961853</ele>
        <time>2021-12-19T08:01:25.000Z</time>
      </trkpt>
      <trkpt lat="47.25701" lon="-2.3257">
        <ele>11.800000190735</ele>
        <time>2021-12-19T08:01:26.000Z</time>
      </trkpt>
      <trkpt lat="47.25703" lon="-2.32574">
        <ele>12.199999809265</ele>
        <time>2021-12-19T08:01:27.000Z</time>
      </trkpt>
      <trkpt lat="47.25704" lon="-2.3258">
        <ele>12.60000038147</ele>
        <time>2021-12-19T08:01:28.000Z</time>
      </trkpt>
      <trkpt lat="47.25706" lon="-2.32585">
        <ele>13</ele>
        <time>2021-12-19T08:01:29.000Z</time>
      </trkpt>
      <trkpt lat="47.25707" lon="-2.32591">
        <ele>13</ele>
        <time>2021-12-19T08:01:30.000Z</time>
      </trkpt>
      <trkpt lat="47.25709" lon="-2.32614">
        <ele>13</ele>
        <time>2021-12-19T08:01:34.000Z</time>
      </trkpt>
      <trkpt lat="47.25707" lon="-2.3262">
        <ele>13</ele>
        <time>2021-12-19T08:01:35.000Z</time>
      </trkpt>
      <trkpt lat="47.25705" lon="-2.32624">
        <ele>13</ele>
        <time>2021-12-19T08:01:36.000Z</time>
      </trkpt>
      <trkpt lat="47.25698" lon="-2.32629">
        <ele>13</ele>
        <time>2021-12-19T08:01:38.000Z</time>
      </trkpt>
      <trkpt lat="47.25694" lon="-2.32631">
        <ele>13</ele>
        <time>2021-12-19T08:01:39.000Z</time>
      </trkpt>
      <trkpt lat="47.25675" lon="-2.32638">
        <ele>13.60000038147</ele>
        <time>2021-12-19T08:01:44.000Z</time>
      </trkpt>
      <trkpt lat="47.25671" lon="-2.32639">
        <ele>14</ele>
        <time>2021-12-19T08:01:45.000Z</time>
      </trkpt>
      <trkpt lat="47.25668" lon="-2.32642">
        <ele>14.39999961853</ele>
        <time>2021-12-19T08:01:46.000Z</time>
      </trkpt>
      <trkpt lat="47.25664" lon="-2.32644">
        <ele>14.800000190735</ele>
        <time>2021-12-19T08:01:47.000Z</time>
      </trkpt>
      <trkpt lat="47.25661" lon="-2.32646">
        <ele>15.199999809265</ele>
        <time>2021-12-19T08:01:48.000Z</time>
      </trkpt>
      <trkpt lat="47.25653" lon="-2.3265">
        <ele>15.199999809265</ele>
        <time>2021-12-19T08:01:50.000Z</time>
      </trkpt>
      <trkpt lat="47.25641" lon="-2.32655">
        <ele>15.199999809265</ele>
        <time>2021-12-19T08:01:53.000Z</time>
      </trkpt>
      <trkpt lat="47.25618" lon="-2.32663">
        <ele>15.60000038147</ele>
        <time>2021-12-19T08:01:59.000Z</time>
      </trkpt>
      <trkpt lat="47.25614" lon="-2.32665">
        <ele>16</ele>
        <time>2021-12-19T08:02:00.000Z</time>
      </trkpt>
      <trkpt lat="47.2561" lon="-2.32667">
        <ele>16.39999961853</ele>
        <time>2021-12-19T08:02:01.000Z</time>
      </trkpt>
      <trkpt lat="47.25606" lon="-2.32669">
        <ele>16.799999237061</ele>
        <time>2021-12-19T08:02:02.000Z</time>
      </trkpt>
      <trkpt lat="47.25603" lon="-2.32671">
        <ele>17.39999961853</ele>
        <time>2021-12-19T08:02:03.000Z</time>
      </trkpt>
      <trkpt lat="47.25587" lon="-2.32676">
        <ele>17.39999961853</ele>
        <time>2021-12-19T08:02:07.000Z</time>
      </trkpt>
      <trkpt lat="47.25582" lon="-2.32678">
        <ele>17.39999961853</ele>
        <time>2021-12-19T08:02:08.000Z</time>
      </trkpt>
      <trkpt lat="47.25565" lon="-2.32686">
        <ele>17.39999961853</ele>
        <time>2021-12-19T08:02:12.000Z</time>
      </trkpt>
      <trkpt lat="47.25529" lon="-2.327">
        <ele>17.39999961853</ele>
        <time>2021-12-19T08:02:20.000Z</time>
      </trkpt>
      <trkpt lat="47.25525" lon="-2.327">
        <ele>17.39999961853</ele>
        <time>2021-12-19T08:02:21.000Z</time>
      </trkpt>
      <trkpt lat="47.25489" lon="-2.32706">
        <ele>17.39999961853</ele>
        <time>2021-12-19T08:02:29.000Z</time>
      </trkpt>
      <trkpt lat="47.25468" lon="-2.32722">
        <ele>17.39999961853</ele>
        <time>2021-12-19T08:02:34.000Z</time>
      </trkpt>
      <trkpt lat="47.25443" lon="-2.32757">
        <ele>17.39999961853</ele>
        <time>2021-12-19T08:02:41.000Z</time>
      </trkpt>
      <trkpt lat="47.25437" lon="-2.32769">
        <ele>17.39999961853</ele>
        <time>2021-12-19T08:02:43.000Z</time>
      </trkpt>
      <trkpt lat="47.25432" lon="-2.32783">
        <ele>17.39999961853</ele>
        <time>2021-12-19T08:02:45.000Z</time>
      </trkpt>
      <trkpt lat="47.25422" lon="-2.328">
        <ele>17.39999961853</ele>
        <time>2021-12-19T08:02:48.000Z</time>
      </trkpt>
      <trkpt lat="47.25418" lon="-2.32805">
        <ele>17.39999961853</ele>
        <time>2021-12-19T08:02:49.000Z</time>
      </trkpt>
      <trkpt lat="47.25396" lon="-2.32836">
        <ele>17.39999961853</ele>
        <time>2021-12-19T08:02:54.000Z</time>
      </trkpt>
      <trkpt lat="47.25359" lon="-2.32876">
        <ele>17.39999961853</ele>
        <time>2021-12-19T08:03:02.000Z</time>
      </trkpt>
      <trkpt lat="47.25331" lon="-2.32902">
        <ele>17.39999961853</ele>
        <time>2021-12-19T08:03:08.000Z</time>
      </trkpt>
      <trkpt lat="47.25318" lon="-2.32914">
        <ele>17.39999961853</ele>
        <time>2021-12-19T08:03:11.000Z</time>
      </trkpt>
      <trkpt lat="47.25309" lon="-2.32931">
        <ele>16.799999237061</ele>
        <time>2021-12-19T08:03:14.000Z</time>
      </trkpt>
      <trkpt lat="47.25307" lon="-2.32938">
        <ele>16.39999961853</ele>
        <time>2021-12-19T08:03:15.000Z</time>
      </trkpt>
      <trkpt lat="47.25307" lon="-2.32946">
        <ele>16</ele>
        <time>2021-12-19T08:03:16.000Z</time>
      </trkpt>
      <trkpt lat="47.25308" lon="-2.32953">
        <ele>15.60000038147</ele>
        <time>2021-12-19T08:03:17.000Z</time>
      </trkpt>
      <trkpt lat="47.2531" lon="-2.32959">
        <ele>15.199999809265</ele>
        <time>2021-12-19T08:03:18.000Z</time>
      </trkpt>
      <trkpt lat="47.25319" lon="-2.32982">
        <ele>15.199999809265</ele>
        <time>2021-12-19T08:03:22.000Z</time>
      </trkpt>
      <trkpt lat="47.25324" lon="-2.32995">
        <ele>15.199999809265</ele>
        <time>2021-12-19T08:03:24.000Z</time>
      </trkpt>
      <trkpt lat="47.25335" lon="-2.33019">
        <ele>15.199999809265</ele>
        <time>2021-12-19T08:03:28.000Z</time>
      </trkpt>
      <trkpt lat="47.25351" lon="-2.33063">
        <ele>15.199999809265</ele>
        <time>2021-12-19T08:03:35.000Z</time>
      </trkpt>
      <trkpt lat="47.25358" lon="-2.33081">
        <ele>15.199999809265</ele>
        <time>2021-12-19T08:03:38.000Z</time>
      </trkpt>
      <trkpt lat="47.25364" lon="-2.33094">
        <ele>15.199999809265</ele>
        <time>2021-12-19T08:03:41.000Z</time>
      </trkpt>
      <trkpt lat="47.25367" lon="-2.33107">
        <ele>15.199999809265</ele>
        <time>2021-12-19T08:03:45.000Z</time>
      </trkpt>
      <trkpt lat="47.25367" lon="-2.33108">
        <ele>15.199999809265</ele>
        <time>2021-12-19T08:03:47.000Z</time>
      </trkpt>
      <trkpt lat="47.25372" lon="-2.33111">
        <ele>13.199999809265</ele>
        <time>2021-12-19T08:11:04.000Z</time>
      </trkpt>
      <trkpt lat="47.25373" lon="-2.33113">
        <ele>13.199999809265</ele>
        <time>2021-12-19T08:11:05.000Z</time>
      </trkpt>
      <trkpt lat="47.25375" lon="-2.33119">
        <ele>13.199999809265</ele>
        <time>2021-12-19T08:11:08.000Z</time>
      </trkpt>
      <trkpt lat="47.25378" lon="-2.33134">
        <ele>13.199999809265</ele>
        <time>2021-12-19T08:11:12.000Z</time>
      </trkpt>
      <trkpt lat="47.25376" lon="-2.33158">
        <ele>13.199999809265</ele>
        <time>2021-12-19T08:11:17.000Z</time>
      </trkpt>
      <trkpt lat="47.25361" lon="-2.33178">
        <ele>13.199999809265</ele>
        <time>2021-12-19T08:11:22.000Z</time>
      </trkpt>
      <trkpt lat="47.2534" lon="-2.33207">
        <ele>13.199999809265</ele>
        <time>2021-12-19T08:11:29.000Z</time>
      </trkpt>
      <trkpt lat="47.25322" lon="-2.33229">
        <ele>13.199999809265</ele>
        <time>2021-12-19T08:11:34.000Z</time>
      </trkpt>
      <trkpt lat="47.25318" lon="-2.33231">
        <ele>13.199999809265</ele>
        <time>2021-12-19T08:11:35.000Z</time>
      </trkpt>
      <trkpt lat="47.25307" lon="-2.33224">
        <ele>13.199999809265</ele>
        <time>2021-12-19T08:11:38.000Z</time>
      </trkpt>
      <trkpt lat="47.25301" lon="-2.33212">
        <ele>13.199999809265</ele>
        <time>2021-12-19T08:11:40.000Z</time>
      </trkpt>
      <trkpt lat="47.25288" lon="-2.33183">
        <ele>13.199999809265</ele>
        <time>2021-12-19T08:11:45.000Z</time>
      </trkpt>
      <trkpt lat="47.25267" lon="-2.33149">
        <ele>13.199999809265</ele>
        <time>2021-12-19T08:11:51.000Z</time>
      </trkpt>
      <trkpt lat="47.25242" lon="-2.33105">
        <ele>13.199999809265</ele>
        <time>2021-12-19T08:11:59.000Z</time>
      </trkpt>
      <trkpt lat="47.25219" lon="-2.33059">
        <ele>13.199999809265</ele>
        <time>2021-12-19T08:12:07.000Z</time>
      </trkpt>
      <trkpt lat="47.25205" lon="-2.33032">
        <ele>13.199999809265</ele>
        <time>2021-12-19T08:12:13.000Z</time>
      </trkpt>
      <trkpt lat="47.25202" lon="-2.33031">
        <ele>13.199999809265</ele>
        <time>2021-12-19T08:12:14.000Z</time>
      </trkpt>
      <trkpt lat="47.25196" lon="-2.33034">
        <ele>13.199999809265</ele>
        <time>2021-12-19T08:12:16.000Z</time>
      </trkpt>
      <trkpt lat="47.25189" lon="-2.33041">
        <ele>13.199999809265</ele>
        <time>2021-12-19T08:12:18.000Z</time>
      </trkpt>
      <trkpt lat="47.25176" lon="-2.33055">
        <ele>13.199999809265</ele>
        <time>2021-12-19T08:12:21.000Z</time>
      </trkpt>
      <trkpt lat="47.25158" lon="-2.33073">
        <ele>13.199999809265</ele>
        <time>2021-12-19T08:12:25.000Z</time>
      </trkpt>
      <trkpt lat="47.25153" lon="-2.33077">
        <ele>13.199999809265</ele>
        <time>2021-12-19T08:12:26.000Z</time>
      </trkpt>
      <trkpt lat="47.25139" lon="-2.33083">
        <ele>13.199999809265</ele>
        <time>2021-12-19T08:12:29.000Z</time>
      </trkpt>
      <trkpt lat="47.25126" lon="-2.33089">
        <ele>13.199999809265</ele>
        <time>2021-12-19T08:12:32.000Z</time>
      </trkpt>
      <trkpt lat="47.25115" lon="-2.33089">
        <ele>13.199999809265</ele>
        <time>2021-12-19T08:12:35.000Z</time>
      </trkpt>
      <trkpt lat="47.25113" lon="-2.33085">
        <ele>13.199999809265</ele>
        <time>2021-12-19T08:12:36.000Z</time>
      </trkpt>
      <trkpt lat="47.25112" lon="-2.3307">
        <ele>13.199999809265</ele>
        <time>2021-12-19T08:12:39.000Z</time>
      </trkpt>
      <trkpt lat="47.25119" lon="-2.33055">
        <ele>13.199999809265</ele>
        <time>2021-12-19T08:12:42.000Z</time>
      </trkpt>
      <trkpt lat="47.25122" lon="-2.3305">
        <ele>13.199999809265</ele>
        <time>2021-12-19T08:12:43.000Z</time>
      </trkpt>
      <trkpt lat="47.25133" lon="-2.33026">
        <ele>13.199999809265</ele>
        <time>2021-12-19T08:12:47.000Z</time>
      </trkpt>
      <trkpt lat="47.25134" lon="-2.33019">
        <ele>13.199999809265</ele>
        <time>2021-12-19T08:12:48.000Z</time>
      </trkpt>
      <trkpt lat="47.25131" lon="-2.33">
        <ele>13.199999809265</ele>
        <time>2021-12-19T08:12:51.000Z</time>
      </trkpt>
      <trkpt lat="47.25125" lon="-2.32991">
        <ele>13.199999809265</ele>
        <time>2021-12-19T08:12:53.000Z</time>
      </trkpt>
      <trkpt lat="47.25118" lon="-2.3298">
        <ele>13.199999809265</ele>
        <time>2021-12-19T08:12:55.000Z</time>
      </trkpt>
      <trkpt lat="47.25112" lon="-2.32971">
        <ele>13.199999809265</ele>
        <time>2021-12-19T08:12:57.000Z</time>
      </trkpt>
      <trkpt lat="47.25109" lon="-2.32965">
        <ele>13.199999809265</ele>
        <time>2021-12-19T08:12:58.000Z</time>
      </trkpt>
      <trkpt lat="47.25098" lon="-2.32948">
        <ele>13.199999809265</ele>
        <time>2021-12-19T08:13:02.000Z</time>
      </trkpt>
      <trkpt lat="47.25091" lon="-2.32931">
        <ele>13.199999809265</ele>
        <time>2021-12-19T08:13:06.000Z</time>
      </trkpt>
      <trkpt lat="47.25087" lon="-2.32915">
        <ele>13.199999809265</ele>
        <time>2021-12-19T08:13:10.000Z</time>
      </trkpt>
      <trkpt lat="47.25085" lon="-2.32905">
        <ele>12.39999961853</ele>
        <time>2021-12-19T08:13:13.000Z</time>
      </trkpt>
      <trkpt lat="47.25084" lon="-2.32903">
        <ele>12</ele>
        <time>2021-12-19T08:13:14.000Z</time>
      </trkpt>
      <trkpt lat="47.25082" lon="-2.32901">
        <ele>11.60000038147</ele>
        <time>2021-12-19T08:13:15.000Z</time>
      </trkpt>
      <trkpt lat="47.25081" lon="-2.329">
        <ele>11.199999809265</ele>
        <time>2021-12-19T08:13:16.000Z</time>
      </trkpt>
      <trkpt lat="47.25079" lon="-2.32891">
        <ele>11.199999809265</ele>
        <time>2021-12-19T08:13:20.000Z</time>
      </trkpt>
      <trkpt lat="47.25079" lon="-2.32888">
        <ele>11.199999809265</ele>
        <time>2021-12-19T08:13:21.000Z</time>
      </trkpt>
      <trkpt lat="47.25078" lon="-2.32872">
        <ele>11.199999809265</ele>
        <time>2021-12-19T08:13:24.000Z</time>
      </trkpt>
      <trkpt lat="47.25076" lon="-2.3286">
        <ele>11.199999809265</ele>
        <time>2021-12-19T08:13:27.000Z</time>
      </trkpt>
      <trkpt lat="47.25074" lon="-2.32858">
        <ele>11.199999809265</ele>
        <time>2021-12-19T08:13:28.000Z</time>
      </trkpt>
      <trkpt lat="47.25058" lon="-2.32839">
        <ele>11.199999809265</ele>
        <time>2021-12-19T08:13:33.000Z</time>
      </trkpt>
      <trkpt lat="47.25054" lon="-2.32832">
        <ele>11.199999809265</ele>
        <time>2021-12-19T08:13:34.000Z</time>
      </trkpt>
      <trkpt lat="47.25045" lon="-2.32807">
        <ele>11.199999809265</ele>
        <time>2021-12-19T08:13:37.000Z</time>
      </trkpt>
      <trkpt lat="47.25042" lon="-2.32786">
        <ele>11.60000038147</ele>
        <time>2021-12-19T08:13:40.000Z</time>
      </trkpt>
      <trkpt lat="47.2504" lon="-2.3278">
        <ele>12</ele>
        <time>2021-12-19T08:13:41.000Z</time>
      </trkpt>
      <trkpt lat="47.25037" lon="-2.32776">
        <ele>12.39999961853</ele>
        <time>2021-12-19T08:13:42.000Z</time>
      </trkpt>
      <trkpt lat="47.25035" lon="-2.32771">
        <ele>12.800000190735</ele>
        <time>2021-12-19T08:13:43.000Z</time>
      </trkpt>
      <trkpt lat="47.25032" lon="-2.32767">
        <ele>13.39999961853</ele>
        <time>2021-12-19T08:13:44.000Z</time>
      </trkpt>
      <trkpt lat="47.25027" lon="-2.32753">
        <ele>13.39999961853</ele>
        <time>2021-12-19T08:13:47.000Z</time>
      </trkpt>
      <trkpt lat="47.25028" lon="-2.32748">
        <ele>13.39999961853</ele>
        <time>2021-12-19T08:13:48.000Z</time>
      </trkpt>
      <trkpt lat="47.25033" lon="-2.3274">
        <ele>13.39999961853</ele>
        <time>2021-12-19T08:13:50.000Z</time>
      </trkpt>
      <trkpt lat="47.25045" lon="-2.32725">
        <ele>13.39999961853</ele>
        <time>2021-12-19T08:13:54.000Z</time>
      </trkpt>
      <trkpt lat="47.25049" lon="-2.32721">
        <ele>13.39999961853</ele>
        <time>2021-12-19T08:13:55.000Z</time>
      </trkpt>
      <trkpt lat="47.25074" lon="-2.32699">
        <ele>13.39999961853</ele>
        <time>2021-12-19T08:14:02.000Z</time>
      </trkpt>
      <trkpt lat="47.25081" lon="-2.32687">
        <ele>13.800000190735</ele>
        <time>2021-12-19T08:14:05.000Z</time>
      </trkpt>
      <trkpt lat="47.25082" lon="-2.32683">
        <ele>14.199999809265</ele>
        <time>2021-12-19T08:14:06.000Z</time>
      </trkpt>
      <trkpt lat="47.25082" lon="-2.3268">
        <ele>14.60000038147</ele>
        <time>2021-12-19T08:14:07.000Z</time>
      </trkpt>
      <trkpt lat="47.25081" lon="-2.32676">
        <ele>15</ele>
        <time>2021-12-19T08:14:08.000Z</time>
      </trkpt>
      <trkpt lat="47.2508" lon="-2.32671">
        <ele>15.60000038147</ele>
        <time>2021-12-19T08:14:09.000Z</time>
      </trkpt>
      <trkpt lat="47.25062" lon="-2.32636">
        <ele>15.60000038147</ele>
        <time>2021-12-19T08:14:16.000Z</time>
      </trkpt>
      <trkpt lat="47.25043" lon="-2.32595">
        <ele>16</ele>
        <time>2021-12-19T08:14:24.000Z</time>
      </trkpt>
      <trkpt lat="47.25041" lon="-2.3259">
        <ele>16.39999961853</ele>
        <time>2021-12-19T08:14:25.000Z</time>
      </trkpt>
      <trkpt lat="47.25038" lon="-2.32585">
        <ele>17</ele>
        <time>2021-12-19T08:14:26.000Z</time>
      </trkpt>
      <trkpt lat="47.25036" lon="-2.3258">
        <ele>17.39999961853</ele>
        <time>2021-12-19T08:14:27.000Z</time>
      </trkpt>
      <trkpt lat="47.25034" lon="-2.32574">
        <ele>17.799999237061</ele>
        <time>2021-12-19T08:14:28.000Z</time>
      </trkpt>
      <trkpt lat="47.2503" lon="-2.32564">
        <ele>17.799999237061</ele>
        <time>2021-12-19T08:14:30.000Z</time>
      </trkpt>
      <trkpt lat="47.25026" lon="-2.3254">
        <ele>17.799999237061</ele>
        <time>2021-12-19T08:14:34.000Z</time>
      </trkpt>
      <trkpt lat="47.25027" lon="-2.32528">
        <ele>18.200000762939</ele>
        <time>2021-12-19T08:14:36.000Z</time>
      </trkpt>
      <trkpt lat="47.25028" lon="-2.32523">
        <ele>18.799999237061</ele>
        <time>2021-12-19T08:14:37.000Z</time>
      </trkpt>
      <trkpt lat="47.2503" lon="-2.32519">
        <ele>19.200000762939</ele>
        <time>2021-12-19T08:14:38.000Z</time>
      </trkpt>
      <trkpt lat="47.25032" lon="-2.32515">
        <ele>19.60000038147</ele>
        <time>2021-12-19T08:14:39.000Z</time>
      </trkpt>
      <trkpt lat="47.25035" lon="-2.32512">
        <ele>20.200000762939</ele>
        <time>2021-12-19T08:14:40.000Z</time>
      </trkpt>
      <trkpt lat="47.25038" lon="-2.32509">
        <ele>20.200000762939</ele>
        <time>2021-12-19T08:14:41.000Z</time>
      </trkpt>
      <trkpt lat="47.25062" lon="-2.32495">
        <ele>20.200000762939</ele>
        <time>2021-12-19T08:14:47.000Z</time>
      </trkpt>
      <trkpt lat="47.2507" lon="-2.32492">
        <ele>20.60000038147</ele>
        <time>2021-12-19T08:14:49.000Z</time>
      </trkpt>
      <trkpt lat="47.25074" lon="-2.32491">
        <ele>21</ele>
        <time>2021-12-19T08:14:50.000Z</time>
      </trkpt>
      <trkpt lat="47.25078" lon="-2.32489">
        <ele>21.39999961853</ele>
        <time>2021-12-19T08:14:51.000Z</time>
      </trkpt>
      <trkpt lat="47.25082" lon="-2.32487">
        <ele>22.39999961853</ele>
        <time>2021-12-19T08:14:52.000Z</time>
      </trkpt>
      <trkpt lat="47.25094" lon="-2.3248">
        <ele>22.39999961853</ele>
        <time>2021-12-19T08:14:55.000Z</time>
      </trkpt>
      <trkpt lat="47.25097" lon="-2.32477">
        <ele>22.39999961853</ele>
        <time>2021-12-19T08:14:56.000Z</time>
      </trkpt>
      <trkpt lat="47.25106" lon="-2.32456">
        <ele>22.39999961853</ele>
        <time>2021-12-19T08:15:00.000Z</time>
      </trkpt>
      <trkpt lat="47.25106" lon="-2.32433">
        <ele>22.39999961853</ele>
        <time>2021-12-19T08:15:04.000Z</time>
      </trkpt>
      <trkpt lat="47.25106" lon="-2.32416">
        <ele>22.799999237061</ele>
        <time>2021-12-19T08:15:07.000Z</time>
      </trkpt>
      <trkpt lat="47.25106" lon="-2.3241">
        <ele>23.200000762939</ele>
        <time>2021-12-19T08:15:08.000Z</time>
      </trkpt>
      <trkpt lat="47.25106" lon="-2.32404">
        <ele>23.60000038147</ele>
        <time>2021-12-19T08:15:09.000Z</time>
      </trkpt>
      <trkpt lat="47.25105" lon="-2.32398">
        <ele>24.200000762939</ele>
        <time>2021-12-19T08:15:10.000Z</time>
      </trkpt>
      <trkpt lat="47.25105" lon="-2.32391">
        <ele>24.60000038147</ele>
        <time>2021-12-19T08:15:11.000Z</time>
      </trkpt>
      <trkpt lat="47.25104" lon="-2.32373">
        <ele>24.60000038147</ele>
        <time>2021-12-19T08:15:14.000Z</time>
      </trkpt>
      <trkpt lat="47.25106" lon="-2.32362">
        <ele>24.60000038147</ele>
        <time>2021-12-19T08:15:16.000Z</time>
      </trkpt>
      <trkpt lat="47.25115" lon="-2.32331">
        <ele>25</ele>
        <time>2021-12-19T08:15:22.000Z</time>
      </trkpt>
      <trkpt lat="47.25116" lon="-2.32326">
        <ele>25.39999961853</ele>
        <time>2021-12-19T08:15:23.000Z</time>
      </trkpt>
      <trkpt lat="47.25118" lon="-2.32321">
        <ele>25.799999237061</ele>
        <time>2021-12-19T08:15:24.000Z</time>
      </trkpt>
      <trkpt lat="47.2512" lon="-2.32317">
        <ele>26.200000762939</ele>
        <time>2021-12-19T08:15:25.000Z</time>
      </trkpt>
      <trkpt lat="47.25122" lon="-2.32313">
        <ele>26.60000038147</ele>
        <time>2021-12-19T08:15:26.000Z</time>
      </trkpt>
      <trkpt lat="47.25133" lon="-2.32297">
        <ele>26.60000038147</ele>
        <time>2021-12-19T08:15:30.000Z</time>
      </trkpt>
      <trkpt lat="47.25134" lon="-2.32292">
        <ele>26.60000038147</ele>
        <time>2021-12-19T08:15:31.000Z</time>
      </trkpt>
      <trkpt lat="47.25134" lon="-2.3228">
        <ele>26.60000038147</ele>
        <time>2021-12-19T08:15:33.000Z</time>
      </trkpt>
      <trkpt lat="47.25133" lon="-2.32275">
        <ele>27.200000762939</ele>
        <time>2021-12-19T08:15:34.000Z</time>
      </trkpt>
      <trkpt lat="47.25132" lon="-2.32269">
        <ele>27.60000038147</ele>
        <time>2021-12-19T08:15:35.000Z</time>
      </trkpt>
      <trkpt lat="47.25132" lon="-2.32263">
        <ele>28</ele>
        <time>2021-12-19T08:15:36.000Z</time>
      </trkpt>
      <trkpt lat="47.25131" lon="-2.32257">
        <ele>28.39999961853</ele>
        <time>2021-12-19T08:15:37.000Z</time>
      </trkpt>
      <trkpt lat="47.2513" lon="-2.32251">
        <ele>28.799999237061</ele>
        <time>2021-12-19T08:15:38.000Z</time>
      </trkpt>
      <trkpt lat="47.25129" lon="-2.32233">
        <ele>28.799999237061</ele>
        <time>2021-12-19T08:15:41.000Z</time>
      </trkpt>
      <trkpt lat="47.25128" lon="-2.32215">
        <ele>28.799999237061</ele>
        <time>2021-12-19T08:15:44.000Z</time>
      </trkpt>
      <trkpt lat="47.25127" lon="-2.32196">
        <ele>28.799999237061</ele>
        <time>2021-12-19T08:15:47.000Z</time>
      </trkpt>
      <trkpt lat="47.25124" lon="-2.32158">
        <ele>28.799999237061</ele>
        <time>2021-12-19T08:15:53.000Z</time>
      </trkpt>
      <trkpt lat="47.2512" lon="-2.32102">
        <ele>28.799999237061</ele>
        <time>2021-12-19T08:16:01.000Z</time>
      </trkpt>
      <trkpt lat="47.25116" lon="-2.32044">
        <ele>28.799999237061</ele>
        <time>2021-12-19T08:16:09.000Z</time>
      </trkpt>
      <trkpt lat="47.25111" lon="-2.31987">
        <ele>28.799999237061</ele>
        <time>2021-12-19T08:16:17.000Z</time>
      </trkpt>
      <trkpt lat="47.25109" lon="-2.31981">
        <ele>28.799999237061</ele>
        <time>2021-12-19T08:16:18.000Z</time>
      </trkpt>
      <trkpt lat="47.25106" lon="-2.31969">
        <ele>28.799999237061</ele>
        <time>2021-12-19T08:16:20.000Z</time>
      </trkpt>
      <trkpt lat="47.25106" lon="-2.31948">
        <ele>28.799999237061</ele>
        <time>2021-12-19T08:16:23.000Z</time>
      </trkpt>
      <trkpt lat="47.25099" lon="-2.31895">
        <ele>28.799999237061</ele>
        <time>2021-12-19T08:16:31.000Z</time>
      </trkpt>
      <trkpt lat="47.25092" lon="-2.31848">
        <ele>28.799999237061</ele>
        <time>2021-12-19T08:16:38.000Z</time>
      </trkpt>
      <trkpt lat="47.25083" lon="-2.31802">
        <ele>28.799999237061</ele>
        <time>2021-12-19T08:16:45.000Z</time>
      </trkpt>
      <trkpt lat="47.25069" lon="-2.31747">
        <ele>28.799999237061</ele>
        <time>2021-12-19T08:16:54.000Z</time>
      </trkpt>
      <trkpt lat="47.25066" lon="-2.31734">
        <ele>29.39999961853</ele>
        <time>2021-12-19T08:16:56.000Z</time>
      </trkpt>
      <trkpt lat="47.25064" lon="-2.31728">
        <ele>29.799999237061</ele>
        <time>2021-12-19T08:16:57.000Z</time>
      </trkpt>
      <trkpt lat="47.25063" lon="-2.31722">
        <ele>30.200000762939</ele>
        <time>2021-12-19T08:16:58.000Z</time>
      </trkpt>
      <trkpt lat="47.25061" lon="-2.31716">
        <ele>30.60000038147</ele>
        <time>2021-12-19T08:16:59.000Z</time>
      </trkpt>
      <trkpt lat="47.2506" lon="-2.3171">
        <ele>31</ele>
        <time>2021-12-19T08:17:00.000Z</time>
      </trkpt>
      <trkpt lat="47.25057" lon="-2.31698">
        <ele>31</ele>
        <time>2021-12-19T08:17:02.000Z</time>
      </trkpt>
      <trkpt lat="47.25048" lon="-2.3166">
        <ele>31</ele>
        <time>2021-12-19T08:17:09.000Z</time>
      </trkpt>
      <trkpt lat="47.25043" lon="-2.3165">
        <ele>31</ele>
        <time>2021-12-19T08:17:12.000Z</time>
      </trkpt>
      <trkpt lat="47.2504" lon="-2.3165">
        <ele>31</ele>
        <time>2021-12-19T08:17:13.000Z</time>
      </trkpt>
      <trkpt lat="47.25029" lon="-2.31659">
        <ele>31</ele>
        <time>2021-12-19T08:17:17.000Z</time>
      </trkpt>
      <trkpt lat="47.25026" lon="-2.31662">
        <ele>31</ele>
        <time>2021-12-19T08:17:18.000Z</time>
      </trkpt>
      <trkpt lat="47.25008" lon="-2.31682">
        <ele>31</ele>
        <time>2021-12-19T08:17:25.000Z</time>
      </trkpt>
      <trkpt lat="47.24983" lon="-2.31703">
        <ele>31</ele>
        <time>2021-12-19T08:17:34.000Z</time>
      </trkpt>
      <trkpt lat="47.24969" lon="-2.31721">
        <ele>31</ele>
        <time>2021-12-19T08:17:39.000Z</time>
      </trkpt>
      <trkpt lat="47.24944" lon="-2.31743">
        <ele>31</ele>
        <time>2021-12-19T08:17:46.000Z</time>
      </trkpt>
      <trkpt lat="47.24912" lon="-2.31771">
        <ele>31</ele>
        <time>2021-12-19T08:17:54.000Z</time>
      </trkpt>
      <trkpt lat="47.24879" lon="-2.318">
        <ele>31</ele>
        <time>2021-12-19T08:18:02.000Z</time>
      </trkpt>
      <trkpt lat="47.24863" lon="-2.31816">
        <ele>31</ele>
        <time>2021-12-19T08:18:06.000Z</time>
      </trkpt>
      <trkpt lat="47.24854" lon="-2.31823">
        <ele>31</ele>
        <time>2021-12-19T08:18:08.000Z</time>
      </trkpt>
      <trkpt lat="47.2482" lon="-2.31855">
        <ele>30.60000038147</ele>
        <time>2021-12-19T08:18:16.000Z</time>
      </trkpt>
      <trkpt lat="47.24816" lon="-2.31858">
        <ele>30</ele>
        <time>2021-12-19T08:18:17.000Z</time>
      </trkpt>
      <trkpt lat="47.24811" lon="-2.31862">
        <ele>29.60000038147</ele>
        <time>2021-12-19T08:18:18.000Z</time>
      </trkpt>
      <trkpt lat="47.24806" lon="-2.31865">
        <ele>29.200000762939</ele>
        <time>2021-12-19T08:18:19.000Z</time>
      </trkpt>
      <trkpt lat="47.24801" lon="-2.31865">
        <ele>28.799999237061</ele>
        <time>2021-12-19T08:18:20.000Z</time>
      </trkpt>
      <trkpt lat="47.24796" lon="-2.31864">
        <ele>28.799999237061</ele>
        <time>2021-12-19T08:18:21.000Z</time>
      </trkpt>
      <trkpt lat="47.24781" lon="-2.31847">
        <ele>28.799999237061</ele>
        <time>2021-12-19T08:18:25.000Z</time>
      </trkpt>
      <trkpt lat="47.24777" lon="-2.31843">
        <ele>28.799999237061</ele>
        <time>2021-12-19T08:18:26.000Z</time>
      </trkpt>
      <trkpt lat="47.24774" lon="-2.31837">
        <ele>28.799999237061</ele>
        <time>2021-12-19T08:18:27.000Z</time>
      </trkpt>
      <trkpt lat="47.24767" lon="-2.31827">
        <ele>28.799999237061</ele>
        <time>2021-12-19T08:18:29.000Z</time>
      </trkpt>
      <trkpt lat="47.24759" lon="-2.31815">
        <ele>28.799999237061</ele>
        <time>2021-12-19T08:18:31.000Z</time>
      </trkpt>
      <trkpt lat="47.24734" lon="-2.31779">
        <ele>28.799999237061</ele>
        <time>2021-12-19T08:18:38.000Z</time>
      </trkpt>
      <trkpt lat="47.24715" lon="-2.31747">
        <ele>28.799999237061</ele>
        <time>2021-12-19T08:18:44.000Z</time>
      </trkpt>
      <trkpt lat="47.24712" lon="-2.31743">
        <ele>28.799999237061</ele>
        <time>2021-12-19T08:18:45.000Z</time>
      </trkpt>
      <trkpt lat="47.24697" lon="-2.31719">
        <ele>28.799999237061</ele>
        <time>2021-12-19T08:18:50.000Z</time>
      </trkpt>
      <trkpt lat="47.2469" lon="-2.31711">
        <ele>28.799999237061</ele>
        <time>2021-12-19T08:18:52.000Z</time>
      </trkpt>
      <trkpt lat="47.24667" lon="-2.31677">
        <ele>28.799999237061</ele>
        <time>2021-12-19T08:19:00.000Z</time>
      </trkpt>
      <trkpt lat="47.24655" lon="-2.31661">
        <ele>28.799999237061</ele>
        <time>2021-12-19T08:19:04.000Z</time>
      </trkpt>
      <trkpt lat="47.24647" lon="-2.31648">
        <ele>28.799999237061</ele>
        <time>2021-12-19T08:19:07.000Z</time>
      </trkpt>
      <trkpt lat="47.24626" lon="-2.31615">
        <ele>28.799999237061</ele>
        <time>2021-12-19T08:19:14.000Z</time>
      </trkpt>
      <trkpt lat="47.24598" lon="-2.3157">
        <ele>28.799999237061</ele>
        <time>2021-12-19T08:19:23.000Z</time>
      </trkpt>
      <trkpt lat="47.24594" lon="-2.31558">
        <ele>28.799999237061</ele>
        <time>2021-12-19T08:19:25.000Z</time>
      </trkpt>
      <trkpt lat="47.2459" lon="-2.31538">
        <ele>28.799999237061</ele>
        <time>2021-12-19T08:19:28.000Z</time>
      </trkpt>
      <trkpt lat="47.2459" lon="-2.31531">
        <ele>28.799999237061</ele>
        <time>2021-12-19T08:19:29.000Z</time>
      </trkpt>
      <trkpt lat="47.24586" lon="-2.31486">
        <ele>28.799999237061</ele>
        <time>2021-12-19T08:19:36.000Z</time>
      </trkpt>
      <trkpt lat="47.24581" lon="-2.31442">
        <ele>28.799999237061</ele>
        <time>2021-12-19T08:19:43.000Z</time>
      </trkpt>
      <trkpt lat="47.24578" lon="-2.31393">
        <ele>28.799999237061</ele>
        <time>2021-12-19T08:19:51.000Z</time>
      </trkpt>
      <trkpt lat="47.24574" lon="-2.31388">
        <ele>28.799999237061</ele>
        <time>2021-12-19T08:19:53.000Z</time>
      </trkpt>
      <trkpt lat="47.24572" lon="-2.31387">
        <ele>28.799999237061</ele>
        <time>2021-12-19T08:19:54.000Z</time>
      </trkpt>
      <trkpt lat="47.24561" lon="-2.31391">
        <ele>28.799999237061</ele>
        <time>2021-12-19T08:19:58.000Z</time>
      </trkpt>
      <trkpt lat="47.2454" lon="-2.31387">
        <ele>28.799999237061</ele>
        <time>2021-12-19T08:20:03.000Z</time>
      </trkpt>
      <trkpt lat="47.2452" lon="-2.31371">
        <ele>28.799999237061</ele>
        <time>2021-12-19T08:20:08.000Z</time>
      </trkpt>
      <trkpt lat="47.24515" lon="-2.31366">
        <ele>28.799999237061</ele>
        <time>2021-12-19T08:20:09.000Z</time>
      </trkpt>
      <trkpt lat="47.24507" lon="-2.31357">
        <ele>28.799999237061</ele>
        <time>2021-12-19T08:20:11.000Z</time>
      </trkpt>
      <trkpt lat="47.24501" lon="-2.31343">
        <ele>28.39999961853</ele>
        <time>2021-12-19T08:20:13.000Z</time>
      </trkpt>
      <trkpt lat="47.24499" lon="-2.31338">
        <ele>27.60000038147</ele>
        <time>2021-12-19T08:20:14.000Z</time>
      </trkpt>
      <trkpt lat="47.24497" lon="-2.31332">
        <ele>27.200000762939</ele>
        <time>2021-12-19T08:20:15.000Z</time>
      </trkpt>
      <trkpt lat="47.24494" lon="-2.31328">
        <ele>26.799999237061</ele>
        <time>2021-12-19T08:20:16.000Z</time>
      </trkpt>
      <trkpt lat="47.24492" lon="-2.31325">
        <ele>26.39999961853</ele>
        <time>2021-12-19T08:20:17.000Z</time>
      </trkpt>
      <trkpt lat="47.2449" lon="-2.31321">
        <ele>26</ele>
        <time>2021-12-19T08:20:18.000Z</time>
      </trkpt>
      <trkpt lat="47.24488" lon="-2.31316">
        <ele>25.60000038147</ele>
        <time>2021-12-19T08:20:19.000Z</time>
      </trkpt>
      <trkpt lat="47.24484" lon="-2.31311">
        <ele>25.200000762939</ele>
        <time>2021-12-19T08:20:20.000Z</time>
      </trkpt>
      <trkpt lat="47.24481" lon="-2.31305">
        <ele>24.799999237061</ele>
        <time>2021-12-19T08:20:21.000Z</time>
      </trkpt>
      <trkpt lat="47.24478" lon="-2.31298">
        <ele>24.799999237061</ele>
        <time>2021-12-19T08:20:22.000Z</time>
      </trkpt>
      <trkpt lat="47.24459" lon="-2.3126">
        <ele>24.799999237061</ele>
        <time>2021-12-19T08:20:27.000Z</time>
      </trkpt>
      <trkpt lat="47.24457" lon="-2.31252">
        <ele>24.799999237061</ele>
        <time>2021-12-19T08:20:28.000Z</time>
      </trkpt>
      <trkpt lat="47.24446" lon="-2.31227">
        <ele>24.200000762939</ele>
        <time>2021-12-19T08:20:32.000Z</time>
      </trkpt>
      <trkpt lat="47.24443" lon="-2.31224">
        <ele>23.799999237061</ele>
        <time>2021-12-19T08:20:33.000Z</time>
      </trkpt>
      <trkpt lat="47.24439" lon="-2.31224">
        <ele>23.200000762939</ele>
        <time>2021-12-19T08:20:34.000Z</time>
      </trkpt>
      <trkpt lat="47.24436" lon="-2.31226">
        <ele>22.799999237061</ele>
        <time>2021-12-19T08:20:35.000Z</time>
      </trkpt>
      <trkpt lat="47.24433" lon="-2.31229">
        <ele>22.200000762939</ele>
        <time>2021-12-19T08:20:36.000Z</time>
      </trkpt>
      <trkpt lat="47.24429" lon="-2.31231">
        <ele>21.60000038147</ele>
        <time>2021-12-19T08:20:37.000Z</time>
      </trkpt>
      <trkpt lat="47.24426" lon="-2.31228">
        <ele>20.39999961853</ele>
        <time>2021-12-19T08:20:38.000Z</time>
      </trkpt>
      <trkpt lat="47.24423" lon="-2.31225">
        <ele>19.799999237061</ele>
        <time>2021-12-19T08:20:39.000Z</time>
      </trkpt>
      <trkpt lat="47.24416" lon="-2.31207">
        <ele>19.799999237061</ele>
        <time>2021-12-19T08:20:43.000Z</time>
      </trkpt>
      <trkpt lat="47.24415" lon="-2.31203">
        <ele>19.799999237061</ele>
        <time>2021-12-19T08:20:44.000Z</time>
      </trkpt>
      <trkpt lat="47.24413" lon="-2.31195">
        <ele>19.799999237061</ele>
        <time>2021-12-19T08:20:47.000Z</time>
      </trkpt>
      <trkpt lat="47.24411" lon="-2.31192">
        <ele>20.200000762939</ele>
        <time>2021-12-19T08:20:48.000Z</time>
      </trkpt>
      <trkpt lat="47.24408" lon="-2.3119">
        <ele>20.60000038147</ele>
        <time>2021-12-19T08:20:49.000Z</time>
      </trkpt>
      <trkpt lat="47.24405" lon="-2.31187">
        <ele>21</ele>
        <time>2021-12-19T08:20:50.000Z</time>
      </trkpt>
      <trkpt lat="47.24401" lon="-2.31185">
        <ele>21.39999961853</ele>
        <time>2021-12-19T08:20:51.000Z</time>
      </trkpt>
      <trkpt lat="47.24398" lon="-2.31181">
        <ele>21.799999237061</ele>
        <time>2021-12-19T08:20:52.000Z</time>
      </trkpt>
      <trkpt lat="47.24383" lon="-2.31163">
        <ele>21.799999237061</ele>
        <time>2021-12-19T08:20:56.000Z</time>
      </trkpt>
      <trkpt lat="47.24377" lon="-2.31154">
        <ele>21.799999237061</ele>
        <time>2021-12-19T08:20:58.000Z</time>
      </trkpt>
      <trkpt lat="47.24369" lon="-2.3114">
        <ele>21.799999237061</ele>
        <time>2021-12-19T08:21:01.000Z</time>
      </trkpt>
      <trkpt lat="47.24359" lon="-2.31117">
        <ele>21.799999237061</ele>
        <time>2021-12-19T08:21:05.000Z</time>
      </trkpt>
      <trkpt lat="47.24356" lon="-2.31111">
        <ele>21.799999237061</ele>
        <time>2021-12-19T08:21:06.000Z</time>
      </trkpt>
      <trkpt lat="47.24347" lon="-2.31081">
        <ele>21.799999237061</ele>
        <time>2021-12-19T08:21:12.000Z</time>
      </trkpt>
      <trkpt lat="47.24341" lon="-2.31064">
        <ele>21.799999237061</ele>
        <time>2021-12-19T08:21:15.000Z</time>
      </trkpt>
      <trkpt lat="47.24334" lon="-2.3105">
        <ele>21.799999237061</ele>
        <time>2021-12-19T08:21:18.000Z</time>
      </trkpt>
      <trkpt lat="47.2432" lon="-2.31038">
        <ele>21.799999237061</ele>
        <time>2021-12-19T08:21:22.000Z</time>
      </trkpt>
      <trkpt lat="47.2431" lon="-2.31035">
        <ele>21.799999237061</ele>
        <time>2021-12-19T08:21:24.000Z</time>
      </trkpt>
      <trkpt lat="47.24305" lon="-2.31034">
        <ele>21.799999237061</ele>
        <time>2021-12-19T08:21:25.000Z</time>
      </trkpt>
      <trkpt lat="47.24294" lon="-2.31034">
        <ele>21.799999237061</ele>
        <time>2021-12-19T08:21:27.000Z</time>
      </trkpt>
      <trkpt lat="47.24281" lon="-2.31034">
        <ele>21.39999961853</ele>
        <time>2021-12-19T08:21:30.000Z</time>
      </trkpt>
      <trkpt lat="47.24278" lon="-2.3103">
        <ele>21</ele>
        <time>2021-12-19T08:21:31.000Z</time>
      </trkpt>
      <trkpt lat="47.24277" lon="-2.31025">
        <ele>20.60000038147</ele>
        <time>2021-12-19T08:21:32.000Z</time>
      </trkpt>
      <trkpt lat="47.24278" lon="-2.31019">
        <ele>20.200000762939</ele>
        <time>2021-12-19T08:21:33.000Z</time>
      </trkpt>
      <trkpt lat="47.24279" lon="-2.31012">
        <ele>19.799999237061</ele>
        <time>2021-12-19T08:21:34.000Z</time>
      </trkpt>
      <trkpt lat="47.2428" lon="-2.31007">
        <ele>19.799999237061</ele>
        <time>2021-12-19T08:21:35.000Z</time>
      </trkpt>
      <trkpt lat="47.24282" lon="-2.30994">
        <ele>19.799999237061</ele>
        <time>2021-12-19T08:21:37.000Z</time>
      </trkpt>
      <trkpt lat="47.24284" lon="-2.30982">
        <ele>20.200000762939</ele>
        <time>2021-12-19T08:21:39.000Z</time>
      </trkpt>
      <trkpt lat="47.24284" lon="-2.30975">
        <ele>20.60000038147</ele>
        <time>2021-12-19T08:21:40.000Z</time>
      </trkpt>
      <trkpt lat="47.24286" lon="-2.30969">
        <ele>21.200000762939</ele>
        <time>2021-12-19T08:21:41.000Z</time>
      </trkpt>
      <trkpt lat="47.24287" lon="-2.30963">
        <ele>21.60000038147</ele>
        <time>2021-12-19T08:21:42.000Z</time>
      </trkpt>
      <trkpt lat="47.24288" lon="-2.30957">
        <ele>22</ele>
        <time>2021-12-19T08:21:43.000Z</time>
      </trkpt>
      <trkpt lat="47.24289" lon="-2.30951">
        <ele>22</ele>
        <time>2021-12-19T08:21:44.000Z</time>
      </trkpt>
      <trkpt lat="47.2429" lon="-2.30946">
        <ele>22</ele>
        <time>2021-12-19T08:21:45.000Z</time>
      </trkpt>
      <trkpt lat="47.2429" lon="-2.3094">
        <ele>22.39999961853</ele>
        <time>2021-12-19T08:21:46.000Z</time>
      </trkpt>
      <trkpt lat="47.24291" lon="-2.30934">
        <ele>23</ele>
        <time>2021-12-19T08:21:47.000Z</time>
      </trkpt>
      <trkpt lat="47.24291" lon="-2.30929">
        <ele>23.39999961853</ele>
        <time>2021-12-19T08:21:48.000Z</time>
      </trkpt>
      <trkpt lat="47.24291" lon="-2.30923">
        <ele>23.799999237061</ele>
        <time>2021-12-19T08:21:49.000Z</time>
      </trkpt>
      <trkpt lat="47.24291" lon="-2.30917">
        <ele>24.39999961853</ele>
        <time>2021-12-19T08:21:50.000Z</time>
      </trkpt>
      <trkpt lat="47.24287" lon="-2.3089">
        <ele>24.799999237061</ele>
        <time>2021-12-19T08:21:55.000Z</time>
      </trkpt>
      <trkpt lat="47.24287" lon="-2.30885">
        <ele>25.200000762939</ele>
        <time>2021-12-19T08:21:56.000Z</time>
      </trkpt>
      <trkpt lat="47.24286" lon="-2.3088">
        <ele>25.60000038147</ele>
        <time>2021-12-19T08:21:57.000Z</time>
      </trkpt>
      <trkpt lat="47.24286" lon="-2.30875">
        <ele>26</ele>
        <time>2021-12-19T08:21:58.000Z</time>
      </trkpt>
      <trkpt lat="47.24285" lon="-2.3087">
        <ele>26.39999961853</ele>
        <time>2021-12-19T08:21:59.000Z</time>
      </trkpt>
      <trkpt lat="47.24285" lon="-2.30859">
        <ele>26.39999961853</ele>
        <time>2021-12-19T08:22:01.000Z</time>
      </trkpt>
      <trkpt lat="47.2429" lon="-2.30834">
        <ele>26.39999961853</ele>
        <time>2021-12-19T08:22:06.000Z</time>
      </trkpt>
      <trkpt lat="47.24301" lon="-2.30815">
        <ele>26.799999237061</ele>
        <time>2021-12-19T08:22:11.000Z</time>
      </trkpt>
      <trkpt lat="47.24305" lon="-2.30812">
        <ele>27.200000762939</ele>
        <time>2021-12-19T08:22:12.000Z</time>
      </trkpt>
      <trkpt lat="47.24309" lon="-2.3081">
        <ele>27.799999237061</ele>
        <time>2021-12-19T08:22:13.000Z</time>
      </trkpt>
      <trkpt lat="47.24314" lon="-2.30807">
        <ele>28.200000762939</ele>
        <time>2021-12-19T08:22:14.000Z</time>
      </trkpt>
      <trkpt lat="47.24318" lon="-2.30805">
        <ele>28.60000038147</ele>
        <time>2021-12-19T08:22:15.000Z</time>
      </trkpt>
      <trkpt lat="47.2433" lon="-2.30799">
        <ele>28.60000038147</ele>
        <time>2021-12-19T08:22:18.000Z</time>
      </trkpt>
      <trkpt lat="47.24359" lon="-2.30787">
        <ele>28.60000038147</ele>
        <time>2021-12-19T08:22:25.000Z</time>
      </trkpt>
      <trkpt lat="47.24363" lon="-2.30784">
        <ele>29</ele>
        <time>2021-12-19T08:22:26.000Z</time>
      </trkpt>
      <trkpt lat="47.24366" lon="-2.30782">
        <ele>29.39999961853</ele>
        <time>2021-12-19T08:22:27.000Z</time>
      </trkpt>
      <trkpt lat="47.24369" lon="-2.30779">
        <ele>29.799999237061</ele>
        <time>2021-12-19T08:22:28.000Z</time>
      </trkpt>
      <trkpt lat="47.24372" lon="-2.30776">
        <ele>30.200000762939</ele>
        <time>2021-12-19T08:22:29.000Z</time>
      </trkpt>
      <trkpt lat="47.24374" lon="-2.30772">
        <ele>30.60000038147</ele>
        <time>2021-12-19T08:22:30.000Z</time>
      </trkpt>
      <trkpt lat="47.24377" lon="-2.30768">
        <ele>30.60000038147</ele>
        <time>2021-12-19T08:22:31.000Z</time>
      </trkpt>
      <trkpt lat="47.24383" lon="-2.30758">
        <ele>31</ele>
        <time>2021-12-19T08:22:34.000Z</time>
      </trkpt>
      <trkpt lat="47.24385" lon="-2.30756">
        <ele>31.39999961853</ele>
        <time>2021-12-19T08:22:35.000Z</time>
      </trkpt>
      <trkpt lat="47.24387" lon="-2.30753">
        <ele>32</ele>
        <time>2021-12-19T08:22:36.000Z</time>
      </trkpt>
      <trkpt lat="47.24389" lon="-2.30751">
        <ele>32.400001525879</ele>
        <time>2021-12-19T08:22:37.000Z</time>
      </trkpt>
      <trkpt lat="47.2439" lon="-2.30749">
        <ele>32.799999237061</ele>
        <time>2021-12-19T08:22:38.000Z</time>
      </trkpt>
      <trkpt lat="47.24394" lon="-2.3074">
        <ele>32.799999237061</ele>
        <time>2021-12-19T08:22:40.000Z</time>
      </trkpt>
      <trkpt lat="47.24397" lon="-2.30729">
        <ele>32.799999237061</ele>
        <time>2021-12-19T08:22:42.000Z</time>
      </trkpt>
      <trkpt lat="47.24402" lon="-2.30696">
        <ele>32.799999237061</ele>
        <time>2021-12-19T08:22:48.000Z</time>
      </trkpt>
      <trkpt lat="47.2441" lon="-2.30665">
        <ele>32.799999237061</ele>
        <time>2021-12-19T08:22:54.000Z</time>
      </trkpt>
      <trkpt lat="47.2442" lon="-2.30633">
        <ele>32.799999237061</ele>
        <time>2021-12-19T08:23:00.000Z</time>
      </trkpt>
      <trkpt lat="47.24435" lon="-2.30609">
        <ele>32.799999237061</ele>
        <time>2021-12-19T08:23:06.000Z</time>
      </trkpt>
      <trkpt lat="47.24452" lon="-2.30587">
        <ele>32.799999237061</ele>
        <time>2021-12-19T08:23:12.000Z</time>
      </trkpt>
      <trkpt lat="47.24455" lon="-2.30581">
        <ele>32.799999237061</ele>
        <time>2021-12-19T08:23:13.000Z</time>
      </trkpt>
      <trkpt lat="47.24461" lon="-2.30567">
        <ele>32.400001525879</ele>
        <time>2021-12-19T08:23:15.000Z</time>
      </trkpt>
      <trkpt lat="47.24464" lon="-2.30561">
        <ele>31.799999237061</ele>
        <time>2021-12-19T08:23:16.000Z</time>
      </trkpt>
      <trkpt lat="47.24465" lon="-2.30555">
        <ele>31.39999961853</ele>
        <time>2021-12-19T08:23:17.000Z</time>
      </trkpt>
      <trkpt lat="47.24466" lon="-2.30551">
        <ele>31</ele>
        <time>2021-12-19T08:23:18.000Z</time>
      </trkpt>
      <trkpt lat="47.24466" lon="-2.30549">
        <ele>30.60000038147</ele>
        <time>2021-12-19T08:23:19.000Z</time>
      </trkpt>
      <trkpt lat="47.24461" lon="-2.30549">
        <ele>30.60000038147</ele>
        <time>2021-12-19T08:23:21.000Z</time>
      </trkpt>
      <trkpt lat="47.24457" lon="-2.30553">
        <ele>30.200000762939</ele>
        <time>2021-12-19T08:23:23.000Z</time>
      </trkpt>
      <trkpt lat="47.24454" lon="-2.30557">
        <ele>29.60000038147</ele>
        <time>2021-12-19T08:23:24.000Z</time>
      </trkpt>
      <trkpt lat="47.2445" lon="-2.3056">
        <ele>29.200000762939</ele>
        <time>2021-12-19T08:23:25.000Z</time>
      </trkpt>
      <trkpt lat="47.24447" lon="-2.30564">
        <ele>28.799999237061</ele>
        <time>2021-12-19T08:23:26.000Z</time>
      </trkpt>
      <trkpt lat="47.24442" lon="-2.30567">
        <ele>28.39999961853</ele>
        <time>2021-12-19T08:23:27.000Z</time>
      </trkpt>
      <trkpt lat="47.24437" lon="-2.30571">
        <ele>28.39999961853</ele>
        <time>2021-12-19T08:23:28.000Z</time>
      </trkpt>
      <trkpt lat="47.24428" lon="-2.30576">
        <ele>28.39999961853</ele>
        <time>2021-12-19T08:23:30.000Z</time>
      </trkpt>
      <trkpt lat="47.24423" lon="-2.30578">
        <ele>28</ele>
        <time>2021-12-19T08:23:31.000Z</time>
      </trkpt>
      <trkpt lat="47.24418" lon="-2.3058">
        <ele>27.60000038147</ele>
        <time>2021-12-19T08:23:32.000Z</time>
      </trkpt>
      <trkpt lat="47.24414" lon="-2.30582">
        <ele>27.200000762939</ele>
        <time>2021-12-19T08:23:33.000Z</time>
      </trkpt>
      <trkpt lat="47.24409" lon="-2.30583">
        <ele>26.60000038147</ele>
        <time>2021-12-19T08:23:34.000Z</time>
      </trkpt>
      <trkpt lat="47.24405" lon="-2.30584">
        <ele>26.200000762939</ele>
        <time>2021-12-19T08:23:35.000Z</time>
      </trkpt>
      <trkpt lat="47.24401" lon="-2.30582">
        <ele>26.200000762939</ele>
        <time>2021-12-19T08:23:36.000Z</time>
      </trkpt>
      <trkpt lat="47.24397" lon="-2.3058">
        <ele>26.200000762939</ele>
        <time>2021-12-19T08:23:37.000Z</time>
      </trkpt>
      <trkpt lat="47.24387" lon="-2.30574">
        <ele>25.799999237061</ele>
        <time>2021-12-19T08:23:39.000Z</time>
      </trkpt>
      <trkpt lat="47.24382" lon="-2.3057">
        <ele>25.39999961853</ele>
        <time>2021-12-19T08:23:40.000Z</time>
      </trkpt>
      <trkpt lat="47.24378" lon="-2.30566">
        <ele>25</ele>
        <time>2021-12-19T08:23:41.000Z</time>
      </trkpt>
      <trkpt lat="47.24374" lon="-2.30562">
        <ele>24.60000038147</ele>
        <time>2021-12-19T08:23:42.000Z</time>
      </trkpt>
      <trkpt lat="47.24371" lon="-2.30557">
        <ele>24.200000762939</ele>
        <time>2021-12-19T08:23:43.000Z</time>
      </trkpt>
      <trkpt lat="47.24369" lon="-2.30551">
        <ele>24.200000762939</ele>
        <time>2021-12-19T08:23:44.000Z</time>
      </trkpt>
      <trkpt lat="47.24369" lon="-2.30544">
        <ele>24.200000762939</ele>
        <time>2021-12-19T08:23:45.000Z</time>
      </trkpt>
      <trkpt lat="47.24368" lon="-2.30523">
        <ele>24.200000762939</ele>
        <time>2021-12-19T08:23:48.000Z</time>
      </trkpt>
      <trkpt lat="47.24368" lon="-2.30517">
        <ele>24.60000038147</ele>
        <time>2021-12-19T08:23:49.000Z</time>
      </trkpt>
      <trkpt lat="47.24368" lon="-2.30512">
        <ele>25</ele>
        <time>2021-12-19T08:23:50.000Z</time>
      </trkpt>
      <trkpt lat="47.2437" lon="-2.30508">
        <ele>25.39999961853</ele>
        <time>2021-12-19T08:23:51.000Z</time>
      </trkpt>
      <trkpt lat="47.2437" lon="-2.30502">
        <ele>25.799999237061</ele>
        <time>2021-12-19T08:23:52.000Z</time>
      </trkpt>
      <trkpt lat="47.24372" lon="-2.30498">
        <ele>26.200000762939</ele>
        <time>2021-12-19T08:23:53.000Z</time>
      </trkpt>
      <trkpt lat="47.24373" lon="-2.30492">
        <ele>26.60000038147</ele>
        <time>2021-12-19T08:23:54.000Z</time>
      </trkpt>
      <trkpt lat="47.24374" lon="-2.30488">
        <ele>27</ele>
        <time>2021-12-19T08:23:55.000Z</time>
      </trkpt>
      <trkpt lat="47.24376" lon="-2.30483">
        <ele>28</ele>
        <time>2021-12-19T08:23:56.000Z</time>
      </trkpt>
      <trkpt lat="47.24377" lon="-2.30478">
        <ele>28.39999961853</ele>
        <time>2021-12-19T08:23:57.000Z</time>
      </trkpt>
      <trkpt lat="47.24379" lon="-2.30467">
        <ele>28.799999237061</ele>
        <time>2021-12-19T08:23:59.000Z</time>
      </trkpt>
      <trkpt lat="47.24379" lon="-2.30462">
        <ele>29.200000762939</ele>
        <time>2021-12-19T08:24:00.000Z</time>
      </trkpt>
      <trkpt lat="47.24379" lon="-2.30457">
        <ele>29.60000038147</ele>
        <time>2021-12-19T08:24:01.000Z</time>
      </trkpt>
      <trkpt lat="47.24378" lon="-2.30454">
        <ele>30</ele>
        <time>2021-12-19T08:24:02.000Z</time>
      </trkpt>
      <trkpt lat="47.24377" lon="-2.3045">
        <ele>30.39999961853</ele>
        <time>2021-12-19T08:24:03.000Z</time>
      </trkpt>
      <trkpt lat="47.24374" lon="-2.30448">
        <ele>30.39999961853</ele>
        <time>2021-12-19T08:24:05.000Z</time>
      </trkpt>
      <trkpt lat="47.24371" lon="-2.3045">
        <ele>30.39999961853</ele>
        <time>2021-12-19T08:24:06.000Z</time>
      </trkpt>
      <trkpt lat="47.2436" lon="-2.30452">
        <ele>30.39999961853</ele>
        <time>2021-12-19T08:24:10.000Z</time>
      </trkpt>
      <trkpt lat="47.24356" lon="-2.30451">
        <ele>30.39999961853</ele>
        <time>2021-12-19T08:24:11.000Z</time>
      </trkpt>
      <trkpt lat="47.24341" lon="-2.30444">
        <ele>30.799999237061</ele>
        <time>2021-12-19T08:24:15.000Z</time>
      </trkpt>
      <trkpt lat="47.24337" lon="-2.30442">
        <ele>31.200000762939</ele>
        <time>2021-12-19T08:24:16.000Z</time>
      </trkpt>
      <trkpt lat="47.24333" lon="-2.3044">
        <ele>31.60000038147</ele>
        <time>2021-12-19T08:24:17.000Z</time>
      </trkpt>
      <trkpt lat="47.24329" lon="-2.30438">
        <ele>32</ele>
        <time>2021-12-19T08:24:18.000Z</time>
      </trkpt>
      <trkpt lat="47.24324" lon="-2.30435">
        <ele>32.400001525879</ele>
        <time>2021-12-19T08:24:19.000Z</time>
      </trkpt>
      <trkpt lat="47.24314" lon="-2.3043">
        <ele>32.400001525879</ele>
        <time>2021-12-19T08:24:22.000Z</time>
      </trkpt>
      <trkpt lat="47.24301" lon="-2.30422">
        <ele>32.400001525879</ele>
        <time>2021-12-19T08:24:26.000Z</time>
      </trkpt>
      <trkpt lat="47.24286" lon="-2.30409">
        <ele>32.400001525879</ele>
        <time>2021-12-19T08:24:31.000Z</time>
      </trkpt>
      <trkpt lat="47.24267" lon="-2.30384">
        <ele>32.400001525879</ele>
        <time>2021-12-19T08:24:37.000Z</time>
      </trkpt>
      <trkpt lat="47.24256" lon="-2.30364">
        <ele>32.799999237061</ele>
        <time>2021-12-19T08:24:41.000Z</time>
      </trkpt>
      <trkpt lat="47.24253" lon="-2.30358">
        <ele>33.200000762939</ele>
        <time>2021-12-19T08:24:42.000Z</time>
      </trkpt>
      <trkpt lat="47.2425" lon="-2.30353">
        <ele>33.799999237061</ele>
        <time>2021-12-19T08:24:43.000Z</time>
      </trkpt>
      <trkpt lat="47.24247" lon="-2.30348">
        <ele>34.200000762939</ele>
        <time>2021-12-19T08:24:44.000Z</time>
      </trkpt>
      <trkpt lat="47.24244" lon="-2.30342">
        <ele>34.599998474121</ele>
        <time>2021-12-19T08:24:45.000Z</time>
      </trkpt>
      <trkpt lat="47.24229" lon="-2.30324">
        <ele>34.599998474121</ele>
        <time>2021-12-19T08:24:50.000Z</time>
      </trkpt>
      <trkpt lat="47.24226" lon="-2.30326">
        <ele>34.599998474121</ele>
        <time>2021-12-19T08:24:51.000Z</time>
      </trkpt>
      <trkpt lat="47.24218" lon="-2.3033">
        <ele>34</ele>
        <time>2021-12-19T08:24:53.000Z</time>
      </trkpt>
      <trkpt lat="47.24213" lon="-2.3033">
        <ele>33.400001525879</ele>
        <time>2021-12-19T08:24:54.000Z</time>
      </trkpt>
      <trkpt lat="47.24208" lon="-2.3033">
        <ele>33</ele>
        <time>2021-12-19T08:24:55.000Z</time>
      </trkpt>
      <trkpt lat="47.24204" lon="-2.30328">
        <ele>32.400001525879</ele>
        <time>2021-12-19T08:24:56.000Z</time>
      </trkpt>
      <trkpt lat="47.24201" lon="-2.30322">
        <ele>31.799999237061</ele>
        <time>2021-12-19T08:24:57.000Z</time>
      </trkpt>
      <trkpt lat="47.24199" lon="-2.30317">
        <ele>31.200000762939</ele>
        <time>2021-12-19T08:24:58.000Z</time>
      </trkpt>
      <trkpt lat="47.24198" lon="-2.3031">
        <ele>30.60000038147</ele>
        <time>2021-12-19T08:24:59.000Z</time>
      </trkpt>
      <trkpt lat="47.24197" lon="-2.30302">
        <ele>30</ele>
        <time>2021-12-19T08:25:00.000Z</time>
      </trkpt>
      <trkpt lat="47.24195" lon="-2.30295">
        <ele>29.39999961853</ele>
        <time>2021-12-19T08:25:01.000Z</time>
      </trkpt>
      <trkpt lat="47.24191" lon="-2.30265">
        <ele>29.39999961853</ele>
        <time>2021-12-19T08:25:05.000Z</time>
      </trkpt>
      <trkpt lat="47.24189" lon="-2.30258">
        <ele>29.39999961853</ele>
        <time>2021-12-19T08:25:06.000Z</time>
      </trkpt>
      <trkpt lat="47.24183" lon="-2.30239">
        <ele>28.60000038147</ele>
        <time>2021-12-19T08:25:10.000Z</time>
      </trkpt>
      <trkpt lat="47.2418" lon="-2.30242">
        <ele>28.200000762939</ele>
        <time>2021-12-19T08:25:11.000Z</time>
      </trkpt>
      <trkpt lat="47.24177" lon="-2.30245">
        <ele>27.799999237061</ele>
        <time>2021-12-19T08:25:12.000Z</time>
      </trkpt>
      <trkpt lat="47.24173" lon="-2.30247">
        <ele>27.39999961853</ele>
        <time>2021-12-19T08:25:13.000Z</time>
      </trkpt>
      <trkpt lat="47.24161" lon="-2.30241">
        <ele>27.39999961853</ele>
        <time>2021-12-19T08:25:17.000Z</time>
      </trkpt>
      <trkpt lat="47.24154" lon="-2.30221">
        <ele>27.39999961853</ele>
        <time>2021-12-19T08:25:21.000Z</time>
      </trkpt>
      <trkpt lat="47.24153" lon="-2.30217">
        <ele>27.39999961853</ele>
        <time>2021-12-19T08:25:22.000Z</time>
      </trkpt>
      <trkpt lat="47.2415" lon="-2.30209">
        <ele>27.799999237061</ele>
        <time>2021-12-19T08:25:24.000Z</time>
      </trkpt>
      <trkpt lat="47.24149" lon="-2.30205">
        <ele>28.200000762939</ele>
        <time>2021-12-19T08:25:25.000Z</time>
      </trkpt>
      <trkpt lat="47.24147" lon="-2.30201">
        <ele>28.60000038147</ele>
        <time>2021-12-19T08:25:26.000Z</time>
      </trkpt>
      <trkpt lat="47.24146" lon="-2.30198">
        <ele>29.200000762939</ele>
        <time>2021-12-19T08:25:27.000Z</time>
      </trkpt>
      <trkpt lat="47.24145" lon="-2.30194">
        <ele>29.60000038147</ele>
        <time>2021-12-19T08:25:28.000Z</time>
      </trkpt>
      <trkpt lat="47.24139" lon="-2.30175">
        <ele>29.60000038147</ele>
        <time>2021-12-19T08:25:33.000Z</time>
      </trkpt>
      <trkpt lat="47.24135" lon="-2.30169">
        <ele>30</ele>
        <time>2021-12-19T08:25:35.000Z</time>
      </trkpt>
      <trkpt lat="47.24133" lon="-2.30166">
        <ele>30.39999961853</ele>
        <time>2021-12-19T08:25:36.000Z</time>
      </trkpt>
      <trkpt lat="47.24132" lon="-2.30165">
        <ele>31</ele>
        <time>2021-12-19T08:25:37.000Z</time>
      </trkpt>
      <trkpt lat="47.24131" lon="-2.30164">
        <ele>31.39999961853</ele>
        <time>2021-12-19T08:25:38.000Z</time>
      </trkpt>
      <trkpt lat="47.24129" lon="-2.30163">
        <ele>32</ele>
        <time>2021-12-19T08:25:39.000Z</time>
      </trkpt>
      <trkpt lat="47.24128" lon="-2.30163">
        <ele>32.599998474121</ele>
        <time>2021-12-19T08:25:40.000Z</time>
      </trkpt>
      <trkpt lat="47.24128" lon="-2.30162">
        <ele>33</ele>
        <time>2021-12-19T08:25:41.000Z</time>
      </trkpt>
      <trkpt lat="47.24128" lon="-2.30162">
        <ele>33.599998474121</ele>
        <time>2021-12-19T08:25:42.000Z</time>
      </trkpt>
      <trkpt lat="47.24128" lon="-2.30162">
        <ele>34.200000762939</ele>
        <time>2021-12-19T08:25:43.000Z</time>
      </trkpt>
      <trkpt lat="47.24124" lon="-2.30163">
        <ele>34.200000762939</ele>
        <time>2021-12-19T08:26:47.000Z</time>
      </trkpt>
      <trkpt lat="47.24113" lon="-2.3017">
        <ele>34.200000762939</ele>
        <time>2021-12-19T08:26:53.000Z</time>
      </trkpt>
      <trkpt lat="47.24111" lon="-2.30169">
        <ele>34.599998474121</ele>
        <time>2021-12-19T08:26:54.000Z</time>
      </trkpt>
      <trkpt lat="47.24108" lon="-2.30168">
        <ele>35</ele>
        <time>2021-12-19T08:26:55.000Z</time>
      </trkpt>
      <trkpt lat="47.24105" lon="-2.30168">
        <ele>35.400001525879</ele>
        <time>2021-12-19T08:26:56.000Z</time>
      </trkpt>
      <trkpt lat="47.24102" lon="-2.30168">
        <ele>35.799999237061</ele>
        <time>2021-12-19T08:26:57.000Z</time>
      </trkpt>
      <trkpt lat="47.24098" lon="-2.30169">
        <ele>36.200000762939</ele>
        <time>2021-12-19T08:26:58.000Z</time>
      </trkpt>
      <trkpt lat="47.24084" lon="-2.30175">
        <ele>36.200000762939</ele>
        <time>2021-12-19T08:27:02.000Z</time>
      </trkpt>
      <trkpt lat="47.24064" lon="-2.30185">
        <ele>36.200000762939</ele>
        <time>2021-12-19T08:27:07.000Z</time>
      </trkpt>
      <trkpt lat="47.24039" lon="-2.30195">
        <ele>36.200000762939</ele>
        <time>2021-12-19T08:27:14.000Z</time>
      </trkpt>
      <trkpt lat="47.24036" lon="-2.30192">
        <ele>36.200000762939</ele>
        <time>2021-12-19T08:27:16.000Z</time>
      </trkpt>
      <trkpt lat="47.24033" lon="-2.30188">
        <ele>36.200000762939</ele>
        <time>2021-12-19T08:27:18.000Z</time>
      </trkpt>
      <trkpt lat="47.2403" lon="-2.30178">
        <ele>36.200000762939</ele>
        <time>2021-12-19T08:27:24.000Z</time>
      </trkpt>
      <trkpt lat="47.24028" lon="-2.30177">
        <ele>36.200000762939</ele>
        <time>2021-12-19T08:27:25.000Z</time>
      </trkpt>
      <trkpt lat="47.2402" lon="-2.30174">
        <ele>36.200000762939</ele>
        <time>2021-12-19T08:27:29.000Z</time>
      </trkpt>
      <trkpt lat="47.24002" lon="-2.30164">
        <ele>36.200000762939</ele>
        <time>2021-12-19T08:27:33.000Z</time>
      </trkpt>
      <trkpt lat="47.2397" lon="-2.30138">
        <ele>36.200000762939</ele>
        <time>2021-12-19T08:27:40.000Z</time>
      </trkpt>
      <trkpt lat="47.23952" lon="-2.30128">
        <ele>36.200000762939</ele>
        <time>2021-12-19T08:27:45.000Z</time>
      </trkpt>
      <trkpt lat="47.23941" lon="-2.30111">
        <ele>36.200000762939</ele>
        <time>2021-12-19T08:27:52.000Z</time>
      </trkpt>
      <trkpt lat="47.23942" lon="-2.30092">
        <ele>36.200000762939</ele>
        <time>2021-12-19T08:27:57.000Z</time>
      </trkpt>
      <trkpt lat="47.23943" lon="-2.30088">
        <ele>36.200000762939</ele>
        <time>2021-12-19T08:27:58.000Z</time>
      </trkpt>
      <trkpt lat="47.23957" lon="-2.30079">
        <ele>36.200000762939</ele>
        <time>2021-12-19T08:28:00.000Z</time>
      </trkpt>
      <trkpt lat="47.2396" lon="-2.30062">
        <ele>36.200000762939</ele>
        <time>2021-12-19T08:28:03.000Z</time>
      </trkpt>
      <trkpt lat="47.23983" lon="-2.30046">
        <ele>36.599998474121</ele>
        <time>2021-12-19T08:28:07.000Z</time>
      </trkpt>
      <trkpt lat="47.23991" lon="-2.30043">
        <ele>37.200000762939</ele>
        <time>2021-12-19T08:28:08.000Z</time>
      </trkpt>
      <trkpt lat="47.23997" lon="-2.30038">
        <ele>37.599998474121</ele>
        <time>2021-12-19T08:28:09.000Z</time>
      </trkpt>
      <trkpt lat="47.23999" lon="-2.30033">
        <ele>38</ele>
        <time>2021-12-19T08:28:10.000Z</time>
      </trkpt>
      <trkpt lat="47.24002" lon="-2.30028">
        <ele>38.400001525879</ele>
        <time>2021-12-19T08:28:11.000Z</time>
      </trkpt>
      <trkpt lat="47.24008" lon="-2.3002">
        <ele>38.400001525879</ele>
        <time>2021-12-19T08:28:13.000Z</time>
      </trkpt>
      <trkpt lat="47.24023" lon="-2.29998">
        <ele>38.400001525879</ele>
        <time>2021-12-19T08:28:19.000Z</time>
      </trkpt>
      <trkpt lat="47.24043" lon="-2.29978">
        <ele>38.400001525879</ele>
        <time>2021-12-19T08:28:26.000Z</time>
      </trkpt>
      <trkpt lat="47.2405" lon="-2.29981">
        <ele>38.400001525879</ele>
        <time>2021-12-19T08:28:28.000Z</time>
      </trkpt>
      <trkpt lat="47.24055" lon="-2.29984">
        <ele>38.400001525879</ele>
        <time>2021-12-19T08:28:30.000Z</time>
      </trkpt>
      <trkpt lat="47.24063" lon="-2.29984">
        <ele>38.400001525879</ele>
        <time>2021-12-19T08:28:34.000Z</time>
      </trkpt>
      <trkpt lat="47.2407" lon="-2.29988">
        <ele>38.400001525879</ele>
        <time>2021-12-19T08:28:40.000Z</time>
      </trkpt>
      <trkpt lat="47.24075" lon="-2.29983">
        <ele>38.400001525879</ele>
        <time>2021-12-19T08:28:46.000Z</time>
      </trkpt>
      <trkpt lat="47.24076" lon="-2.29982">
        <ele>38.400001525879</ele>
        <time>2021-12-19T08:28:47.000Z</time>
      </trkpt>
      <trkpt lat="47.24079" lon="-2.29983">
        <ele>38.400001525879</ele>
        <time>2021-12-19T08:28:49.000Z</time>
      </trkpt>
      <trkpt lat="47.24083" lon="-2.29982">
        <ele>38.400001525879</ele>
        <time>2021-12-19T08:28:51.000Z</time>
      </trkpt>
      <trkpt lat="47.2409" lon="-2.29986">
        <ele>38.400001525879</ele>
        <time>2021-12-19T08:28:55.000Z</time>
      </trkpt>
      <trkpt lat="47.24093" lon="-2.29986">
        <ele>38.400001525879</ele>
        <time>2021-12-19T08:28:56.000Z</time>
      </trkpt>
      <trkpt lat="47.24096" lon="-2.29986">
        <ele>38.400001525879</ele>
        <time>2021-12-19T08:28:57.000Z</time>
      </trkpt>
      <trkpt lat="47.24106" lon="-2.29984">
        <ele>38.400001525879</ele>
        <time>2021-12-19T08:29:01.000Z</time>
      </trkpt>
      <trkpt lat="47.24113" lon="-2.29982">
        <ele>38.400001525879</ele>
        <time>2021-12-19T08:29:03.000Z</time>
      </trkpt>
      <trkpt lat="47.24131" lon="-2.29976">
        <ele>38.400001525879</ele>
        <time>2021-12-19T08:29:07.000Z</time>
      </trkpt>
      <trkpt lat="47.24134" lon="-2.29975">
        <ele>38.400001525879</ele>
        <time>2021-12-19T08:29:08.000Z</time>
      </trkpt>
      <trkpt lat="47.24151" lon="-2.29977">
        <ele>38.400001525879</ele>
        <time>2021-12-19T08:29:11.000Z</time>
      </trkpt>
      <trkpt lat="47.24153" lon="-2.29981">
        <ele>38.400001525879</ele>
        <time>2021-12-19T08:29:12.000Z</time>
      </trkpt>
      <trkpt lat="47.24164" lon="-2.29993">
        <ele>38.400001525879</ele>
        <time>2021-12-19T08:29:15.000Z</time>
      </trkpt>
      <trkpt lat="47.24168" lon="-2.29999">
        <ele>38.400001525879</ele>
        <time>2021-12-19T08:29:17.000Z</time>
      </trkpt>
      <trkpt lat="47.24174" lon="-2.30017">
        <ele>38.400001525879</ele>
        <time>2021-12-19T08:29:23.000Z</time>
      </trkpt>
      <trkpt lat="47.24167" lon="-2.30019">
        <ele>38.400001525879</ele>
        <time>2021-12-19T08:29:27.000Z</time>
      </trkpt>
      <trkpt lat="47.24162" lon="-2.30017">
        <ele>38.400001525879</ele>
        <time>2021-12-19T08:29:29.000Z</time>
      </trkpt>
      <trkpt lat="47.24157" lon="-2.30011">
        <ele>38.400001525879</ele>
        <time>2021-12-19T08:29:32.000Z</time>
      </trkpt>
      <trkpt lat="47.24155" lon="-2.3">
        <ele>38.400001525879</ele>
        <time>2021-12-19T08:29:35.000Z</time>
      </trkpt>
      <trkpt lat="47.24155" lon="-2.29994">
        <ele>38.400001525879</ele>
        <time>2021-12-19T08:29:37.000Z</time>
      </trkpt>
      <trkpt lat="47.2415" lon="-2.29984">
        <ele>38.400001525879</ele>
        <time>2021-12-19T08:29:41.000Z</time>
      </trkpt>
      <trkpt lat="47.24147" lon="-2.29984">
        <ele>38.400001525879</ele>
        <time>2021-12-19T08:29:42.000Z</time>
      </trkpt>
      <trkpt lat="47.24131" lon="-2.29984">
        <ele>38.400001525879</ele>
        <time>2021-12-19T08:29:47.000Z</time>
      </trkpt>
      <trkpt lat="47.24124" lon="-2.29985">
        <ele>38.400001525879</ele>
        <time>2021-12-19T08:29:49.000Z</time>
      </trkpt>
      <trkpt lat="47.24113" lon="-2.29983">
        <ele>38.400001525879</ele>
        <time>2021-12-19T08:29:52.000Z</time>
      </trkpt>
      <trkpt lat="47.24092" lon="-2.29978">
        <ele>38.400001525879</ele>
        <time>2021-12-19T08:29:58.000Z</time>
      </trkpt>
      <trkpt lat="47.24074" lon="-2.29981">
        <ele>38.400001525879</ele>
        <time>2021-12-19T08:30:03.000Z</time>
      </trkpt>
      <trkpt lat="47.24057" lon="-2.2998">
        <ele>38.400001525879</ele>
        <time>2021-12-19T08:30:07.000Z</time>
      </trkpt>
      <trkpt lat="47.24036" lon="-2.29975">
        <ele>38.400001525879</ele>
        <time>2021-12-19T08:30:12.000Z</time>
      </trkpt>
      <trkpt lat="47.24029" lon="-2.29968">
        <ele>38.400001525879</ele>
        <time>2021-12-19T08:30:14.000Z</time>
      </trkpt>
      <trkpt lat="47.24027" lon="-2.29964">
        <ele>38.400001525879</ele>
        <time>2021-12-19T08:30:15.000Z</time>
      </trkpt>
      <trkpt lat="47.24019" lon="-2.29949">
        <ele>38.400001525879</ele>
        <time>2021-12-19T08:30:20.000Z</time>
      </trkpt>
      <trkpt lat="47.24002" lon="-2.29953">
        <ele>38.400001525879</ele>
        <time>2021-12-19T08:30:24.000Z</time>
      </trkpt>
      <trkpt lat="47.23999" lon="-2.2995">
        <ele>38.400001525879</ele>
        <time>2021-12-19T08:30:25.000Z</time>
      </trkpt>
      <trkpt lat="47.23996" lon="-2.29942">
        <ele>38.400001525879</ele>
        <time>2021-12-19T08:30:27.000Z</time>
      </trkpt>
      <trkpt lat="47.23999" lon="-2.29927">
        <ele>38.400001525879</ele>
        <time>2021-12-19T08:30:30.000Z</time>
      </trkpt>
      <trkpt lat="47.24003" lon="-2.29913">
        <ele>38.400001525879</ele>
        <time>2021-12-19T08:30:33.000Z</time>
      </trkpt>
      <trkpt lat="47.24007" lon="-2.29899">
        <ele>38.799999237061</ele>
        <time>2021-12-19T08:30:36.000Z</time>
      </trkpt>
      <trkpt lat="47.24009" lon="-2.29894">
        <ele>39.200000762939</ele>
        <time>2021-12-19T08:30:37.000Z</time>
      </trkpt>
      <trkpt lat="47.2401" lon="-2.2989">
        <ele>39.599998474121</ele>
        <time>2021-12-19T08:30:38.000Z</time>
      </trkpt>
      <trkpt lat="47.24011" lon="-2.29885">
        <ele>40</ele>
        <time>2021-12-19T08:30:39.000Z</time>
      </trkpt>
      <trkpt lat="47.24012" lon="-2.2988">
        <ele>40.400001525879</ele>
        <time>2021-12-19T08:30:40.000Z</time>
      </trkpt>
      <trkpt lat="47.24016" lon="-2.29872">
        <ele>40.400001525879</ele>
        <time>2021-12-19T08:30:42.000Z</time>
      </trkpt>
      <trkpt lat="47.24023" lon="-2.2985">
        <ele>40.400001525879</ele>
        <time>2021-12-19T08:30:47.000Z</time>
      </trkpt>
      <trkpt lat="47.24033" lon="-2.29831">
        <ele>40.400001525879</ele>
        <time>2021-12-19T08:30:53.000Z</time>
      </trkpt>
      <trkpt lat="47.2405" lon="-2.29809">
        <ele>40.400001525879</ele>
        <time>2021-12-19T08:30:58.000Z</time>
      </trkpt>
      <trkpt lat="47.24062" lon="-2.29794">
        <ele>40.400001525879</ele>
        <time>2021-12-19T08:31:03.000Z</time>
      </trkpt>
      <trkpt lat="47.24068" lon="-2.29795">
        <ele>40.400001525879</ele>
        <time>2021-12-19T08:31:05.000Z</time>
      </trkpt>
      <trkpt lat="47.24071" lon="-2.29797">
        <ele>40.400001525879</ele>
        <time>2021-12-19T08:31:06.000Z</time>
      </trkpt>
      <trkpt lat="47.24075" lon="-2.29807">
        <ele>40.400001525879</ele>
        <time>2021-12-19T08:31:09.000Z</time>
      </trkpt>
      <trkpt lat="47.24077" lon="-2.29817">
        <ele>40.400001525879</ele>
        <time>2021-12-19T08:31:11.000Z</time>
      </trkpt>
      <trkpt lat="47.24084" lon="-2.29839">
        <ele>40.400001525879</ele>
        <time>2021-12-19T08:31:16.000Z</time>
      </trkpt>
      <trkpt lat="47.24087" lon="-2.29842">
        <ele>40.400001525879</ele>
        <time>2021-12-19T08:31:17.000Z</time>
      </trkpt>
      <trkpt lat="47.24104" lon="-2.29845">
        <ele>40.400001525879</ele>
        <time>2021-12-19T08:31:22.000Z</time>
      </trkpt>
      <trkpt lat="47.24109" lon="-2.29845">
        <ele>40.400001525879</ele>
        <time>2021-12-19T08:31:23.000Z</time>
      </trkpt>
      <trkpt lat="47.2413" lon="-2.29839">
        <ele>40.400001525879</ele>
        <time>2021-12-19T08:31:28.000Z</time>
      </trkpt>
      <trkpt lat="47.24152" lon="-2.29841">
        <ele>40.400001525879</ele>
        <time>2021-12-19T08:31:33.000Z</time>
      </trkpt>
      <trkpt lat="47.24167" lon="-2.2985">
        <ele>40.400001525879</ele>
        <time>2021-12-19T08:31:39.000Z</time>
      </trkpt>
      <trkpt lat="47.24169" lon="-2.29854">
        <ele>40.400001525879</ele>
        <time>2021-12-19T08:31:41.000Z</time>
      </trkpt>
      <trkpt lat="47.24174" lon="-2.29872">
        <ele>40.400001525879</ele>
        <time>2021-12-19T08:31:45.000Z</time>
      </trkpt>
      <trkpt lat="47.24177" lon="-2.29886">
        <ele>40.400001525879</ele>
        <time>2021-12-19T08:31:49.000Z</time>
      </trkpt>
      <trkpt lat="47.24174" lon="-2.29893">
        <ele>40.400001525879</ele>
        <time>2021-12-19T08:31:51.000Z</time>
      </trkpt>
      <trkpt lat="47.24167" lon="-2.29917">
        <ele>40.400001525879</ele>
        <time>2021-12-19T08:31:56.000Z</time>
      </trkpt>
      <trkpt lat="47.24161" lon="-2.29943">
        <ele>40.400001525879</ele>
        <time>2021-12-19T08:32:01.000Z</time>
      </trkpt>
      <trkpt lat="47.24157" lon="-2.29969">
        <ele>40.400001525879</ele>
        <time>2021-12-19T08:32:07.000Z</time>
      </trkpt>
      <trkpt lat="47.24158" lon="-2.29995">
        <ele>40.400001525879</ele>
        <time>2021-12-19T08:32:13.000Z</time>
      </trkpt>
      <trkpt lat="47.24158" lon="-2.3">
        <ele>40</ele>
        <time>2021-12-19T08:32:14.000Z</time>
      </trkpt>
      <trkpt lat="47.24158" lon="-2.30006">
        <ele>39.599998474121</ele>
        <time>2021-12-19T08:32:15.000Z</time>
      </trkpt>
      <trkpt lat="47.24159" lon="-2.3001">
        <ele>39.200000762939</ele>
        <time>2021-12-19T08:32:16.000Z</time>
      </trkpt>
      <trkpt lat="47.24159" lon="-2.30015">
        <ele>38.599998474121</ele>
        <time>2021-12-19T08:32:17.000Z</time>
      </trkpt>
      <trkpt lat="47.2416" lon="-2.30018">
        <ele>38.200000762939</ele>
        <time>2021-12-19T08:32:18.000Z</time>
      </trkpt>
      <trkpt lat="47.24172" lon="-2.30033">
        <ele>38.200000762939</ele>
        <time>2021-12-19T08:32:26.000Z</time>
      </trkpt>
      <trkpt lat="47.24173" lon="-2.30033">
        <ele>38.200000762939</ele>
        <time>2021-12-19T08:32:27.000Z</time>
      </trkpt>
      <trkpt lat="47.24174" lon="-2.30028">
        <ele>38.200000762939</ele>
        <time>2021-12-19T08:32:29.000Z</time>
      </trkpt>
      <trkpt lat="47.24175" lon="-2.30025">
        <ele>38.200000762939</ele>
        <time>2021-12-19T08:32:30.000Z</time>
      </trkpt>
      <trkpt lat="47.24172" lon="-2.30017">
        <ele>38.200000762939</ele>
        <time>2021-12-19T08:32:34.000Z</time>
      </trkpt>
      <trkpt lat="47.24171" lon="-2.30015">
        <ele>38.200000762939</ele>
        <time>2021-12-19T08:32:36.000Z</time>
      </trkpt>
      <trkpt lat="47.24167" lon="-2.30015">
        <ele>38.200000762939</ele>
        <time>2021-12-19T08:32:39.000Z</time>
      </trkpt>
      <trkpt lat="47.2416" lon="-2.30019">
        <ele>38.200000762939</ele>
        <time>2021-12-19T08:32:43.000Z</time>
      </trkpt>
      <trkpt lat="47.24161" lon="-2.30022">
        <ele>38.200000762939</ele>
        <time>2021-12-19T08:32:44.000Z</time>
      </trkpt>
      <trkpt lat="47.24162" lon="-2.3005">
        <ele>38.200000762939</ele>
        <time>2021-12-19T08:32:50.000Z</time>
      </trkpt>
      <trkpt lat="47.24156" lon="-2.30063">
        <ele>37.799999237061</ele>
        <time>2021-12-19T08:32:54.000Z</time>
      </trkpt>
      <trkpt lat="47.24153" lon="-2.30066">
        <ele>37.400001525879</ele>
        <time>2021-12-19T08:32:55.000Z</time>
      </trkpt>
      <trkpt lat="47.24149" lon="-2.30069">
        <ele>36.799999237061</ele>
        <time>2021-12-19T08:32:56.000Z</time>
      </trkpt>
      <trkpt lat="47.24146" lon="-2.30069">
        <ele>36.400001525879</ele>
        <time>2021-12-19T08:32:57.000Z</time>
      </trkpt>
      <trkpt lat="47.24144" lon="-2.30067">
        <ele>36</ele>
        <time>2021-12-19T08:32:58.000Z</time>
      </trkpt>
      <trkpt lat="47.24143" lon="-2.30064">
        <ele>36</ele>
        <time>2021-12-19T08:32:59.000Z</time>
      </trkpt>
      <trkpt lat="47.24142" lon="-2.30057">
        <ele>36</ele>
        <time>2021-12-19T08:33:01.000Z</time>
      </trkpt>
      <trkpt lat="47.24142" lon="-2.3005">
        <ele>36.400001525879</ele>
        <time>2021-12-19T08:33:03.000Z</time>
      </trkpt>
      <trkpt lat="47.24142" lon="-2.30048">
        <ele>36.799999237061</ele>
        <time>2021-12-19T08:33:04.000Z</time>
      </trkpt>
      <trkpt lat="47.24142" lon="-2.30045">
        <ele>37.400001525879</ele>
        <time>2021-12-19T08:33:05.000Z</time>
      </trkpt>
      <trkpt lat="47.24143" lon="-2.30043">
        <ele>37.799999237061</ele>
        <time>2021-12-19T08:33:06.000Z</time>
      </trkpt>
      <trkpt lat="47.24144" lon="-2.30041">
        <ele>38.400001525879</ele>
        <time>2021-12-19T08:33:07.000Z</time>
      </trkpt>
      <trkpt lat="47.24151" lon="-2.30038">
        <ele>38.400001525879</ele>
        <time>2021-12-19T08:33:11.000Z</time>
      </trkpt>
      <trkpt lat="47.24154" lon="-2.30039">
        <ele>38.400001525879</ele>
        <time>2021-12-19T08:33:12.000Z</time>
      </trkpt>
      <trkpt lat="47.24162" lon="-2.30043">
        <ele>38.400001525879</ele>
        <time>2021-12-19T08:33:15.000Z</time>
      </trkpt>
      <trkpt lat="47.24169" lon="-2.30044">
        <ele>38.400001525879</ele>
        <time>2021-12-19T08:33:19.000Z</time>
      </trkpt>
      <trkpt lat="47.24171" lon="-2.30042">
        <ele>38.400001525879</ele>
        <time>2021-12-19T08:33:20.000Z</time>
      </trkpt>
      <trkpt lat="47.24173" lon="-2.30031">
        <ele>38.400001525879</ele>
        <time>2021-12-19T08:33:24.000Z</time>
      </trkpt>
      <trkpt lat="47.24172" lon="-2.30029">
        <ele>38.400001525879</ele>
        <time>2021-12-19T08:33:25.000Z</time>
      </trkpt>
      <trkpt lat="47.2417" lon="-2.30023">
        <ele>38.400001525879</ele>
        <time>2021-12-19T08:33:30.000Z</time>
      </trkpt>
      <trkpt lat="47.24169" lon="-2.30021">
        <ele>38.400001525879</ele>
        <time>2021-12-19T08:33:31.000Z</time>
      </trkpt>
      <trkpt lat="47.24165" lon="-2.30014">
        <ele>38.400001525879</ele>
        <time>2021-12-19T08:33:34.000Z</time>
      </trkpt>
      <trkpt lat="47.24164" lon="-2.30012">
        <ele>38.799999237061</ele>
        <time>2021-12-19T08:33:35.000Z</time>
      </trkpt>
      <trkpt lat="47.24163" lon="-2.3001">
        <ele>39.200000762939</ele>
        <time>2021-12-19T08:33:36.000Z</time>
      </trkpt>
      <trkpt lat="47.24163" lon="-2.30009">
        <ele>39.599998474121</ele>
        <time>2021-12-19T08:33:37.000Z</time>
      </trkpt>
      <trkpt lat="47.24162" lon="-2.30005">
        <ele>40</ele>
        <time>2021-12-19T08:33:38.000Z</time>
      </trkpt>
      <trkpt lat="47.24166" lon="-2.29981">
        <ele>40.599998474121</ele>
        <time>2021-12-19T08:34:12.000Z</time>
      </trkpt>
      <trkpt lat="47.24178" lon="-2.29977">
        <ele>40.599998474121</ele>
        <time>2021-12-19T08:34:16.000Z</time>
      </trkpt>
      <trkpt lat="47.2419" lon="-2.29969">
        <ele>40.599998474121</ele>
        <time>2021-12-19T08:34:21.000Z</time>
      </trkpt>
      <trkpt lat="47.24208" lon="-2.2996">
        <ele>40.599998474121</ele>
        <time>2021-12-19T08:34:26.000Z</time>
      </trkpt>
      <trkpt lat="47.24228" lon="-2.2995">
        <ele>40</ele>
        <time>2021-12-19T08:34:31.000Z</time>
      </trkpt>
      <trkpt lat="47.24232" lon="-2.29947">
        <ele>39.599998474121</ele>
        <time>2021-12-19T08:34:32.000Z</time>
      </trkpt>
      <trkpt lat="47.24237" lon="-2.29943">
        <ele>39.200000762939</ele>
        <time>2021-12-19T08:34:33.000Z</time>
      </trkpt>
      <trkpt lat="47.24241" lon="-2.29939">
        <ele>38.799999237061</ele>
        <time>2021-12-19T08:34:34.000Z</time>
      </trkpt>
      <trkpt lat="47.24245" lon="-2.29934">
        <ele>38.400001525879</ele>
        <time>2021-12-19T08:34:35.000Z</time>
      </trkpt>
      <trkpt lat="47.24254" lon="-2.2992">
        <ele>38.400001525879</ele>
        <time>2021-12-19T08:34:37.000Z</time>
      </trkpt>
      <trkpt lat="47.2427" lon="-2.29909">
        <ele>38.400001525879</ele>
        <time>2021-12-19T08:34:40.000Z</time>
      </trkpt>
      <trkpt lat="47.24298" lon="-2.29887">
        <ele>38.400001525879</ele>
        <time>2021-12-19T08:34:46.000Z</time>
      </trkpt>
      <trkpt lat="47.24302" lon="-2.29884">
        <ele>38.400001525879</ele>
        <time>2021-12-19T08:34:47.000Z</time>
      </trkpt>
      <trkpt lat="47.24311" lon="-2.29866">
        <ele>38.400001525879</ele>
        <time>2021-12-19T08:34:50.000Z</time>
      </trkpt>
      <trkpt lat="47.24312" lon="-2.29846">
        <ele>38.400001525879</ele>
        <time>2021-12-19T08:34:53.000Z</time>
      </trkpt>
      <trkpt lat="47.24313" lon="-2.29839">
        <ele>38.400001525879</ele>
        <time>2021-12-19T08:34:54.000Z</time>
      </trkpt>
      <trkpt lat="47.24321" lon="-2.29813">
        <ele>38.400001525879</ele>
        <time>2021-12-19T08:34:58.000Z</time>
      </trkpt>
      <trkpt lat="47.24338" lon="-2.29804">
        <ele>38.400001525879</ele>
        <time>2021-12-19T08:35:02.000Z</time>
      </trkpt>
      <trkpt lat="47.24343" lon="-2.29803">
        <ele>38.799999237061</ele>
        <time>2021-12-19T08:35:03.000Z</time>
      </trkpt>
      <trkpt lat="47.24348" lon="-2.29801">
        <ele>39.200000762939</ele>
        <time>2021-12-19T08:35:04.000Z</time>
      </trkpt>
      <trkpt lat="47.24351" lon="-2.29798">
        <ele>39.599998474121</ele>
        <time>2021-12-19T08:35:05.000Z</time>
      </trkpt>
      <trkpt lat="47.24354" lon="-2.29795">
        <ele>40</ele>
        <time>2021-12-19T08:35:06.000Z</time>
      </trkpt>
      <trkpt lat="47.24357" lon="-2.29791">
        <ele>40.400001525879</ele>
        <time>2021-12-19T08:35:07.000Z</time>
      </trkpt>
      <trkpt lat="47.24369" lon="-2.29771">
        <ele>40.400001525879</ele>
        <time>2021-12-19T08:35:11.000Z</time>
      </trkpt>
      <trkpt lat="47.24372" lon="-2.29766">
        <ele>40.400001525879</ele>
        <time>2021-12-19T08:35:12.000Z</time>
      </trkpt>
      <trkpt lat="47.24385" lon="-2.29738">
        <ele>40.400001525879</ele>
        <time>2021-12-19T08:35:17.000Z</time>
      </trkpt>
      <trkpt lat="47.24398" lon="-2.29705">
        <ele>40.400001525879</ele>
        <time>2021-12-19T08:35:23.000Z</time>
      </trkpt>
      <trkpt lat="47.24413" lon="-2.29696">
        <ele>40.400001525879</ele>
        <time>2021-12-19T08:35:27.000Z</time>
      </trkpt>
      <trkpt lat="47.24417" lon="-2.29695">
        <ele>40.400001525879</ele>
        <time>2021-12-19T08:35:28.000Z</time>
      </trkpt>
      <trkpt lat="47.24428" lon="-2.29691">
        <ele>40.400001525879</ele>
        <time>2021-12-19T08:35:31.000Z</time>
      </trkpt>
      <trkpt lat="47.24432" lon="-2.29693">
        <ele>40.400001525879</ele>
        <time>2021-12-19T08:35:32.000Z</time>
      </trkpt>
      <trkpt lat="47.2444" lon="-2.29709">
        <ele>40.400001525879</ele>
        <time>2021-12-19T08:35:35.000Z</time>
      </trkpt>
      <trkpt lat="47.24441" lon="-2.29715">
        <ele>40.400001525879</ele>
        <time>2021-12-19T08:35:36.000Z</time>
      </trkpt>
      <trkpt lat="47.24449" lon="-2.29737">
        <ele>40.400001525879</ele>
        <time>2021-12-19T08:35:40.000Z</time>
      </trkpt>
      <trkpt lat="47.24456" lon="-2.29756">
        <ele>40.400001525879</ele>
        <time>2021-12-19T08:35:43.000Z</time>
      </trkpt>
      <trkpt lat="47.24459" lon="-2.29768">
        <ele>40.400001525879</ele>
        <time>2021-12-19T08:35:45.000Z</time>
      </trkpt>
      <trkpt lat="47.24462" lon="-2.29779">
        <ele>40.400001525879</ele>
        <time>2021-12-19T08:35:47.000Z</time>
      </trkpt>
      <trkpt lat="47.24467" lon="-2.29791">
        <ele>40.400001525879</ele>
        <time>2021-12-19T08:35:49.000Z</time>
      </trkpt>
      <trkpt lat="47.24469" lon="-2.29796">
        <ele>40.400001525879</ele>
        <time>2021-12-19T08:35:50.000Z</time>
      </trkpt>
      <trkpt lat="47.2448" lon="-2.2982">
        <ele>40.400001525879</ele>
        <time>2021-12-19T08:35:54.000Z</time>
      </trkpt>
      <trkpt lat="47.24486" lon="-2.2983">
        <ele>40.400001525879</ele>
        <time>2021-12-19T08:35:56.000Z</time>
      </trkpt>
      <trkpt lat="47.2449" lon="-2.29836">
        <ele>40.400001525879</ele>
        <time>2021-12-19T08:35:57.000Z</time>
      </trkpt>
      <trkpt lat="47.24507" lon="-2.29851">
        <ele>40.400001525879</ele>
        <time>2021-12-19T08:36:01.000Z</time>
      </trkpt>
      <trkpt lat="47.24525" lon="-2.29862">
        <ele>40.799999237061</ele>
        <time>2021-12-19T08:36:05.000Z</time>
      </trkpt>
      <trkpt lat="47.24529" lon="-2.29864">
        <ele>41.200000762939</ele>
        <time>2021-12-19T08:36:06.000Z</time>
      </trkpt>
      <trkpt lat="47.24533" lon="-2.29866">
        <ele>41.599998474121</ele>
        <time>2021-12-19T08:36:07.000Z</time>
      </trkpt>
      <trkpt lat="47.24537" lon="-2.29867">
        <ele>42</ele>
        <time>2021-12-19T08:36:08.000Z</time>
      </trkpt>
      <trkpt lat="47.24541" lon="-2.29869">
        <ele>42.400001525879</ele>
        <time>2021-12-19T08:36:09.000Z</time>
      </trkpt>
      <trkpt lat="47.24554" lon="-2.29875">
        <ele>42.400001525879</ele>
        <time>2021-12-19T08:36:12.000Z</time>
      </trkpt>
      <trkpt lat="47.24558" lon="-2.29878">
        <ele>42.400001525879</ele>
        <time>2021-12-19T08:36:13.000Z</time>
      </trkpt>
      <trkpt lat="47.24567" lon="-2.29891">
        <ele>42.400001525879</ele>
        <time>2021-12-19T08:36:16.000Z</time>
      </trkpt>
      <trkpt lat="47.24573" lon="-2.29901">
        <ele>42.400001525879</ele>
        <time>2021-12-19T08:36:18.000Z</time>
      </trkpt>
      <trkpt lat="47.24592" lon="-2.29935">
        <ele>42.400001525879</ele>
        <time>2021-12-19T08:36:24.000Z</time>
      </trkpt>
      <trkpt lat="47.24596" lon="-2.2994">
        <ele>42.400001525879</ele>
        <time>2021-12-19T08:36:25.000Z</time>
      </trkpt>
      <trkpt lat="47.2461" lon="-2.29941">
        <ele>42.400001525879</ele>
        <time>2021-12-19T08:36:28.000Z</time>
      </trkpt>
      <trkpt lat="47.24629" lon="-2.29934">
        <ele>42.400001525879</ele>
        <time>2021-12-19T08:36:32.000Z</time>
      </trkpt>
      <trkpt lat="47.24642" lon="-2.29929">
        <ele>42.400001525879</ele>
        <time>2021-12-19T08:36:35.000Z</time>
      </trkpt>
      <trkpt lat="47.24675" lon="-2.29917">
        <ele>42.400001525879</ele>
        <time>2021-12-19T08:36:42.000Z</time>
      </trkpt>
      <trkpt lat="47.24697" lon="-2.29909">
        <ele>42.400001525879</ele>
        <time>2021-12-19T08:36:48.000Z</time>
      </trkpt>
      <trkpt lat="47.24716" lon="-2.29903">
        <ele>42.400001525879</ele>
        <time>2021-12-19T08:36:54.000Z</time>
      </trkpt>
      <trkpt lat="47.24735" lon="-2.29895">
        <ele>42.400001525879</ele>
        <time>2021-12-19T08:36:59.000Z</time>
      </trkpt>
      <trkpt lat="47.24744" lon="-2.29891">
        <ele>42.799999237061</ele>
        <time>2021-12-19T08:37:01.000Z</time>
      </trkpt>
      <trkpt lat="47.24748" lon="-2.29889">
        <ele>43.400001525879</ele>
        <time>2021-12-19T08:37:02.000Z</time>
      </trkpt>
      <trkpt lat="47.24753" lon="-2.29886">
        <ele>43.799999237061</ele>
        <time>2021-12-19T08:37:03.000Z</time>
      </trkpt>
      <trkpt lat="47.24757" lon="-2.29882">
        <ele>44.200000762939</ele>
        <time>2021-12-19T08:37:04.000Z</time>
      </trkpt>
      <trkpt lat="47.24761" lon="-2.29879">
        <ele>44.599998474121</ele>
        <time>2021-12-19T08:37:05.000Z</time>
      </trkpt>
      <trkpt lat="47.24765" lon="-2.29875">
        <ele>44.599998474121</ele>
        <time>2021-12-19T08:37:06.000Z</time>
      </trkpt>
      <trkpt lat="47.24781" lon="-2.29864">
        <ele>44.599998474121</ele>
        <time>2021-12-19T08:37:10.000Z</time>
      </trkpt>
      <trkpt lat="47.24813" lon="-2.29848">
        <ele>44.599998474121</ele>
        <time>2021-12-19T08:37:17.000Z</time>
      </trkpt>
      <trkpt lat="47.24845" lon="-2.29839">
        <ele>44.599998474121</ele>
        <time>2021-12-19T08:37:24.000Z</time>
      </trkpt>
      <trkpt lat="47.24859" lon="-2.29832">
        <ele>44.599998474121</ele>
        <time>2021-12-19T08:37:28.000Z</time>
      </trkpt>
      <trkpt lat="47.24863" lon="-2.29833">
        <ele>44.599998474121</ele>
        <time>2021-12-19T08:37:29.000Z</time>
      </trkpt>
      <trkpt lat="47.24868" lon="-2.29848">
        <ele>44.599998474121</ele>
        <time>2021-12-19T08:37:32.000Z</time>
      </trkpt>
      <trkpt lat="47.24874" lon="-2.29875">
        <ele>44.599998474121</ele>
        <time>2021-12-19T08:37:36.000Z</time>
      </trkpt>
      <trkpt lat="47.24876" lon="-2.29881">
        <ele>44.599998474121</ele>
        <time>2021-12-19T08:37:37.000Z</time>
      </trkpt>
      <trkpt lat="47.24878" lon="-2.29896">
        <ele>44.599998474121</ele>
        <time>2021-12-19T08:37:39.000Z</time>
      </trkpt>
      <trkpt lat="47.24879" lon="-2.29918">
        <ele>44.599998474121</ele>
        <time>2021-12-19T08:37:42.000Z</time>
      </trkpt>
      <trkpt lat="47.2488" lon="-2.29926">
        <ele>44.599998474121</ele>
        <time>2021-12-19T08:37:43.000Z</time>
      </trkpt>
      <trkpt lat="47.24887" lon="-2.29956">
        <ele>44.599998474121</ele>
        <time>2021-12-19T08:37:47.000Z</time>
      </trkpt>
      <trkpt lat="47.249" lon="-2.30011">
        <ele>44.599998474121</ele>
        <time>2021-12-19T08:37:54.000Z</time>
      </trkpt>
      <trkpt lat="47.24903" lon="-2.30026">
        <ele>44.599998474121</ele>
        <time>2021-12-19T08:37:56.000Z</time>
      </trkpt>
      <trkpt lat="47.24904" lon="-2.30045">
        <ele>44.599998474121</ele>
        <time>2021-12-19T08:37:59.000Z</time>
      </trkpt>
      <trkpt lat="47.24905" lon="-2.30051">
        <ele>44.599998474121</ele>
        <time>2021-12-19T08:38:00.000Z</time>
      </trkpt>
      <trkpt lat="47.24911" lon="-2.30055">
        <ele>44.599998474121</ele>
        <time>2021-12-19T08:38:02.000Z</time>
      </trkpt>
      <trkpt lat="47.24919" lon="-2.30054">
        <ele>44.599998474121</ele>
        <time>2021-12-19T08:38:04.000Z</time>
      </trkpt>
      <trkpt lat="47.24933" lon="-2.30054">
        <ele>44.599998474121</ele>
        <time>2021-12-19T08:38:07.000Z</time>
      </trkpt>
      <trkpt lat="47.24968" lon="-2.30054">
        <ele>44.599998474121</ele>
        <time>2021-12-19T08:38:14.000Z</time>
      </trkpt>
      <trkpt lat="47.24999" lon="-2.30052">
        <ele>44.599998474121</ele>
        <time>2021-12-19T08:38:20.000Z</time>
      </trkpt>
      <trkpt lat="47.25004" lon="-2.30052">
        <ele>44.599998474121</ele>
        <time>2021-12-19T08:38:21.000Z</time>
      </trkpt>
      <trkpt lat="47.25028" lon="-2.30053">
        <ele>44.599998474121</ele>
        <time>2021-12-19T08:38:26.000Z</time>
      </trkpt>
      <trkpt lat="47.25037" lon="-2.30054">
        <ele>44.599998474121</ele>
        <time>2021-12-19T08:38:28.000Z</time>
      </trkpt>
      <trkpt lat="47.25061" lon="-2.30056">
        <ele>44.599998474121</ele>
        <time>2021-12-19T08:38:33.000Z</time>
      </trkpt>
      <trkpt lat="47.2507" lon="-2.30065">
        <ele>44.599998474121</ele>
        <time>2021-12-19T08:38:36.000Z</time>
      </trkpt>
      <trkpt lat="47.25068" lon="-2.30082">
        <ele>44.599998474121</ele>
        <time>2021-12-19T08:38:39.000Z</time>
      </trkpt>
      <trkpt lat="47.25068" lon="-2.30098">
        <ele>44.599998474121</ele>
        <time>2021-12-19T08:38:41.000Z</time>
      </trkpt>
      <trkpt lat="47.25067" lon="-2.30105">
        <ele>44.200000762939</ele>
        <time>2021-12-19T08:38:42.000Z</time>
      </trkpt>
      <trkpt lat="47.25067" lon="-2.30113">
        <ele>43.799999237061</ele>
        <time>2021-12-19T08:38:43.000Z</time>
      </trkpt>
      <trkpt lat="47.25067" lon="-2.30119">
        <ele>43.400001525879</ele>
        <time>2021-12-19T08:38:44.000Z</time>
      </trkpt>
      <trkpt lat="47.25066" lon="-2.30125">
        <ele>43</ele>
        <time>2021-12-19T08:38:45.000Z</time>
      </trkpt>
      <trkpt lat="47.25068" lon="-2.30131">
        <ele>42.599998474121</ele>
        <time>2021-12-19T08:38:46.000Z</time>
      </trkpt>
      <trkpt lat="47.25074" lon="-2.30137">
        <ele>42.599998474121</ele>
        <time>2021-12-19T08:38:48.000Z</time>
      </trkpt>
      <trkpt lat="47.25083" lon="-2.30138">
        <ele>42.599998474121</ele>
        <time>2021-12-19T08:38:50.000Z</time>
      </trkpt>
      <trkpt lat="47.25088" lon="-2.30138">
        <ele>42.599998474121</ele>
        <time>2021-12-19T08:38:51.000Z</time>
      </trkpt>
      <trkpt lat="47.25098" lon="-2.30136">
        <ele>42.599998474121</ele>
        <time>2021-12-19T08:38:53.000Z</time>
      </trkpt>
      <trkpt lat="47.25119" lon="-2.30131">
        <ele>42.599998474121</ele>
        <time>2021-12-19T08:38:57.000Z</time>
      </trkpt>
      <trkpt lat="47.25135" lon="-2.30129">
        <ele>42.599998474121</ele>
        <time>2021-12-19T08:39:00.000Z</time>
      </trkpt>
      <trkpt lat="47.25168" lon="-2.30119">
        <ele>42.599998474121</ele>
        <time>2021-12-19T08:39:06.000Z</time>
      </trkpt>
      <trkpt lat="47.25173" lon="-2.30119">
        <ele>42.599998474121</ele>
        <time>2021-12-19T08:39:07.000Z</time>
      </trkpt>
      <trkpt lat="47.25178" lon="-2.3012">
        <ele>42.200000762939</ele>
        <time>2021-12-19T08:39:08.000Z</time>
      </trkpt>
      <trkpt lat="47.25182" lon="-2.30123">
        <ele>41.799999237061</ele>
        <time>2021-12-19T08:39:09.000Z</time>
      </trkpt>
      <trkpt lat="47.25186" lon="-2.30129">
        <ele>41.400001525879</ele>
        <time>2021-12-19T08:39:10.000Z</time>
      </trkpt>
      <trkpt lat="47.25189" lon="-2.30136">
        <ele>40.599998474121</ele>
        <time>2021-12-19T08:39:11.000Z</time>
      </trkpt>
      <trkpt lat="47.25192" lon="-2.30142">
        <ele>40.599998474121</ele>
        <time>2021-12-19T08:39:12.000Z</time>
      </trkpt>
      <trkpt lat="47.25204" lon="-2.30157">
        <ele>40.599998474121</ele>
        <time>2021-12-19T08:39:15.000Z</time>
      </trkpt>
      <trkpt lat="47.25208" lon="-2.30162">
        <ele>40.599998474121</ele>
        <time>2021-12-19T08:39:16.000Z</time>
      </trkpt>
      <trkpt lat="47.25217" lon="-2.30173">
        <ele>40.599998474121</ele>
        <time>2021-12-19T08:39:18.000Z</time>
      </trkpt>
      <trkpt lat="47.25228" lon="-2.30178">
        <ele>40.200000762939</ele>
        <time>2021-12-19T08:39:20.000Z</time>
      </trkpt>
      <trkpt lat="47.25233" lon="-2.3018">
        <ele>39.799999237061</ele>
        <time>2021-12-19T08:39:21.000Z</time>
      </trkpt>
      <trkpt lat="47.25239" lon="-2.30182">
        <ele>39.400001525879</ele>
        <time>2021-12-19T08:39:22.000Z</time>
      </trkpt>
      <trkpt lat="47.25244" lon="-2.30184">
        <ele>39</ele>
        <time>2021-12-19T08:39:23.000Z</time>
      </trkpt>
      <trkpt lat="47.25249" lon="-2.30186">
        <ele>38.599998474121</ele>
        <time>2021-12-19T08:39:24.000Z</time>
      </trkpt>
      <trkpt lat="47.25261" lon="-2.30193">
        <ele>38.599998474121</ele>
        <time>2021-12-19T08:39:26.000Z</time>
      </trkpt>
      <trkpt lat="47.25289" lon="-2.30206">
        <ele>38.599998474121</ele>
        <time>2021-12-19T08:39:31.000Z</time>
      </trkpt>
      <trkpt lat="47.25298" lon="-2.3021">
        <ele>38</ele>
        <time>2021-12-19T08:39:33.000Z</time>
      </trkpt>
      <trkpt lat="47.25301" lon="-2.30211">
        <ele>37.599998474121</ele>
        <time>2021-12-19T08:39:34.000Z</time>
      </trkpt>
      <trkpt lat="47.25303" lon="-2.3021">
        <ele>36.799999237061</ele>
        <time>2021-12-19T08:39:35.000Z</time>
      </trkpt>
      <trkpt lat="47.25305" lon="-2.30208">
        <ele>36.200000762939</ele>
        <time>2021-12-19T08:39:36.000Z</time>
      </trkpt>
      <trkpt lat="47.25312" lon="-2.30206">
        <ele>36.200000762939</ele>
        <time>2021-12-19T08:39:39.000Z</time>
      </trkpt>
      <trkpt lat="47.25315" lon="-2.30207">
        <ele>36.200000762939</ele>
        <time>2021-12-19T08:39:40.000Z</time>
      </trkpt>
      <trkpt lat="47.2532" lon="-2.30208">
        <ele>36.200000762939</ele>
        <time>2021-12-19T08:39:41.000Z</time>
      </trkpt>
      <trkpt lat="47.2533" lon="-2.30209">
        <ele>36.200000762939</ele>
        <time>2021-12-19T08:39:43.000Z</time>
      </trkpt>
      <trkpt lat="47.25354" lon="-2.3021">
        <ele>35.799999237061</ele>
        <time>2021-12-19T08:39:49.000Z</time>
      </trkpt>
      <trkpt lat="47.25358" lon="-2.3021">
        <ele>35.400001525879</ele>
        <time>2021-12-19T08:39:50.000Z</time>
      </trkpt>
      <trkpt lat="47.25362" lon="-2.3021">
        <ele>35</ele>
        <time>2021-12-19T08:39:51.000Z</time>
      </trkpt>
      <trkpt lat="47.25367" lon="-2.3021">
        <ele>34.599998474121</ele>
        <time>2021-12-19T08:39:52.000Z</time>
      </trkpt>
      <trkpt lat="47.2537" lon="-2.3021">
        <ele>34.200000762939</ele>
        <time>2021-12-19T08:39:53.000Z</time>
      </trkpt>
      <trkpt lat="47.25378" lon="-2.30211">
        <ele>34.200000762939</ele>
        <time>2021-12-19T08:39:55.000Z</time>
      </trkpt>
      <trkpt lat="47.25393" lon="-2.30219">
        <ele>34.200000762939</ele>
        <time>2021-12-19T08:39:59.000Z</time>
      </trkpt>
      <trkpt lat="47.25402" lon="-2.30223">
        <ele>34.200000762939</ele>
        <time>2021-12-19T08:40:01.000Z</time>
      </trkpt>
      <trkpt lat="47.25417" lon="-2.30227">
        <ele>34.200000762939</ele>
        <time>2021-12-19T08:40:04.000Z</time>
      </trkpt>
      <trkpt lat="47.25426" lon="-2.30231">
        <ele>34.200000762939</ele>
        <time>2021-12-19T08:40:06.000Z</time>
      </trkpt>
      <trkpt lat="47.2543" lon="-2.30232">
        <ele>34.200000762939</ele>
        <time>2021-12-19T08:40:07.000Z</time>
      </trkpt>
      <trkpt lat="47.25435" lon="-2.30234">
        <ele>34.200000762939</ele>
        <time>2021-12-19T08:40:08.000Z</time>
      </trkpt>
      <trkpt lat="47.25458" lon="-2.30243">
        <ele>34.200000762939</ele>
        <time>2021-12-19T08:40:13.000Z</time>
      </trkpt>
      <trkpt lat="47.25467" lon="-2.30246">
        <ele>33.799999237061</ele>
        <time>2021-12-19T08:40:15.000Z</time>
      </trkpt>
      <trkpt lat="47.2547" lon="-2.30245">
        <ele>33.400001525879</ele>
        <time>2021-12-19T08:40:16.000Z</time>
      </trkpt>
      <trkpt lat="47.25472" lon="-2.30241">
        <ele>33</ele>
        <time>2021-12-19T08:40:17.000Z</time>
      </trkpt>
      <trkpt lat="47.25473" lon="-2.30236">
        <ele>32.400001525879</ele>
        <time>2021-12-19T08:40:18.000Z</time>
      </trkpt>
      <trkpt lat="47.25475" lon="-2.30231">
        <ele>32</ele>
        <time>2021-12-19T08:40:19.000Z</time>
      </trkpt>
      <trkpt lat="47.25479" lon="-2.3022">
        <ele>32</ele>
        <time>2021-12-19T08:40:21.000Z</time>
      </trkpt>
      <trkpt lat="47.25482" lon="-2.30215">
        <ele>32</ele>
        <time>2021-12-19T08:40:22.000Z</time>
      </trkpt>
      <trkpt lat="47.25494" lon="-2.30197">
        <ele>32</ele>
        <time>2021-12-19T08:40:26.000Z</time>
      </trkpt>
      <trkpt lat="47.25498" lon="-2.30197">
        <ele>32</ele>
        <time>2021-12-19T08:40:27.000Z</time>
      </trkpt>
      <trkpt lat="47.25518" lon="-2.30199">
        <ele>32</ele>
        <time>2021-12-19T08:40:32.000Z</time>
      </trkpt>
      <trkpt lat="47.25523" lon="-2.30197">
        <ele>32</ele>
        <time>2021-12-19T08:40:33.000Z</time>
      </trkpt>
      <trkpt lat="47.25539" lon="-2.30189">
        <ele>32</ele>
        <time>2021-12-19T08:40:36.000Z</time>
      </trkpt>
      <trkpt lat="47.25549" lon="-2.30187">
        <ele>32</ele>
        <time>2021-12-19T08:40:38.000Z</time>
      </trkpt>
      <trkpt lat="47.25558" lon="-2.30183">
        <ele>31.60000038147</ele>
        <time>2021-12-19T08:40:40.000Z</time>
      </trkpt>
      <trkpt lat="47.2556" lon="-2.30181">
        <ele>31.200000762939</ele>
        <time>2021-12-19T08:40:41.000Z</time>
      </trkpt>
      <trkpt lat="47.25561" lon="-2.30177">
        <ele>30.799999237061</ele>
        <time>2021-12-19T08:40:42.000Z</time>
      </trkpt>
      <trkpt lat="47.25562" lon="-2.30173">
        <ele>30.39999961853</ele>
        <time>2021-12-19T08:40:43.000Z</time>
      </trkpt>
      <trkpt lat="47.25562" lon="-2.30168">
        <ele>30</ele>
        <time>2021-12-19T08:40:44.000Z</time>
      </trkpt>
      <trkpt lat="47.25562" lon="-2.30162">
        <ele>30</ele>
        <time>2021-12-19T08:40:45.000Z</time>
      </trkpt>
      <trkpt lat="47.25564" lon="-2.30123">
        <ele>30</ele>
        <time>2021-12-19T08:40:52.000Z</time>
      </trkpt>
      <trkpt lat="47.25565" lon="-2.30117">
        <ele>30.39999961853</ele>
        <time>2021-12-19T08:40:53.000Z</time>
      </trkpt>
      <trkpt lat="47.25567" lon="-2.30111">
        <ele>30.799999237061</ele>
        <time>2021-12-19T08:40:54.000Z</time>
      </trkpt>
      <trkpt lat="47.25569" lon="-2.30106">
        <ele>31.200000762939</ele>
        <time>2021-12-19T08:40:55.000Z</time>
      </trkpt>
      <trkpt lat="47.25571" lon="-2.301">
        <ele>31.60000038147</ele>
        <time>2021-12-19T08:40:56.000Z</time>
      </trkpt>
      <trkpt lat="47.25573" lon="-2.30096">
        <ele>32</ele>
        <time>2021-12-19T08:40:57.000Z</time>
      </trkpt>
      <trkpt lat="47.25594" lon="-2.30068">
        <ele>32</ele>
        <time>2021-12-19T08:41:03.000Z</time>
      </trkpt>
      <trkpt lat="47.25598" lon="-2.30063">
        <ele>32</ele>
        <time>2021-12-19T08:41:04.000Z</time>
      </trkpt>
      <trkpt lat="47.25611" lon="-2.30042">
        <ele>32</ele>
        <time>2021-12-19T08:41:08.000Z</time>
      </trkpt>
      <trkpt lat="47.25612" lon="-2.3002">
        <ele>32</ele>
        <time>2021-12-19T08:41:11.000Z</time>
      </trkpt>
      <trkpt lat="47.25605" lon="-2.30003">
        <ele>32.400001525879</ele>
        <time>2021-12-19T08:41:14.000Z</time>
      </trkpt>
      <trkpt lat="47.25602" lon="-2.29998">
        <ele>32.799999237061</ele>
        <time>2021-12-19T08:41:15.000Z</time>
      </trkpt>
      <trkpt lat="47.25599" lon="-2.29994">
        <ele>33.200000762939</ele>
        <time>2021-12-19T08:41:16.000Z</time>
      </trkpt>
      <trkpt lat="47.25596" lon="-2.29989">
        <ele>33.599998474121</ele>
        <time>2021-12-19T08:41:17.000Z</time>
      </trkpt>
      <trkpt lat="47.25593" lon="-2.29984">
        <ele>34.200000762939</ele>
        <time>2021-12-19T08:41:18.000Z</time>
      </trkpt>
      <trkpt lat="47.25584" lon="-2.2997">
        <ele>34.200000762939</ele>
        <time>2021-12-19T08:41:21.000Z</time>
      </trkpt>
      <trkpt lat="47.25581" lon="-2.29965">
        <ele>34.200000762939</ele>
        <time>2021-12-19T08:41:22.000Z</time>
      </trkpt>
      <trkpt lat="47.25559" lon="-2.2993">
        <ele>34.200000762939</ele>
        <time>2021-12-19T08:41:29.000Z</time>
      </trkpt>
      <trkpt lat="47.25556" lon="-2.29925">
        <ele>34.599998474121</ele>
        <time>2021-12-19T08:41:30.000Z</time>
      </trkpt>
      <trkpt lat="47.25553" lon="-2.2992">
        <ele>35</ele>
        <time>2021-12-19T08:41:31.000Z</time>
      </trkpt>
      <trkpt lat="47.2555" lon="-2.29916">
        <ele>35.400001525879</ele>
        <time>2021-12-19T08:41:32.000Z</time>
      </trkpt>
      <trkpt lat="47.25548" lon="-2.29912">
        <ele>35.799999237061</ele>
        <time>2021-12-19T08:41:33.000Z</time>
      </trkpt>
      <trkpt lat="47.25545" lon="-2.29907">
        <ele>36.400001525879</ele>
        <time>2021-12-19T08:41:34.000Z</time>
      </trkpt>
      <trkpt lat="47.25543" lon="-2.29902">
        <ele>36.400001525879</ele>
        <time>2021-12-19T08:41:35.000Z</time>
      </trkpt>
      <trkpt lat="47.25536" lon="-2.29881">
        <ele>36.400001525879</ele>
        <time>2021-12-19T08:41:40.000Z</time>
      </trkpt>
      <trkpt lat="47.25543" lon="-2.29865">
        <ele>36.400001525879</ele>
        <time>2021-12-19T08:41:43.000Z</time>
      </trkpt>
      <trkpt lat="47.25547" lon="-2.29859">
        <ele>36.400001525879</ele>
        <time>2021-12-19T08:41:44.000Z</time>
      </trkpt>
      <trkpt lat="47.25569" lon="-2.29828">
        <ele>36.400001525879</ele>
        <time>2021-12-19T08:41:50.000Z</time>
      </trkpt>
      <trkpt lat="47.25578" lon="-2.29814">
        <ele>36.400001525879</ele>
        <time>2021-12-19T08:41:53.000Z</time>
      </trkpt>
      <trkpt lat="47.25579" lon="-2.29801">
        <ele>36.400001525879</ele>
        <time>2021-12-19T08:41:55.000Z</time>
      </trkpt>
      <trkpt lat="47.25571" lon="-2.29783">
        <ele>36.400001525879</ele>
        <time>2021-12-19T08:41:58.000Z</time>
      </trkpt>
      <trkpt lat="47.25551" lon="-2.29754">
        <ele>36.400001525879</ele>
        <time>2021-12-19T08:42:04.000Z</time>
      </trkpt>
      <trkpt lat="47.2554" lon="-2.29741">
        <ele>36.400001525879</ele>
        <time>2021-12-19T08:42:07.000Z</time>
      </trkpt>
      <trkpt lat="47.25528" lon="-2.29733">
        <ele>36.400001525879</ele>
        <time>2021-12-19T08:42:10.000Z</time>
      </trkpt>
      <trkpt lat="47.25519" lon="-2.2973">
        <ele>36.799999237061</ele>
        <time>2021-12-19T08:42:12.000Z</time>
      </trkpt>
      <trkpt lat="47.25516" lon="-2.29731">
        <ele>37.200000762939</ele>
        <time>2021-12-19T08:42:13.000Z</time>
      </trkpt>
      <trkpt lat="47.25512" lon="-2.29732">
        <ele>37.599998474121</ele>
        <time>2021-12-19T08:42:14.000Z</time>
      </trkpt>
      <trkpt lat="47.25508" lon="-2.29733">
        <ele>38</ele>
        <time>2021-12-19T08:42:15.000Z</time>
      </trkpt>
      <trkpt lat="47.25503" lon="-2.29734">
        <ele>38.400001525879</ele>
        <time>2021-12-19T08:42:16.000Z</time>
      </trkpt>
      <trkpt lat="47.25481" lon="-2.29744">
        <ele>38.400001525879</ele>
        <time>2021-12-19T08:42:21.000Z</time>
      </trkpt>
      <trkpt lat="47.25472" lon="-2.29748">
        <ele>38.400001525879</ele>
        <time>2021-12-19T08:42:23.000Z</time>
      </trkpt>
      <trkpt lat="47.25458" lon="-2.29751">
        <ele>38.799999237061</ele>
        <time>2021-12-19T08:42:26.000Z</time>
      </trkpt>
      <trkpt lat="47.25453" lon="-2.29752">
        <ele>39.599998474121</ele>
        <time>2021-12-19T08:42:27.000Z</time>
      </trkpt>
      <trkpt lat="47.25448" lon="-2.29752">
        <ele>40</ele>
        <time>2021-12-19T08:42:28.000Z</time>
      </trkpt>
      <trkpt lat="47.25443" lon="-2.29753">
        <ele>40.400001525879</ele>
        <time>2021-12-19T08:42:29.000Z</time>
      </trkpt>
      <trkpt lat="47.25414" lon="-2.29757">
        <ele>40.400001525879</ele>
        <time>2021-12-19T08:42:35.000Z</time>
      </trkpt>
      <trkpt lat="47.25374" lon="-2.29759">
        <ele>40.400001525879</ele>
        <time>2021-12-19T08:42:43.000Z</time>
      </trkpt>
      <trkpt lat="47.25332" lon="-2.29756">
        <ele>40.400001525879</ele>
        <time>2021-12-19T08:42:51.000Z</time>
      </trkpt>
      <trkpt lat="47.25301" lon="-2.29748">
        <ele>40.400001525879</ele>
        <time>2021-12-19T08:42:57.000Z</time>
      </trkpt>
      <trkpt lat="47.25279" lon="-2.29744">
        <ele>40.799999237061</ele>
        <time>2021-12-19T08:43:01.000Z</time>
      </trkpt>
      <trkpt lat="47.25274" lon="-2.29744">
        <ele>41.200000762939</ele>
        <time>2021-12-19T08:43:02.000Z</time>
      </trkpt>
      <trkpt lat="47.25269" lon="-2.29744">
        <ele>41.799999237061</ele>
        <time>2021-12-19T08:43:03.000Z</time>
      </trkpt>
      <trkpt lat="47.25263" lon="-2.29745">
        <ele>42.200000762939</ele>
        <time>2021-12-19T08:43:04.000Z</time>
      </trkpt>
      <trkpt lat="47.25258" lon="-2.29745">
        <ele>42.599998474121</ele>
        <time>2021-12-19T08:43:05.000Z</time>
      </trkpt>
      <trkpt lat="47.25219" lon="-2.29751">
        <ele>42.599998474121</ele>
        <time>2021-12-19T08:43:12.000Z</time>
      </trkpt>
      <trkpt lat="47.25198" lon="-2.29752">
        <ele>42.599998474121</ele>
        <time>2021-12-19T08:43:16.000Z</time>
      </trkpt>
      <trkpt lat="47.25191" lon="-2.29745">
        <ele>42.599998474121</ele>
        <time>2021-12-19T08:43:18.000Z</time>
      </trkpt>
      <trkpt lat="47.2519" lon="-2.29731">
        <ele>42.599998474121</ele>
        <time>2021-12-19T08:43:21.000Z</time>
      </trkpt>
      <trkpt lat="47.2519" lon="-2.29726">
        <ele>42.599998474121</ele>
        <time>2021-12-19T08:43:22.000Z</time>
      </trkpt>
      <trkpt lat="47.25191" lon="-2.29701">
        <ele>42.599998474121</ele>
        <time>2021-12-19T08:43:26.000Z</time>
      </trkpt>
      <trkpt lat="47.2519" lon="-2.29695">
        <ele>42.599998474121</ele>
        <time>2021-12-19T08:43:27.000Z</time>
      </trkpt>
      <trkpt lat="47.25187" lon="-2.29657">
        <ele>42.599998474121</ele>
        <time>2021-12-19T08:43:33.000Z</time>
      </trkpt>
      <trkpt lat="47.25187" lon="-2.2965">
        <ele>42.599998474121</ele>
        <time>2021-12-19T08:43:34.000Z</time>
      </trkpt>
      <trkpt lat="47.25187" lon="-2.29636">
        <ele>42.599998474121</ele>
        <time>2021-12-19T08:43:36.000Z</time>
      </trkpt>
      <trkpt lat="47.25192" lon="-2.29625">
        <ele>42.599998474121</ele>
        <time>2021-12-19T08:43:38.000Z</time>
      </trkpt>
      <trkpt lat="47.25197" lon="-2.29616">
        <ele>42.599998474121</ele>
        <time>2021-12-19T08:43:40.000Z</time>
      </trkpt>
      <trkpt lat="47.25201" lon="-2.29605">
        <ele>43</ele>
        <time>2021-12-19T08:43:42.000Z</time>
      </trkpt>
      <trkpt lat="47.25203" lon="-2.296">
        <ele>43.400001525879</ele>
        <time>2021-12-19T08:43:43.000Z</time>
      </trkpt>
      <trkpt lat="47.25205" lon="-2.29595">
        <ele>43.799999237061</ele>
        <time>2021-12-19T08:43:44.000Z</time>
      </trkpt>
      <trkpt lat="47.25207" lon="-2.29589">
        <ele>44.200000762939</ele>
        <time>2021-12-19T08:43:45.000Z</time>
      </trkpt>
      <trkpt lat="47.2521" lon="-2.29585">
        <ele>44.599998474121</ele>
        <time>2021-12-19T08:43:46.000Z</time>
      </trkpt>
      <trkpt lat="47.25217" lon="-2.29578">
        <ele>44.599998474121</ele>
        <time>2021-12-19T08:43:48.000Z</time>
      </trkpt>
      <trkpt lat="47.25225" lon="-2.29574">
        <ele>44.599998474121</ele>
        <time>2021-12-19T08:43:50.000Z</time>
      </trkpt>
      <trkpt lat="47.25234" lon="-2.29569">
        <ele>44.599998474121</ele>
        <time>2021-12-19T08:43:52.000Z</time>
      </trkpt>
      <trkpt lat="47.25242" lon="-2.29563">
        <ele>44.599998474121</ele>
        <time>2021-12-19T08:43:54.000Z</time>
      </trkpt>
      <trkpt lat="47.25271" lon="-2.29539">
        <ele>44.599998474121</ele>
        <time>2021-12-19T08:44:01.000Z</time>
      </trkpt>
      <trkpt lat="47.25275" lon="-2.29537">
        <ele>44.599998474121</ele>
        <time>2021-12-19T08:44:02.000Z</time>
      </trkpt>
      <trkpt lat="47.25293" lon="-2.2953">
        <ele>44.599998474121</ele>
        <time>2021-12-19T08:44:06.000Z</time>
      </trkpt>
      <trkpt lat="47.25321" lon="-2.29519">
        <ele>44.599998474121</ele>
        <time>2021-12-19T08:44:12.000Z</time>
      </trkpt>
      <trkpt lat="47.25325" lon="-2.29514">
        <ele>44.599998474121</ele>
        <time>2021-12-19T08:44:13.000Z</time>
      </trkpt>
      <trkpt lat="47.2534" lon="-2.29485">
        <ele>44.599998474121</ele>
        <time>2021-12-19T08:44:18.000Z</time>
      </trkpt>
      <trkpt lat="47.25344" lon="-2.29471">
        <ele>44.599998474121</ele>
        <time>2021-12-19T08:44:20.000Z</time>
      </trkpt>
      <trkpt lat="47.25345" lon="-2.29457">
        <ele>44.599998474121</ele>
        <time>2021-12-19T08:44:22.000Z</time>
      </trkpt>
      <trkpt lat="47.25345" lon="-2.29444">
        <ele>44.599998474121</ele>
        <time>2021-12-19T08:44:24.000Z</time>
      </trkpt>
      <trkpt lat="47.25344" lon="-2.29418">
        <ele>44.599998474121</ele>
        <time>2021-12-19T08:44:28.000Z</time>
      </trkpt>
      <trkpt lat="47.25344" lon="-2.29383">
        <ele>44.599998474121</ele>
        <time>2021-12-19T08:44:33.000Z</time>
      </trkpt>
      <trkpt lat="47.25346" lon="-2.29376">
        <ele>44.599998474121</ele>
        <time>2021-12-19T08:44:34.000Z</time>
      </trkpt>
      <trkpt lat="47.25353" lon="-2.29334">
        <ele>44.599998474121</ele>
        <time>2021-12-19T08:44:40.000Z</time>
      </trkpt>
      <trkpt lat="47.25357" lon="-2.29313">
        <ele>44.599998474121</ele>
        <time>2021-12-19T08:44:43.000Z</time>
      </trkpt>
      <trkpt lat="47.25358" lon="-2.29293">
        <ele>44.599998474121</ele>
        <time>2021-12-19T08:44:46.000Z</time>
      </trkpt>
      <trkpt lat="47.25358" lon="-2.29286">
        <ele>44.599998474121</ele>
        <time>2021-12-19T08:44:47.000Z</time>
      </trkpt>
      <trkpt lat="47.25363" lon="-2.29261">
        <ele>44.599998474121</ele>
        <time>2021-12-19T08:44:51.000Z</time>
      </trkpt>
      <trkpt lat="47.25369" lon="-2.29242">
        <ele>44.599998474121</ele>
        <time>2021-12-19T08:44:54.000Z</time>
      </trkpt>
      <trkpt lat="47.25376" lon="-2.29231">
        <ele>44.599998474121</ele>
        <time>2021-12-19T08:44:56.000Z</time>
      </trkpt>
      <trkpt lat="47.25402" lon="-2.29197">
        <ele>44.599998474121</ele>
        <time>2021-12-19T08:45:03.000Z</time>
      </trkpt>
      <trkpt lat="47.2542" lon="-2.29182">
        <ele>44.599998474121</ele>
        <time>2021-12-19T08:45:07.000Z</time>
      </trkpt>
      <trkpt lat="47.25429" lon="-2.29176">
        <ele>44.599998474121</ele>
        <time>2021-12-19T08:45:09.000Z</time>
      </trkpt>
      <trkpt lat="47.25444" lon="-2.29156">
        <ele>44.599998474121</ele>
        <time>2021-12-19T08:45:13.000Z</time>
      </trkpt>
      <trkpt lat="47.25448" lon="-2.29152">
        <ele>44.599998474121</ele>
        <time>2021-12-19T08:45:14.000Z</time>
      </trkpt>
      <trkpt lat="47.25465" lon="-2.29134">
        <ele>44.599998474121</ele>
        <time>2021-12-19T08:45:18.000Z</time>
      </trkpt>
      <trkpt lat="47.2547" lon="-2.2913">
        <ele>44.599998474121</ele>
        <time>2021-12-19T08:45:19.000Z</time>
      </trkpt>
      <trkpt lat="47.25492" lon="-2.29118">
        <ele>44.599998474121</ele>
        <time>2021-12-19T08:45:23.000Z</time>
      </trkpt>
      <trkpt lat="47.25498" lon="-2.29117">
        <ele>44.599998474121</ele>
        <time>2021-12-19T08:45:24.000Z</time>
      </trkpt>
      <trkpt lat="47.25517" lon="-2.2911">
        <ele>44.200000762939</ele>
        <time>2021-12-19T08:45:27.000Z</time>
      </trkpt>
      <trkpt lat="47.25523" lon="-2.29107">
        <ele>43.799999237061</ele>
        <time>2021-12-19T08:45:28.000Z</time>
      </trkpt>
      <trkpt lat="47.25529" lon="-2.29103">
        <ele>43.400001525879</ele>
        <time>2021-12-19T08:45:29.000Z</time>
      </trkpt>
      <trkpt lat="47.25535" lon="-2.29099">
        <ele>43</ele>
        <time>2021-12-19T08:45:30.000Z</time>
      </trkpt>
      <trkpt lat="47.2554" lon="-2.29093">
        <ele>42.599998474121</ele>
        <time>2021-12-19T08:45:31.000Z</time>
      </trkpt>
      <trkpt lat="47.25542" lon="-2.29085">
        <ele>42.599998474121</ele>
        <time>2021-12-19T08:45:32.000Z</time>
      </trkpt>
      <trkpt lat="47.25543" lon="-2.29058">
        <ele>42.599998474121</ele>
        <time>2021-12-19T08:45:35.000Z</time>
      </trkpt>
      <trkpt lat="47.2554" lon="-2.29041">
        <ele>42.599998474121</ele>
        <time>2021-12-19T08:45:37.000Z</time>
      </trkpt>
      <trkpt lat="47.25538" lon="-2.29025">
        <ele>42.599998474121</ele>
        <time>2021-12-19T08:45:39.000Z</time>
      </trkpt>
      <trkpt lat="47.25539" lon="-2.29018">
        <ele>42.599998474121</ele>
        <time>2021-12-19T08:45:40.000Z</time>
      </trkpt>
      <trkpt lat="47.25549" lon="-2.29">
        <ele>42.599998474121</ele>
        <time>2021-12-19T08:45:43.000Z</time>
      </trkpt>
      <trkpt lat="47.2557" lon="-2.28987">
        <ele>42.599998474121</ele>
        <time>2021-12-19T08:45:47.000Z</time>
      </trkpt>
      <trkpt lat="47.25575" lon="-2.28985">
        <ele>42</ele>
        <time>2021-12-19T08:45:48.000Z</time>
      </trkpt>
      <trkpt lat="47.25581" lon="-2.2898">
        <ele>41.599998474121</ele>
        <time>2021-12-19T08:45:49.000Z</time>
      </trkpt>
      <trkpt lat="47.25585" lon="-2.28974">
        <ele>41.200000762939</ele>
        <time>2021-12-19T08:45:50.000Z</time>
      </trkpt>
      <trkpt lat="47.25587" lon="-2.28966">
        <ele>40.599998474121</ele>
        <time>2021-12-19T08:45:51.000Z</time>
      </trkpt>
      <trkpt lat="47.25588" lon="-2.28957">
        <ele>40.200000762939</ele>
        <time>2021-12-19T08:45:52.000Z</time>
      </trkpt>
      <trkpt lat="47.25587" lon="-2.2894">
        <ele>40.200000762939</ele>
        <time>2021-12-19T08:45:54.000Z</time>
      </trkpt>
      <trkpt lat="47.25582" lon="-2.28916">
        <ele>40.200000762939</ele>
        <time>2021-12-19T08:45:57.000Z</time>
      </trkpt>
      <trkpt lat="47.2558" lon="-2.28903">
        <ele>40.200000762939</ele>
        <time>2021-12-19T08:45:59.000Z</time>
      </trkpt>
      <trkpt lat="47.25573" lon="-2.28869">
        <ele>40.200000762939</ele>
        <time>2021-12-19T08:46:05.000Z</time>
      </trkpt>
      <trkpt lat="47.25564" lon="-2.28839">
        <ele>40.200000762939</ele>
        <time>2021-12-19T08:46:11.000Z</time>
      </trkpt>
      <trkpt lat="47.25555" lon="-2.28815">
        <ele>40.200000762939</ele>
        <time>2021-12-19T08:46:17.000Z</time>
      </trkpt>
      <trkpt lat="47.25548" lon="-2.28793">
        <ele>40.200000762939</ele>
        <time>2021-12-19T08:46:23.000Z</time>
      </trkpt>
      <trkpt lat="47.25542" lon="-2.28776">
        <ele>40.200000762939</ele>
        <time>2021-12-19T08:46:29.000Z</time>
      </trkpt>
      <trkpt lat="47.25536" lon="-2.28743">
        <ele>40.200000762939</ele>
        <time>2021-12-19T08:46:37.000Z</time>
      </trkpt>
      <trkpt lat="47.25531" lon="-2.28706">
        <ele>40.200000762939</ele>
        <time>2021-12-19T08:46:44.000Z</time>
      </trkpt>
      <trkpt lat="47.25526" lon="-2.28687">
        <ele>40.200000762939</ele>
        <time>2021-12-19T08:46:47.000Z</time>
      </trkpt>
      <trkpt lat="47.25524" lon="-2.28681">
        <ele>40.200000762939</ele>
        <time>2021-12-19T08:46:48.000Z</time>
      </trkpt>
      <trkpt lat="47.25523" lon="-2.28674">
        <ele>40.599998474121</ele>
        <time>2021-12-19T08:46:49.000Z</time>
      </trkpt>
      <trkpt lat="47.25521" lon="-2.28667">
        <ele>41</ele>
        <time>2021-12-19T08:46:50.000Z</time>
      </trkpt>
      <trkpt lat="47.2552" lon="-2.2866">
        <ele>41.400001525879</ele>
        <time>2021-12-19T08:46:51.000Z</time>
      </trkpt>
      <trkpt lat="47.2552" lon="-2.28653">
        <ele>41.799999237061</ele>
        <time>2021-12-19T08:46:52.000Z</time>
      </trkpt>
      <trkpt lat="47.25519" lon="-2.28646">
        <ele>42.200000762939</ele>
        <time>2021-12-19T08:46:53.000Z</time>
      </trkpt>
      <trkpt lat="47.25519" lon="-2.28633">
        <ele>42.200000762939</ele>
        <time>2021-12-19T08:46:55.000Z</time>
      </trkpt>
      <trkpt lat="47.25518" lon="-2.28626">
        <ele>42.200000762939</ele>
        <time>2021-12-19T08:46:56.000Z</time>
      </trkpt>
      <trkpt lat="47.25514" lon="-2.28599">
        <ele>42.200000762939</ele>
        <time>2021-12-19T08:47:00.000Z</time>
      </trkpt>
      <trkpt lat="47.25511" lon="-2.28548">
        <ele>42.200000762939</ele>
        <time>2021-12-19T08:47:07.000Z</time>
      </trkpt>
      <trkpt lat="47.25513" lon="-2.28498">
        <ele>42.200000762939</ele>
        <time>2021-12-19T08:47:13.000Z</time>
      </trkpt>
      <trkpt lat="47.25514" lon="-2.2849">
        <ele>42.599998474121</ele>
        <time>2021-12-19T08:47:14.000Z</time>
      </trkpt>
      <trkpt lat="47.25515" lon="-2.28483">
        <ele>43</ele>
        <time>2021-12-19T08:47:15.000Z</time>
      </trkpt>
      <trkpt lat="47.25515" lon="-2.28476">
        <ele>43.400001525879</ele>
        <time>2021-12-19T08:47:16.000Z</time>
      </trkpt>
      <trkpt lat="47.25516" lon="-2.28469">
        <ele>43.799999237061</ele>
        <time>2021-12-19T08:47:17.000Z</time>
      </trkpt>
      <trkpt lat="47.25516" lon="-2.28463">
        <ele>44.200000762939</ele>
        <time>2021-12-19T08:47:18.000Z</time>
      </trkpt>
      <trkpt lat="47.25518" lon="-2.28449">
        <ele>44.200000762939</ele>
        <time>2021-12-19T08:47:20.000Z</time>
      </trkpt>
      <trkpt lat="47.25519" lon="-2.28401">
        <ele>44.200000762939</ele>
        <time>2021-12-19T08:47:27.000Z</time>
      </trkpt>
      <trkpt lat="47.25517" lon="-2.28356">
        <ele>44.200000762939</ele>
        <time>2021-12-19T08:47:34.000Z</time>
      </trkpt>
      <trkpt lat="47.25518" lon="-2.2835">
        <ele>44.799999237061</ele>
        <time>2021-12-19T08:47:35.000Z</time>
      </trkpt>
      <trkpt lat="47.25521" lon="-2.28346">
        <ele>45.200000762939</ele>
        <time>2021-12-19T08:47:36.000Z</time>
      </trkpt>
      <trkpt lat="47.25523" lon="-2.28344">
        <ele>45.599998474121</ele>
        <time>2021-12-19T08:47:37.000Z</time>
      </trkpt>
      <trkpt lat="47.25526" lon="-2.28341">
        <ele>46</ele>
        <time>2021-12-19T08:47:38.000Z</time>
      </trkpt>
      <trkpt lat="47.25529" lon="-2.28338">
        <ele>46.400001525879</ele>
        <time>2021-12-19T08:47:39.000Z</time>
      </trkpt>
      <trkpt lat="47.2553" lon="-2.28334">
        <ele>46.400001525879</ele>
        <time>2021-12-19T08:47:40.000Z</time>
      </trkpt>
      <trkpt lat="47.25532" lon="-2.28326">
        <ele>46.400001525879</ele>
        <time>2021-12-19T08:47:42.000Z</time>
      </trkpt>
      <trkpt lat="47.25533" lon="-2.28312">
        <ele>46.400001525879</ele>
        <time>2021-12-19T08:47:44.000Z</time>
      </trkpt>
      <trkpt lat="47.25534" lon="-2.28299">
        <ele>46.400001525879</ele>
        <time>2021-12-19T08:47:46.000Z</time>
      </trkpt>
      <trkpt lat="47.25537" lon="-2.28267">
        <ele>46.400001525879</ele>
        <time>2021-12-19T08:47:52.000Z</time>
      </trkpt>
      <trkpt lat="47.25538" lon="-2.28245">
        <ele>46.400001525879</ele>
        <time>2021-12-19T08:47:56.000Z</time>
      </trkpt>
      <trkpt lat="47.25547" lon="-2.28205">
        <ele>46.799999237061</ele>
        <time>2021-12-19T08:48:02.000Z</time>
      </trkpt>
      <trkpt lat="47.25549" lon="-2.28198">
        <ele>47.200000762939</ele>
        <time>2021-12-19T08:48:03.000Z</time>
      </trkpt>
      <trkpt lat="47.2555" lon="-2.28192">
        <ele>47.799999237061</ele>
        <time>2021-12-19T08:48:04.000Z</time>
      </trkpt>
      <trkpt lat="47.25551" lon="-2.28185">
        <ele>48.200000762939</ele>
        <time>2021-12-19T08:48:05.000Z</time>
      </trkpt>
      <trkpt lat="47.25553" lon="-2.28178">
        <ele>48.599998474121</ele>
        <time>2021-12-19T08:48:06.000Z</time>
      </trkpt>
      <trkpt lat="47.25562" lon="-2.28147">
        <ele>48.599998474121</ele>
        <time>2021-12-19T08:48:11.000Z</time>
      </trkpt>
      <trkpt lat="47.25571" lon="-2.2813">
        <ele>48.599998474121</ele>
        <time>2021-12-19T08:48:14.000Z</time>
      </trkpt>
      <trkpt lat="47.25578" lon="-2.2812">
        <ele>48.599998474121</ele>
        <time>2021-12-19T08:48:16.000Z</time>
      </trkpt>
      <trkpt lat="47.25613" lon="-2.28076">
        <ele>48.599998474121</ele>
        <time>2021-12-19T08:48:25.000Z</time>
      </trkpt>
      <trkpt lat="47.25631" lon="-2.2805">
        <ele>49</ele>
        <time>2021-12-19T08:48:31.000Z</time>
      </trkpt>
      <trkpt lat="47.25635" lon="-2.28046">
        <ele>49.400001525879</ele>
        <time>2021-12-19T08:48:32.000Z</time>
      </trkpt>
      <trkpt lat="47.25639" lon="-2.28041">
        <ele>49.799999237061</ele>
        <time>2021-12-19T08:48:33.000Z</time>
      </trkpt>
      <trkpt lat="47.25643" lon="-2.28037">
        <ele>50.400001525879</ele>
        <time>2021-12-19T08:48:34.000Z</time>
      </trkpt>
      <trkpt lat="47.25646" lon="-2.28032">
        <ele>50.799999237061</ele>
        <time>2021-12-19T08:48:35.000Z</time>
      </trkpt>
      <trkpt lat="47.25664" lon="-2.28008">
        <ele>50.799999237061</ele>
        <time>2021-12-19T08:48:40.000Z</time>
      </trkpt>
      <trkpt lat="47.25674" lon="-2.27995">
        <ele>50.799999237061</ele>
        <time>2021-12-19T08:48:43.000Z</time>
      </trkpt>
      <trkpt lat="47.25674" lon="-2.27982">
        <ele>50.799999237061</ele>
        <time>2021-12-19T08:48:45.000Z</time>
      </trkpt>
      <trkpt lat="47.25668" lon="-2.27963">
        <ele>50.799999237061</ele>
        <time>2021-12-19T08:48:48.000Z</time>
      </trkpt>
      <trkpt lat="47.25665" lon="-2.27957">
        <ele>50.799999237061</ele>
        <time>2021-12-19T08:48:49.000Z</time>
      </trkpt>
      <trkpt lat="47.25644" lon="-2.27918">
        <ele>50.799999237061</ele>
        <time>2021-12-19T08:48:56.000Z</time>
      </trkpt>
      <trkpt lat="47.25615" lon="-2.27893">
        <ele>50.799999237061</ele>
        <time>2021-12-19T08:49:02.000Z</time>
      </trkpt>
      <trkpt lat="47.25578" lon="-2.27856">
        <ele>50.799999237061</ele>
        <time>2021-12-19T08:49:09.000Z</time>
      </trkpt>
      <trkpt lat="47.25558" lon="-2.2783">
        <ele>50.400001525879</ele>
        <time>2021-12-19T08:49:13.000Z</time>
      </trkpt>
      <trkpt lat="47.25553" lon="-2.27823">
        <ele>50</ele>
        <time>2021-12-19T08:49:14.000Z</time>
      </trkpt>
      <trkpt lat="47.25548" lon="-2.27816">
        <ele>49.599998474121</ele>
        <time>2021-12-19T08:49:15.000Z</time>
      </trkpt>
      <trkpt lat="47.25544" lon="-2.27809">
        <ele>49</ele>
        <time>2021-12-19T08:49:16.000Z</time>
      </trkpt>
      <trkpt lat="47.25539" lon="-2.27802">
        <ele>48.599998474121</ele>
        <time>2021-12-19T08:49:17.000Z</time>
      </trkpt>
      <trkpt lat="47.25515" lon="-2.27763">
        <ele>48.599998474121</ele>
        <time>2021-12-19T08:49:23.000Z</time>
      </trkpt>
      <trkpt lat="47.25509" lon="-2.2775">
        <ele>48.599998474121</ele>
        <time>2021-12-19T08:49:25.000Z</time>
      </trkpt>
      <trkpt lat="47.25506" lon="-2.27742">
        <ele>48.200000762939</ele>
        <time>2021-12-19T08:49:26.000Z</time>
      </trkpt>
      <trkpt lat="47.25503" lon="-2.27735">
        <ele>47.799999237061</ele>
        <time>2021-12-19T08:49:27.000Z</time>
      </trkpt>
      <trkpt lat="47.25502" lon="-2.27727">
        <ele>47</ele>
        <time>2021-12-19T08:49:28.000Z</time>
      </trkpt>
      <trkpt lat="47.255" lon="-2.27718">
        <ele>46.599998474121</ele>
        <time>2021-12-19T08:49:29.000Z</time>
      </trkpt>
      <trkpt lat="47.25489" lon="-2.27668">
        <ele>46.599998474121</ele>
        <time>2021-12-19T08:49:35.000Z</time>
      </trkpt>
      <trkpt lat="47.25482" lon="-2.27629">
        <ele>46.599998474121</ele>
        <time>2021-12-19T08:49:40.000Z</time>
      </trkpt>
      <trkpt lat="47.25468" lon="-2.27607">
        <ele>46.599998474121</ele>
        <time>2021-12-19T08:49:44.000Z</time>
      </trkpt>
      <trkpt lat="47.25457" lon="-2.27578">
        <ele>46.599998474121</ele>
        <time>2021-12-19T08:49:48.000Z</time>
      </trkpt>
      <trkpt lat="47.25456" lon="-2.2757">
        <ele>46.599998474121</ele>
        <time>2021-12-19T08:49:49.000Z</time>
      </trkpt>
      <trkpt lat="47.25452" lon="-2.27555">
        <ele>46.599998474121</ele>
        <time>2021-12-19T08:49:51.000Z</time>
      </trkpt>
      <trkpt lat="47.25448" lon="-2.27542">
        <ele>46.599998474121</ele>
        <time>2021-12-19T08:49:53.000Z</time>
      </trkpt>
      <trkpt lat="47.2544" lon="-2.27512">
        <ele>46.599998474121</ele>
        <time>2021-12-19T08:49:58.000Z</time>
      </trkpt>
      <trkpt lat="47.25438" lon="-2.27508">
        <ele>46.599998474121</ele>
        <time>2021-12-19T08:49:59.000Z</time>
      </trkpt>
      <trkpt lat="47.25431" lon="-2.27499">
        <ele>46.599998474121</ele>
        <time>2021-12-19T08:50:01.000Z</time>
      </trkpt>
      <trkpt lat="47.25427" lon="-2.27494">
        <ele>46.599998474121</ele>
        <time>2021-12-19T08:50:02.000Z</time>
      </trkpt>
      <trkpt lat="47.25418" lon="-2.27475">
        <ele>46.599998474121</ele>
        <time>2021-12-19T08:50:05.000Z</time>
      </trkpt>
      <trkpt lat="47.25401" lon="-2.27425">
        <ele>46.599998474121</ele>
        <time>2021-12-19T08:50:12.000Z</time>
      </trkpt>
      <trkpt lat="47.25393" lon="-2.27394">
        <ele>46.599998474121</ele>
        <time>2021-12-19T08:50:17.000Z</time>
      </trkpt>
      <trkpt lat="47.25386" lon="-2.27379">
        <ele>46.599998474121</ele>
        <time>2021-12-19T08:50:21.000Z</time>
      </trkpt>
      <trkpt lat="47.25383" lon="-2.27379">
        <ele>46.599998474121</ele>
        <time>2021-12-19T08:50:22.000Z</time>
      </trkpt>
      <trkpt lat="47.2537" lon="-2.27374">
        <ele>46.599998474121</ele>
        <time>2021-12-19T08:50:26.000Z</time>
      </trkpt>
      <trkpt lat="47.25366" lon="-2.27352">
        <ele>46.599998474121</ele>
        <time>2021-12-19T08:50:30.000Z</time>
      </trkpt>
      <trkpt lat="47.25364" lon="-2.27347">
        <ele>46.599998474121</ele>
        <time>2021-12-19T08:50:31.000Z</time>
      </trkpt>
      <trkpt lat="47.25358" lon="-2.27339">
        <ele>46.599998474121</ele>
        <time>2021-12-19T08:50:33.000Z</time>
      </trkpt>
      <trkpt lat="47.25345" lon="-2.27321">
        <ele>46.599998474121</ele>
        <time>2021-12-19T08:50:37.000Z</time>
      </trkpt>
      <trkpt lat="47.25342" lon="-2.2731">
        <ele>46.599998474121</ele>
        <time>2021-12-19T08:50:39.000Z</time>
      </trkpt>
      <trkpt lat="47.25339" lon="-2.27298">
        <ele>46.599998474121</ele>
        <time>2021-12-19T08:50:41.000Z</time>
      </trkpt>
      <trkpt lat="47.25333" lon="-2.27283">
        <ele>46.599998474121</ele>
        <time>2021-12-19T08:50:44.000Z</time>
      </trkpt>
      <trkpt lat="47.25331" lon="-2.27277">
        <ele>46.599998474121</ele>
        <time>2021-12-19T08:50:45.000Z</time>
      </trkpt>
      <trkpt lat="47.25318" lon="-2.27262">
        <ele>46.599998474121</ele>
        <time>2021-12-19T08:50:49.000Z</time>
      </trkpt>
      <trkpt lat="47.25314" lon="-2.27257">
        <ele>46.599998474121</ele>
        <time>2021-12-19T08:50:50.000Z</time>
      </trkpt>
      <trkpt lat="47.25301" lon="-2.27234">
        <ele>46.599998474121</ele>
        <time>2021-12-19T08:50:54.000Z</time>
      </trkpt>
      <trkpt lat="47.25299" lon="-2.27228">
        <ele>46.599998474121</ele>
        <time>2021-12-19T08:50:55.000Z</time>
      </trkpt>
      <trkpt lat="47.25289" lon="-2.27198">
        <ele>46.599998474121</ele>
        <time>2021-12-19T08:51:00.000Z</time>
      </trkpt>
      <trkpt lat="47.25271" lon="-2.27168">
        <ele>46.599998474121</ele>
        <time>2021-12-19T08:51:06.000Z</time>
      </trkpt>
      <trkpt lat="47.25253" lon="-2.27143">
        <ele>46.599998474121</ele>
        <time>2021-12-19T08:51:11.000Z</time>
      </trkpt>
      <trkpt lat="47.25238" lon="-2.27119">
        <ele>46.599998474121</ele>
        <time>2021-12-19T08:51:15.000Z</time>
      </trkpt>
      <trkpt lat="47.25222" lon="-2.27091">
        <ele>46.599998474121</ele>
        <time>2021-12-19T08:51:20.000Z</time>
      </trkpt>
      <trkpt lat="47.25222" lon="-2.27089">
        <ele>46.200000762939</ele>
        <time>2021-12-19T08:51:22.000Z</time>
      </trkpt>
      <trkpt lat="47.25221" lon="-2.27087">
        <ele>45.799999237061</ele>
        <time>2021-12-19T08:51:23.000Z</time>
      </trkpt>
      <trkpt lat="47.2522" lon="-2.27085">
        <ele>45.200000762939</ele>
        <time>2021-12-19T08:51:24.000Z</time>
      </trkpt>
      <trkpt lat="47.25219" lon="-2.27081">
        <ele>44.799999237061</ele>
        <time>2021-12-19T08:51:25.000Z</time>
      </trkpt>
      <trkpt lat="47.25216" lon="-2.27078">
        <ele>44.400001525879</ele>
        <time>2021-12-19T08:51:26.000Z</time>
      </trkpt>
      <trkpt lat="47.25214" lon="-2.27074">
        <ele>44.400001525879</ele>
        <time>2021-12-19T08:51:27.000Z</time>
      </trkpt>
      <trkpt lat="47.25198" lon="-2.27043">
        <ele>44.400001525879</ele>
        <time>2021-12-19T08:51:32.000Z</time>
      </trkpt>
      <trkpt lat="47.25193" lon="-2.2703">
        <ele>44.400001525879</ele>
        <time>2021-12-19T08:51:34.000Z</time>
      </trkpt>
      <trkpt lat="47.25184" lon="-2.27014">
        <ele>44.400001525879</ele>
        <time>2021-12-19T08:51:37.000Z</time>
      </trkpt>
      <trkpt lat="47.25178" lon="-2.27003">
        <ele>44.400001525879</ele>
        <time>2021-12-19T08:51:39.000Z</time>
      </trkpt>
      <trkpt lat="47.25177" lon="-2.26988">
        <ele>44.400001525879</ele>
        <time>2021-12-19T08:51:41.000Z</time>
      </trkpt>
      <trkpt lat="47.25171" lon="-2.2697">
        <ele>44.400001525879</ele>
        <time>2021-12-19T08:51:45.000Z</time>
      </trkpt>
      <trkpt lat="47.25162" lon="-2.26968">
        <ele>44.400001525879</ele>
        <time>2021-12-19T08:51:48.000Z</time>
      </trkpt>
      <trkpt lat="47.25155" lon="-2.26954">
        <ele>44.400001525879</ele>
        <time>2021-12-19T08:51:51.000Z</time>
      </trkpt>
      <trkpt lat="47.25148" lon="-2.26937">
        <ele>44.799999237061</ele>
        <time>2021-12-19T08:51:54.000Z</time>
      </trkpt>
      <trkpt lat="47.25147" lon="-2.2693">
        <ele>45.200000762939</ele>
        <time>2021-12-19T08:51:55.000Z</time>
      </trkpt>
      <trkpt lat="47.25147" lon="-2.26923">
        <ele>46</ele>
        <time>2021-12-19T08:51:56.000Z</time>
      </trkpt>
      <trkpt lat="47.25147" lon="-2.26916">
        <ele>46.400001525879</ele>
        <time>2021-12-19T08:51:57.000Z</time>
      </trkpt>
      <trkpt lat="47.25148" lon="-2.26902">
        <ele>46.400001525879</ele>
        <time>2021-12-19T08:51:59.000Z</time>
      </trkpt>
      <trkpt lat="47.25149" lon="-2.26884">
        <ele>46.400001525879</ele>
        <time>2021-12-19T08:52:02.000Z</time>
      </trkpt>
      <trkpt lat="47.2515" lon="-2.26855">
        <ele>46.400001525879</ele>
        <time>2021-12-19T08:52:07.000Z</time>
      </trkpt>
      <trkpt lat="47.25151" lon="-2.26849">
        <ele>46.400001525879</ele>
        <time>2021-12-19T08:52:08.000Z</time>
      </trkpt>
      <trkpt lat="47.25159" lon="-2.26822">
        <ele>46.400001525879</ele>
        <time>2021-12-19T08:52:13.000Z</time>
      </trkpt>
      <trkpt lat="47.25169" lon="-2.26799">
        <ele>46.400001525879</ele>
        <time>2021-12-19T08:52:18.000Z</time>
      </trkpt>
      <trkpt lat="47.25177" lon="-2.26773">
        <ele>46.400001525879</ele>
        <time>2021-12-19T08:52:22.000Z</time>
      </trkpt>
      <trkpt lat="47.25176" lon="-2.26757">
        <ele>46.400001525879</ele>
        <time>2021-12-19T08:52:24.000Z</time>
      </trkpt>
      <trkpt lat="47.25174" lon="-2.26734">
        <ele>46.400001525879</ele>
        <time>2021-12-19T08:52:27.000Z</time>
      </trkpt>
      <trkpt lat="47.25171" lon="-2.2667">
        <ele>46.400001525879</ele>
        <time>2021-12-19T08:52:35.000Z</time>
      </trkpt>
      <trkpt lat="47.25171" lon="-2.26662">
        <ele>46.400001525879</ele>
        <time>2021-12-19T08:52:36.000Z</time>
      </trkpt>
      <trkpt lat="47.25171" lon="-2.26654">
        <ele>46</ele>
        <time>2021-12-19T08:52:37.000Z</time>
      </trkpt>
      <trkpt lat="47.25171" lon="-2.26646">
        <ele>45.599998474121</ele>
        <time>2021-12-19T08:52:38.000Z</time>
      </trkpt>
      <trkpt lat="47.25171" lon="-2.26638">
        <ele>45.200000762939</ele>
        <time>2021-12-19T08:52:39.000Z</time>
      </trkpt>
      <trkpt lat="47.25171" lon="-2.2663">
        <ele>44.799999237061</ele>
        <time>2021-12-19T08:52:40.000Z</time>
      </trkpt>
      <trkpt lat="47.25171" lon="-2.26622">
        <ele>44.400001525879</ele>
        <time>2021-12-19T08:52:41.000Z</time>
      </trkpt>
      <trkpt lat="47.2517" lon="-2.26606">
        <ele>44.400001525879</ele>
        <time>2021-12-19T08:52:43.000Z</time>
      </trkpt>
      <trkpt lat="47.25168" lon="-2.26589">
        <ele>44.400001525879</ele>
        <time>2021-12-19T08:52:45.000Z</time>
      </trkpt>
      <trkpt lat="47.25156" lon="-2.26531">
        <ele>44.400001525879</ele>
        <time>2021-12-19T08:52:52.000Z</time>
      </trkpt>
      <trkpt lat="47.25152" lon="-2.26513">
        <ele>44.400001525879</ele>
        <time>2021-12-19T08:52:54.000Z</time>
      </trkpt>
      <trkpt lat="47.25149" lon="-2.26505">
        <ele>44</ele>
        <time>2021-12-19T08:52:55.000Z</time>
      </trkpt>
      <trkpt lat="47.25146" lon="-2.26497">
        <ele>43.599998474121</ele>
        <time>2021-12-19T08:52:56.000Z</time>
      </trkpt>
      <trkpt lat="47.25143" lon="-2.26488">
        <ele>43.200000762939</ele>
        <time>2021-12-19T08:52:57.000Z</time>
      </trkpt>
      <trkpt lat="47.25142" lon="-2.26478">
        <ele>42.599998474121</ele>
        <time>2021-12-19T08:52:58.000Z</time>
      </trkpt>
      <trkpt lat="47.2514" lon="-2.2647">
        <ele>42.200000762939</ele>
        <time>2021-12-19T08:52:59.000Z</time>
      </trkpt>
      <trkpt lat="47.25135" lon="-2.26446">
        <ele>42.200000762939</ele>
        <time>2021-12-19T08:53:02.000Z</time>
      </trkpt>
      <trkpt lat="47.25129" lon="-2.26424">
        <ele>41.799999237061</ele>
        <time>2021-12-19T08:53:05.000Z</time>
      </trkpt>
      <trkpt lat="47.25126" lon="-2.26418">
        <ele>41.400001525879</ele>
        <time>2021-12-19T08:53:06.000Z</time>
      </trkpt>
      <trkpt lat="47.25122" lon="-2.26414">
        <ele>41</ele>
        <time>2021-12-19T08:53:07.000Z</time>
      </trkpt>
      <trkpt lat="47.25117" lon="-2.2641">
        <ele>40.599998474121</ele>
        <time>2021-12-19T08:53:08.000Z</time>
      </trkpt>
      <trkpt lat="47.25112" lon="-2.26409">
        <ele>40.200000762939</ele>
        <time>2021-12-19T08:53:09.000Z</time>
      </trkpt>
      <trkpt lat="47.25102" lon="-2.26412">
        <ele>39.799999237061</ele>
        <time>2021-12-19T08:53:11.000Z</time>
      </trkpt>
      <trkpt lat="47.25097" lon="-2.26413">
        <ele>39.400001525879</ele>
        <time>2021-12-19T08:53:12.000Z</time>
      </trkpt>
      <trkpt lat="47.25092" lon="-2.26415">
        <ele>39</ele>
        <time>2021-12-19T08:53:13.000Z</time>
      </trkpt>
      <trkpt lat="47.25087" lon="-2.26416">
        <ele>38.599998474121</ele>
        <time>2021-12-19T08:53:14.000Z</time>
      </trkpt>
      <trkpt lat="47.25081" lon="-2.26412">
        <ele>38.200000762939</ele>
        <time>2021-12-19T08:53:15.000Z</time>
      </trkpt>
      <trkpt lat="47.25076" lon="-2.26407">
        <ele>38.200000762939</ele>
        <time>2021-12-19T08:53:16.000Z</time>
      </trkpt>
      <trkpt lat="47.25068" lon="-2.26387">
        <ele>38.200000762939</ele>
        <time>2021-12-19T08:53:19.000Z</time>
      </trkpt>
      <trkpt lat="47.25062" lon="-2.26366">
        <ele>38.200000762939</ele>
        <time>2021-12-19T08:53:23.000Z</time>
      </trkpt>
      <trkpt lat="47.25055" lon="-2.2633">
        <ele>38.200000762939</ele>
        <time>2021-12-19T08:53:27.000Z</time>
      </trkpt>
      <trkpt lat="47.25054" lon="-2.26321">
        <ele>38.200000762939</ele>
        <time>2021-12-19T08:53:28.000Z</time>
      </trkpt>
      <trkpt lat="47.25053" lon="-2.26296">
        <ele>38.200000762939</ele>
        <time>2021-12-19T08:53:31.000Z</time>
      </trkpt>
      <trkpt lat="47.25054" lon="-2.26288">
        <ele>38.200000762939</ele>
        <time>2021-12-19T08:53:32.000Z</time>
      </trkpt>
      <trkpt lat="47.25057" lon="-2.26273">
        <ele>37.400001525879</ele>
        <time>2021-12-19T08:53:34.000Z</time>
      </trkpt>
      <trkpt lat="47.25059" lon="-2.26265">
        <ele>37</ele>
        <time>2021-12-19T08:53:35.000Z</time>
      </trkpt>
      <trkpt lat="47.25062" lon="-2.26259">
        <ele>36.599998474121</ele>
        <time>2021-12-19T08:53:36.000Z</time>
      </trkpt>
      <trkpt lat="47.25064" lon="-2.26252">
        <ele>36.200000762939</ele>
        <time>2021-12-19T08:53:37.000Z</time>
      </trkpt>
      <trkpt lat="47.25069" lon="-2.2624">
        <ele>36.200000762939</ele>
        <time>2021-12-19T08:53:39.000Z</time>
      </trkpt>
      <trkpt lat="47.25076" lon="-2.26224">
        <ele>36.200000762939</ele>
        <time>2021-12-19T08:53:42.000Z</time>
      </trkpt>
      <trkpt lat="47.25077" lon="-2.26201">
        <ele>36.200000762939</ele>
        <time>2021-12-19T08:53:46.000Z</time>
      </trkpt>
      <trkpt lat="47.25078" lon="-2.26175">
        <ele>36.200000762939</ele>
        <time>2021-12-19T08:53:50.000Z</time>
      </trkpt>
      <trkpt lat="47.25078" lon="-2.26161">
        <ele>36.200000762939</ele>
        <time>2021-12-19T08:53:52.000Z</time>
      </trkpt>
      <trkpt lat="47.25079" lon="-2.26113">
        <ele>36.200000762939</ele>
        <time>2021-12-19T08:53:59.000Z</time>
      </trkpt>
      <trkpt lat="47.2508" lon="-2.26106">
        <ele>36.200000762939</ele>
        <time>2021-12-19T08:54:00.000Z</time>
      </trkpt>
      <trkpt lat="47.2509" lon="-2.26051">
        <ele>36.200000762939</ele>
        <time>2021-12-19T08:54:07.000Z</time>
      </trkpt>
      <trkpt lat="47.25095" lon="-2.26024">
        <ele>35.599998474121</ele>
        <time>2021-12-19T08:54:10.000Z</time>
      </trkpt>
      <trkpt lat="47.25096" lon="-2.26015">
        <ele>35.200000762939</ele>
        <time>2021-12-19T08:54:11.000Z</time>
      </trkpt>
      <trkpt lat="47.25098" lon="-2.26006">
        <ele>34.799999237061</ele>
        <time>2021-12-19T08:54:12.000Z</time>
      </trkpt>
      <trkpt lat="47.251" lon="-2.25998">
        <ele>34.400001525879</ele>
        <time>2021-12-19T08:54:13.000Z</time>
      </trkpt>
      <trkpt lat="47.25102" lon="-2.25989">
        <ele>34</ele>
        <time>2021-12-19T08:54:14.000Z</time>
      </trkpt>
      <trkpt lat="47.25105" lon="-2.25981">
        <ele>34</ele>
        <time>2021-12-19T08:54:15.000Z</time>
      </trkpt>
      <trkpt lat="47.25108" lon="-2.25973">
        <ele>33.599998474121</ele>
        <time>2021-12-19T08:54:16.000Z</time>
      </trkpt>
      <trkpt lat="47.25111" lon="-2.25966">
        <ele>33.200000762939</ele>
        <time>2021-12-19T08:54:17.000Z</time>
      </trkpt>
      <trkpt lat="47.25115" lon="-2.25959">
        <ele>32.799999237061</ele>
        <time>2021-12-19T08:54:18.000Z</time>
      </trkpt>
      <trkpt lat="47.25119" lon="-2.25952">
        <ele>32.400001525879</ele>
        <time>2021-12-19T08:54:19.000Z</time>
      </trkpt>
      <trkpt lat="47.25122" lon="-2.25946">
        <ele>32</ele>
        <time>2021-12-19T08:54:20.000Z</time>
      </trkpt>
      <trkpt lat="47.25142" lon="-2.25917">
        <ele>32</ele>
        <time>2021-12-19T08:54:26.000Z</time>
      </trkpt>
      <trkpt lat="47.25152" lon="-2.25917">
        <ele>32</ele>
        <time>2021-12-19T08:54:29.000Z</time>
      </trkpt>
      <trkpt lat="47.25168" lon="-2.25913">
        <ele>32</ele>
        <time>2021-12-19T08:54:33.000Z</time>
      </trkpt>
      <trkpt lat="47.25173" lon="-2.25912">
        <ele>32.400001525879</ele>
        <time>2021-12-19T08:54:35.000Z</time>
      </trkpt>
      <trkpt lat="47.25175" lon="-2.25913">
        <ele>32.799999237061</ele>
        <time>2021-12-19T08:54:36.000Z</time>
      </trkpt>
      <trkpt lat="47.25179" lon="-2.25914">
        <ele>33.400001525879</ele>
        <time>2021-12-19T08:54:37.000Z</time>
      </trkpt>
      <trkpt lat="47.25182" lon="-2.25916">
        <ele>33.799999237061</ele>
        <time>2021-12-19T08:54:38.000Z</time>
      </trkpt>
      <trkpt lat="47.25185" lon="-2.25917">
        <ele>34.200000762939</ele>
        <time>2021-12-19T08:54:39.000Z</time>
      </trkpt>
      <trkpt lat="47.25198" lon="-2.25925">
        <ele>34.200000762939</ele>
        <time>2021-12-19T08:54:44.000Z</time>
      </trkpt>
      <trkpt lat="47.25208" lon="-2.25934">
        <ele>34.200000762939</ele>
        <time>2021-12-19T08:54:51.000Z</time>
      </trkpt>
      <trkpt lat="47.25209" lon="-2.25932">
        <ele>34.200000762939</ele>
        <time>2021-12-19T08:54:52.000Z</time>
      </trkpt>
      <trkpt lat="47.25212" lon="-2.2593">
        <ele>34.200000762939</ele>
        <time>2021-12-19T08:54:56.000Z</time>
      </trkpt>
      <trkpt lat="47.25214" lon="-2.25928">
        <ele>34.200000762939</ele>
        <time>2021-12-19T08:55:11.000Z</time>
      </trkpt>
      <trkpt lat="47.25216" lon="-2.25928">
        <ele>34.200000762939</ele>
        <time>2021-12-19T08:55:12.000Z</time>
      </trkpt>
      <trkpt lat="47.25219" lon="-2.25931">
        <ele>34.200000762939</ele>
        <time>2021-12-19T08:55:14.000Z</time>
      </trkpt>
      <trkpt lat="47.25224" lon="-2.25936">
        <ele>34.200000762939</ele>
        <time>2021-12-19T08:55:17.000Z</time>
      </trkpt>
      <trkpt lat="47.25232" lon="-2.25946">
        <ele>34.200000762939</ele>
        <time>2021-12-19T08:55:21.000Z</time>
      </trkpt>
      <trkpt lat="47.2524" lon="-2.25968">
        <ele>34.200000762939</ele>
        <time>2021-12-19T08:55:27.000Z</time>
      </trkpt>
      <trkpt lat="47.25249" lon="-2.26002">
        <ele>34.200000762939</ele>
        <time>2021-12-19T08:55:35.000Z</time>
      </trkpt>
      <trkpt lat="47.25255" lon="-2.26021">
        <ele>34.200000762939</ele>
        <time>2021-12-19T08:55:41.000Z</time>
      </trkpt>
      <trkpt lat="47.25257" lon="-2.26022">
        <ele>34.200000762939</ele>
        <time>2021-12-19T08:55:42.000Z</time>
      </trkpt>
      <trkpt lat="47.25263" lon="-2.26026">
        <ele>34.200000762939</ele>
        <time>2021-12-19T08:55:45.000Z</time>
      </trkpt>
      <trkpt lat="47.25277" lon="-2.26027">
        <ele>34.200000762939</ele>
        <time>2021-12-19T08:55:51.000Z</time>
      </trkpt>
      <trkpt lat="47.25289" lon="-2.26023">
        <ele>34.200000762939</ele>
        <time>2021-12-19T08:55:56.000Z</time>
      </trkpt>
      <trkpt lat="47.25304" lon="-2.26027">
        <ele>34.200000762939</ele>
        <time>2021-12-19T08:56:02.000Z</time>
      </trkpt>
      <trkpt lat="47.25314" lon="-2.26031">
        <ele>34.200000762939</ele>
        <time>2021-12-19T08:56:07.000Z</time>
      </trkpt>
      <trkpt lat="47.25317" lon="-2.26032">
        <ele>34.200000762939</ele>
        <time>2021-12-19T08:56:09.000Z</time>
      </trkpt>
      <trkpt lat="47.25323" lon="-2.26033">
        <ele>34.200000762939</ele>
        <time>2021-12-19T08:56:12.000Z</time>
      </trkpt>
      <trkpt lat="47.25326" lon="-2.26031">
        <ele>34.200000762939</ele>
        <time>2021-12-19T08:56:13.000Z</time>
      </trkpt>
      <trkpt lat="47.25334" lon="-2.26025">
        <ele>33.799999237061</ele>
        <time>2021-12-19T08:56:15.000Z</time>
      </trkpt>
      <trkpt lat="47.25336" lon="-2.26023">
        <ele>33.400001525879</ele>
        <time>2021-12-19T08:56:16.000Z</time>
      </trkpt>
      <trkpt lat="47.25339" lon="-2.26021">
        <ele>33</ele>
        <time>2021-12-19T08:56:17.000Z</time>
      </trkpt>
      <trkpt lat="47.25341" lon="-2.26018">
        <ele>32.599998474121</ele>
        <time>2021-12-19T08:56:18.000Z</time>
      </trkpt>
      <trkpt lat="47.25343" lon="-2.26014">
        <ele>32.200000762939</ele>
        <time>2021-12-19T08:56:19.000Z</time>
      </trkpt>
      <trkpt lat="47.25347" lon="-2.25999">
        <ele>31.799999237061</ele>
        <time>2021-12-19T08:56:23.000Z</time>
      </trkpt>
      <trkpt lat="47.25348" lon="-2.25996">
        <ele>31.39999961853</ele>
        <time>2021-12-19T08:56:24.000Z</time>
      </trkpt>
      <trkpt lat="47.25348" lon="-2.25994">
        <ele>31</ele>
        <time>2021-12-19T08:56:25.000Z</time>
      </trkpt>
      <trkpt lat="47.25348" lon="-2.25992">
        <ele>30.60000038147</ele>
        <time>2021-12-19T08:56:26.000Z</time>
      </trkpt>
      <trkpt lat="47.25349" lon="-2.25991">
        <ele>30.200000762939</ele>
        <time>2021-12-19T08:56:27.000Z</time>
      </trkpt>
      <trkpt lat="47.2535" lon="-2.25989">
        <ele>30.200000762939</ele>
        <time>2021-12-19T08:56:29.000Z</time>
      </trkpt>
      <trkpt lat="47.25366" lon="-2.25986">
        <ele>25.799999237061</ele>
        <time>2021-12-19T08:56:41.000Z</time>
      </trkpt>
      <trkpt lat="47.25368" lon="-2.25987">
        <ele>25.200000762939</ele>
        <time>2021-12-19T08:56:42.000Z</time>
      </trkpt>
      <trkpt lat="47.25369" lon="-2.25988">
        <ele>24.60000038147</ele>
        <time>2021-12-19T08:56:43.000Z</time>
      </trkpt>
      <trkpt lat="47.25372" lon="-2.25988">
        <ele>24</ele>
        <time>2021-12-19T08:56:44.000Z</time>
      </trkpt>
      <trkpt lat="47.25374" lon="-2.25988">
        <ele>23.39999961853</ele>
        <time>2021-12-19T08:56:45.000Z</time>
      </trkpt>
      <trkpt lat="47.25376" lon="-2.25988">
        <ele>22.799999237061</ele>
        <time>2021-12-19T08:56:46.000Z</time>
      </trkpt>
      <trkpt lat="47.25379" lon="-2.25986">
        <ele>22.200000762939</ele>
        <time>2021-12-19T08:56:47.000Z</time>
      </trkpt>
      <trkpt lat="47.25381" lon="-2.25984">
        <ele>21.60000038147</ele>
        <time>2021-12-19T08:56:48.000Z</time>
      </trkpt>
      <trkpt lat="47.25384" lon="-2.25983">
        <ele>21</ele>
        <time>2021-12-19T08:56:49.000Z</time>
      </trkpt>
      <trkpt lat="47.25386" lon="-2.25978">
        <ele>20.60000038147</ele>
        <time>2021-12-19T08:56:50.000Z</time>
      </trkpt>
      <trkpt lat="47.25394" lon="-2.25967">
        <ele>20.60000038147</ele>
        <time>2021-12-19T08:56:52.000Z</time>
      </trkpt>
      <trkpt lat="47.25414" lon="-2.25952">
        <ele>20.60000038147</ele>
        <time>2021-12-19T08:56:56.000Z</time>
      </trkpt>
      <trkpt lat="47.25418" lon="-2.25941">
        <ele>20.60000038147</ele>
        <time>2021-12-19T08:56:59.000Z</time>
      </trkpt>
      <trkpt lat="47.25419" lon="-2.25932">
        <ele>20.60000038147</ele>
        <time>2021-12-19T08:57:01.000Z</time>
      </trkpt>
      <trkpt lat="47.25419" lon="-2.25922">
        <ele>20.60000038147</ele>
        <time>2021-12-19T08:57:03.000Z</time>
      </trkpt>
      <trkpt lat="47.25419" lon="-2.25903">
        <ele>20.60000038147</ele>
        <time>2021-12-19T08:57:07.000Z</time>
      </trkpt>
      <trkpt lat="47.25423" lon="-2.25877">
        <ele>20.60000038147</ele>
        <time>2021-12-19T08:57:12.000Z</time>
      </trkpt>
      <trkpt lat="47.25425" lon="-2.25854">
        <ele>20.60000038147</ele>
        <time>2021-12-19T08:57:17.000Z</time>
      </trkpt>
      <trkpt lat="47.25432" lon="-2.25815">
        <ele>20.60000038147</ele>
        <time>2021-12-19T08:57:23.000Z</time>
      </trkpt>
      <trkpt lat="47.25439" lon="-2.25777">
        <ele>20.60000038147</ele>
        <time>2021-12-19T08:57:29.000Z</time>
      </trkpt>
      <trkpt lat="47.2544" lon="-2.25753">
        <ele>20.60000038147</ele>
        <time>2021-12-19T08:57:35.000Z</time>
      </trkpt>
      <trkpt lat="47.25443" lon="-2.25735">
        <ele>20.60000038147</ele>
        <time>2021-12-19T08:57:39.000Z</time>
      </trkpt>
      <trkpt lat="47.25447" lon="-2.25722">
        <ele>20.200000762939</ele>
        <time>2021-12-19T08:57:41.000Z</time>
      </trkpt>
      <trkpt lat="47.25447" lon="-2.25717">
        <ele>19.799999237061</ele>
        <time>2021-12-19T08:57:42.000Z</time>
      </trkpt>
      <trkpt lat="47.25447" lon="-2.25714">
        <ele>19.39999961853</ele>
        <time>2021-12-19T08:57:43.000Z</time>
      </trkpt>
      <trkpt lat="47.25446" lon="-2.2571">
        <ele>18.799999237061</ele>
        <time>2021-12-19T08:57:44.000Z</time>
      </trkpt>
      <trkpt lat="47.25444" lon="-2.25706">
        <ele>18.39999961853</ele>
        <time>2021-12-19T08:57:45.000Z</time>
      </trkpt>
      <trkpt lat="47.25436" lon="-2.25704">
        <ele>18.39999961853</ele>
        <time>2021-12-19T08:57:48.000Z</time>
      </trkpt>
      <trkpt lat="47.25431" lon="-2.25705">
        <ele>18</ele>
        <time>2021-12-19T08:57:50.000Z</time>
      </trkpt>
      <trkpt lat="47.25427" lon="-2.25705">
        <ele>17.60000038147</ele>
        <time>2021-12-19T08:57:51.000Z</time>
      </trkpt>
      <trkpt lat="47.25423" lon="-2.25705">
        <ele>17.200000762939</ele>
        <time>2021-12-19T08:57:52.000Z</time>
      </trkpt>
      <trkpt lat="47.25418" lon="-2.25705">
        <ele>16.799999237061</ele>
        <time>2021-12-19T08:57:53.000Z</time>
      </trkpt>
      <trkpt lat="47.25414" lon="-2.25707">
        <ele>16.200000762939</ele>
        <time>2021-12-19T08:57:54.000Z</time>
      </trkpt>
      <trkpt lat="47.2541" lon="-2.25709">
        <ele>15.60000038147</ele>
        <time>2021-12-19T08:57:55.000Z</time>
      </trkpt>
      <trkpt lat="47.25407" lon="-2.25713">
        <ele>15.199999809265</ele>
        <time>2021-12-19T08:57:56.000Z</time>
      </trkpt>
      <trkpt lat="47.25405" lon="-2.25716">
        <ele>14.60000038147</ele>
        <time>2021-12-19T08:57:57.000Z</time>
      </trkpt>
      <trkpt lat="47.25402" lon="-2.25717">
        <ele>14.199999809265</ele>
        <time>2021-12-19T08:57:58.000Z</time>
      </trkpt>
      <trkpt lat="47.25403" lon="-2.2572">
        <ele>14.199999809265</ele>
        <time>2021-12-19T08:57:59.000Z</time>
      </trkpt>
      <trkpt lat="47.25403" lon="-2.25724">
        <ele>14.199999809265</ele>
        <time>2021-12-19T08:58:00.000Z</time>
      </trkpt>
      <trkpt lat="47.25403" lon="-2.25738">
        <ele>14.199999809265</ele>
        <time>2021-12-19T08:58:03.000Z</time>
      </trkpt>
      <trkpt lat="47.25404" lon="-2.25751">
        <ele>14.199999809265</ele>
        <time>2021-12-19T08:58:06.000Z</time>
      </trkpt>
      <trkpt lat="47.25403" lon="-2.2576">
        <ele>14.199999809265</ele>
        <time>2021-12-19T08:58:09.000Z</time>
      </trkpt>
      <trkpt lat="47.25401" lon="-2.25762">
        <ele>14.199999809265</ele>
        <time>2021-12-19T08:58:10.000Z</time>
      </trkpt>
      <trkpt lat="47.2539" lon="-2.25775">
        <ele>14.199999809265</ele>
        <time>2021-12-19T08:58:15.000Z</time>
      </trkpt>
      <trkpt lat="47.25385" lon="-2.25781">
        <ele>14.60000038147</ele>
        <time>2021-12-19T08:58:17.000Z</time>
      </trkpt>
      <trkpt lat="47.25383" lon="-2.25785">
        <ele>15</ele>
        <time>2021-12-19T08:58:18.000Z</time>
      </trkpt>
      <trkpt lat="47.2538" lon="-2.25787">
        <ele>15.39999961853</ele>
        <time>2021-12-19T08:58:19.000Z</time>
      </trkpt>
      <trkpt lat="47.25378" lon="-2.25789">
        <ele>16</ele>
        <time>2021-12-19T08:58:20.000Z</time>
      </trkpt>
      <trkpt lat="47.25376" lon="-2.25791">
        <ele>16.39999961853</ele>
        <time>2021-12-19T08:58:21.000Z</time>
      </trkpt>
      <trkpt lat="47.25373" lon="-2.25792">
        <ele>16.39999961853</ele>
        <time>2021-12-19T08:58:22.000Z</time>
      </trkpt>
      <trkpt lat="47.2537" lon="-2.25795">
        <ele>16.799999237061</ele>
        <time>2021-12-19T08:58:24.000Z</time>
      </trkpt>
      <trkpt lat="47.25368" lon="-2.25796">
        <ele>17.200000762939</ele>
        <time>2021-12-19T08:58:25.000Z</time>
      </trkpt>
      <trkpt lat="47.25366" lon="-2.25798">
        <ele>17.60000038147</ele>
        <time>2021-12-19T08:58:26.000Z</time>
      </trkpt>
      <trkpt lat="47.25364" lon="-2.25801">
        <ele>18.200000762939</ele>
        <time>2021-12-19T08:58:27.000Z</time>
      </trkpt>
      <trkpt lat="47.25363" lon="-2.25803">
        <ele>18.60000038147</ele>
        <time>2021-12-19T08:58:28.000Z</time>
      </trkpt>
      <trkpt lat="47.25359" lon="-2.25812">
        <ele>19.39999961853</ele>
        <time>2021-12-19T08:58:31.000Z</time>
      </trkpt>
      <trkpt lat="47.25357" lon="-2.25813">
        <ele>19.799999237061</ele>
        <time>2021-12-19T08:58:32.000Z</time>
      </trkpt>
      <trkpt lat="47.25355" lon="-2.25816">
        <ele>20.39999961853</ele>
        <time>2021-12-19T08:58:33.000Z</time>
      </trkpt>
      <trkpt lat="47.25354" lon="-2.25818">
        <ele>20.799999237061</ele>
        <time>2021-12-19T08:58:34.000Z</time>
      </trkpt>
      <trkpt lat="47.25353" lon="-2.25822">
        <ele>21.200000762939</ele>
        <time>2021-12-19T08:58:36.000Z</time>
      </trkpt>
      <trkpt lat="47.25352" lon="-2.25823">
        <ele>21.60000038147</ele>
        <time>2021-12-19T08:58:37.000Z</time>
      </trkpt>
      <trkpt lat="47.25351" lon="-2.25825">
        <ele>22</ele>
        <time>2021-12-19T08:58:38.000Z</time>
      </trkpt>
      <trkpt lat="47.2535" lon="-2.25828">
        <ele>22.39999961853</ele>
        <time>2021-12-19T08:58:39.000Z</time>
      </trkpt>
      <trkpt lat="47.25349" lon="-2.2583">
        <ele>22.799999237061</ele>
        <time>2021-12-19T08:58:40.000Z</time>
      </trkpt>
      <trkpt lat="47.25348" lon="-2.25834">
        <ele>23.39999961853</ele>
        <time>2021-12-19T08:58:42.000Z</time>
      </trkpt>
      <trkpt lat="47.25347" lon="-2.25835">
        <ele>23.799999237061</ele>
        <time>2021-12-19T08:58:43.000Z</time>
      </trkpt>
      <trkpt lat="47.25346" lon="-2.25837">
        <ele>24.200000762939</ele>
        <time>2021-12-19T08:58:44.000Z</time>
      </trkpt>
      <trkpt lat="47.25345" lon="-2.25839">
        <ele>24.60000038147</ele>
        <time>2021-12-19T08:58:45.000Z</time>
      </trkpt>
      <trkpt lat="47.25344" lon="-2.25841">
        <ele>25</ele>
        <time>2021-12-19T08:58:46.000Z</time>
      </trkpt>
      <trkpt lat="47.25343" lon="-2.25841">
        <ele>25.60000038147</ele>
        <time>2021-12-19T08:58:48.000Z</time>
      </trkpt>
      <trkpt lat="47.25342" lon="-2.25837">
        <ele>26.39999961853</ele>
        <time>2021-12-19T08:58:50.000Z</time>
      </trkpt>
      <trkpt lat="47.25343" lon="-2.25834">
        <ele>26.799999237061</ele>
        <time>2021-12-19T08:58:51.000Z</time>
      </trkpt>
      <trkpt lat="47.25343" lon="-2.25831">
        <ele>27.200000762939</ele>
        <time>2021-12-19T08:58:52.000Z</time>
      </trkpt>
      <trkpt lat="47.25342" lon="-2.25818">
        <ele>26.799999237061</ele>
        <time>2021-12-19T08:58:56.000Z</time>
      </trkpt>
      <trkpt lat="47.25342" lon="-2.25813">
        <ele>26.200000762939</ele>
        <time>2021-12-19T08:58:57.000Z</time>
      </trkpt>
      <trkpt lat="47.25343" lon="-2.25809">
        <ele>25.799999237061</ele>
        <time>2021-12-19T08:58:58.000Z</time>
      </trkpt>
      <trkpt lat="47.25344" lon="-2.25803">
        <ele>25.39999961853</ele>
        <time>2021-12-19T08:58:59.000Z</time>
      </trkpt>
      <trkpt lat="47.25345" lon="-2.25798">
        <ele>25</ele>
        <time>2021-12-19T08:59:00.000Z</time>
      </trkpt>
      <trkpt lat="47.25346" lon="-2.25783">
        <ele>25</ele>
        <time>2021-12-19T08:59:04.000Z</time>
      </trkpt>
      <trkpt lat="47.25348" lon="-2.25766">
        <ele>25</ele>
        <time>2021-12-19T08:59:09.000Z</time>
      </trkpt>
      <trkpt lat="47.25348" lon="-2.25742">
        <ele>25</ele>
        <time>2021-12-19T08:59:14.000Z</time>
      </trkpt>
      <trkpt lat="47.2535" lon="-2.25707">
        <ele>25</ele>
        <time>2021-12-19T08:59:21.000Z</time>
      </trkpt>
      <trkpt lat="47.25349" lon="-2.25678">
        <ele>25</ele>
        <time>2021-12-19T08:59:27.000Z</time>
      </trkpt>
      <trkpt lat="47.25347" lon="-2.25654">
        <ele>25</ele>
        <time>2021-12-19T08:59:33.000Z</time>
      </trkpt>
      <trkpt lat="47.2534" lon="-2.25631">
        <ele>25</ele>
        <time>2021-12-19T08:59:38.000Z</time>
      </trkpt>
      <trkpt lat="47.25337" lon="-2.25605">
        <ele>25</ele>
        <time>2021-12-19T08:59:44.000Z</time>
      </trkpt>
      <trkpt lat="47.25337" lon="-2.25591">
        <ele>24.39999961853</ele>
        <time>2021-12-19T08:59:46.000Z</time>
      </trkpt>
      <trkpt lat="47.25335" lon="-2.25584">
        <ele>24</ele>
        <time>2021-12-19T08:59:47.000Z</time>
      </trkpt>
      <trkpt lat="47.25335" lon="-2.25577">
        <ele>23.60000038147</ele>
        <time>2021-12-19T08:59:48.000Z</time>
      </trkpt>
      <trkpt lat="47.25335" lon="-2.2557">
        <ele>23.200000762939</ele>
        <time>2021-12-19T08:59:49.000Z</time>
      </trkpt>
      <trkpt lat="47.25333" lon="-2.25562">
        <ele>22.60000038147</ele>
        <time>2021-12-19T08:59:50.000Z</time>
      </trkpt>
      <trkpt lat="47.25333" lon="-2.25537">
        <ele>22.60000038147</ele>
        <time>2021-12-19T08:59:53.000Z</time>
      </trkpt>
      <trkpt lat="47.25333" lon="-2.25529">
        <ele>22.200000762939</ele>
        <time>2021-12-19T08:59:54.000Z</time>
      </trkpt>
      <trkpt lat="47.25332" lon="-2.25519">
        <ele>21.799999237061</ele>
        <time>2021-12-19T08:59:55.000Z</time>
      </trkpt>
      <trkpt lat="47.25331" lon="-2.25509">
        <ele>21.200000762939</ele>
        <time>2021-12-19T08:59:56.000Z</time>
      </trkpt>
      <trkpt lat="47.2533" lon="-2.25499">
        <ele>20.799999237061</ele>
        <time>2021-12-19T08:59:57.000Z</time>
      </trkpt>
      <trkpt lat="47.2533" lon="-2.25489">
        <ele>20.200000762939</ele>
        <time>2021-12-19T08:59:58.000Z</time>
      </trkpt>
      <trkpt lat="47.25329" lon="-2.25479">
        <ele>19.60000038147</ele>
        <time>2021-12-19T08:59:59.000Z</time>
      </trkpt>
      <trkpt lat="47.25328" lon="-2.2547">
        <ele>19</ele>
        <time>2021-12-19T09:00:00.000Z</time>
      </trkpt>
      <trkpt lat="47.25327" lon="-2.25462">
        <ele>18.39999961853</ele>
        <time>2021-12-19T09:00:01.000Z</time>
      </trkpt>
      <trkpt lat="47.25326" lon="-2.25455">
        <ele>17.799999237061</ele>
        <time>2021-12-19T09:00:02.000Z</time>
      </trkpt>
      <trkpt lat="47.25325" lon="-2.2545">
        <ele>17.200000762939</ele>
        <time>2021-12-19T09:00:03.000Z</time>
      </trkpt>
      <trkpt lat="47.25325" lon="-2.25446">
        <ele>16.60000038147</ele>
        <time>2021-12-19T09:00:04.000Z</time>
      </trkpt>
      <trkpt lat="47.25326" lon="-2.25443">
        <ele>16</ele>
        <time>2021-12-19T09:00:05.000Z</time>
      </trkpt>
      <trkpt lat="47.25327" lon="-2.25439">
        <ele>15.39999961853</ele>
        <time>2021-12-19T09:00:06.000Z</time>
      </trkpt>
      <trkpt lat="47.25328" lon="-2.25436">
        <ele>14.800000190735</ele>
        <time>2021-12-19T09:00:07.000Z</time>
      </trkpt>
      <trkpt lat="47.2533" lon="-2.25434">
        <ele>14.199999809265</ele>
        <time>2021-12-19T09:00:08.000Z</time>
      </trkpt>
      <trkpt lat="47.25332" lon="-2.25432">
        <ele>13.60000038147</ele>
        <time>2021-12-19T09:00:09.000Z</time>
      </trkpt>
      <trkpt lat="47.25337" lon="-2.25431">
        <ele>12</ele>
        <time>2021-12-19T09:00:10.000Z</time>
      </trkpt>
      <trkpt lat="47.25342" lon="-2.25425">
        <ele>11.199999809265</ele>
        <time>2021-12-19T09:00:11.000Z</time>
      </trkpt>
      <trkpt lat="47.25345" lon="-2.25419">
        <ele>10.60000038147</ele>
        <time>2021-12-19T09:00:12.000Z</time>
      </trkpt>
      <trkpt lat="47.25347" lon="-2.25415">
        <ele>9.8000001907349</ele>
        <time>2021-12-19T09:00:13.000Z</time>
      </trkpt>
      <trkpt lat="47.25349" lon="-2.2541">
        <ele>9</ele>
        <time>2021-12-19T09:00:14.000Z</time>
      </trkpt>
      <trkpt lat="47.25348" lon="-2.25398">
        <ele>8.6000003814697</ele>
        <time>2021-12-19T09:00:16.000Z</time>
      </trkpt>
      <trkpt lat="47.25348" lon="-2.25396">
        <ele>8.1999998092651</ele>
        <time>2021-12-19T09:00:17.000Z</time>
      </trkpt>
      <trkpt lat="47.25348" lon="-2.25394">
        <ele>7.5999999046326</ele>
        <time>2021-12-19T09:00:18.000Z</time>
      </trkpt>
      <trkpt lat="47.25347" lon="-2.25391">
        <ele>7.1999998092651</ele>
        <time>2021-12-19T09:00:19.000Z</time>
      </trkpt>
      <trkpt lat="47.25353" lon="-2.25383">
        <ele>6.8000001907349</ele>
        <time>2021-12-19T09:00:56.000Z</time>
      </trkpt>
      <trkpt lat="47.25356" lon="-2.25381">
        <ele>6.8000001907349</ele>
        <time>2021-12-19T09:00:58.000Z</time>
      </trkpt>
      <trkpt lat="47.25371" lon="-2.25377">
        <ele>6.8000001907349</ele>
        <time>2021-12-19T09:01:06.000Z</time>
      </trkpt>
      <trkpt lat="47.25382" lon="-2.25371">
        <ele>6.8000001907349</ele>
        <time>2021-12-19T09:01:11.000Z</time>
      </trkpt>
      <trkpt lat="47.25384" lon="-2.25371">
        <ele>7.1999998092651</ele>
        <time>2021-12-19T09:01:12.000Z</time>
      </trkpt>
      <trkpt lat="47.25384" lon="-2.25372">
        <ele>7.5999999046326</ele>
        <time>2021-12-19T09:01:13.000Z</time>
      </trkpt>
      <trkpt lat="47.25385" lon="-2.25374">
        <ele>8.1999998092651</ele>
        <time>2021-12-19T09:01:14.000Z</time>
      </trkpt>
      <trkpt lat="47.25386" lon="-2.25378">
        <ele>8.6000003814697</ele>
        <time>2021-12-19T09:01:15.000Z</time>
      </trkpt>
      <trkpt lat="47.25386" lon="-2.2538">
        <ele>9</ele>
        <time>2021-12-19T09:01:16.000Z</time>
      </trkpt>
      <trkpt lat="47.25392" lon="-2.25382">
        <ele>9</ele>
        <time>2021-12-19T09:01:19.000Z</time>
      </trkpt>
      <trkpt lat="47.25396" lon="-2.25384">
        <ele>9</ele>
        <time>2021-12-19T09:01:21.000Z</time>
      </trkpt>
      <trkpt lat="47.25407" lon="-2.25392">
        <ele>9.3999996185303</ele>
        <time>2021-12-19T09:01:26.000Z</time>
      </trkpt>
      <trkpt lat="47.2541" lon="-2.25393">
        <ele>9.8000001907349</ele>
        <time>2021-12-19T09:01:27.000Z</time>
      </trkpt>
      <trkpt lat="47.25412" lon="-2.25394">
        <ele>10.199999809265</ele>
        <time>2021-12-19T09:01:28.000Z</time>
      </trkpt>
      <trkpt lat="47.25415" lon="-2.25394">
        <ele>10.60000038147</ele>
        <time>2021-12-19T09:01:29.000Z</time>
      </trkpt>
      <trkpt lat="47.25417" lon="-2.25395">
        <ele>11</ele>
        <time>2021-12-19T09:01:30.000Z</time>
      </trkpt>
      <trkpt lat="47.25428" lon="-2.254">
        <ele>11</ele>
        <time>2021-12-19T09:01:33.000Z</time>
      </trkpt>
      <trkpt lat="47.2543" lon="-2.25401">
        <ele>11.39999961853</ele>
        <time>2021-12-19T09:01:34.000Z</time>
      </trkpt>
      <trkpt lat="47.25431" lon="-2.254">
        <ele>11.800000190735</ele>
        <time>2021-12-19T09:01:35.000Z</time>
      </trkpt>
      <trkpt lat="47.25432" lon="-2.25399">
        <ele>12.199999809265</ele>
        <time>2021-12-19T09:01:36.000Z</time>
      </trkpt>
      <trkpt lat="47.25433" lon="-2.25397">
        <ele>12.60000038147</ele>
        <time>2021-12-19T09:01:37.000Z</time>
      </trkpt>
      <trkpt lat="47.25433" lon="-2.25394">
        <ele>13</ele>
        <time>2021-12-19T09:01:38.000Z</time>
      </trkpt>
      <trkpt lat="47.25441" lon="-2.25392">
        <ele>13</ele>
        <time>2021-12-19T09:01:43.000Z</time>
      </trkpt>
      <trkpt lat="47.25448" lon="-2.254">
        <ele>13.39999961853</ele>
        <time>2021-12-19T09:01:47.000Z</time>
      </trkpt>
      <trkpt lat="47.2545" lon="-2.25401">
        <ele>14.199999809265</ele>
        <time>2021-12-19T09:01:48.000Z</time>
      </trkpt>
      <trkpt lat="47.2545" lon="-2.25403">
        <ele>14.800000190735</ele>
        <time>2021-12-19T09:01:49.000Z</time>
      </trkpt>
      <trkpt lat="47.2545" lon="-2.25405">
        <ele>15.199999809265</ele>
        <time>2021-12-19T09:01:50.000Z</time>
      </trkpt>
      <trkpt lat="47.2545" lon="-2.25409">
        <ele>15.199999809265</ele>
        <time>2021-12-19T09:01:51.000Z</time>
      </trkpt>
      <trkpt lat="47.25449" lon="-2.25412">
        <ele>15.199999809265</ele>
        <time>2021-12-19T09:01:52.000Z</time>
      </trkpt>
      <trkpt lat="47.25446" lon="-2.25433">
        <ele>15.199999809265</ele>
        <time>2021-12-19T09:01:57.000Z</time>
      </trkpt>
      <trkpt lat="47.25445" lon="-2.25436">
        <ele>15.199999809265</ele>
        <time>2021-12-19T09:01:58.000Z</time>
      </trkpt>
      <trkpt lat="47.25449" lon="-2.25452">
        <ele>15.199999809265</ele>
        <time>2021-12-19T09:02:03.000Z</time>
      </trkpt>
      <trkpt lat="47.25459" lon="-2.25467">
        <ele>15.60000038147</ele>
        <time>2021-12-19T09:02:09.000Z</time>
      </trkpt>
      <trkpt lat="47.25461" lon="-2.2547">
        <ele>16</ele>
        <time>2021-12-19T09:02:10.000Z</time>
      </trkpt>
      <trkpt lat="47.25463" lon="-2.25472">
        <ele>16.39999961853</ele>
        <time>2021-12-19T09:02:11.000Z</time>
      </trkpt>
      <trkpt lat="47.25465" lon="-2.25475">
        <ele>16.799999237061</ele>
        <time>2021-12-19T09:02:12.000Z</time>
      </trkpt>
      <trkpt lat="47.25467" lon="-2.25476">
        <ele>17.200000762939</ele>
        <time>2021-12-19T09:02:13.000Z</time>
      </trkpt>
      <trkpt lat="47.25471" lon="-2.25479">
        <ele>17.200000762939</ele>
        <time>2021-12-19T09:02:15.000Z</time>
      </trkpt>
      <trkpt lat="47.25476" lon="-2.25478">
        <ele>17.60000038147</ele>
        <time>2021-12-19T09:02:18.000Z</time>
      </trkpt>
      <trkpt lat="47.25478" lon="-2.25477">
        <ele>18</ele>
        <time>2021-12-19T09:02:19.000Z</time>
      </trkpt>
      <trkpt lat="47.2548" lon="-2.25476">
        <ele>18.39999961853</ele>
        <time>2021-12-19T09:02:20.000Z</time>
      </trkpt>
      <trkpt lat="47.25482" lon="-2.25477">
        <ele>18.799999237061</ele>
        <time>2021-12-19T09:02:21.000Z</time>
      </trkpt>
      <trkpt lat="47.25484" lon="-2.25477">
        <ele>19.200000762939</ele>
        <time>2021-12-19T09:02:22.000Z</time>
      </trkpt>
      <trkpt lat="47.25491" lon="-2.25476">
        <ele>19.60000038147</ele>
        <time>2021-12-19T09:02:26.000Z</time>
      </trkpt>
      <trkpt lat="47.25493" lon="-2.25476">
        <ele>20</ele>
        <time>2021-12-19T09:02:27.000Z</time>
      </trkpt>
      <trkpt lat="47.25494" lon="-2.25476">
        <ele>20.60000038147</ele>
        <time>2021-12-19T09:02:28.000Z</time>
      </trkpt>
      <trkpt lat="47.25496" lon="-2.25475">
        <ele>21</ele>
        <time>2021-12-19T09:02:29.000Z</time>
      </trkpt>
      <trkpt lat="47.25497" lon="-2.25474">
        <ele>21.39999961853</ele>
        <time>2021-12-19T09:02:30.000Z</time>
      </trkpt>
      <trkpt lat="47.25502" lon="-2.25469">
        <ele>21.39999961853</ele>
        <time>2021-12-19T09:02:34.000Z</time>
      </trkpt>
      <trkpt lat="47.25503" lon="-2.25469">
        <ele>21.39999961853</ele>
        <time>2021-12-19T09:02:36.000Z</time>
      </trkpt>
      <trkpt lat="47.25504" lon="-2.25474">
        <ele>23.39999961853</ele>
        <time>2021-12-19T09:03:09.000Z</time>
      </trkpt>
      <trkpt lat="47.25505" lon="-2.25478">
        <ele>23.39999961853</ele>
        <time>2021-12-19T09:03:10.000Z</time>
      </trkpt>
      <trkpt lat="47.2551" lon="-2.2549">
        <ele>23.39999961853</ele>
        <time>2021-12-19T09:03:15.000Z</time>
      </trkpt>
      <trkpt lat="47.25519" lon="-2.25504">
        <ele>23.39999961853</ele>
        <time>2021-12-19T09:03:21.000Z</time>
      </trkpt>
      <trkpt lat="47.25529" lon="-2.25507">
        <ele>23.799999237061</ele>
        <time>2021-12-19T09:03:26.000Z</time>
      </trkpt>
      <trkpt lat="47.2553" lon="-2.25507">
        <ele>24.799999237061</ele>
        <time>2021-12-19T09:03:27.000Z</time>
      </trkpt>
      <trkpt lat="47.25532" lon="-2.25507">
        <ele>25.200000762939</ele>
        <time>2021-12-19T09:03:28.000Z</time>
      </trkpt>
      <trkpt lat="47.25534" lon="-2.25507">
        <ele>25.60000038147</ele>
        <time>2021-12-19T09:03:29.000Z</time>
      </trkpt>
      <trkpt lat="47.25539" lon="-2.25512">
        <ele>26</ele>
        <time>2021-12-19T09:03:32.000Z</time>
      </trkpt>
      <trkpt lat="47.2554" lon="-2.25514">
        <ele>26.60000038147</ele>
        <time>2021-12-19T09:03:33.000Z</time>
      </trkpt>
      <trkpt lat="47.25541" lon="-2.25516">
        <ele>27</ele>
        <time>2021-12-19T09:03:34.000Z</time>
      </trkpt>
      <trkpt lat="47.25542" lon="-2.2552">
        <ele>27.39999961853</ele>
        <time>2021-12-19T09:03:35.000Z</time>
      </trkpt>
      <trkpt lat="47.25542" lon="-2.25526">
        <ele>28</ele>
        <time>2021-12-19T09:03:36.000Z</time>
      </trkpt>
      <trkpt lat="47.25541" lon="-2.25531">
        <ele>28</ele>
        <time>2021-12-19T09:03:37.000Z</time>
      </trkpt>
      <trkpt lat="47.25534" lon="-2.25546">
        <ele>28</ele>
        <time>2021-12-19T09:03:40.000Z</time>
      </trkpt>
      <trkpt lat="47.25525" lon="-2.25565">
        <ele>28</ele>
        <time>2021-12-19T09:03:44.000Z</time>
      </trkpt>
      <trkpt lat="47.25524" lon="-2.25571">
        <ele>28</ele>
        <time>2021-12-19T09:03:45.000Z</time>
      </trkpt>
      <trkpt lat="47.25523" lon="-2.25576">
        <ele>27.60000038147</ele>
        <time>2021-12-19T09:03:46.000Z</time>
      </trkpt>
      <trkpt lat="47.25521" lon="-2.25581">
        <ele>27</ele>
        <time>2021-12-19T09:03:47.000Z</time>
      </trkpt>
      <trkpt lat="47.25519" lon="-2.25586">
        <ele>26.60000038147</ele>
        <time>2021-12-19T09:03:48.000Z</time>
      </trkpt>
      <trkpt lat="47.25517" lon="-2.25592">
        <ele>26.200000762939</ele>
        <time>2021-12-19T09:03:49.000Z</time>
      </trkpt>
      <trkpt lat="47.25516" lon="-2.25599">
        <ele>25.799999237061</ele>
        <time>2021-12-19T09:03:50.000Z</time>
      </trkpt>
      <trkpt lat="47.25514" lon="-2.25605">
        <ele>25.799999237061</ele>
        <time>2021-12-19T09:03:51.000Z</time>
      </trkpt>
      <trkpt lat="47.25513" lon="-2.25611">
        <ele>25</ele>
        <time>2021-12-19T09:03:52.000Z</time>
      </trkpt>
      <trkpt lat="47.25512" lon="-2.25616">
        <ele>24.60000038147</ele>
        <time>2021-12-19T09:03:53.000Z</time>
      </trkpt>
      <trkpt lat="47.25512" lon="-2.25621">
        <ele>24.200000762939</ele>
        <time>2021-12-19T09:03:54.000Z</time>
      </trkpt>
      <trkpt lat="47.25513" lon="-2.25625">
        <ele>23.799999237061</ele>
        <time>2021-12-19T09:03:55.000Z</time>
      </trkpt>
      <trkpt lat="47.25513" lon="-2.25629">
        <ele>23.799999237061</ele>
        <time>2021-12-19T09:03:56.000Z</time>
      </trkpt>
      <trkpt lat="47.25512" lon="-2.25633">
        <ele>23.799999237061</ele>
        <time>2021-12-19T09:04:00.000Z</time>
      </trkpt>
      <trkpt lat="47.25511" lon="-2.25637">
        <ele>21.60000038147</ele>
        <time>2021-12-19T09:05:52.000Z</time>
      </trkpt>
      <trkpt lat="47.2551" lon="-2.25646">
        <ele>21.60000038147</ele>
        <time>2021-12-19T09:05:55.000Z</time>
      </trkpt>
      <trkpt lat="47.25507" lon="-2.25684">
        <ele>21.60000038147</ele>
        <time>2021-12-19T09:06:02.000Z</time>
      </trkpt>
      <trkpt lat="47.25507" lon="-2.25716">
        <ele>21.60000038147</ele>
        <time>2021-12-19T09:06:08.000Z</time>
      </trkpt>
      <trkpt lat="47.25506" lon="-2.25739">
        <ele>21.60000038147</ele>
        <time>2021-12-19T09:06:15.000Z</time>
      </trkpt>
      <trkpt lat="47.25501" lon="-2.25748">
        <ele>22.60000038147</ele>
        <time>2021-12-19T09:06:19.000Z</time>
      </trkpt>
      <trkpt lat="47.255" lon="-2.2575">
        <ele>23</ele>
        <time>2021-12-19T09:06:20.000Z</time>
      </trkpt>
      <trkpt lat="47.25497" lon="-2.25751">
        <ele>23.39999961853</ele>
        <time>2021-12-19T09:06:21.000Z</time>
      </trkpt>
      <trkpt lat="47.25496" lon="-2.25752">
        <ele>23.799999237061</ele>
        <time>2021-12-19T09:06:22.000Z</time>
      </trkpt>
      <trkpt lat="47.25492" lon="-2.25756">
        <ele>23.799999237061</ele>
        <time>2021-12-19T09:06:25.000Z</time>
      </trkpt>
      <trkpt lat="47.2549" lon="-2.25761">
        <ele>23.799999237061</ele>
        <time>2021-12-19T09:06:27.000Z</time>
      </trkpt>
      <trkpt lat="47.25484" lon="-2.25785">
        <ele>23.799999237061</ele>
        <time>2021-12-19T09:06:34.000Z</time>
      </trkpt>
      <trkpt lat="47.25476" lon="-2.258">
        <ele>23.799999237061</ele>
        <time>2021-12-19T09:06:38.000Z</time>
      </trkpt>
      <trkpt lat="47.25474" lon="-2.25806">
        <ele>23.799999237061</ele>
        <time>2021-12-19T09:06:39.000Z</time>
      </trkpt>
      <trkpt lat="47.25468" lon="-2.2585">
        <ele>23.799999237061</ele>
        <time>2021-12-19T09:06:45.000Z</time>
      </trkpt>
      <trkpt lat="47.25464" lon="-2.25871">
        <ele>23.799999237061</ele>
        <time>2021-12-19T09:06:48.000Z</time>
      </trkpt>
      <trkpt lat="47.25458" lon="-2.25892">
        <ele>23.799999237061</ele>
        <time>2021-12-19T09:06:51.000Z</time>
      </trkpt>
      <trkpt lat="47.25451" lon="-2.25917">
        <ele>23.799999237061</ele>
        <time>2021-12-19T09:06:55.000Z</time>
      </trkpt>
      <trkpt lat="47.2545" lon="-2.2593">
        <ele>23.799999237061</ele>
        <time>2021-12-19T09:06:57.000Z</time>
      </trkpt>
      <trkpt lat="47.25454" lon="-2.25956">
        <ele>23.799999237061</ele>
        <time>2021-12-19T09:07:01.000Z</time>
      </trkpt>
      <trkpt lat="47.25459" lon="-2.2597">
        <ele>23.799999237061</ele>
        <time>2021-12-19T09:07:04.000Z</time>
      </trkpt>
      <trkpt lat="47.25461" lon="-2.25977">
        <ele>23.799999237061</ele>
        <time>2021-12-19T09:07:06.000Z</time>
      </trkpt>
      <trkpt lat="47.25464" lon="-2.25987">
        <ele>23.799999237061</ele>
        <time>2021-12-19T09:07:10.000Z</time>
      </trkpt>
      <trkpt lat="47.25464" lon="-2.25988">
        <ele>24.200000762939</ele>
        <time>2021-12-19T09:07:11.000Z</time>
      </trkpt>
      <trkpt lat="47.25464" lon="-2.2599">
        <ele>24.60000038147</ele>
        <time>2021-12-19T09:07:12.000Z</time>
      </trkpt>
      <trkpt lat="47.25464" lon="-2.2599">
        <ele>25</ele>
        <time>2021-12-19T09:07:13.000Z</time>
      </trkpt>
      <trkpt lat="47.25464" lon="-2.25993">
        <ele>25.799999237061</ele>
        <time>2021-12-19T09:07:21.000Z</time>
      </trkpt>
      <trkpt lat="47.25461" lon="-2.25998">
        <ele>25.799999237061</ele>
        <time>2021-12-19T09:07:23.000Z</time>
      </trkpt>
      <trkpt lat="47.25454" lon="-2.26005">
        <ele>25.799999237061</ele>
        <time>2021-12-19T09:07:25.000Z</time>
      </trkpt>
      <trkpt lat="47.2545" lon="-2.26009">
        <ele>25.799999237061</ele>
        <time>2021-12-19T09:07:26.000Z</time>
      </trkpt>
      <trkpt lat="47.25416" lon="-2.26031">
        <ele>25.799999237061</ele>
        <time>2021-12-19T09:07:32.000Z</time>
      </trkpt>
      <trkpt lat="47.25398" lon="-2.26042">
        <ele>25.39999961853</ele>
        <time>2021-12-19T09:07:36.000Z</time>
      </trkpt>
      <trkpt lat="47.25395" lon="-2.26044">
        <ele>25</ele>
        <time>2021-12-19T09:07:37.000Z</time>
      </trkpt>
      <trkpt lat="47.25392" lon="-2.26045">
        <ele>24.60000038147</ele>
        <time>2021-12-19T09:07:38.000Z</time>
      </trkpt>
      <trkpt lat="47.2539" lon="-2.26047">
        <ele>24.200000762939</ele>
        <time>2021-12-19T09:07:39.000Z</time>
      </trkpt>
      <trkpt lat="47.25388" lon="-2.2605">
        <ele>23.799999237061</ele>
        <time>2021-12-19T09:07:40.000Z</time>
      </trkpt>
      <trkpt lat="47.25386" lon="-2.26054">
        <ele>23.799999237061</ele>
        <time>2021-12-19T09:07:41.000Z</time>
      </trkpt>
      <trkpt lat="47.25386" lon="-2.26067">
        <ele>23.799999237061</ele>
        <time>2021-12-19T09:07:43.000Z</time>
      </trkpt>
      <trkpt lat="47.25388" lon="-2.26092">
        <ele>23.799999237061</ele>
        <time>2021-12-19T09:07:48.000Z</time>
      </trkpt>
      <trkpt lat="47.25389" lon="-2.26101">
        <ele>23.799999237061</ele>
        <time>2021-12-19T09:07:50.000Z</time>
      </trkpt>
      <trkpt lat="47.25386" lon="-2.26108">
        <ele>23.799999237061</ele>
        <time>2021-12-19T09:07:52.000Z</time>
      </trkpt>
      <trkpt lat="47.25382" lon="-2.2611">
        <ele>23.799999237061</ele>
        <time>2021-12-19T09:07:54.000Z</time>
      </trkpt>
      <trkpt lat="47.25379" lon="-2.26112">
        <ele>23.799999237061</ele>
        <time>2021-12-19T09:07:56.000Z</time>
      </trkpt>
      <trkpt lat="47.25378" lon="-2.26117">
        <ele>24.60000038147</ele>
        <time>2021-12-19T09:07:58.000Z</time>
      </trkpt>
      <trkpt lat="47.25378" lon="-2.2612">
        <ele>25</ele>
        <time>2021-12-19T09:07:59.000Z</time>
      </trkpt>
      <trkpt lat="47.25377" lon="-2.26124">
        <ele>25.60000038147</ele>
        <time>2021-12-19T09:08:00.000Z</time>
      </trkpt>
      <trkpt lat="47.25376" lon="-2.26129">
        <ele>26</ele>
        <time>2021-12-19T09:08:01.000Z</time>
      </trkpt>
      <trkpt lat="47.25373" lon="-2.26136">
        <ele>26</ele>
        <time>2021-12-19T09:08:03.000Z</time>
      </trkpt>
      <trkpt lat="47.2537" lon="-2.26138">
        <ele>26</ele>
        <time>2021-12-19T09:08:05.000Z</time>
      </trkpt>
      <trkpt lat="47.25364" lon="-2.26137">
        <ele>26.39999961853</ele>
        <time>2021-12-19T09:08:08.000Z</time>
      </trkpt>
      <trkpt lat="47.25361" lon="-2.26137">
        <ele>26.799999237061</ele>
        <time>2021-12-19T09:08:09.000Z</time>
      </trkpt>
      <trkpt lat="47.25359" lon="-2.26137">
        <ele>27.39999961853</ele>
        <time>2021-12-19T09:08:10.000Z</time>
      </trkpt>
      <trkpt lat="47.25357" lon="-2.26138">
        <ele>27.799999237061</ele>
        <time>2021-12-19T09:08:11.000Z</time>
      </trkpt>
      <trkpt lat="47.25354" lon="-2.26138">
        <ele>28.200000762939</ele>
        <time>2021-12-19T09:08:12.000Z</time>
      </trkpt>
      <trkpt lat="47.25349" lon="-2.26143">
        <ele>28.799999237061</ele>
        <time>2021-12-19T09:08:16.000Z</time>
      </trkpt>
      <trkpt lat="47.25349" lon="-2.26145">
        <ele>29.200000762939</ele>
        <time>2021-12-19T09:08:17.000Z</time>
      </trkpt>
      <trkpt lat="47.25349" lon="-2.26148">
        <ele>29.60000038147</ele>
        <time>2021-12-19T09:08:18.000Z</time>
      </trkpt>
      <trkpt lat="47.25349" lon="-2.26149">
        <ele>30.200000762939</ele>
        <time>2021-12-19T09:08:19.000Z</time>
      </trkpt>
      <trkpt lat="47.25348" lon="-2.26151">
        <ele>30.60000038147</ele>
        <time>2021-12-19T09:08:20.000Z</time>
      </trkpt>
      <trkpt lat="47.25346" lon="-2.26153">
        <ele>30.60000038147</ele>
        <time>2021-12-19T09:08:21.000Z</time>
      </trkpt>
      <trkpt lat="47.25341" lon="-2.26152">
        <ele>31</ele>
        <time>2021-12-19T09:08:25.000Z</time>
      </trkpt>
      <trkpt lat="47.2534" lon="-2.2615">
        <ele>31.39999961853</ele>
        <time>2021-12-19T09:08:26.000Z</time>
      </trkpt>
      <trkpt lat="47.2534" lon="-2.26148">
        <ele>31.799999237061</ele>
        <time>2021-12-19T09:08:27.000Z</time>
      </trkpt>
      <trkpt lat="47.2534" lon="-2.26145">
        <ele>32.400001525879</ele>
        <time>2021-12-19T09:08:28.000Z</time>
      </trkpt>
      <trkpt lat="47.2534" lon="-2.26143">
        <ele>32.799999237061</ele>
        <time>2021-12-19T09:08:29.000Z</time>
      </trkpt>
      <trkpt lat="47.25341" lon="-2.26141">
        <ele>32.799999237061</ele>
        <time>2021-12-19T09:08:31.000Z</time>
      </trkpt>
      <trkpt lat="47.25343" lon="-2.26138">
        <ele>32.200000762939</ele>
        <time>2021-12-19T09:08:34.000Z</time>
      </trkpt>
      <trkpt lat="47.25344" lon="-2.26137">
        <ele>31.799999237061</ele>
        <time>2021-12-19T09:08:35.000Z</time>
      </trkpt>
      <trkpt lat="47.25345" lon="-2.26137">
        <ele>31.200000762939</ele>
        <time>2021-12-19T09:08:36.000Z</time>
      </trkpt>
      <trkpt lat="47.25347" lon="-2.26138">
        <ele>30.799999237061</ele>
        <time>2021-12-19T09:08:37.000Z</time>
      </trkpt>
      <trkpt lat="47.2535" lon="-2.26138">
        <ele>30.200000762939</ele>
        <time>2021-12-19T09:08:38.000Z</time>
      </trkpt>
      <trkpt lat="47.25352" lon="-2.2614">
        <ele>29.799999237061</ele>
        <time>2021-12-19T09:08:39.000Z</time>
      </trkpt>
      <trkpt lat="47.25355" lon="-2.26143">
        <ele>29.200000762939</ele>
        <time>2021-12-19T09:08:40.000Z</time>
      </trkpt>
      <trkpt lat="47.25359" lon="-2.26147">
        <ele>28.799999237061</ele>
        <time>2021-12-19T09:08:41.000Z</time>
      </trkpt>
      <trkpt lat="47.25362" lon="-2.2615">
        <ele>28.200000762939</ele>
        <time>2021-12-19T09:08:42.000Z</time>
      </trkpt>
      <trkpt lat="47.25363" lon="-2.26154">
        <ele>28.200000762939</ele>
        <time>2021-12-19T09:08:43.000Z</time>
      </trkpt>
      <trkpt lat="47.2537" lon="-2.26178">
        <ele>28.200000762939</ele>
        <time>2021-12-19T09:08:49.000Z</time>
      </trkpt>
      <trkpt lat="47.25372" lon="-2.26183">
        <ele>28.200000762939</ele>
        <time>2021-12-19T09:08:50.000Z</time>
      </trkpt>
      <trkpt lat="47.25377" lon="-2.26197">
        <ele>28.200000762939</ele>
        <time>2021-12-19T09:08:53.000Z</time>
      </trkpt>
      <trkpt lat="47.25386" lon="-2.26209">
        <ele>28.200000762939</ele>
        <time>2021-12-19T09:08:56.000Z</time>
      </trkpt>
      <trkpt lat="47.2539" lon="-2.26214">
        <ele>28.200000762939</ele>
        <time>2021-12-19T09:08:57.000Z</time>
      </trkpt>
      <trkpt lat="47.25392" lon="-2.2622">
        <ele>28.200000762939</ele>
        <time>2021-12-19T09:08:58.000Z</time>
      </trkpt>
      <trkpt lat="47.25393" lon="-2.26236">
        <ele>28.200000762939</ele>
        <time>2021-12-19T09:09:01.000Z</time>
      </trkpt>
      <trkpt lat="47.25392" lon="-2.26241">
        <ele>28.60000038147</ele>
        <time>2021-12-19T09:09:02.000Z</time>
      </trkpt>
      <trkpt lat="47.25391" lon="-2.26244">
        <ele>29.200000762939</ele>
        <time>2021-12-19T09:09:03.000Z</time>
      </trkpt>
      <trkpt lat="47.2539" lon="-2.26247">
        <ele>29.60000038147</ele>
        <time>2021-12-19T09:09:04.000Z</time>
      </trkpt>
      <trkpt lat="47.2539" lon="-2.2625">
        <ele>30</ele>
        <time>2021-12-19T09:09:05.000Z</time>
      </trkpt>
      <trkpt lat="47.25389" lon="-2.26254">
        <ele>30.60000038147</ele>
        <time>2021-12-19T09:09:06.000Z</time>
      </trkpt>
      <trkpt lat="47.25389" lon="-2.26257">
        <ele>31</ele>
        <time>2021-12-19T09:09:07.000Z</time>
      </trkpt>
      <trkpt lat="47.2539" lon="-2.26262">
        <ele>31.60000038147</ele>
        <time>2021-12-19T09:09:08.000Z</time>
      </trkpt>
      <trkpt lat="47.25392" lon="-2.26266">
        <ele>32</ele>
        <time>2021-12-19T09:09:09.000Z</time>
      </trkpt>
      <trkpt lat="47.25394" lon="-2.26272">
        <ele>32.599998474121</ele>
        <time>2021-12-19T09:09:10.000Z</time>
      </trkpt>
      <trkpt lat="47.25399" lon="-2.26296">
        <ele>32.599998474121</ele>
        <time>2021-12-19T09:09:16.000Z</time>
      </trkpt>
      <trkpt lat="47.25405" lon="-2.26308">
        <ele>32.599998474121</ele>
        <time>2021-12-19T09:09:19.000Z</time>
      </trkpt>
      <trkpt lat="47.25405" lon="-2.26313">
        <ele>32.599998474121</ele>
        <time>2021-12-19T09:09:20.000Z</time>
      </trkpt>
      <trkpt lat="47.25407" lon="-2.26331">
        <ele>32.599998474121</ele>
        <time>2021-12-19T09:09:25.000Z</time>
      </trkpt>
      <trkpt lat="47.25407" lon="-2.26334">
        <ele>32.599998474121</ele>
        <time>2021-12-19T09:09:26.000Z</time>
      </trkpt>
      <trkpt lat="47.25412" lon="-2.26344">
        <ele>32.200000762939</ele>
        <time>2021-12-19T09:09:29.000Z</time>
      </trkpt>
      <trkpt lat="47.25414" lon="-2.26349">
        <ele>31.799999237061</ele>
        <time>2021-12-19T09:09:30.000Z</time>
      </trkpt>
      <trkpt lat="47.25416" lon="-2.26354">
        <ele>31.39999961853</ele>
        <time>2021-12-19T09:09:31.000Z</time>
      </trkpt>
      <trkpt lat="47.25419" lon="-2.26361">
        <ele>31</ele>
        <time>2021-12-19T09:09:32.000Z</time>
      </trkpt>
      <trkpt lat="47.25423" lon="-2.26368">
        <ele>30.60000038147</ele>
        <time>2021-12-19T09:09:33.000Z</time>
      </trkpt>
      <trkpt lat="47.25426" lon="-2.26389">
        <ele>30</ele>
        <time>2021-12-19T09:09:35.000Z</time>
      </trkpt>
      <trkpt lat="47.25426" lon="-2.26396">
        <ele>29.60000038147</ele>
        <time>2021-12-19T09:09:36.000Z</time>
      </trkpt>
      <trkpt lat="47.25426" lon="-2.26403">
        <ele>28.799999237061</ele>
        <time>2021-12-19T09:09:37.000Z</time>
      </trkpt>
      <trkpt lat="47.25425" lon="-2.26409">
        <ele>28.39999961853</ele>
        <time>2021-12-19T09:09:38.000Z</time>
      </trkpt>
      <trkpt lat="47.25425" lon="-2.26424">
        <ele>28.39999961853</ele>
        <time>2021-12-19T09:09:41.000Z</time>
      </trkpt>
      <trkpt lat="47.25425" lon="-2.26456">
        <ele>28.39999961853</ele>
        <time>2021-12-19T09:09:48.000Z</time>
      </trkpt>
      <trkpt lat="47.25425" lon="-2.2646">
        <ele>28.799999237061</ele>
        <time>2021-12-19T09:09:49.000Z</time>
      </trkpt>
      <trkpt lat="47.25425" lon="-2.26463">
        <ele>29.200000762939</ele>
        <time>2021-12-19T09:09:50.000Z</time>
      </trkpt>
      <trkpt lat="47.25424" lon="-2.26467">
        <ele>29.60000038147</ele>
        <time>2021-12-19T09:09:51.000Z</time>
      </trkpt>
      <trkpt lat="47.25424" lon="-2.2647">
        <ele>30</ele>
        <time>2021-12-19T09:09:52.000Z</time>
      </trkpt>
      <trkpt lat="47.25424" lon="-2.26474">
        <ele>30.39999961853</ele>
        <time>2021-12-19T09:09:53.000Z</time>
      </trkpt>
      <trkpt lat="47.25423" lon="-2.26483">
        <ele>30.799999237061</ele>
        <time>2021-12-19T09:09:56.000Z</time>
      </trkpt>
      <trkpt lat="47.25423" lon="-2.26487">
        <ele>31.200000762939</ele>
        <time>2021-12-19T09:09:57.000Z</time>
      </trkpt>
      <trkpt lat="47.25423" lon="-2.2649">
        <ele>31.60000038147</ele>
        <time>2021-12-19T09:09:58.000Z</time>
      </trkpt>
      <trkpt lat="47.25423" lon="-2.26495">
        <ele>32</ele>
        <time>2021-12-19T09:09:59.000Z</time>
      </trkpt>
      <trkpt lat="47.25424" lon="-2.26499">
        <ele>32.400001525879</ele>
        <time>2021-12-19T09:10:00.000Z</time>
      </trkpt>
      <trkpt lat="47.25425" lon="-2.26502">
        <ele>32.400001525879</ele>
        <time>2021-12-19T09:10:01.000Z</time>
      </trkpt>
      <trkpt lat="47.2543" lon="-2.26506">
        <ele>32.400001525879</ele>
        <time>2021-12-19T09:10:03.000Z</time>
      </trkpt>
      <trkpt lat="47.25434" lon="-2.26505">
        <ele>32.400001525879</ele>
        <time>2021-12-19T09:10:05.000Z</time>
      </trkpt>
      <trkpt lat="47.25437" lon="-2.26504">
        <ele>32.400001525879</ele>
        <time>2021-12-19T09:10:06.000Z</time>
      </trkpt>
      <trkpt lat="47.25448" lon="-2.26503">
        <ele>32.400001525879</ele>
        <time>2021-12-19T09:10:10.000Z</time>
      </trkpt>
      <trkpt lat="47.25464" lon="-2.26514">
        <ele>32.400001525879</ele>
        <time>2021-12-19T09:10:15.000Z</time>
      </trkpt>
      <trkpt lat="47.2548" lon="-2.2654">
        <ele>32.400001525879</ele>
        <time>2021-12-19T09:10:21.000Z</time>
      </trkpt>
      <trkpt lat="47.25487" lon="-2.26569">
        <ele>32.400001525879</ele>
        <time>2021-12-19T09:10:27.000Z</time>
      </trkpt>
      <trkpt lat="47.25486" lon="-2.26605">
        <ele>32.400001525879</ele>
        <time>2021-12-19T09:10:33.000Z</time>
      </trkpt>
      <trkpt lat="47.25486" lon="-2.26611">
        <ele>32.400001525879</ele>
        <time>2021-12-19T09:10:34.000Z</time>
      </trkpt>
      <trkpt lat="47.25487" lon="-2.26643">
        <ele>32.400001525879</ele>
        <time>2021-12-19T09:10:39.000Z</time>
      </trkpt>
      <trkpt lat="47.25486" lon="-2.26657">
        <ele>32.799999237061</ele>
        <time>2021-12-19T09:10:42.000Z</time>
      </trkpt>
      <trkpt lat="47.25486" lon="-2.26662">
        <ele>33.200000762939</ele>
        <time>2021-12-19T09:10:43.000Z</time>
      </trkpt>
      <trkpt lat="47.25486" lon="-2.26666">
        <ele>33.599998474121</ele>
        <time>2021-12-19T09:10:44.000Z</time>
      </trkpt>
      <trkpt lat="47.25486" lon="-2.2667">
        <ele>34</ele>
        <time>2021-12-19T09:10:45.000Z</time>
      </trkpt>
      <trkpt lat="47.25485" lon="-2.26674">
        <ele>34.400001525879</ele>
        <time>2021-12-19T09:10:46.000Z</time>
      </trkpt>
      <trkpt lat="47.25477" lon="-2.2669">
        <ele>34.400001525879</ele>
        <time>2021-12-19T09:10:50.000Z</time>
      </trkpt>
      <trkpt lat="47.25475" lon="-2.26706">
        <ele>34.400001525879</ele>
        <time>2021-12-19T09:10:55.000Z</time>
      </trkpt>
      <trkpt lat="47.25475" lon="-2.2671">
        <ele>34.799999237061</ele>
        <time>2021-12-19T09:10:56.000Z</time>
      </trkpt>
      <trkpt lat="47.25475" lon="-2.26715">
        <ele>35.200000762939</ele>
        <time>2021-12-19T09:10:57.000Z</time>
      </trkpt>
      <trkpt lat="47.25476" lon="-2.2672">
        <ele>35.599998474121</ele>
        <time>2021-12-19T09:10:58.000Z</time>
      </trkpt>
      <trkpt lat="47.25477" lon="-2.26725">
        <ele>36</ele>
        <time>2021-12-19T09:10:59.000Z</time>
      </trkpt>
      <trkpt lat="47.25478" lon="-2.2673">
        <ele>36.400001525879</ele>
        <time>2021-12-19T09:11:00.000Z</time>
      </trkpt>
      <trkpt lat="47.25491" lon="-2.26759">
        <ele>36.400001525879</ele>
        <time>2021-12-19T09:11:06.000Z</time>
      </trkpt>
      <trkpt lat="47.25511" lon="-2.26791">
        <ele>36.400001525879</ele>
        <time>2021-12-19T09:11:13.000Z</time>
      </trkpt>
      <trkpt lat="47.25516" lon="-2.26799">
        <ele>37</ele>
        <time>2021-12-19T09:11:15.000Z</time>
      </trkpt>
      <trkpt lat="47.25518" lon="-2.26802">
        <ele>37.799999237061</ele>
        <time>2021-12-19T09:11:16.000Z</time>
      </trkpt>
      <trkpt lat="47.25521" lon="-2.26806">
        <ele>38.200000762939</ele>
        <time>2021-12-19T09:11:17.000Z</time>
      </trkpt>
      <trkpt lat="47.25524" lon="-2.26809">
        <ele>38.799999237061</ele>
        <time>2021-12-19T09:11:18.000Z</time>
      </trkpt>
      <trkpt lat="47.25533" lon="-2.26819">
        <ele>38.799999237061</ele>
        <time>2021-12-19T09:11:21.000Z</time>
      </trkpt>
      <trkpt lat="47.2555" lon="-2.26839">
        <ele>39.200000762939</ele>
        <time>2021-12-19T09:11:27.000Z</time>
      </trkpt>
      <trkpt lat="47.25553" lon="-2.26842">
        <ele>39.599998474121</ele>
        <time>2021-12-19T09:11:28.000Z</time>
      </trkpt>
      <trkpt lat="47.25557" lon="-2.26844">
        <ele>40</ele>
        <time>2021-12-19T09:11:29.000Z</time>
      </trkpt>
      <trkpt lat="47.2556" lon="-2.26846">
        <ele>40.400001525879</ele>
        <time>2021-12-19T09:11:30.000Z</time>
      </trkpt>
      <trkpt lat="47.25563" lon="-2.26848">
        <ele>40.799999237061</ele>
        <time>2021-12-19T09:11:31.000Z</time>
      </trkpt>
      <trkpt lat="47.25566" lon="-2.2685">
        <ele>40.799999237061</ele>
        <time>2021-12-19T09:11:32.000Z</time>
      </trkpt>
      <trkpt lat="47.25588" lon="-2.26865">
        <ele>41.200000762939</ele>
        <time>2021-12-19T09:11:39.000Z</time>
      </trkpt>
      <trkpt lat="47.25591" lon="-2.26867">
        <ele>41.599998474121</ele>
        <time>2021-12-19T09:11:40.000Z</time>
      </trkpt>
      <trkpt lat="47.25594" lon="-2.26869">
        <ele>42.599998474121</ele>
        <time>2021-12-19T09:11:41.000Z</time>
      </trkpt>
      <trkpt lat="47.25596" lon="-2.2687">
        <ele>43</ele>
        <time>2021-12-19T09:11:42.000Z</time>
      </trkpt>
      <trkpt lat="47.25605" lon="-2.26875">
        <ele>43</ele>
        <time>2021-12-19T09:11:45.000Z</time>
      </trkpt>
      <trkpt lat="47.25623" lon="-2.26878">
        <ele>43.400001525879</ele>
        <time>2021-12-19T09:11:51.000Z</time>
      </trkpt>
      <trkpt lat="47.25625" lon="-2.26876">
        <ele>43.799999237061</ele>
        <time>2021-12-19T09:11:52.000Z</time>
      </trkpt>
      <trkpt lat="47.25628" lon="-2.26874">
        <ele>44.200000762939</ele>
        <time>2021-12-19T09:11:53.000Z</time>
      </trkpt>
      <trkpt lat="47.25631" lon="-2.2687">
        <ele>44.599998474121</ele>
        <time>2021-12-19T09:11:54.000Z</time>
      </trkpt>
      <trkpt lat="47.25633" lon="-2.26865">
        <ele>45</ele>
        <time>2021-12-19T09:11:55.000Z</time>
      </trkpt>
      <trkpt lat="47.25635" lon="-2.26861">
        <ele>45</ele>
        <time>2021-12-19T09:11:56.000Z</time>
      </trkpt>
      <trkpt lat="47.25655" lon="-2.26832">
        <ele>45</ele>
        <time>2021-12-19T09:12:03.000Z</time>
      </trkpt>
      <trkpt lat="47.25664" lon="-2.2682">
        <ele>45</ele>
        <time>2021-12-19T09:12:07.000Z</time>
      </trkpt>
      <trkpt lat="47.25685" lon="-2.26814">
        <ele>45</ele>
        <time>2021-12-19T09:12:13.000Z</time>
      </trkpt>
      <trkpt lat="47.25711" lon="-2.26822">
        <ele>45</ele>
        <time>2021-12-19T09:12:20.000Z</time>
      </trkpt>
      <trkpt lat="47.25724" lon="-2.26834">
        <ele>45</ele>
        <time>2021-12-19T09:12:24.000Z</time>
      </trkpt>
      <trkpt lat="47.25734" lon="-2.26846">
        <ele>45</ele>
        <time>2021-12-19T09:12:27.000Z</time>
      </trkpt>
      <trkpt lat="47.25742" lon="-2.26867">
        <ele>45</ele>
        <time>2021-12-19T09:12:31.000Z</time>
      </trkpt>
      <trkpt lat="47.25744" lon="-2.26873">
        <ele>45</ele>
        <time>2021-12-19T09:12:32.000Z</time>
      </trkpt>
      <trkpt lat="47.2575" lon="-2.26897">
        <ele>45</ele>
        <time>2021-12-19T09:12:37.000Z</time>
      </trkpt>
      <trkpt lat="47.25765" lon="-2.26896">
        <ele>45</ele>
        <time>2021-12-19T09:12:41.000Z</time>
      </trkpt>
      <trkpt lat="47.25777" lon="-2.2689">
        <ele>45</ele>
        <time>2021-12-19T09:12:44.000Z</time>
      </trkpt>
      <trkpt lat="47.25786" lon="-2.26887">
        <ele>45</ele>
        <time>2021-12-19T09:12:46.000Z</time>
      </trkpt>
      <trkpt lat="47.25809" lon="-2.26873">
        <ele>45</ele>
        <time>2021-12-19T09:12:51.000Z</time>
      </trkpt>
      <trkpt lat="47.25813" lon="-2.2687">
        <ele>45</ele>
        <time>2021-12-19T09:12:52.000Z</time>
      </trkpt>
      <trkpt lat="47.25844" lon="-2.26856">
        <ele>45</ele>
        <time>2021-12-19T09:12:58.000Z</time>
      </trkpt>
      <trkpt lat="47.25882" lon="-2.26841">
        <ele>45</ele>
        <time>2021-12-19T09:13:05.000Z</time>
      </trkpt>
      <trkpt lat="47.25888" lon="-2.26839">
        <ele>44.599998474121</ele>
        <time>2021-12-19T09:13:06.000Z</time>
      </trkpt>
      <trkpt lat="47.25893" lon="-2.26837">
        <ele>44</ele>
        <time>2021-12-19T09:13:07.000Z</time>
      </trkpt>
      <trkpt lat="47.25898" lon="-2.26834">
        <ele>43.599998474121</ele>
        <time>2021-12-19T09:13:08.000Z</time>
      </trkpt>
      <trkpt lat="47.25903" lon="-2.26832">
        <ele>43.200000762939</ele>
        <time>2021-12-19T09:13:09.000Z</time>
      </trkpt>
      <trkpt lat="47.25908" lon="-2.26829">
        <ele>42.599998474121</ele>
        <time>2021-12-19T09:13:10.000Z</time>
      </trkpt>
      <trkpt lat="47.25928" lon="-2.26817">
        <ele>42.599998474121</ele>
        <time>2021-12-19T09:13:14.000Z</time>
      </trkpt>
      <trkpt lat="47.25933" lon="-2.26816">
        <ele>42.599998474121</ele>
        <time>2021-12-19T09:13:15.000Z</time>
      </trkpt>
      <trkpt lat="47.25944" lon="-2.26816">
        <ele>42.599998474121</ele>
        <time>2021-12-19T09:13:17.000Z</time>
      </trkpt>
      <trkpt lat="47.2596" lon="-2.26814">
        <ele>42.599998474121</ele>
        <time>2021-12-19T09:13:20.000Z</time>
      </trkpt>
      <trkpt lat="47.25965" lon="-2.26815">
        <ele>42.599998474121</ele>
        <time>2021-12-19T09:13:21.000Z</time>
      </trkpt>
      <trkpt lat="47.2597" lon="-2.26817">
        <ele>42.200000762939</ele>
        <time>2021-12-19T09:13:22.000Z</time>
      </trkpt>
      <trkpt lat="47.25975" lon="-2.26817">
        <ele>41.799999237061</ele>
        <time>2021-12-19T09:13:23.000Z</time>
      </trkpt>
      <trkpt lat="47.25979" lon="-2.26817">
        <ele>41.400001525879</ele>
        <time>2021-12-19T09:13:24.000Z</time>
      </trkpt>
      <trkpt lat="47.25983" lon="-2.26818">
        <ele>40.799999237061</ele>
        <time>2021-12-19T09:13:25.000Z</time>
      </trkpt>
      <trkpt lat="47.25986" lon="-2.26822">
        <ele>40.400001525879</ele>
        <time>2021-12-19T09:13:26.000Z</time>
      </trkpt>
      <trkpt lat="47.2599" lon="-2.26832">
        <ele>40.400001525879</ele>
        <time>2021-12-19T09:13:28.000Z</time>
      </trkpt>
      <trkpt lat="47.25991" lon="-2.26853">
        <ele>40.400001525879</ele>
        <time>2021-12-19T09:13:31.000Z</time>
      </trkpt>
      <trkpt lat="47.25991" lon="-2.2686">
        <ele>40.400001525879</ele>
        <time>2021-12-19T09:13:32.000Z</time>
      </trkpt>
      <trkpt lat="47.25992" lon="-2.26866">
        <ele>40.400001525879</ele>
        <time>2021-12-19T09:13:33.000Z</time>
      </trkpt>
      <trkpt lat="47.25995" lon="-2.26886">
        <ele>40.400001525879</ele>
        <time>2021-12-19T09:13:36.000Z</time>
      </trkpt>
      <trkpt lat="47.26002" lon="-2.26905">
        <ele>40.400001525879</ele>
        <time>2021-12-19T09:13:39.000Z</time>
      </trkpt>
      <trkpt lat="47.26015" lon="-2.26929">
        <ele>40.400001525879</ele>
        <time>2021-12-19T09:13:44.000Z</time>
      </trkpt>
      <trkpt lat="47.26029" lon="-2.26947">
        <ele>40.400001525879</ele>
        <time>2021-12-19T09:13:50.000Z</time>
      </trkpt>
      <trkpt lat="47.26045" lon="-2.26967">
        <ele>40.400001525879</ele>
        <time>2021-12-19T09:13:56.000Z</time>
      </trkpt>
      <trkpt lat="47.26059" lon="-2.2699">
        <ele>40.400001525879</ele>
        <time>2021-12-19T09:14:02.000Z</time>
      </trkpt>
      <trkpt lat="47.26072" lon="-2.27026">
        <ele>40.400001525879</ele>
        <time>2021-12-19T09:14:08.000Z</time>
      </trkpt>
      <trkpt lat="47.26084" lon="-2.27076">
        <ele>40.400001525879</ele>
        <time>2021-12-19T09:14:15.000Z</time>
      </trkpt>
      <trkpt lat="47.26087" lon="-2.27098">
        <ele>40.400001525879</ele>
        <time>2021-12-19T09:14:18.000Z</time>
      </trkpt>
      <trkpt lat="47.2609" lon="-2.27121">
        <ele>40.400001525879</ele>
        <time>2021-12-19T09:14:21.000Z</time>
      </trkpt>
      <trkpt lat="47.26097" lon="-2.27152">
        <ele>40.400001525879</ele>
        <time>2021-12-19T09:14:25.000Z</time>
      </trkpt>
      <trkpt lat="47.26102" lon="-2.27166">
        <ele>40.400001525879</ele>
        <time>2021-12-19T09:14:27.000Z</time>
      </trkpt>
      <trkpt lat="47.26123" lon="-2.27221">
        <ele>40.400001525879</ele>
        <time>2021-12-19T09:14:35.000Z</time>
      </trkpt>
      <trkpt lat="47.26137" lon="-2.27259">
        <ele>40.400001525879</ele>
        <time>2021-12-19T09:14:41.000Z</time>
      </trkpt>
      <trkpt lat="47.26143" lon="-2.27286">
        <ele>40.400001525879</ele>
        <time>2021-12-19T09:14:45.000Z</time>
      </trkpt>
      <trkpt lat="47.26145" lon="-2.273">
        <ele>40.400001525879</ele>
        <time>2021-12-19T09:14:47.000Z</time>
      </trkpt>
      <trkpt lat="47.26153" lon="-2.27317">
        <ele>40.400001525879</ele>
        <time>2021-12-19T09:14:51.000Z</time>
      </trkpt>
      <trkpt lat="47.26165" lon="-2.2732">
        <ele>40.400001525879</ele>
        <time>2021-12-19T09:14:54.000Z</time>
      </trkpt>
      <trkpt lat="47.26169" lon="-2.2732">
        <ele>40.400001525879</ele>
        <time>2021-12-19T09:14:55.000Z</time>
      </trkpt>
      <trkpt lat="47.26197" lon="-2.27314">
        <ele>40.400001525879</ele>
        <time>2021-12-19T09:15:01.000Z</time>
      </trkpt>
      <trkpt lat="47.26201" lon="-2.27313">
        <ele>40.400001525879</ele>
        <time>2021-12-19T09:15:02.000Z</time>
      </trkpt>
      <trkpt lat="47.26212" lon="-2.27315">
        <ele>40.400001525879</ele>
        <time>2021-12-19T09:15:04.000Z</time>
      </trkpt>
      <trkpt lat="47.2623" lon="-2.27317">
        <ele>40.400001525879</ele>
        <time>2021-12-19T09:15:07.000Z</time>
      </trkpt>
      <trkpt lat="47.2626" lon="-2.27321">
        <ele>40.400001525879</ele>
        <time>2021-12-19T09:15:12.000Z</time>
      </trkpt>
      <trkpt lat="47.263" lon="-2.27324">
        <ele>40.400001525879</ele>
        <time>2021-12-19T09:15:19.000Z</time>
      </trkpt>
      <trkpt lat="47.26318" lon="-2.27326">
        <ele>40</ele>
        <time>2021-12-19T09:15:22.000Z</time>
      </trkpt>
      <trkpt lat="47.26324" lon="-2.27326">
        <ele>39.599998474121</ele>
        <time>2021-12-19T09:15:23.000Z</time>
      </trkpt>
      <trkpt lat="47.2633" lon="-2.27326">
        <ele>39.200000762939</ele>
        <time>2021-12-19T09:15:24.000Z</time>
      </trkpt>
      <trkpt lat="47.26335" lon="-2.27327">
        <ele>38.799999237061</ele>
        <time>2021-12-19T09:15:25.000Z</time>
      </trkpt>
      <trkpt lat="47.26341" lon="-2.27328">
        <ele>38.400001525879</ele>
        <time>2021-12-19T09:15:26.000Z</time>
      </trkpt>
      <trkpt lat="47.26376" lon="-2.27328">
        <ele>38.400001525879</ele>
        <time>2021-12-19T09:15:32.000Z</time>
      </trkpt>
      <trkpt lat="47.26399" lon="-2.27328">
        <ele>38.400001525879</ele>
        <time>2021-12-19T09:15:36.000Z</time>
      </trkpt>
      <trkpt lat="47.2641" lon="-2.27331">
        <ele>38.400001525879</ele>
        <time>2021-12-19T09:15:38.000Z</time>
      </trkpt>
      <trkpt lat="47.2642" lon="-2.27335">
        <ele>38.400001525879</ele>
        <time>2021-12-19T09:15:40.000Z</time>
      </trkpt>
      <trkpt lat="47.26427" lon="-2.27343">
        <ele>38.400001525879</ele>
        <time>2021-12-19T09:15:42.000Z</time>
      </trkpt>
      <trkpt lat="47.2643" lon="-2.27349">
        <ele>38</ele>
        <time>2021-12-19T09:15:43.000Z</time>
      </trkpt>
      <trkpt lat="47.26433" lon="-2.27356">
        <ele>37.599998474121</ele>
        <time>2021-12-19T09:15:44.000Z</time>
      </trkpt>
      <trkpt lat="47.26435" lon="-2.27364">
        <ele>37.200000762939</ele>
        <time>2021-12-19T09:15:45.000Z</time>
      </trkpt>
      <trkpt lat="47.26437" lon="-2.27371">
        <ele>36.799999237061</ele>
        <time>2021-12-19T09:15:46.000Z</time>
      </trkpt>
      <trkpt lat="47.2644" lon="-2.27378">
        <ele>36.400001525879</ele>
        <time>2021-12-19T09:15:47.000Z</time>
      </trkpt>
      <trkpt lat="47.26454" lon="-2.27423">
        <ele>36</ele>
        <time>2021-12-19T09:15:53.000Z</time>
      </trkpt>
      <trkpt lat="47.26457" lon="-2.27431">
        <ele>35.400001525879</ele>
        <time>2021-12-19T09:15:54.000Z</time>
      </trkpt>
      <trkpt lat="47.26459" lon="-2.27438">
        <ele>35</ele>
        <time>2021-12-19T09:15:55.000Z</time>
      </trkpt>
      <trkpt lat="47.26462" lon="-2.27446">
        <ele>34.599998474121</ele>
        <time>2021-12-19T09:15:56.000Z</time>
      </trkpt>
      <trkpt lat="47.26464" lon="-2.27453">
        <ele>34.200000762939</ele>
        <time>2021-12-19T09:15:57.000Z</time>
      </trkpt>
      <trkpt lat="47.26472" lon="-2.27475">
        <ele>34.200000762939</ele>
        <time>2021-12-19T09:16:00.000Z</time>
      </trkpt>
      <trkpt lat="47.26487" lon="-2.27533">
        <ele>34.200000762939</ele>
        <time>2021-12-19T09:16:08.000Z</time>
      </trkpt>
      <trkpt lat="47.2649" lon="-2.27548">
        <ele>33.799999237061</ele>
        <time>2021-12-19T09:16:10.000Z</time>
      </trkpt>
      <trkpt lat="47.26491" lon="-2.27556">
        <ele>33</ele>
        <time>2021-12-19T09:16:11.000Z</time>
      </trkpt>
      <trkpt lat="47.26492" lon="-2.27563">
        <ele>32.599998474121</ele>
        <time>2021-12-19T09:16:12.000Z</time>
      </trkpt>
      <trkpt lat="47.26494" lon="-2.2757">
        <ele>32.200000762939</ele>
        <time>2021-12-19T09:16:13.000Z</time>
      </trkpt>
      <trkpt lat="47.26497" lon="-2.27575">
        <ele>32.200000762939</ele>
        <time>2021-12-19T09:16:14.000Z</time>
      </trkpt>
      <trkpt lat="47.2651" lon="-2.27575">
        <ele>32.200000762939</ele>
        <time>2021-12-19T09:16:17.000Z</time>
      </trkpt>
      <trkpt lat="47.2652" lon="-2.27571">
        <ele>32.200000762939</ele>
        <time>2021-12-19T09:16:19.000Z</time>
      </trkpt>
      <trkpt lat="47.2653" lon="-2.27566">
        <ele>32.200000762939</ele>
        <time>2021-12-19T09:16:21.000Z</time>
      </trkpt>
      <trkpt lat="47.26535" lon="-2.27562">
        <ele>32.200000762939</ele>
        <time>2021-12-19T09:16:22.000Z</time>
      </trkpt>
      <trkpt lat="47.26552" lon="-2.27545">
        <ele>32.200000762939</ele>
        <time>2021-12-19T09:16:27.000Z</time>
      </trkpt>
      <trkpt lat="47.26564" lon="-2.27527">
        <ele>32.200000762939</ele>
        <time>2021-12-19T09:16:32.000Z</time>
      </trkpt>
      <trkpt lat="47.26578" lon="-2.2749">
        <ele>32.200000762939</ele>
        <time>2021-12-19T09:16:40.000Z</time>
      </trkpt>
      <trkpt lat="47.26593" lon="-2.27466">
        <ele>32.599998474121</ele>
        <time>2021-12-19T09:16:46.000Z</time>
      </trkpt>
      <trkpt lat="47.26596" lon="-2.27462">
        <ele>33</ele>
        <time>2021-12-19T09:16:47.000Z</time>
      </trkpt>
      <trkpt lat="47.26599" lon="-2.27459">
        <ele>33.400001525879</ele>
        <time>2021-12-19T09:16:48.000Z</time>
      </trkpt>
      <trkpt lat="47.26602" lon="-2.27455">
        <ele>33.799999237061</ele>
        <time>2021-12-19T09:16:49.000Z</time>
      </trkpt>
      <trkpt lat="47.26606" lon="-2.27451">
        <ele>34.200000762939</ele>
        <time>2021-12-19T09:16:50.000Z</time>
      </trkpt>
      <trkpt lat="47.26619" lon="-2.27435">
        <ele>34.200000762939</ele>
        <time>2021-12-19T09:16:54.000Z</time>
      </trkpt>
      <trkpt lat="47.2665" lon="-2.27406">
        <ele>34.200000762939</ele>
        <time>2021-12-19T09:17:02.000Z</time>
      </trkpt>
      <trkpt lat="47.26683" lon="-2.27376">
        <ele>34.200000762939</ele>
        <time>2021-12-19T09:17:10.000Z</time>
      </trkpt>
      <trkpt lat="47.26696" lon="-2.27367">
        <ele>34.200000762939</ele>
        <time>2021-12-19T09:17:13.000Z</time>
      </trkpt>
      <trkpt lat="47.26715" lon="-2.2736">
        <ele>33.799999237061</ele>
        <time>2021-12-19T09:17:17.000Z</time>
      </trkpt>
      <trkpt lat="47.26719" lon="-2.27358">
        <ele>33.400001525879</ele>
        <time>2021-12-19T09:17:18.000Z</time>
      </trkpt>
      <trkpt lat="47.26723" lon="-2.27356">
        <ele>33</ele>
        <time>2021-12-19T09:17:19.000Z</time>
      </trkpt>
      <trkpt lat="47.26727" lon="-2.27354">
        <ele>32.599998474121</ele>
        <time>2021-12-19T09:17:20.000Z</time>
      </trkpt>
      <trkpt lat="47.2673" lon="-2.27352">
        <ele>32.200000762939</ele>
        <time>2021-12-19T09:17:21.000Z</time>
      </trkpt>
      <trkpt lat="47.26734" lon="-2.2735">
        <ele>32.200000762939</ele>
        <time>2021-12-19T09:17:22.000Z</time>
      </trkpt>
      <trkpt lat="47.26736" lon="-2.27346">
        <ele>32.200000762939</ele>
        <time>2021-12-19T09:17:23.000Z</time>
      </trkpt>
      <trkpt lat="47.26737" lon="-2.27335">
        <ele>32.200000762939</ele>
        <time>2021-12-19T09:17:25.000Z</time>
      </trkpt>
      <trkpt lat="47.26737" lon="-2.27324">
        <ele>32.200000762939</ele>
        <time>2021-12-19T09:17:27.000Z</time>
      </trkpt>
      <trkpt lat="47.26735" lon="-2.27305">
        <ele>32.200000762939</ele>
        <time>2021-12-19T09:17:30.000Z</time>
      </trkpt>
      <trkpt lat="47.26731" lon="-2.27279">
        <ele>32.200000762939</ele>
        <time>2021-12-19T09:17:34.000Z</time>
      </trkpt>
      <trkpt lat="47.26731" lon="-2.27267">
        <ele>32.200000762939</ele>
        <time>2021-12-19T09:17:36.000Z</time>
      </trkpt>
      <trkpt lat="47.26733" lon="-2.27256">
        <ele>32.599998474121</ele>
        <time>2021-12-19T09:17:38.000Z</time>
      </trkpt>
      <trkpt lat="47.26734" lon="-2.2725">
        <ele>33</ele>
        <time>2021-12-19T09:17:39.000Z</time>
      </trkpt>
      <trkpt lat="47.26734" lon="-2.27245">
        <ele>33.400001525879</ele>
        <time>2021-12-19T09:17:40.000Z</time>
      </trkpt>
      <trkpt lat="47.26734" lon="-2.27241">
        <ele>33.799999237061</ele>
        <time>2021-12-19T09:17:41.000Z</time>
      </trkpt>
      <trkpt lat="47.26733" lon="-2.27237">
        <ele>34.200000762939</ele>
        <time>2021-12-19T09:17:42.000Z</time>
      </trkpt>
      <trkpt lat="47.2673" lon="-2.27219">
        <ele>34.200000762939</ele>
        <time>2021-12-19T09:17:46.000Z</time>
      </trkpt>
      <trkpt lat="47.26728" lon="-2.27199">
        <ele>34.200000762939</ele>
        <time>2021-12-19T09:17:51.000Z</time>
      </trkpt>
      <trkpt lat="47.26733" lon="-2.27182">
        <ele>34.200000762939</ele>
        <time>2021-12-19T09:17:56.000Z</time>
      </trkpt>
      <trkpt lat="47.26746" lon="-2.27168">
        <ele>34.200000762939</ele>
        <time>2021-12-19T09:18:00.000Z</time>
      </trkpt>
      <trkpt lat="47.26762" lon="-2.27151">
        <ele>33.799999237061</ele>
        <time>2021-12-19T09:18:04.000Z</time>
      </trkpt>
      <trkpt lat="47.26767" lon="-2.27147">
        <ele>33.400001525879</ele>
        <time>2021-12-19T09:18:05.000Z</time>
      </trkpt>
      <trkpt lat="47.26771" lon="-2.27144">
        <ele>32.799999237061</ele>
        <time>2021-12-19T09:18:06.000Z</time>
      </trkpt>
      <trkpt lat="47.26776" lon="-2.27141">
        <ele>32.400001525879</ele>
        <time>2021-12-19T09:18:07.000Z</time>
      </trkpt>
      <trkpt lat="47.26781" lon="-2.27138">
        <ele>32</ele>
        <time>2021-12-19T09:18:08.000Z</time>
      </trkpt>
      <trkpt lat="47.2681" lon="-2.27128">
        <ele>32</ele>
        <time>2021-12-19T09:18:13.000Z</time>
      </trkpt>
      <trkpt lat="47.26827" lon="-2.27124">
        <ele>32</ele>
        <time>2021-12-19T09:18:16.000Z</time>
      </trkpt>
      <trkpt lat="47.26838" lon="-2.27122">
        <ele>32</ele>
        <time>2021-12-19T09:18:18.000Z</time>
      </trkpt>
      <trkpt lat="47.26843" lon="-2.27119">
        <ele>32</ele>
        <time>2021-12-19T09:18:19.000Z</time>
      </trkpt>
      <trkpt lat="47.26865" lon="-2.27106">
        <ele>31.60000038147</ele>
        <time>2021-12-19T09:18:23.000Z</time>
      </trkpt>
      <trkpt lat="47.2687" lon="-2.27101">
        <ele>31.200000762939</ele>
        <time>2021-12-19T09:18:24.000Z</time>
      </trkpt>
      <trkpt lat="47.26874" lon="-2.27096">
        <ele>30.60000038147</ele>
        <time>2021-12-19T09:18:25.000Z</time>
      </trkpt>
      <trkpt lat="47.26879" lon="-2.27091">
        <ele>30.200000762939</ele>
        <time>2021-12-19T09:18:26.000Z</time>
      </trkpt>
      <trkpt lat="47.26884" lon="-2.27086">
        <ele>29.799999237061</ele>
        <time>2021-12-19T09:18:27.000Z</time>
      </trkpt>
      <trkpt lat="47.26894" lon="-2.27073">
        <ele>29.39999961853</ele>
        <time>2021-12-19T09:18:29.000Z</time>
      </trkpt>
      <trkpt lat="47.26899" lon="-2.27067">
        <ele>29</ele>
        <time>2021-12-19T09:18:30.000Z</time>
      </trkpt>
      <trkpt lat="47.26904" lon="-2.2706">
        <ele>28.60000038147</ele>
        <time>2021-12-19T09:18:31.000Z</time>
      </trkpt>
      <trkpt lat="47.26909" lon="-2.27054">
        <ele>28</ele>
        <time>2021-12-19T09:18:32.000Z</time>
      </trkpt>
      <trkpt lat="47.26914" lon="-2.27048">
        <ele>27.60000038147</ele>
        <time>2021-12-19T09:18:33.000Z</time>
      </trkpt>
      <trkpt lat="47.26928" lon="-2.27027">
        <ele>27.200000762939</ele>
        <time>2021-12-19T09:18:36.000Z</time>
      </trkpt>
      <trkpt lat="47.26932" lon="-2.27021">
        <ele>26.799999237061</ele>
        <time>2021-12-19T09:18:37.000Z</time>
      </trkpt>
      <trkpt lat="47.26936" lon="-2.27014">
        <ele>26.200000762939</ele>
        <time>2021-12-19T09:18:38.000Z</time>
      </trkpt>
      <trkpt lat="47.26939" lon="-2.27008">
        <ele>25.799999237061</ele>
        <time>2021-12-19T09:18:39.000Z</time>
      </trkpt>
      <trkpt lat="47.26943" lon="-2.27001">
        <ele>25.39999961853</ele>
        <time>2021-12-19T09:18:40.000Z</time>
      </trkpt>
      <trkpt lat="47.26946" lon="-2.26994">
        <ele>25</ele>
        <time>2021-12-19T09:18:41.000Z</time>
      </trkpt>
      <trkpt lat="47.26949" lon="-2.26987">
        <ele>24.39999961853</ele>
        <time>2021-12-19T09:18:42.000Z</time>
      </trkpt>
      <trkpt lat="47.26952" lon="-2.2698">
        <ele>24</ele>
        <time>2021-12-19T09:18:43.000Z</time>
      </trkpt>
      <trkpt lat="47.26954" lon="-2.26972">
        <ele>23.60000038147</ele>
        <time>2021-12-19T09:18:44.000Z</time>
      </trkpt>
      <trkpt lat="47.26955" lon="-2.26963">
        <ele>23.200000762939</ele>
        <time>2021-12-19T09:18:45.000Z</time>
      </trkpt>
      <trkpt lat="47.26957" lon="-2.26955">
        <ele>23.200000762939</ele>
        <time>2021-12-19T09:18:46.000Z</time>
      </trkpt>
      <trkpt lat="47.26964" lon="-2.26918">
        <ele>23.200000762939</ele>
        <time>2021-12-19T09:18:50.000Z</time>
      </trkpt>
      <trkpt lat="47.26964" lon="-2.269">
        <ele>23.200000762939</ele>
        <time>2021-12-19T09:18:52.000Z</time>
      </trkpt>
      <trkpt lat="47.26958" lon="-2.26865">
        <ele>23.200000762939</ele>
        <time>2021-12-19T09:18:56.000Z</time>
      </trkpt>
      <trkpt lat="47.26957" lon="-2.26856">
        <ele>23.200000762939</ele>
        <time>2021-12-19T09:18:57.000Z</time>
      </trkpt>
      <trkpt lat="47.26956" lon="-2.26833">
        <ele>22.799999237061</ele>
        <time>2021-12-19T09:19:00.000Z</time>
      </trkpt>
      <trkpt lat="47.26956" lon="-2.26828">
        <ele>22.39999961853</ele>
        <time>2021-12-19T09:19:01.000Z</time>
      </trkpt>
      <trkpt lat="47.26958" lon="-2.26823">
        <ele>22</ele>
        <time>2021-12-19T09:19:02.000Z</time>
      </trkpt>
      <trkpt lat="47.2696" lon="-2.26818">
        <ele>21.60000038147</ele>
        <time>2021-12-19T09:19:03.000Z</time>
      </trkpt>
      <trkpt lat="47.26964" lon="-2.26814">
        <ele>21.200000762939</ele>
        <time>2021-12-19T09:19:04.000Z</time>
      </trkpt>
      <trkpt lat="47.26967" lon="-2.2681">
        <ele>21.200000762939</ele>
        <time>2021-12-19T09:19:05.000Z</time>
      </trkpt>
      <trkpt lat="47.2698" lon="-2.26799">
        <ele>21.200000762939</ele>
        <time>2021-12-19T09:19:09.000Z</time>
      </trkpt>
      <trkpt lat="47.26985" lon="-2.26794">
        <ele>20.799999237061</ele>
        <time>2021-12-19T09:19:11.000Z</time>
      </trkpt>
      <trkpt lat="47.26988" lon="-2.26791">
        <ele>20.200000762939</ele>
        <time>2021-12-19T09:19:12.000Z</time>
      </trkpt>
      <trkpt lat="47.2699" lon="-2.26789">
        <ele>19.799999237061</ele>
        <time>2021-12-19T09:19:13.000Z</time>
      </trkpt>
      <trkpt lat="47.26992" lon="-2.26788">
        <ele>19.39999961853</ele>
        <time>2021-12-19T09:19:14.000Z</time>
      </trkpt>
      <trkpt lat="47.26994" lon="-2.26787">
        <ele>19</ele>
        <time>2021-12-19T09:19:15.000Z</time>
      </trkpt>
      <trkpt lat="47.27004" lon="-2.26778">
        <ele>19</ele>
        <time>2021-12-19T09:19:19.000Z</time>
      </trkpt>
      <trkpt lat="47.27012" lon="-2.26769">
        <ele>19</ele>
        <time>2021-12-19T09:19:23.000Z</time>
      </trkpt>
      <trkpt lat="47.27012" lon="-2.26766">
        <ele>19</ele>
        <time>2021-12-19T09:19:24.000Z</time>
      </trkpt>
      <trkpt lat="47.27014" lon="-2.26762">
        <ele>19</ele>
        <time>2021-12-19T09:19:26.000Z</time>
      </trkpt>
      <trkpt lat="47.27024" lon="-2.26756">
        <ele>19</ele>
        <time>2021-12-19T09:19:31.000Z</time>
      </trkpt>
      <trkpt lat="47.27025" lon="-2.26754">
        <ele>19</ele>
        <time>2021-12-19T09:19:32.000Z</time>
      </trkpt>
      <trkpt lat="47.2703" lon="-2.2675">
        <ele>19</ele>
        <time>2021-12-19T09:19:35.000Z</time>
      </trkpt>
      <trkpt lat="47.27037" lon="-2.26733">
        <ele>19</ele>
        <time>2021-12-19T09:19:41.000Z</time>
      </trkpt>
      <trkpt lat="47.27038" lon="-2.26712">
        <ele>19</ele>
        <time>2021-12-19T09:19:45.000Z</time>
      </trkpt>
      <trkpt lat="47.27035" lon="-2.26677">
        <ele>19</ele>
        <time>2021-12-19T09:19:51.000Z</time>
      </trkpt>
      <trkpt lat="47.27034" lon="-2.26658">
        <ele>19</ele>
        <time>2021-12-19T09:19:54.000Z</time>
      </trkpt>
      <trkpt lat="47.27032" lon="-2.26652">
        <ele>19</ele>
        <time>2021-12-19T09:19:55.000Z</time>
      </trkpt>
      <trkpt lat="47.27025" lon="-2.26639">
        <ele>19</ele>
        <time>2021-12-19T09:19:58.000Z</time>
      </trkpt>
      <trkpt lat="47.27021" lon="-2.26631">
        <ele>19</ele>
        <time>2021-12-19T09:20:00.000Z</time>
      </trkpt>
      <trkpt lat="47.27008" lon="-2.26603">
        <ele>19</ele>
        <time>2021-12-19T09:20:06.000Z</time>
      </trkpt>
      <trkpt lat="47.26997" lon="-2.26586">
        <ele>19.39999961853</ele>
        <time>2021-12-19T09:20:09.000Z</time>
      </trkpt>
      <trkpt lat="47.26992" lon="-2.26581">
        <ele>19.799999237061</ele>
        <time>2021-12-19T09:20:10.000Z</time>
      </trkpt>
      <trkpt lat="47.26988" lon="-2.26575">
        <ele>20.200000762939</ele>
        <time>2021-12-19T09:20:11.000Z</time>
      </trkpt>
      <trkpt lat="47.26984" lon="-2.26569">
        <ele>20.60000038147</ele>
        <time>2021-12-19T09:20:12.000Z</time>
      </trkpt>
      <trkpt lat="47.26981" lon="-2.26564">
        <ele>21</ele>
        <time>2021-12-19T09:20:13.000Z</time>
      </trkpt>
      <trkpt lat="47.26978" lon="-2.26558">
        <ele>21</ele>
        <time>2021-12-19T09:20:14.000Z</time>
      </trkpt>
      <trkpt lat="47.26973" lon="-2.26543">
        <ele>21</ele>
        <time>2021-12-19T09:20:16.000Z</time>
      </trkpt>
      <trkpt lat="47.26968" lon="-2.26523">
        <ele>21.39999961853</ele>
        <time>2021-12-19T09:20:19.000Z</time>
      </trkpt>
      <trkpt lat="47.26967" lon="-2.26517">
        <ele>21.799999237061</ele>
        <time>2021-12-19T09:20:20.000Z</time>
      </trkpt>
      <trkpt lat="47.26965" lon="-2.26513">
        <ele>22.200000762939</ele>
        <time>2021-12-19T09:20:21.000Z</time>
      </trkpt>
      <trkpt lat="47.26966" lon="-2.26508">
        <ele>22.60000038147</ele>
        <time>2021-12-19T09:20:22.000Z</time>
      </trkpt>
      <trkpt lat="47.26968" lon="-2.26504">
        <ele>23.200000762939</ele>
        <time>2021-12-19T09:20:23.000Z</time>
      </trkpt>
      <trkpt lat="47.26976" lon="-2.2649">
        <ele>23.200000762939</ele>
        <time>2021-12-19T09:20:26.000Z</time>
      </trkpt>
      <trkpt lat="47.26988" lon="-2.26477">
        <ele>23.200000762939</ele>
        <time>2021-12-19T09:20:29.000Z</time>
      </trkpt>
      <trkpt lat="47.26994" lon="-2.26469">
        <ele>23.200000762939</ele>
        <time>2021-12-19T09:20:31.000Z</time>
      </trkpt>
      <trkpt lat="47.27019" lon="-2.26435">
        <ele>23.200000762939</ele>
        <time>2021-12-19T09:20:39.000Z</time>
      </trkpt>
      <trkpt lat="47.27038" lon="-2.26407">
        <ele>23.200000762939</ele>
        <time>2021-12-19T09:20:46.000Z</time>
      </trkpt>
      <trkpt lat="47.27061" lon="-2.26373">
        <ele>23.200000762939</ele>
        <time>2021-12-19T09:20:54.000Z</time>
      </trkpt>
      <trkpt lat="47.27073" lon="-2.26353">
        <ele>23.200000762939</ele>
        <time>2021-12-19T09:20:59.000Z</time>
      </trkpt>
      <trkpt lat="47.27085" lon="-2.26334">
        <ele>23.200000762939</ele>
        <time>2021-12-19T09:21:03.000Z</time>
      </trkpt>
      <trkpt lat="47.27093" lon="-2.26325">
        <ele>23.200000762939</ele>
        <time>2021-12-19T09:21:05.000Z</time>
      </trkpt>
      <trkpt lat="47.27097" lon="-2.2632">
        <ele>23.200000762939</ele>
        <time>2021-12-19T09:21:06.000Z</time>
      </trkpt>
      <trkpt lat="47.27109" lon="-2.26304">
        <ele>23.60000038147</ele>
        <time>2021-12-19T09:21:09.000Z</time>
      </trkpt>
      <trkpt lat="47.27113" lon="-2.26298">
        <ele>24</ele>
        <time>2021-12-19T09:21:10.000Z</time>
      </trkpt>
      <trkpt lat="47.27117" lon="-2.26292">
        <ele>24.39999961853</ele>
        <time>2021-12-19T09:21:11.000Z</time>
      </trkpt>
      <trkpt lat="47.2712" lon="-2.26287">
        <ele>24.799999237061</ele>
        <time>2021-12-19T09:21:12.000Z</time>
      </trkpt>
      <trkpt lat="47.27124" lon="-2.26281">
        <ele>25.200000762939</ele>
        <time>2021-12-19T09:21:13.000Z</time>
      </trkpt>
      <trkpt lat="47.27141" lon="-2.26258">
        <ele>25.200000762939</ele>
        <time>2021-12-19T09:21:17.000Z</time>
      </trkpt>
      <trkpt lat="47.27149" lon="-2.26247">
        <ele>24.799999237061</ele>
        <time>2021-12-19T09:21:19.000Z</time>
      </trkpt>
      <trkpt lat="47.27154" lon="-2.26241">
        <ele>24.39999961853</ele>
        <time>2021-12-19T09:21:20.000Z</time>
      </trkpt>
      <trkpt lat="47.27159" lon="-2.26235">
        <ele>24</ele>
        <time>2021-12-19T09:21:21.000Z</time>
      </trkpt>
      <trkpt lat="47.27164" lon="-2.26229">
        <ele>23.60000038147</ele>
        <time>2021-12-19T09:21:22.000Z</time>
      </trkpt>
      <trkpt lat="47.27169" lon="-2.26223">
        <ele>23.200000762939</ele>
        <time>2021-12-19T09:21:23.000Z</time>
      </trkpt>
      <trkpt lat="47.27174" lon="-2.26217">
        <ele>23.200000762939</ele>
        <time>2021-12-19T09:21:24.000Z</time>
      </trkpt>
      <trkpt lat="47.27212" lon="-2.26182">
        <ele>23.200000762939</ele>
        <time>2021-12-19T09:21:31.000Z</time>
      </trkpt>
      <trkpt lat="47.27217" lon="-2.26179">
        <ele>23.200000762939</ele>
        <time>2021-12-19T09:21:32.000Z</time>
      </trkpt>
      <trkpt lat="47.27223" lon="-2.26175">
        <ele>22.799999237061</ele>
        <time>2021-12-19T09:21:33.000Z</time>
      </trkpt>
      <trkpt lat="47.27228" lon="-2.26172">
        <ele>22.39999961853</ele>
        <time>2021-12-19T09:21:34.000Z</time>
      </trkpt>
      <trkpt lat="47.27233" lon="-2.26168">
        <ele>22</ele>
        <time>2021-12-19T09:21:35.000Z</time>
      </trkpt>
      <trkpt lat="47.27239" lon="-2.26165">
        <ele>21.60000038147</ele>
        <time>2021-12-19T09:21:36.000Z</time>
      </trkpt>
      <trkpt lat="47.27244" lon="-2.26161">
        <ele>21.200000762939</ele>
        <time>2021-12-19T09:21:37.000Z</time>
      </trkpt>
      <trkpt lat="47.27264" lon="-2.2615">
        <ele>21.200000762939</ele>
        <time>2021-12-19T09:21:41.000Z</time>
      </trkpt>
      <trkpt lat="47.27295" lon="-2.26139">
        <ele>21.200000762939</ele>
        <time>2021-12-19T09:21:47.000Z</time>
      </trkpt>
      <trkpt lat="47.27326" lon="-2.26128">
        <ele>21.200000762939</ele>
        <time>2021-12-19T09:21:53.000Z</time>
      </trkpt>
      <trkpt lat="47.27348" lon="-2.26122">
        <ele>21.200000762939</ele>
        <time>2021-12-19T09:21:57.000Z</time>
      </trkpt>
      <trkpt lat="47.27358" lon="-2.26125">
        <ele>21.200000762939</ele>
        <time>2021-12-19T09:21:59.000Z</time>
      </trkpt>
      <trkpt lat="47.27371" lon="-2.26141">
        <ele>21.200000762939</ele>
        <time>2021-12-19T09:22:02.000Z</time>
      </trkpt>
      <trkpt lat="47.27378" lon="-2.26153">
        <ele>21.200000762939</ele>
        <time>2021-12-19T09:22:04.000Z</time>
      </trkpt>
      <trkpt lat="47.27394" lon="-2.26178">
        <ele>21.200000762939</ele>
        <time>2021-12-19T09:22:09.000Z</time>
      </trkpt>
      <trkpt lat="47.27417" lon="-2.26217">
        <ele>21.200000762939</ele>
        <time>2021-12-19T09:22:15.000Z</time>
      </trkpt>
      <trkpt lat="47.2743" lon="-2.26237">
        <ele>20.799999237061</ele>
        <time>2021-12-19T09:22:18.000Z</time>
      </trkpt>
      <trkpt lat="47.27435" lon="-2.26243">
        <ele>20.200000762939</ele>
        <time>2021-12-19T09:22:19.000Z</time>
      </trkpt>
      <trkpt lat="47.2744" lon="-2.26249">
        <ele>19.799999237061</ele>
        <time>2021-12-19T09:22:20.000Z</time>
      </trkpt>
      <trkpt lat="47.27445" lon="-2.26255">
        <ele>19.39999961853</ele>
        <time>2021-12-19T09:22:21.000Z</time>
      </trkpt>
      <trkpt lat="47.27451" lon="-2.26261">
        <ele>19</ele>
        <time>2021-12-19T09:22:22.000Z</time>
      </trkpt>
      <trkpt lat="47.27468" lon="-2.26273">
        <ele>18.60000038147</ele>
        <time>2021-12-19T09:22:25.000Z</time>
      </trkpt>
      <trkpt lat="47.27474" lon="-2.26277">
        <ele>18.200000762939</ele>
        <time>2021-12-19T09:22:26.000Z</time>
      </trkpt>
      <trkpt lat="47.2748" lon="-2.26279">
        <ele>17.799999237061</ele>
        <time>2021-12-19T09:22:27.000Z</time>
      </trkpt>
      <trkpt lat="47.27487" lon="-2.26282">
        <ele>17.39999961853</ele>
        <time>2021-12-19T09:22:28.000Z</time>
      </trkpt>
      <trkpt lat="47.27494" lon="-2.26284">
        <ele>17</ele>
        <time>2021-12-19T09:22:29.000Z</time>
      </trkpt>
      <trkpt lat="47.27507" lon="-2.26287">
        <ele>17</ele>
        <time>2021-12-19T09:22:31.000Z</time>
      </trkpt>
      <trkpt lat="47.27538" lon="-2.26287">
        <ele>17</ele>
        <time>2021-12-19T09:22:36.000Z</time>
      </trkpt>
      <trkpt lat="47.27556" lon="-2.26286">
        <ele>16.60000038147</ele>
        <time>2021-12-19T09:22:39.000Z</time>
      </trkpt>
      <trkpt lat="47.27563" lon="-2.26286">
        <ele>16.200000762939</ele>
        <time>2021-12-19T09:22:40.000Z</time>
      </trkpt>
      <trkpt lat="47.2757" lon="-2.26285">
        <ele>15.800000190735</ele>
        <time>2021-12-19T09:22:41.000Z</time>
      </trkpt>
      <trkpt lat="47.27576" lon="-2.26285">
        <ele>15.39999961853</ele>
        <time>2021-12-19T09:22:42.000Z</time>
      </trkpt>
      <trkpt lat="47.27583" lon="-2.26285">
        <ele>15</ele>
        <time>2021-12-19T09:22:43.000Z</time>
      </trkpt>
      <trkpt lat="47.2761" lon="-2.26292">
        <ele>15</ele>
        <time>2021-12-19T09:22:47.000Z</time>
      </trkpt>
      <trkpt lat="47.27616" lon="-2.26296">
        <ele>15</ele>
        <time>2021-12-19T09:22:48.000Z</time>
      </trkpt>
      <trkpt lat="47.27627" lon="-2.26304">
        <ele>15</ele>
        <time>2021-12-19T09:22:50.000Z</time>
      </trkpt>
      <trkpt lat="47.27642" lon="-2.26319">
        <ele>15</ele>
        <time>2021-12-19T09:22:53.000Z</time>
      </trkpt>
      <trkpt lat="47.27658" lon="-2.26337">
        <ele>15</ele>
        <time>2021-12-19T09:22:57.000Z</time>
      </trkpt>
      <trkpt lat="47.27661" lon="-2.26335">
        <ele>15</ele>
        <time>2021-12-19T09:22:58.000Z</time>
      </trkpt>
      <trkpt lat="47.27664" lon="-2.26318">
        <ele>15</ele>
        <time>2021-12-19T09:23:01.000Z</time>
      </trkpt>
      <trkpt lat="47.27659" lon="-2.26291">
        <ele>15</ele>
        <time>2021-12-19T09:23:05.000Z</time>
      </trkpt>
      <trkpt lat="47.27653" lon="-2.26266">
        <ele>15</ele>
        <time>2021-12-19T09:23:09.000Z</time>
      </trkpt>
      <trkpt lat="47.27645" lon="-2.26246">
        <ele>15</ele>
        <time>2021-12-19T09:23:13.000Z</time>
      </trkpt>
      <trkpt lat="47.27633" lon="-2.26224">
        <ele>15</ele>
        <time>2021-12-19T09:23:18.000Z</time>
      </trkpt>
      <trkpt lat="47.27627" lon="-2.26194">
        <ele>15</ele>
        <time>2021-12-19T09:23:23.000Z</time>
      </trkpt>
      <trkpt lat="47.27625" lon="-2.26191">
        <ele>15</ele>
        <time>2021-12-19T09:23:24.000Z</time>
      </trkpt>
      <trkpt lat="47.27623" lon="-2.26183">
        <ele>15</ele>
        <time>2021-12-19T09:23:26.000Z</time>
      </trkpt>
      <trkpt lat="47.27627" lon="-2.26172">
        <ele>15</ele>
        <time>2021-12-19T09:23:29.000Z</time>
      </trkpt>
      <trkpt lat="47.27632" lon="-2.26169">
        <ele>15</ele>
        <time>2021-12-19T09:23:31.000Z</time>
      </trkpt>
      <trkpt lat="47.27637" lon="-2.26164">
        <ele>15</ele>
        <time>2021-12-19T09:23:33.000Z</time>
      </trkpt>
      <trkpt lat="47.27653" lon="-2.26148">
        <ele>15</ele>
        <time>2021-12-19T09:23:38.000Z</time>
      </trkpt>
      <trkpt lat="47.27671" lon="-2.2613">
        <ele>15</ele>
        <time>2021-12-19T09:23:43.000Z</time>
      </trkpt>
      <trkpt lat="47.2769" lon="-2.2611">
        <ele>15</ele>
        <time>2021-12-19T09:23:49.000Z</time>
      </trkpt>
      <trkpt lat="47.27698" lon="-2.26104">
        <ele>15</ele>
        <time>2021-12-19T09:23:51.000Z</time>
      </trkpt>
      <trkpt lat="47.27706" lon="-2.26095">
        <ele>15</ele>
        <time>2021-12-19T09:23:53.000Z</time>
      </trkpt>
      <trkpt lat="47.27722" lon="-2.26085">
        <ele>15</ele>
        <time>2021-12-19T09:23:57.000Z</time>
      </trkpt>
      <trkpt lat="47.2775" lon="-2.26083">
        <ele>15</ele>
        <time>2021-12-19T09:24:02.000Z</time>
      </trkpt>
      <trkpt lat="47.27768" lon="-2.26083">
        <ele>15</ele>
        <time>2021-12-19T09:24:05.000Z</time>
      </trkpt>
      <trkpt lat="47.27777" lon="-2.26073">
        <ele>15</ele>
        <time>2021-12-19T09:24:07.000Z</time>
      </trkpt>
      <trkpt lat="47.27783" lon="-2.2606">
        <ele>15</ele>
        <time>2021-12-19T09:24:09.000Z</time>
      </trkpt>
      <trkpt lat="47.27791" lon="-2.26039">
        <ele>15</ele>
        <time>2021-12-19T09:24:12.000Z</time>
      </trkpt>
      <trkpt lat="47.27797" lon="-2.26018">
        <ele>15</ele>
        <time>2021-12-19T09:24:15.000Z</time>
      </trkpt>
      <trkpt lat="47.27801" lon="-2.25996">
        <ele>15</ele>
        <time>2021-12-19T09:24:18.000Z</time>
      </trkpt>
      <trkpt lat="47.27797" lon="-2.25963">
        <ele>15</ele>
        <time>2021-12-19T09:24:23.000Z</time>
      </trkpt>
      <trkpt lat="47.27787" lon="-2.25925">
        <ele>15</ele>
        <time>2021-12-19T09:24:29.000Z</time>
      </trkpt>
      <trkpt lat="47.27785" lon="-2.2592">
        <ele>15</ele>
        <time>2021-12-19T09:24:30.000Z</time>
      </trkpt>
      <trkpt lat="47.27773" lon="-2.25903">
        <ele>15</ele>
        <time>2021-12-19T09:24:34.000Z</time>
      </trkpt>
      <trkpt lat="47.27763" lon="-2.25878">
        <ele>15</ele>
        <time>2021-12-19T09:24:39.000Z</time>
      </trkpt>
      <trkpt lat="47.27747" lon="-2.25855">
        <ele>14.39999961853</ele>
        <time>2021-12-19T09:24:45.000Z</time>
      </trkpt>
      <trkpt lat="47.27743" lon="-2.25854">
        <ele>14</ele>
        <time>2021-12-19T09:24:46.000Z</time>
      </trkpt>
      <trkpt lat="47.27738" lon="-2.25854">
        <ele>13.60000038147</ele>
        <time>2021-12-19T09:24:47.000Z</time>
      </trkpt>
      <trkpt lat="47.27734" lon="-2.25854">
        <ele>13.199999809265</ele>
        <time>2021-12-19T09:24:48.000Z</time>
      </trkpt>
      <trkpt lat="47.2773" lon="-2.25854">
        <ele>12.800000190735</ele>
        <time>2021-12-19T09:24:49.000Z</time>
      </trkpt>
      <trkpt lat="47.27722" lon="-2.25853">
        <ele>12.800000190735</ele>
        <time>2021-12-19T09:24:51.000Z</time>
      </trkpt>
      <trkpt lat="47.27711" lon="-2.25846">
        <ele>12.800000190735</ele>
        <time>2021-12-19T09:24:54.000Z</time>
      </trkpt>
      <trkpt lat="47.27707" lon="-2.25843">
        <ele>12.800000190735</ele>
        <time>2021-12-19T09:24:55.000Z</time>
      </trkpt>
      <trkpt lat="47.27694" lon="-2.25827">
        <ele>12.800000190735</ele>
        <time>2021-12-19T09:25:00.000Z</time>
      </trkpt>
      <trkpt lat="47.27685" lon="-2.258">
        <ele>12.800000190735</ele>
        <time>2021-12-19T09:25:06.000Z</time>
      </trkpt>
      <trkpt lat="47.27685" lon="-2.25796">
        <ele>12.800000190735</ele>
        <time>2021-12-19T09:25:07.000Z</time>
      </trkpt>
      <trkpt lat="47.27688" lon="-2.25789">
        <ele>12.800000190735</ele>
        <time>2021-12-19T09:25:09.000Z</time>
      </trkpt>
      <trkpt lat="47.27691" lon="-2.25782">
        <ele>12.800000190735</ele>
        <time>2021-12-19T09:25:12.000Z</time>
      </trkpt>
      <trkpt lat="47.27685" lon="-2.25775">
        <ele>12.800000190735</ele>
        <time>2021-12-19T09:25:15.000Z</time>
      </trkpt>
      <trkpt lat="47.2767" lon="-2.25764">
        <ele>12.800000190735</ele>
        <time>2021-12-19T09:25:19.000Z</time>
      </trkpt>
      <trkpt lat="47.27665" lon="-2.25745">
        <ele>12.800000190735</ele>
        <time>2021-12-19T09:25:22.000Z</time>
      </trkpt>
      <trkpt lat="47.27663" lon="-2.25738">
        <ele>12.800000190735</ele>
        <time>2021-12-19T09:25:23.000Z</time>
      </trkpt>
      <trkpt lat="47.27655" lon="-2.25695">
        <ele>12.800000190735</ele>
        <time>2021-12-19T09:25:29.000Z</time>
      </trkpt>
      <trkpt lat="47.27653" lon="-2.25672">
        <ele>12.800000190735</ele>
        <time>2021-12-19T09:25:32.000Z</time>
      </trkpt>
      <trkpt lat="47.27652" lon="-2.25657">
        <ele>12.800000190735</ele>
        <time>2021-12-19T09:25:34.000Z</time>
      </trkpt>
      <trkpt lat="47.2765" lon="-2.25651">
        <ele>12.800000190735</ele>
        <time>2021-12-19T09:25:35.000Z</time>
      </trkpt>
      <trkpt lat="47.27638" lon="-2.25644">
        <ele>12.800000190735</ele>
        <time>2021-12-19T09:25:38.000Z</time>
      </trkpt>
      <trkpt lat="47.27628" lon="-2.25642">
        <ele>12.800000190735</ele>
        <time>2021-12-19T09:25:40.000Z</time>
      </trkpt>
      <trkpt lat="47.27619" lon="-2.25636">
        <ele>12.800000190735</ele>
        <time>2021-12-19T09:25:42.000Z</time>
      </trkpt>
      <trkpt lat="47.27615" lon="-2.25632">
        <ele>12.800000190735</ele>
        <time>2021-12-19T09:25:43.000Z</time>
      </trkpt>
      <trkpt lat="47.27595" lon="-2.25611">
        <ele>12.800000190735</ele>
        <time>2021-12-19T09:25:49.000Z</time>
      </trkpt>
      <trkpt lat="47.2758" lon="-2.25609">
        <ele>12.800000190735</ele>
        <time>2021-12-19T09:25:53.000Z</time>
      </trkpt>
      <trkpt lat="47.27573" lon="-2.25606">
        <ele>12.800000190735</ele>
        <time>2021-12-19T09:25:55.000Z</time>
      </trkpt>
      <trkpt lat="47.27568" lon="-2.25599">
        <ele>12.800000190735</ele>
        <time>2021-12-19T09:25:57.000Z</time>
      </trkpt>
      <trkpt lat="47.27562" lon="-2.25575">
        <ele>12.800000190735</ele>
        <time>2021-12-19T09:26:01.000Z</time>
      </trkpt>
      <trkpt lat="47.27555" lon="-2.25539">
        <ele>12.800000190735</ele>
        <time>2021-12-19T09:26:06.000Z</time>
      </trkpt>
      <trkpt lat="47.27553" lon="-2.25533">
        <ele>12.800000190735</ele>
        <time>2021-12-19T09:26:07.000Z</time>
      </trkpt>
      <trkpt lat="47.27546" lon="-2.25515">
        <ele>12.800000190735</ele>
        <time>2021-12-19T09:26:10.000Z</time>
      </trkpt>
      <trkpt lat="47.27541" lon="-2.25503">
        <ele>12.800000190735</ele>
        <time>2021-12-19T09:26:12.000Z</time>
      </trkpt>
      <trkpt lat="47.27538" lon="-2.25498">
        <ele>12.800000190735</ele>
        <time>2021-12-19T09:26:13.000Z</time>
      </trkpt>
      <trkpt lat="47.27521" lon="-2.25477">
        <ele>12.800000190735</ele>
        <time>2021-12-19T09:26:18.000Z</time>
      </trkpt>
      <trkpt lat="47.27497" lon="-2.25456">
        <ele>12.800000190735</ele>
        <time>2021-12-19T09:26:25.000Z</time>
      </trkpt>
      <trkpt lat="47.27492" lon="-2.25455">
        <ele>12.800000190735</ele>
        <time>2021-12-19T09:26:26.000Z</time>
      </trkpt>
      <trkpt lat="47.27472" lon="-2.25455">
        <ele>12.800000190735</ele>
        <time>2021-12-19T09:26:30.000Z</time>
      </trkpt>
      <trkpt lat="47.27461" lon="-2.25452">
        <ele>12.800000190735</ele>
        <time>2021-12-19T09:26:32.000Z</time>
      </trkpt>
      <trkpt lat="47.27452" lon="-2.25449">
        <ele>12.800000190735</ele>
        <time>2021-12-19T09:26:34.000Z</time>
      </trkpt>
      <trkpt lat="47.27448" lon="-2.25445">
        <ele>12.800000190735</ele>
        <time>2021-12-19T09:26:35.000Z</time>
      </trkpt>
      <trkpt lat="47.27434" lon="-2.25432">
        <ele>12.800000190735</ele>
        <time>2021-12-19T09:26:39.000Z</time>
      </trkpt>
      <trkpt lat="47.27419" lon="-2.25412">
        <ele>12.800000190735</ele>
        <time>2021-12-19T09:26:45.000Z</time>
      </trkpt>
      <trkpt lat="47.27413" lon="-2.25397">
        <ele>13.39999961853</ele>
        <time>2021-12-19T09:26:49.000Z</time>
      </trkpt>
      <trkpt lat="47.27411" lon="-2.25394">
        <ele>13.800000190735</ele>
        <time>2021-12-19T09:26:50.000Z</time>
      </trkpt>
      <trkpt lat="47.27408" lon="-2.25391">
        <ele>14.199999809265</ele>
        <time>2021-12-19T09:26:51.000Z</time>
      </trkpt>
      <trkpt lat="47.27406" lon="-2.25387">
        <ele>14.60000038147</ele>
        <time>2021-12-19T09:26:52.000Z</time>
      </trkpt>
      <trkpt lat="47.27405" lon="-2.25382">
        <ele>15.199999809265</ele>
        <time>2021-12-19T09:26:53.000Z</time>
      </trkpt>
      <trkpt lat="47.27404" lon="-2.25378">
        <ele>15.199999809265</ele>
        <time>2021-12-19T09:26:54.000Z</time>
      </trkpt>
      <trkpt lat="47.27403" lon="-2.25374">
        <ele>15.199999809265</ele>
        <time>2021-12-19T09:26:55.000Z</time>
      </trkpt>
      <trkpt lat="47.27404" lon="-2.25353">
        <ele>15.199999809265</ele>
        <time>2021-12-19T09:26:59.000Z</time>
      </trkpt>
      <trkpt lat="47.274" lon="-2.25331">
        <ele>15.199999809265</ele>
        <time>2021-12-19T09:27:03.000Z</time>
      </trkpt>
      <trkpt lat="47.27398" lon="-2.253">
        <ele>15.199999809265</ele>
        <time>2021-12-19T09:27:08.000Z</time>
      </trkpt>
      <trkpt lat="47.27396" lon="-2.25279">
        <ele>15.199999809265</ele>
        <time>2021-12-19T09:27:11.000Z</time>
      </trkpt>
      <trkpt lat="47.27395" lon="-2.25273">
        <ele>15.199999809265</ele>
        <time>2021-12-19T09:27:12.000Z</time>
      </trkpt>
      <trkpt lat="47.2739" lon="-2.25231">
        <ele>15.199999809265</ele>
        <time>2021-12-19T09:27:18.000Z</time>
      </trkpt>
      <trkpt lat="47.27391" lon="-2.25212">
        <ele>15.199999809265</ele>
        <time>2021-12-19T09:27:21.000Z</time>
      </trkpt>
      <trkpt lat="47.27392" lon="-2.25206">
        <ele>14.800000190735</ele>
        <time>2021-12-19T09:27:22.000Z</time>
      </trkpt>
      <trkpt lat="47.27392" lon="-2.25199">
        <ele>14.39999961853</ele>
        <time>2021-12-19T09:27:23.000Z</time>
      </trkpt>
      <trkpt lat="47.27392" lon="-2.25192">
        <ele>14</ele>
        <time>2021-12-19T09:27:24.000Z</time>
      </trkpt>
      <trkpt lat="47.27391" lon="-2.25184">
        <ele>13.39999961853</ele>
        <time>2021-12-19T09:27:25.000Z</time>
      </trkpt>
      <trkpt lat="47.27388" lon="-2.25176">
        <ele>13</ele>
        <time>2021-12-19T09:27:26.000Z</time>
      </trkpt>
      <trkpt lat="47.27378" lon="-2.25151">
        <ele>13</ele>
        <time>2021-12-19T09:27:30.000Z</time>
      </trkpt>
      <trkpt lat="47.27376" lon="-2.25145">
        <ele>13</ele>
        <time>2021-12-19T09:27:31.000Z</time>
      </trkpt>
      <trkpt lat="47.27374" lon="-2.25139">
        <ele>13</ele>
        <time>2021-12-19T09:27:32.000Z</time>
      </trkpt>
      <trkpt lat="47.27369" lon="-2.25123">
        <ele>13</ele>
        <time>2021-12-19T09:27:34.000Z</time>
      </trkpt>
      <trkpt lat="47.27361" lon="-2.25102">
        <ele>13</ele>
        <time>2021-12-19T09:27:37.000Z</time>
      </trkpt>
      <trkpt lat="47.27353" lon="-2.25075">
        <ele>13</ele>
        <time>2021-12-19T09:27:41.000Z</time>
      </trkpt>
      <trkpt lat="47.27346" lon="-2.25057">
        <ele>13</ele>
        <time>2021-12-19T09:27:44.000Z</time>
      </trkpt>
      <trkpt lat="47.27339" lon="-2.2503">
        <ele>13</ele>
        <time>2021-12-19T09:27:49.000Z</time>
      </trkpt>
      <trkpt lat="47.27333" lon="-2.24996">
        <ele>13</ele>
        <time>2021-12-19T09:27:56.000Z</time>
      </trkpt>
      <trkpt lat="47.2734" lon="-2.24974">
        <ele>13</ele>
        <time>2021-12-19T09:28:01.000Z</time>
      </trkpt>
      <trkpt lat="47.27359" lon="-2.24947">
        <ele>13</ele>
        <time>2021-12-19T09:28:08.000Z</time>
      </trkpt>
      <trkpt lat="47.27379" lon="-2.24916">
        <ele>13</ele>
        <time>2021-12-19T09:28:16.000Z</time>
      </trkpt>
      <trkpt lat="47.27388" lon="-2.24901">
        <ele>13</ele>
        <time>2021-12-19T09:28:21.000Z</time>
      </trkpt>
      <trkpt lat="47.274" lon="-2.24887">
        <ele>13</ele>
        <time>2021-12-19T09:28:27.000Z</time>
      </trkpt>
      <trkpt lat="47.27404" lon="-2.24885">
        <ele>13</ele>
        <time>2021-12-19T09:28:31.000Z</time>
      </trkpt>
      <trkpt lat="47.27405" lon="-2.24879">
        <ele>13</ele>
        <time>2021-12-19T09:28:36.000Z</time>
      </trkpt>
      <trkpt lat="47.27405" lon="-2.24877">
        <ele>13</ele>
        <time>2021-12-19T09:28:37.000Z</time>
      </trkpt>
      <trkpt lat="47.27409" lon="-2.24866">
        <ele>13</ele>
        <time>2021-12-19T09:28:43.000Z</time>
      </trkpt>
      <trkpt lat="47.27419" lon="-2.24831">
        <ele>13</ele>
        <time>2021-12-19T09:28:50.000Z</time>
      </trkpt>
      <trkpt lat="47.27435" lon="-2.24801">
        <ele>13</ele>
        <time>2021-12-19T09:28:55.000Z</time>
      </trkpt>
      <trkpt lat="47.27447" lon="-2.24789">
        <ele>13.60000038147</ele>
        <time>2021-12-19T09:28:59.000Z</time>
      </trkpt>
      <trkpt lat="47.27449" lon="-2.24787">
        <ele>14</ele>
        <time>2021-12-19T09:29:00.000Z</time>
      </trkpt>
      <trkpt lat="47.27452" lon="-2.24785">
        <ele>14.39999961853</ele>
        <time>2021-12-19T09:29:01.000Z</time>
      </trkpt>
      <trkpt lat="47.27454" lon="-2.24783">
        <ele>14.800000190735</ele>
        <time>2021-12-19T09:29:02.000Z</time>
      </trkpt>
      <trkpt lat="47.27457" lon="-2.24782">
        <ele>15.39999961853</ele>
        <time>2021-12-19T09:29:03.000Z</time>
      </trkpt>
      <trkpt lat="47.27462" lon="-2.24781">
        <ele>15.39999961853</ele>
        <time>2021-12-19T09:29:05.000Z</time>
      </trkpt>
      <trkpt lat="47.27466" lon="-2.24781">
        <ele>15.800000190735</ele>
        <time>2021-12-19T09:29:07.000Z</time>
      </trkpt>
      <trkpt lat="47.27468" lon="-2.24781">
        <ele>16.200000762939</ele>
        <time>2021-12-19T09:29:08.000Z</time>
      </trkpt>
      <trkpt lat="47.2747" lon="-2.24782">
        <ele>16.60000038147</ele>
        <time>2021-12-19T09:29:09.000Z</time>
      </trkpt>
      <trkpt lat="47.27472" lon="-2.24782">
        <ele>17</ele>
        <time>2021-12-19T09:29:10.000Z</time>
      </trkpt>
      <trkpt lat="47.27474" lon="-2.24782">
        <ele>17.39999961853</ele>
        <time>2021-12-19T09:29:11.000Z</time>
      </trkpt>
      <trkpt lat="47.27489" lon="-2.24783">
        <ele>17.799999237061</ele>
        <time>2021-12-19T09:29:18.000Z</time>
      </trkpt>
      <trkpt lat="47.27491" lon="-2.24783">
        <ele>18.39999961853</ele>
        <time>2021-12-19T09:29:19.000Z</time>
      </trkpt>
      <trkpt lat="47.27494" lon="-2.24783">
        <ele>18.799999237061</ele>
        <time>2021-12-19T09:29:20.000Z</time>
      </trkpt>
      <trkpt lat="47.27498" lon="-2.24784">
        <ele>19.200000762939</ele>
        <time>2021-12-19T09:29:21.000Z</time>
      </trkpt>
      <trkpt lat="47.27501" lon="-2.24784">
        <ele>19.60000038147</ele>
        <time>2021-12-19T09:29:22.000Z</time>
      </trkpt>
      <trkpt lat="47.27504" lon="-2.24783">
        <ele>19.60000038147</ele>
        <time>2021-12-19T09:29:23.000Z</time>
      </trkpt>
      <trkpt lat="47.2752" lon="-2.24782">
        <ele>19.60000038147</ele>
        <time>2021-12-19T09:29:29.000Z</time>
      </trkpt>
      <trkpt lat="47.27541" lon="-2.24782">
        <ele>19.60000038147</ele>
        <time>2021-12-19T09:29:35.000Z</time>
      </trkpt>
      <trkpt lat="47.27559" lon="-2.24784">
        <ele>19.60000038147</ele>
        <time>2021-12-19T09:29:41.000Z</time>
      </trkpt>
      <trkpt lat="47.27566" lon="-2.24784">
        <ele>20</ele>
        <time>2021-12-19T09:29:43.000Z</time>
      </trkpt>
      <trkpt lat="47.27569" lon="-2.24785">
        <ele>20.39999961853</ele>
        <time>2021-12-19T09:29:44.000Z</time>
      </trkpt>
      <trkpt lat="47.27572" lon="-2.24785">
        <ele>20.799999237061</ele>
        <time>2021-12-19T09:29:45.000Z</time>
      </trkpt>
      <trkpt lat="47.27576" lon="-2.24786">
        <ele>21.200000762939</ele>
        <time>2021-12-19T09:29:46.000Z</time>
      </trkpt>
      <trkpt lat="47.2758" lon="-2.24787">
        <ele>21.799999237061</ele>
        <time>2021-12-19T09:29:47.000Z</time>
      </trkpt>
      <trkpt lat="47.27601" lon="-2.24788">
        <ele>21.799999237061</ele>
        <time>2021-12-19T09:29:52.000Z</time>
      </trkpt>
      <trkpt lat="47.27635" lon="-2.24785">
        <ele>21.799999237061</ele>
        <time>2021-12-19T09:29:59.000Z</time>
      </trkpt>
      <trkpt lat="47.27654" lon="-2.24793">
        <ele>21.799999237061</ele>
        <time>2021-12-19T09:30:03.000Z</time>
      </trkpt>
      <trkpt lat="47.2766" lon="-2.24798">
        <ele>21.799999237061</ele>
        <time>2021-12-19T09:30:04.000Z</time>
      </trkpt>
      <trkpt lat="47.27667" lon="-2.248">
        <ele>21.799999237061</ele>
        <time>2021-12-19T09:30:05.000Z</time>
      </trkpt>
      <trkpt lat="47.27679" lon="-2.248">
        <ele>21.799999237061</ele>
        <time>2021-12-19T09:30:07.000Z</time>
      </trkpt>
      <trkpt lat="47.27717" lon="-2.24801">
        <ele>21.799999237061</ele>
        <time>2021-12-19T09:30:14.000Z</time>
      </trkpt>
      <trkpt lat="47.2775" lon="-2.24801">
        <ele>21.799999237061</ele>
        <time>2021-12-19T09:30:20.000Z</time>
      </trkpt>
      <trkpt lat="47.27795" lon="-2.248">
        <ele>21.799999237061</ele>
        <time>2021-12-19T09:30:29.000Z</time>
      </trkpt>
      <trkpt lat="47.27829" lon="-2.24795">
        <ele>21.799999237061</ele>
        <time>2021-12-19T09:30:36.000Z</time>
      </trkpt>
      <trkpt lat="47.27843" lon="-2.2479">
        <ele>21.799999237061</ele>
        <time>2021-12-19T09:30:39.000Z</time>
      </trkpt>
      <trkpt lat="47.27851" lon="-2.24785">
        <ele>21.799999237061</ele>
        <time>2021-12-19T09:30:41.000Z</time>
      </trkpt>
      <trkpt lat="47.2786" lon="-2.24772">
        <ele>21.799999237061</ele>
        <time>2021-12-19T09:30:45.000Z</time>
      </trkpt>
      <trkpt lat="47.27862" lon="-2.2477">
        <ele>21.799999237061</ele>
        <time>2021-12-19T09:30:46.000Z</time>
      </trkpt>
      <trkpt lat="47.27867" lon="-2.24771">
        <ele>21.799999237061</ele>
        <time>2021-12-19T09:30:48.000Z</time>
      </trkpt>
      <trkpt lat="47.27869" lon="-2.24775">
        <ele>21.799999237061</ele>
        <time>2021-12-19T09:30:49.000Z</time>
      </trkpt>
      <trkpt lat="47.27881" lon="-2.24782">
        <ele>21.799999237061</ele>
        <time>2021-12-19T09:30:53.000Z</time>
      </trkpt>
      <trkpt lat="47.27884" lon="-2.24782">
        <ele>22.200000762939</ele>
        <time>2021-12-19T09:30:56.000Z</time>
      </trkpt>
      <trkpt lat="47.27884" lon="-2.24781">
        <ele>22.60000038147</ele>
        <time>2021-12-19T09:30:57.000Z</time>
      </trkpt>
      <trkpt lat="47.27885" lon="-2.24781">
        <ele>23.200000762939</ele>
        <time>2021-12-19T09:30:58.000Z</time>
      </trkpt>
      <trkpt lat="47.27887" lon="-2.24781">
        <ele>23.60000038147</ele>
        <time>2021-12-19T09:30:59.000Z</time>
      </trkpt>
      <trkpt lat="47.27889" lon="-2.24782">
        <ele>24.200000762939</ele>
        <time>2021-12-19T09:31:00.000Z</time>
      </trkpt>
      <trkpt lat="47.2789" lon="-2.24781">
        <ele>24.200000762939</ele>
        <time>2021-12-19T09:31:01.000Z</time>
      </trkpt>
      <trkpt lat="47.27895" lon="-2.24785">
        <ele>24.200000762939</ele>
        <time>2021-12-19T09:31:06.000Z</time>
      </trkpt>
      <trkpt lat="47.27895" lon="-2.24784">
        <ele>24.200000762939</ele>
        <time>2021-12-19T09:31:08.000Z</time>
      </trkpt>
      <trkpt lat="47.27896" lon="-2.2479">
        <ele>24.200000762939</ele>
        <time>2021-12-19T09:32:15.000Z</time>
      </trkpt>
      <trkpt lat="47.27896" lon="-2.24793">
        <ele>24.200000762939</ele>
        <time>2021-12-19T09:32:16.000Z</time>
      </trkpt>
      <trkpt lat="47.27898" lon="-2.24795">
        <ele>24.200000762939</ele>
        <time>2021-12-19T09:32:17.000Z</time>
      </trkpt>
      <trkpt lat="47.27907" lon="-2.248">
        <ele>24.200000762939</ele>
        <time>2021-12-19T09:32:20.000Z</time>
      </trkpt>
      <trkpt lat="47.2791" lon="-2.24802">
        <ele>24.200000762939</ele>
        <time>2021-12-19T09:32:21.000Z</time>
      </trkpt>
      <trkpt lat="47.27927" lon="-2.24811">
        <ele>24.200000762939</ele>
        <time>2021-12-19T09:32:26.000Z</time>
      </trkpt>
      <trkpt lat="47.27943" lon="-2.24819">
        <ele>24.200000762939</ele>
        <time>2021-12-19T09:32:31.000Z</time>
      </trkpt>
      <trkpt lat="47.27956" lon="-2.24821">
        <ele>24.200000762939</ele>
        <time>2021-12-19T09:32:35.000Z</time>
      </trkpt>
      <trkpt lat="47.27981" lon="-2.24829">
        <ele>24.200000762939</ele>
        <time>2021-12-19T09:32:41.000Z</time>
      </trkpt>
      <trkpt lat="47.28015" lon="-2.24836">
        <ele>24.200000762939</ele>
        <time>2021-12-19T09:32:49.000Z</time>
      </trkpt>
      <trkpt lat="47.28036" lon="-2.24839">
        <ele>24.200000762939</ele>
        <time>2021-12-19T09:32:54.000Z</time>
      </trkpt>
      <trkpt lat="47.2804" lon="-2.24841">
        <ele>24.200000762939</ele>
        <time>2021-12-19T09:32:55.000Z</time>
      </trkpt>
      <trkpt lat="47.28049" lon="-2.24841">
        <ele>24.200000762939</ele>
        <time>2021-12-19T09:32:57.000Z</time>
      </trkpt>
      <trkpt lat="47.2806" lon="-2.24845">
        <ele>24.200000762939</ele>
        <time>2021-12-19T09:33:00.000Z</time>
      </trkpt>
      <trkpt lat="47.28081" lon="-2.24844">
        <ele>24.200000762939</ele>
        <time>2021-12-19T09:33:05.000Z</time>
      </trkpt>
      <trkpt lat="47.28086" lon="-2.24844">
        <ele>24.200000762939</ele>
        <time>2021-12-19T09:33:06.000Z</time>
      </trkpt>
      <trkpt lat="47.28105" lon="-2.24849">
        <ele>24.200000762939</ele>
        <time>2021-12-19T09:33:10.000Z</time>
      </trkpt>
      <trkpt lat="47.28136" lon="-2.24859">
        <ele>23.60000038147</ele>
        <time>2021-12-19T09:33:16.000Z</time>
      </trkpt>
      <trkpt lat="47.2814" lon="-2.24859">
        <ele>23.200000762939</ele>
        <time>2021-12-19T09:33:17.000Z</time>
      </trkpt>
      <trkpt lat="47.28144" lon="-2.24858">
        <ele>22.799999237061</ele>
        <time>2021-12-19T09:33:18.000Z</time>
      </trkpt>
      <trkpt lat="47.28148" lon="-2.24856">
        <ele>22.200000762939</ele>
        <time>2021-12-19T09:33:19.000Z</time>
      </trkpt>
      <trkpt lat="47.28151" lon="-2.24854">
        <ele>21.799999237061</ele>
        <time>2021-12-19T09:33:20.000Z</time>
      </trkpt>
      <trkpt lat="47.28156" lon="-2.24847">
        <ele>21.39999961853</ele>
        <time>2021-12-19T09:33:22.000Z</time>
      </trkpt>
      <trkpt lat="47.28158" lon="-2.24843">
        <ele>21</ele>
        <time>2021-12-19T09:33:23.000Z</time>
      </trkpt>
      <trkpt lat="47.28159" lon="-2.24837">
        <ele>20.60000038147</ele>
        <time>2021-12-19T09:33:24.000Z</time>
      </trkpt>
      <trkpt lat="47.28161" lon="-2.24831">
        <ele>20.200000762939</ele>
        <time>2021-12-19T09:33:25.000Z</time>
      </trkpt>
      <trkpt lat="47.28162" lon="-2.24824">
        <ele>19.60000038147</ele>
        <time>2021-12-19T09:33:26.000Z</time>
      </trkpt>
      <trkpt lat="47.28166" lon="-2.24811">
        <ele>19.60000038147</ele>
        <time>2021-12-19T09:33:29.000Z</time>
      </trkpt>
      <trkpt lat="47.28169" lon="-2.24809">
        <ele>19.60000038147</ele>
        <time>2021-12-19T09:33:30.000Z</time>
      </trkpt>
      <trkpt lat="47.28173" lon="-2.24809">
        <ele>19.200000762939</ele>
        <time>2021-12-19T09:33:31.000Z</time>
      </trkpt>
      <trkpt lat="47.28177" lon="-2.24809">
        <ele>18.799999237061</ele>
        <time>2021-12-19T09:33:32.000Z</time>
      </trkpt>
      <trkpt lat="47.28182" lon="-2.24809">
        <ele>18.39999961853</ele>
        <time>2021-12-19T09:33:33.000Z</time>
      </trkpt>
      <trkpt lat="47.28188" lon="-2.2481">
        <ele>18</ele>
        <time>2021-12-19T09:33:34.000Z</time>
      </trkpt>
      <trkpt lat="47.28195" lon="-2.24811">
        <ele>17.39999961853</ele>
        <time>2021-12-19T09:33:35.000Z</time>
      </trkpt>
      <trkpt lat="47.28203" lon="-2.24812">
        <ele>16.799999237061</ele>
        <time>2021-12-19T09:33:36.000Z</time>
      </trkpt>
      <trkpt lat="47.28211" lon="-2.24813">
        <ele>16.200000762939</ele>
        <time>2021-12-19T09:33:37.000Z</time>
      </trkpt>
      <trkpt lat="47.28219" lon="-2.24814">
        <ele>15.39999961853</ele>
        <time>2021-12-19T09:33:38.000Z</time>
      </trkpt>
      <trkpt lat="47.28227" lon="-2.24814">
        <ele>14.800000190735</ele>
        <time>2021-12-19T09:33:39.000Z</time>
      </trkpt>
      <trkpt lat="47.28234" lon="-2.24812">
        <ele>14</ele>
        <time>2021-12-19T09:33:40.000Z</time>
      </trkpt>
      <trkpt lat="47.28241" lon="-2.24809">
        <ele>13.199999809265</ele>
        <time>2021-12-19T09:33:41.000Z</time>
      </trkpt>
      <trkpt lat="47.28248" lon="-2.24805">
        <ele>12.39999961853</ele>
        <time>2021-12-19T09:33:42.000Z</time>
      </trkpt>
      <trkpt lat="47.28255" lon="-2.24801">
        <ele>11.60000038147</ele>
        <time>2021-12-19T09:33:43.000Z</time>
      </trkpt>
      <trkpt lat="47.2826" lon="-2.24798">
        <ele>10.800000190735</ele>
        <time>2021-12-19T09:33:44.000Z</time>
      </trkpt>
      <trkpt lat="47.28294" lon="-2.24775">
        <ele>10.800000190735</ele>
        <time>2021-12-19T09:33:50.000Z</time>
      </trkpt>
      <trkpt lat="47.28307" lon="-2.24767">
        <ele>10.39999961853</ele>
        <time>2021-12-19T09:33:52.000Z</time>
      </trkpt>
      <trkpt lat="47.28314" lon="-2.24764">
        <ele>9.8000001907349</ele>
        <time>2021-12-19T09:33:53.000Z</time>
      </trkpt>
      <trkpt lat="47.2832" lon="-2.2476">
        <ele>9</ele>
        <time>2021-12-19T09:33:54.000Z</time>
      </trkpt>
      <trkpt lat="47.28327" lon="-2.24757">
        <ele>8.3999996185303</ele>
        <time>2021-12-19T09:33:55.000Z</time>
      </trkpt>
      <trkpt lat="47.28334" lon="-2.24756">
        <ele>8.3999996185303</ele>
        <time>2021-12-19T09:33:56.000Z</time>
      </trkpt>
      <trkpt lat="47.28347" lon="-2.24758">
        <ele>8.3999996185303</ele>
        <time>2021-12-19T09:33:58.000Z</time>
      </trkpt>
      <trkpt lat="47.2836" lon="-2.24765">
        <ele>8</ele>
        <time>2021-12-19T09:34:00.000Z</time>
      </trkpt>
      <trkpt lat="47.28366" lon="-2.24768">
        <ele>7.5999999046326</ele>
        <time>2021-12-19T09:34:01.000Z</time>
      </trkpt>
      <trkpt lat="47.28371" lon="-2.24771">
        <ele>7.1999998092651</ele>
        <time>2021-12-19T09:34:02.000Z</time>
      </trkpt>
      <trkpt lat="47.28376" lon="-2.24772">
        <ele>6.8000001907349</ele>
        <time>2021-12-19T09:34:03.000Z</time>
      </trkpt>
      <trkpt lat="47.2838" lon="-2.24773">
        <ele>6.1999998092651</ele>
        <time>2021-12-19T09:34:04.000Z</time>
      </trkpt>
      <trkpt lat="47.28389" lon="-2.24769">
        <ele>6.1999998092651</ele>
        <time>2021-12-19T09:34:06.000Z</time>
      </trkpt>
      <trkpt lat="47.284" lon="-2.24764">
        <ele>6.1999998092651</ele>
        <time>2021-12-19T09:34:08.000Z</time>
      </trkpt>
      <trkpt lat="47.28405" lon="-2.24761">
        <ele>6.1999998092651</ele>
        <time>2021-12-19T09:34:09.000Z</time>
      </trkpt>
      <trkpt lat="47.28414" lon="-2.24751">
        <ele>6.1999998092651</ele>
        <time>2021-12-19T09:34:11.000Z</time>
      </trkpt>
      <trkpt lat="47.28424" lon="-2.24744">
        <ele>6.1999998092651</ele>
        <time>2021-12-19T09:34:13.000Z</time>
      </trkpt>
      <trkpt lat="47.28444" lon="-2.24731">
        <ele>6.1999998092651</ele>
        <time>2021-12-19T09:34:17.000Z</time>
      </trkpt>
      <trkpt lat="47.28467" lon="-2.24714">
        <ele>5.8000001907349</ele>
        <time>2021-12-19T09:34:22.000Z</time>
      </trkpt>
      <trkpt lat="47.28472" lon="-2.2471">
        <ele>5.4000000953674</ele>
        <time>2021-12-19T09:34:23.000Z</time>
      </trkpt>
      <trkpt lat="47.28476" lon="-2.24706">
        <ele>5</ele>
        <time>2021-12-19T09:34:24.000Z</time>
      </trkpt>
      <trkpt lat="47.28481" lon="-2.24702">
        <ele>4.5999999046326</ele>
        <time>2021-12-19T09:34:25.000Z</time>
      </trkpt>
      <trkpt lat="47.28485" lon="-2.24698">
        <ele>4.1999998092651</ele>
        <time>2021-12-19T09:34:26.000Z</time>
      </trkpt>
      <trkpt lat="47.28507" lon="-2.24684">
        <ele>4.1999998092651</ele>
        <time>2021-12-19T09:34:31.000Z</time>
      </trkpt>
      <trkpt lat="47.28519" lon="-2.24675">
        <ele>4.1999998092651</ele>
        <time>2021-12-19T09:34:34.000Z</time>
      </trkpt>
      <trkpt lat="47.28531" lon="-2.24666">
        <ele>4.1999998092651</ele>
        <time>2021-12-19T09:34:37.000Z</time>
      </trkpt>
      <trkpt lat="47.28558" lon="-2.24641">
        <ele>4.1999998092651</ele>
        <time>2021-12-19T09:34:43.000Z</time>
      </trkpt>
      <trkpt lat="47.28575" lon="-2.24628">
        <ele>4.1999998092651</ele>
        <time>2021-12-19T09:34:47.000Z</time>
      </trkpt>
      <trkpt lat="47.28579" lon="-2.24625">
        <ele>4.1999998092651</ele>
        <time>2021-12-19T09:34:48.000Z</time>
      </trkpt>
      <trkpt lat="47.28584" lon="-2.24618">
        <ele>4.1999998092651</ele>
        <time>2021-12-19T09:34:51.000Z</time>
      </trkpt>
      <trkpt lat="47.28586" lon="-2.24614">
        <ele>4.1999998092651</ele>
        <time>2021-12-19T09:34:52.000Z</time>
      </trkpt>
      <trkpt lat="47.28595" lon="-2.24604">
        <ele>4.1999998092651</ele>
        <time>2021-12-19T09:34:56.000Z</time>
      </trkpt>
      <trkpt lat="47.28597" lon="-2.24601">
        <ele>4.1999998092651</ele>
        <time>2021-12-19T09:34:57.000Z</time>
      </trkpt>
      <trkpt lat="47.28604" lon="-2.24587">
        <ele>4.1999998092651</ele>
        <time>2021-12-19T09:35:00.000Z</time>
      </trkpt>
      <trkpt lat="47.28605" lon="-2.24582">
        <ele>4.1999998092651</ele>
        <time>2021-12-19T09:35:01.000Z</time>
      </trkpt>
      <trkpt lat="47.28614" lon="-2.24547">
        <ele>4.1999998092651</ele>
        <time>2021-12-19T09:35:07.000Z</time>
      </trkpt>
      <trkpt lat="47.28625" lon="-2.24508">
        <ele>4.1999998092651</ele>
        <time>2021-12-19T09:35:13.000Z</time>
      </trkpt>
      <trkpt lat="47.28637" lon="-2.24466">
        <ele>4.1999998092651</ele>
        <time>2021-12-19T09:35:19.000Z</time>
      </trkpt>
      <trkpt lat="47.28648" lon="-2.24423">
        <ele>4.1999998092651</ele>
        <time>2021-12-19T09:35:26.000Z</time>
      </trkpt>
      <trkpt lat="47.28651" lon="-2.24409">
        <ele>4.1999998092651</ele>
        <time>2021-12-19T09:35:28.000Z</time>
      </trkpt>
      <trkpt lat="47.28658" lon="-2.24378">
        <ele>4.1999998092651</ele>
        <time>2021-12-19T09:35:32.000Z</time>
      </trkpt>
      <trkpt lat="47.2867" lon="-2.24334">
        <ele>4.1999998092651</ele>
        <time>2021-12-19T09:35:38.000Z</time>
      </trkpt>
      <trkpt lat="47.28682" lon="-2.24284">
        <ele>4.1999998092651</ele>
        <time>2021-12-19T09:35:45.000Z</time>
      </trkpt>
      <trkpt lat="47.28687" lon="-2.24253">
        <ele>4.1999998092651</ele>
        <time>2021-12-19T09:35:49.000Z</time>
      </trkpt>
      <trkpt lat="47.28686" lon="-2.24245">
        <ele>4.1999998092651</ele>
        <time>2021-12-19T09:35:50.000Z</time>
      </trkpt>
      <trkpt lat="47.28681" lon="-2.24211">
        <ele>4.1999998092651</ele>
        <time>2021-12-19T09:35:55.000Z</time>
      </trkpt>
      <trkpt lat="47.2868" lon="-2.24197">
        <ele>4.1999998092651</ele>
        <time>2021-12-19T09:35:57.000Z</time>
      </trkpt>
      <trkpt lat="47.28679" lon="-2.24176">
        <ele>4.1999998092651</ele>
        <time>2021-12-19T09:36:00.000Z</time>
      </trkpt>
      <trkpt lat="47.28674" lon="-2.24125">
        <ele>4.1999998092651</ele>
        <time>2021-12-19T09:36:07.000Z</time>
      </trkpt>
      <trkpt lat="47.2867" lon="-2.24083">
        <ele>4.1999998092651</ele>
        <time>2021-12-19T09:36:13.000Z</time>
      </trkpt>
      <trkpt lat="47.28668" lon="-2.24061">
        <ele>4.1999998092651</ele>
        <time>2021-12-19T09:36:16.000Z</time>
      </trkpt>
      <trkpt lat="47.28667" lon="-2.24046">
        <ele>4.1999998092651</ele>
        <time>2021-12-19T09:36:18.000Z</time>
      </trkpt>
      <trkpt lat="47.28667" lon="-2.24021">
        <ele>4.1999998092651</ele>
        <time>2021-12-19T09:36:21.000Z</time>
      </trkpt>
      <trkpt lat="47.28665" lon="-2.24005">
        <ele>4.1999998092651</ele>
        <time>2021-12-19T09:36:23.000Z</time>
      </trkpt>
      <trkpt lat="47.28665" lon="-2.23997">
        <ele>4.1999998092651</ele>
        <time>2021-12-19T09:36:24.000Z</time>
      </trkpt>
      <trkpt lat="47.28659" lon="-2.23945">
        <ele>4.1999998092651</ele>
        <time>2021-12-19T09:36:31.000Z</time>
      </trkpt>
      <trkpt lat="47.28654" lon="-2.23913">
        <ele>4.1999998092651</ele>
        <time>2021-12-19T09:36:37.000Z</time>
      </trkpt>
      <trkpt lat="47.28651" lon="-2.23886">
        <ele>4.1999998092651</ele>
        <time>2021-12-19T09:36:43.000Z</time>
      </trkpt>
      <trkpt lat="47.28648" lon="-2.23862">
        <ele>4.1999998092651</ele>
        <time>2021-12-19T09:36:50.000Z</time>
      </trkpt>
      <trkpt lat="47.28646" lon="-2.2384">
        <ele>4.1999998092651</ele>
        <time>2021-12-19T09:36:54.000Z</time>
      </trkpt>
      <trkpt lat="47.2864" lon="-2.23797">
        <ele>4.1999998092651</ele>
        <time>2021-12-19T09:37:01.000Z</time>
      </trkpt>
      <trkpt lat="47.28636" lon="-2.23768">
        <ele>4.1999998092651</ele>
        <time>2021-12-19T09:37:06.000Z</time>
      </trkpt>
      <trkpt lat="47.28632" lon="-2.23722">
        <ele>4.1999998092651</ele>
        <time>2021-12-19T09:37:14.000Z</time>
      </trkpt>
      <trkpt lat="47.2863" lon="-2.23708">
        <ele>4.1999998092651</ele>
        <time>2021-12-19T09:37:16.000Z</time>
      </trkpt>
      <trkpt lat="47.28628" lon="-2.23694">
        <ele>4.1999998092651</ele>
        <time>2021-12-19T09:37:18.000Z</time>
      </trkpt>
      <trkpt lat="47.28628" lon="-2.23688">
        <ele>4.1999998092651</ele>
        <time>2021-12-19T09:37:19.000Z</time>
      </trkpt>
      <trkpt lat="47.28625" lon="-2.23642">
        <ele>4.1999998092651</ele>
        <time>2021-12-19T09:37:25.000Z</time>
      </trkpt>
      <trkpt lat="47.28622" lon="-2.23607">
        <ele>4.1999998092651</ele>
        <time>2021-12-19T09:37:30.000Z</time>
      </trkpt>
      <trkpt lat="47.28624" lon="-2.236">
        <ele>4.1999998092651</ele>
        <time>2021-12-19T09:37:31.000Z</time>
      </trkpt>
      <trkpt lat="47.28627" lon="-2.23586">
        <ele>4.1999998092651</ele>
        <time>2021-12-19T09:37:33.000Z</time>
      </trkpt>
      <trkpt lat="47.28628" lon="-2.23573">
        <ele>3.7999999523163</ele>
        <time>2021-12-19T09:37:35.000Z</time>
      </trkpt>
      <trkpt lat="47.2863" lon="-2.23568">
        <ele>3</ele>
        <time>2021-12-19T09:37:36.000Z</time>
      </trkpt>
      <trkpt lat="47.28634" lon="-2.23565">
        <ele>2.5999999046326</ele>
        <time>2021-12-19T09:37:37.000Z</time>
      </trkpt>
      <trkpt lat="47.28639" lon="-2.23564">
        <ele>2.2000000476837</ele>
        <time>2021-12-19T09:37:38.000Z</time>
      </trkpt>
      <trkpt lat="47.28646" lon="-2.23557">
        <ele>2.2000000476837</ele>
        <time>2021-12-19T09:37:40.000Z</time>
      </trkpt>
      <trkpt lat="47.28651" lon="-2.23535">
        <ele>2.2000000476837</ele>
        <time>2021-12-19T09:37:44.000Z</time>
      </trkpt>
      <trkpt lat="47.28652" lon="-2.23521">
        <ele>2.2000000476837</ele>
        <time>2021-12-19T09:37:46.000Z</time>
      </trkpt>
      <trkpt lat="47.28653" lon="-2.23504">
        <ele>2.2000000476837</ele>
        <time>2021-12-19T09:37:49.000Z</time>
      </trkpt>
      <trkpt lat="47.28657" lon="-2.23463">
        <ele>2.2000000476837</ele>
        <time>2021-12-19T09:37:55.000Z</time>
      </trkpt>
      <trkpt lat="47.28657" lon="-2.23456">
        <ele>2.2000000476837</ele>
        <time>2021-12-19T09:37:56.000Z</time>
      </trkpt>
      <trkpt lat="47.28653" lon="-2.23437">
        <ele>2.2000000476837</ele>
        <time>2021-12-19T09:37:59.000Z</time>
      </trkpt>
      <trkpt lat="47.28651" lon="-2.23432">
        <ele>2.2000000476837</ele>
        <time>2021-12-19T09:38:00.000Z</time>
      </trkpt>
      <trkpt lat="47.28649" lon="-2.23425">
        <ele>2.2000000476837</ele>
        <time>2021-12-19T09:38:01.000Z</time>
      </trkpt>
      <trkpt lat="47.28645" lon="-2.23408">
        <ele>2.2000000476837</ele>
        <time>2021-12-19T09:38:03.000Z</time>
      </trkpt>
      <trkpt lat="47.28647" lon="-2.23377">
        <ele>2.2000000476837</ele>
        <time>2021-12-19T09:38:07.000Z</time>
      </trkpt>
      <trkpt lat="47.28658" lon="-2.23365">
        <ele>2.2000000476837</ele>
        <time>2021-12-19T09:38:11.000Z</time>
      </trkpt>
      <trkpt lat="47.28668" lon="-2.23366">
        <ele>2.2000000476837</ele>
        <time>2021-12-19T09:38:15.000Z</time>
      </trkpt>
      <trkpt lat="47.28668" lon="-2.23354">
        <ele>2.2000000476837</ele>
        <time>2021-12-19T09:38:18.000Z</time>
      </trkpt>
      <trkpt lat="47.28669" lon="-2.23343">
        <ele>2.5999999046326</ele>
        <time>2021-12-19T09:38:20.000Z</time>
      </trkpt>
      <trkpt lat="47.28669" lon="-2.23338">
        <ele>3</ele>
        <time>2021-12-19T09:38:21.000Z</time>
      </trkpt>
      <trkpt lat="47.28671" lon="-2.23333">
        <ele>3.4000000953674</ele>
        <time>2021-12-19T09:38:22.000Z</time>
      </trkpt>
      <trkpt lat="47.28672" lon="-2.23328">
        <ele>3.7999999523163</ele>
        <time>2021-12-19T09:38:23.000Z</time>
      </trkpt>
      <trkpt lat="47.28673" lon="-2.23324">
        <ele>4.1999998092651</ele>
        <time>2021-12-19T09:38:24.000Z</time>
      </trkpt>
      <trkpt lat="47.28675" lon="-2.23309">
        <ele>4.1999998092651</ele>
        <time>2021-12-19T09:38:28.000Z</time>
      </trkpt>
      <trkpt lat="47.28677" lon="-2.2329">
        <ele>4.1999998092651</ele>
        <time>2021-12-19T09:38:32.000Z</time>
      </trkpt>
      <trkpt lat="47.28682" lon="-2.23272">
        <ele>4.1999998092651</ele>
        <time>2021-12-19T09:38:36.000Z</time>
      </trkpt>
      <trkpt lat="47.28687" lon="-2.23257">
        <ele>4.1999998092651</ele>
        <time>2021-12-19T09:38:39.000Z</time>
      </trkpt>
      <trkpt lat="47.28689" lon="-2.23253">
        <ele>4.1999998092651</ele>
        <time>2021-12-19T09:38:40.000Z</time>
      </trkpt>
      <trkpt lat="47.2869" lon="-2.2325">
        <ele>4.1999998092651</ele>
        <time>2021-12-19T09:38:42.000Z</time>
      </trkpt>
      <trkpt lat="47.2869" lon="-2.23247">
        <ele>4.5999999046326</ele>
        <time>2021-12-19T09:38:43.000Z</time>
      </trkpt>
      <trkpt lat="47.28689" lon="-2.23245">
        <ele>5</ele>
        <time>2021-12-19T09:38:44.000Z</time>
      </trkpt>
      <trkpt lat="47.28688" lon="-2.23243">
        <ele>5.4000000953674</ele>
        <time>2021-12-19T09:38:45.000Z</time>
      </trkpt>
      <trkpt lat="47.28687" lon="-2.2324">
        <ele>5.8000001907349</ele>
        <time>2021-12-19T09:38:46.000Z</time>
      </trkpt>
      <trkpt lat="47.28687" lon="-2.23236">
        <ele>6.4000000953674</ele>
        <time>2021-12-19T09:38:47.000Z</time>
      </trkpt>
      <trkpt lat="47.28686" lon="-2.23231">
        <ele>6.4000000953674</ele>
        <time>2021-12-19T09:38:48.000Z</time>
      </trkpt>
      <trkpt lat="47.28681" lon="-2.23211">
        <ele>5.1999998092651</ele>
        <time>2021-12-19T09:38:50.000Z</time>
      </trkpt>
      <trkpt lat="47.28676" lon="-2.23204">
        <ele>4.5999999046326</ele>
        <time>2021-12-19T09:38:51.000Z</time>
      </trkpt>
      <trkpt lat="47.28671" lon="-2.23198">
        <ele>4</ele>
        <time>2021-12-19T09:38:52.000Z</time>
      </trkpt>
      <trkpt lat="47.28664" lon="-2.23192">
        <ele>3.4000000953674</ele>
        <time>2021-12-19T09:38:53.000Z</time>
      </trkpt>
      <trkpt lat="47.28658" lon="-2.23189">
        <ele>3.4000000953674</ele>
        <time>2021-12-19T09:38:54.000Z</time>
      </trkpt>
      <trkpt lat="47.28648" lon="-2.23187">
        <ele>3.4000000953674</ele>
        <time>2021-12-19T09:38:56.000Z</time>
      </trkpt>
      <trkpt lat="47.28639" lon="-2.23188">
        <ele>3.4000000953674</ele>
        <time>2021-12-19T09:38:58.000Z</time>
      </trkpt>
      <trkpt lat="47.28624" lon="-2.23196">
        <ele>3.4000000953674</ele>
        <time>2021-12-19T09:39:01.000Z</time>
      </trkpt>
      <trkpt lat="47.28615" lon="-2.23201">
        <ele>3.4000000953674</ele>
        <time>2021-12-19T09:39:03.000Z</time>
      </trkpt>
      <trkpt lat="47.28606" lon="-2.23208">
        <ele>3.4000000953674</ele>
        <time>2021-12-19T09:39:05.000Z</time>
      </trkpt>
      <trkpt lat="47.28596" lon="-2.23221">
        <ele>3.4000000953674</ele>
        <time>2021-12-19T09:39:08.000Z</time>
      </trkpt>
      <trkpt lat="47.28594" lon="-2.23233">
        <ele>3.4000000953674</ele>
        <time>2021-12-19T09:39:10.000Z</time>
      </trkpt>
      <trkpt lat="47.2859" lon="-2.23246">
        <ele>3.4000000953674</ele>
        <time>2021-12-19T09:39:12.000Z</time>
      </trkpt>
      <trkpt lat="47.28593" lon="-2.23274">
        <ele>3.4000000953674</ele>
        <time>2021-12-19T09:39:16.000Z</time>
      </trkpt>
      <trkpt lat="47.28597" lon="-2.23289">
        <ele>3</ele>
        <time>2021-12-19T09:39:18.000Z</time>
      </trkpt>
      <trkpt lat="47.286" lon="-2.23295">
        <ele>2.5999999046326</ele>
        <time>2021-12-19T09:39:19.000Z</time>
      </trkpt>
      <trkpt lat="47.28604" lon="-2.23297">
        <ele>2.2000000476837</ele>
        <time>2021-12-19T09:39:20.000Z</time>
      </trkpt>
      <trkpt lat="47.28609" lon="-2.23299">
        <ele>1.7999999523163</ele>
        <time>2021-12-19T09:39:21.000Z</time>
      </trkpt>
      <trkpt lat="47.28614" lon="-2.233">
        <ele>1.3999999761581</ele>
        <time>2021-12-19T09:39:22.000Z</time>
      </trkpt>
      <trkpt lat="47.28619" lon="-2.23301">
        <ele>1.3999999761581</ele>
        <time>2021-12-19T09:39:23.000Z</time>
      </trkpt>
      <trkpt lat="47.28624" lon="-2.23302">
        <ele>1.3999999761581</ele>
        <time>2021-12-19T09:39:24.000Z</time>
      </trkpt>
      <trkpt lat="47.2864" lon="-2.233">
        <ele>1.3999999761581</ele>
        <time>2021-12-19T09:39:28.000Z</time>
      </trkpt>
      <trkpt lat="47.28647" lon="-2.23299">
        <ele>1.3999999761581</ele>
        <time>2021-12-19T09:39:30.000Z</time>
      </trkpt>
      <trkpt lat="47.28654" lon="-2.23302">
        <ele>1.3999999761581</ele>
        <time>2021-12-19T09:39:32.000Z</time>
      </trkpt>
      <trkpt lat="47.28662" lon="-2.23301">
        <ele>1.3999999761581</ele>
        <time>2021-12-19T09:39:35.000Z</time>
      </trkpt>
      <trkpt lat="47.28665" lon="-2.23299">
        <ele>1.7999999523163</ele>
        <time>2021-12-19T09:39:37.000Z</time>
      </trkpt>
      <trkpt lat="47.28665" lon="-2.23296">
        <ele>2.4000000953674</ele>
        <time>2021-12-19T09:39:38.000Z</time>
      </trkpt>
      <trkpt lat="47.28665" lon="-2.23294">
        <ele>2.7999999523163</ele>
        <time>2021-12-19T09:39:39.000Z</time>
      </trkpt>
      <trkpt lat="47.28664" lon="-2.23293">
        <ele>3.7999999523163</ele>
        <time>2021-12-19T09:39:40.000Z</time>
      </trkpt>
      <trkpt lat="47.28664" lon="-2.23292">
        <ele>3.7999999523163</ele>
        <time>2021-12-19T09:39:41.000Z</time>
      </trkpt>
      <trkpt lat="47.2867" lon="-2.23296">
        <ele>1.7999999523163</ele>
        <time>2021-12-19T09:50:07.000Z</time>
      </trkpt>
      <trkpt lat="47.2867" lon="-2.23299">
        <ele>1.7999999523163</ele>
        <time>2021-12-19T09:50:08.000Z</time>
      </trkpt>
      <trkpt lat="47.28669" lon="-2.23319">
        <ele>1.7999999523163</ele>
        <time>2021-12-19T09:50:12.000Z</time>
      </trkpt>
      <trkpt lat="47.2867" lon="-2.23346">
        <ele>1.7999999523163</ele>
        <time>2021-12-19T09:50:18.000Z</time>
      </trkpt>
      <trkpt lat="47.28668" lon="-2.23351">
        <ele>1.7999999523163</ele>
        <time>2021-12-19T09:50:20.000Z</time>
      </trkpt>
      <trkpt lat="47.28664" lon="-2.23352">
        <ele>1.7999999523163</ele>
        <time>2021-12-19T09:50:22.000Z</time>
      </trkpt>
      <trkpt lat="47.28655" lon="-2.23354">
        <ele>1.3999999761581</ele>
        <time>2021-12-19T09:50:25.000Z</time>
      </trkpt>
      <trkpt lat="47.28652" lon="-2.23357">
        <ele>0.80000001192093</ele>
        <time>2021-12-19T09:50:26.000Z</time>
      </trkpt>
      <trkpt lat="47.28651" lon="-2.23361">
        <ele>0.40000000596046</ele>
        <time>2021-12-19T09:50:27.000Z</time>
      </trkpt>
      <trkpt lat="47.28649" lon="-2.23366">
        <ele>3.8</ele>
        <time>2021-12-19T09:50:28.000Z</time>
      </trkpt>
      <trkpt lat="47.28648" lon="-2.2337">
        <ele>-0.40000000596046</ele>
        <time>2021-12-19T09:50:29.000Z</time>
      </trkpt>
      <trkpt lat="47.28648" lon="-2.23373">
        <ele>-0.40000000596046</ele>
        <time>2021-12-19T09:50:30.000Z</time>
      </trkpt>
      <trkpt lat="47.28648" lon="-2.23377">
        <ele>-0.40000000596046</ele>
        <time>2021-12-19T09:50:31.000Z</time>
      </trkpt>
      <trkpt lat="47.28648" lon="-2.23397">
        <ele>-0.40000000596046</ele>
        <time>2021-12-19T09:50:35.000Z</time>
      </trkpt>
      <trkpt lat="47.28649" lon="-2.23404">
        <ele>-0.40000000596046</ele>
        <time>2021-12-19T09:50:36.000Z</time>
      </trkpt>
      <trkpt lat="47.28653" lon="-2.23428">
        <ele>-0.40000000596046</ele>
        <time>2021-12-19T09:50:39.000Z</time>
      </trkpt>
      <trkpt lat="47.2866" lon="-2.2346">
        <ele>-0.40000000596046</ele>
        <time>2021-12-19T09:50:44.000Z</time>
      </trkpt>
      <trkpt lat="47.28657" lon="-2.23486">
        <ele>-0.40000000596046</ele>
        <time>2021-12-19T09:50:48.000Z</time>
      </trkpt>
      <trkpt lat="47.28654" lon="-2.23513">
        <ele>-0.40000000596046</ele>
        <time>2021-12-19T09:50:53.000Z</time>
      </trkpt>
      <trkpt lat="47.28652" lon="-2.23537">
        <ele>-0.40000000596046</ele>
        <time>2021-12-19T09:50:58.000Z</time>
      </trkpt>
      <trkpt lat="47.28653" lon="-2.23552">
        <ele>-0.40000000596046</ele>
        <time>2021-12-19T09:51:02.000Z</time>
      </trkpt>
      <trkpt lat="47.28655" lon="-2.23555">
        <ele>-0.40000000596046</ele>
        <time>2021-12-19T09:51:03.000Z</time>
      </trkpt>
      <trkpt lat="47.28662" lon="-2.23559">
        <ele>-0.40000000596046</ele>
        <time>2021-12-19T09:51:05.000Z</time>
      </trkpt>
      <trkpt lat="47.28671" lon="-2.23565">
        <ele>-0.40000000596046</ele>
        <time>2021-12-19T09:51:08.000Z</time>
      </trkpt>
      <trkpt lat="47.28678" lon="-2.23573">
        <ele>-0.40000000596046</ele>
        <time>2021-12-19T09:51:10.000Z</time>
      </trkpt>
      <trkpt lat="47.28682" lon="-2.23577">
        <ele>-0.40000000596046</ele>
        <time>2021-12-19T09:51:11.000Z</time>
      </trkpt>
      <trkpt lat="47.28694" lon="-2.2359">
        <ele>-0.40000000596046</ele>
        <time>2021-12-19T09:51:14.000Z</time>
      </trkpt>
      <trkpt lat="47.28698" lon="-2.23589">
        <ele>-0.40000000596046</ele>
        <time>2021-12-19T09:51:15.000Z</time>
      </trkpt>
      <trkpt lat="47.28716" lon="-2.23579">
        <ele>-0.40000000596046</ele>
        <time>2021-12-19T09:51:19.000Z</time>
      </trkpt>
      <trkpt lat="47.28725" lon="-2.23561">
        <ele>-0.40000000596046</ele>
        <time>2021-12-19T09:51:22.000Z</time>
      </trkpt>
      <trkpt lat="47.28728" lon="-2.23555">
        <ele>-0.40000000596046</ele>
        <time>2021-12-19T09:51:23.000Z</time>
      </trkpt>
      <trkpt lat="47.28731" lon="-2.2355">
        <ele>-0.40000000596046</ele>
        <time>2021-12-19T09:51:24.000Z</time>
      </trkpt>
      <trkpt lat="47.28741" lon="-2.23536">
        <ele>-0.40000000596046</ele>
        <time>2021-12-19T09:51:27.000Z</time>
      </trkpt>
      <trkpt lat="47.28746" lon="-2.23532">
        <ele>-0.40000000596046</ele>
        <time>2021-12-19T09:51:28.000Z</time>
      </trkpt>
      <trkpt lat="47.28758" lon="-2.23524">
        <ele>7.4</ele>
        <time>2021-12-19T09:51:31.000Z</time>
      </trkpt>
      <trkpt lat="47.28761" lon="-2.23522">
        <ele>0.40000000596046</ele>
        <time>2021-12-19T09:51:32.000Z</time>
      </trkpt>
      <trkpt lat="47.28765" lon="-2.2352">
        <ele>0.80000001192093</ele>
        <time>2021-12-19T09:51:33.000Z</time>
      </trkpt>
      <trkpt lat="47.2877" lon="-2.23518">
        <ele>1.2000000476837</ele>
        <time>2021-12-19T09:51:34.000Z</time>
      </trkpt>
      <trkpt lat="47.28774" lon="-2.23516">
        <ele>1.6000000238419</ele>
        <time>2021-12-19T09:51:35.000Z</time>
      </trkpt>
      <trkpt lat="47.28786" lon="-2.23512">
        <ele>1.6000000238419</ele>
        <time>2021-12-19T09:51:38.000Z</time>
      </trkpt>
      <trkpt lat="47.28795" lon="-2.23509">
        <ele>2</ele>
        <time>2021-12-19T09:51:40.000Z</time>
      </trkpt>
      <trkpt lat="47.28799" lon="-2.23508">
        <ele>2.4000000953674</ele>
        <time>2021-12-19T09:51:41.000Z</time>
      </trkpt>
      <trkpt lat="47.28804" lon="-2.23507">
        <ele>2.7999999523163</ele>
        <time>2021-12-19T09:51:42.000Z</time>
      </trkpt>
      <trkpt lat="47.28809" lon="-2.23507">
        <ele>3.2000000476837</ele>
        <time>2021-12-19T09:51:43.000Z</time>
      </trkpt>
      <trkpt lat="47.28814" lon="-2.23506">
        <ele>3.5999999046326</ele>
        <time>2021-12-19T09:51:44.000Z</time>
      </trkpt>
      <trkpt lat="47.28822" lon="-2.23506">
        <ele>3.5999999046326</ele>
        <time>2021-12-19T09:51:46.000Z</time>
      </trkpt>
      <trkpt lat="47.28835" lon="-2.23505">
        <ele>3.5999999046326</ele>
        <time>2021-12-19T09:51:49.000Z</time>
      </trkpt>
      <trkpt lat="47.28848" lon="-2.23504">
        <ele>4</ele>
        <time>2021-12-19T09:51:52.000Z</time>
      </trkpt>
      <trkpt lat="47.28852" lon="-2.23504">
        <ele>4.4000000953674</ele>
        <time>2021-12-19T09:51:53.000Z</time>
      </trkpt>
      <trkpt lat="47.28857" lon="-2.23504">
        <ele>5</ele>
        <time>2021-12-19T09:51:54.000Z</time>
      </trkpt>
      <trkpt lat="47.28861" lon="-2.23503">
        <ele>5.4000000953674</ele>
        <time>2021-12-19T09:51:55.000Z</time>
      </trkpt>
      <trkpt lat="47.28865" lon="-2.23503">
        <ele>5.8000001907349</ele>
        <time>2021-12-19T09:51:56.000Z</time>
      </trkpt>
      <trkpt lat="47.2889" lon="-2.23502">
        <ele>5.8000001907349</ele>
        <time>2021-12-19T09:52:02.000Z</time>
      </trkpt>
      <trkpt lat="47.28902" lon="-2.23502">
        <ele>5.8000001907349</ele>
        <time>2021-12-19T09:52:05.000Z</time>
      </trkpt>
      <trkpt lat="47.28911" lon="-2.235">
        <ele>6.1999998092651</ele>
        <time>2021-12-19T09:52:07.000Z</time>
      </trkpt>
      <trkpt lat="47.28915" lon="-2.23499">
        <ele>6.5999999046326</ele>
        <time>2021-12-19T09:52:08.000Z</time>
      </trkpt>
      <trkpt lat="47.28919" lon="-2.23498">
        <ele>7</ele>
        <time>2021-12-19T09:52:09.000Z</time>
      </trkpt>
      <trkpt lat="47.28925" lon="-2.23495">
        <ele>7.4000000953674</ele>
        <time>2021-12-19T09:52:11.000Z</time>
      </trkpt>
      <trkpt lat="47.28929" lon="-2.23494">
        <ele>7.8000001907349</ele>
        <time>2021-12-19T09:52:12.000Z</time>
      </trkpt>
      <trkpt lat="47.28937" lon="-2.23492">
        <ele>7.8000001907349</ele>
        <time>2021-12-19T09:52:14.000Z</time>
      </trkpt>
      <trkpt lat="47.28941" lon="-2.23491">
        <ele>7.8000001907349</ele>
        <time>2021-12-19T09:52:15.000Z</time>
      </trkpt>
      <trkpt lat="47.28955" lon="-2.23489">
        <ele>7.8000001907349</ele>
        <time>2021-12-19T09:52:19.000Z</time>
      </trkpt>
      <trkpt lat="47.28958" lon="-2.23485">
        <ele>7.8000001907349</ele>
        <time>2021-12-19T09:52:20.000Z</time>
      </trkpt>
      <trkpt lat="47.28958" lon="-2.23467">
        <ele>7.8000001907349</ele>
        <time>2021-12-19T09:52:23.000Z</time>
      </trkpt>
      <trkpt lat="47.28959" lon="-2.23461">
        <ele>7.8000001907349</ele>
        <time>2021-12-19T09:52:24.000Z</time>
      </trkpt>
      <trkpt lat="47.28962" lon="-2.23429">
        <ele>7.8000001907349</ele>
        <time>2021-12-19T09:52:29.000Z</time>
      </trkpt>
      <trkpt lat="47.28968" lon="-2.23374">
        <ele>7.8000001907349</ele>
        <time>2021-12-19T09:52:38.000Z</time>
      </trkpt>
      <trkpt lat="47.28974" lon="-2.23316">
        <ele>7.8000001907349</ele>
        <time>2021-12-19T09:52:46.000Z</time>
      </trkpt>
      <trkpt lat="47.2898" lon="-2.23253">
        <ele>7.8000001907349</ele>
        <time>2021-12-19T09:52:54.000Z</time>
      </trkpt>
      <trkpt lat="47.28982" lon="-2.23237">
        <ele>7.4000000953674</ele>
        <time>2021-12-19T09:52:56.000Z</time>
      </trkpt>
      <trkpt lat="47.28983" lon="-2.23229">
        <ele>7</ele>
        <time>2021-12-19T09:52:57.000Z</time>
      </trkpt>
      <trkpt lat="47.28983" lon="-2.2322">
        <ele>6.5999999046326</ele>
        <time>2021-12-19T09:52:58.000Z</time>
      </trkpt>
      <trkpt lat="47.28984" lon="-2.23212">
        <ele>6.1999998092651</ele>
        <time>2021-12-19T09:52:59.000Z</time>
      </trkpt>
      <trkpt lat="47.28985" lon="-2.23204">
        <ele>5.8000001907349</ele>
        <time>2021-12-19T09:53:00.000Z</time>
      </trkpt>
      <trkpt lat="47.28986" lon="-2.23188">
        <ele>5.8000001907349</ele>
        <time>2021-12-19T09:53:02.000Z</time>
      </trkpt>
      <trkpt lat="47.28989" lon="-2.23157">
        <ele>5.4000000953674</ele>
        <time>2021-12-19T09:53:06.000Z</time>
      </trkpt>
      <trkpt lat="47.2899" lon="-2.23148">
        <ele>5</ele>
        <time>2021-12-19T09:53:07.000Z</time>
      </trkpt>
      <trkpt lat="47.28991" lon="-2.23141">
        <ele>4.5999999046326</ele>
        <time>2021-12-19T09:53:08.000Z</time>
      </trkpt>
      <trkpt lat="47.28992" lon="-2.23132">
        <ele>4.1999998092651</ele>
        <time>2021-12-19T09:53:09.000Z</time>
      </trkpt>
      <trkpt lat="47.28994" lon="-2.23124">
        <ele>3.7999999523163</ele>
        <time>2021-12-19T09:53:10.000Z</time>
      </trkpt>
      <trkpt lat="47.28999" lon="-2.23084">
        <ele>3.2000000476837</ele>
        <time>2021-12-19T09:53:15.000Z</time>
      </trkpt>
      <trkpt lat="47.29" lon="-2.23076">
        <ele>2.7999999523163</ele>
        <time>2021-12-19T09:53:16.000Z</time>
      </trkpt>
      <trkpt lat="47.29002" lon="-2.23068">
        <ele>2.2000000476837</ele>
        <time>2021-12-19T09:53:17.000Z</time>
      </trkpt>
      <trkpt lat="47.29004" lon="-2.23061">
        <ele>1.7999999523163</ele>
        <time>2021-12-19T09:53:18.000Z</time>
      </trkpt>
      <trkpt lat="47.29006" lon="-2.23053">
        <ele>1.2000000476837</ele>
        <time>2021-12-19T09:53:19.000Z</time>
      </trkpt>
      <trkpt lat="47.29013" lon="-2.23031">
        <ele>0.80000001192093</ele>
        <time>2021-12-19T09:53:22.000Z</time>
      </trkpt>
      <trkpt lat="47.29015" lon="-2.23023">
        <ele>0.20000000298023</ele>
        <time>2021-12-19T09:53:23.000Z</time>
      </trkpt>
      <trkpt lat="47.29017" lon="-2.23016">
        <ele>-0.20000000298023</ele>
        <time>2021-12-19T09:53:24.000Z</time>
      </trkpt>
      <trkpt lat="47.29019" lon="-2.23009">
        <ele>-0.60000002384186</ele>
        <time>2021-12-19T09:53:25.000Z</time>
      </trkpt>
      <trkpt lat="47.2902" lon="-2.23003">
        <ele>-1.2000000476837</ele>
        <time>2021-12-19T09:53:26.000Z</time>
      </trkpt>
      <trkpt lat="47.29022" lon="-2.22998">
        <ele>-1.2000000476837</ele>
        <time>2021-12-19T09:53:27.000Z</time>
      </trkpt>
      <trkpt lat="47.29024" lon="-2.22984">
        <ele>-1.2000000476837</ele>
        <time>2021-12-19T09:53:30.000Z</time>
      </trkpt>
      <trkpt lat="47.29029" lon="-2.22967">
        <ele>-1.2000000476837</ele>
        <time>2021-12-19T09:53:34.000Z</time>
      </trkpt>
      <trkpt lat="47.2904" lon="-2.22973">
        <ele>-1.2000000476837</ele>
        <time>2021-12-19T09:53:37.000Z</time>
      </trkpt>
      <trkpt lat="47.29046" lon="-2.22988">
        <ele>-1.2000000476837</ele>
        <time>2021-12-19T09:53:40.000Z</time>
      </trkpt>
      <trkpt lat="47.29049" lon="-2.22993">
        <ele>-1.2000000476837</ele>
        <time>2021-12-19T09:53:41.000Z</time>
      </trkpt>
      <trkpt lat="47.29063" lon="-2.23011">
        <ele>-1.2000000476837</ele>
        <time>2021-12-19T09:53:46.000Z</time>
      </trkpt>
      <trkpt lat="47.29074" lon="-2.23021">
        <ele>-1.2000000476837</ele>
        <time>2021-12-19T09:53:49.000Z</time>
      </trkpt>
      <trkpt lat="47.29084" lon="-2.23027">
        <ele>-1.2000000476837</ele>
        <time>2021-12-19T09:53:52.000Z</time>
      </trkpt>
      <trkpt lat="47.29086" lon="-2.2303">
        <ele>-1.2000000476837</ele>
        <time>2021-12-19T09:53:53.000Z</time>
      </trkpt>
      <trkpt lat="47.29091" lon="-2.23039">
        <ele>-1.2000000476837</ele>
        <time>2021-12-19T09:53:56.000Z</time>
      </trkpt>
      <trkpt lat="47.29097" lon="-2.23046">
        <ele>-1.6000000238419</ele>
        <time>2021-12-19T09:54:00.000Z</time>
      </trkpt>
      <trkpt lat="47.29098" lon="-2.23049">
        <ele>-2</ele>
        <time>2021-12-19T09:54:01.000Z</time>
      </trkpt>
      <trkpt lat="47.291" lon="-2.2305">
        <ele>-2.4000000953674</ele>
        <time>2021-12-19T09:54:02.000Z</time>
      </trkpt>
      <trkpt lat="47.29101" lon="-2.23052">
        <ele>-2.7999999523163</ele>
        <time>2021-12-19T09:54:03.000Z</time>
      </trkpt>
      <trkpt lat="47.29102" lon="-2.23053">
        <ele>-3.2000000476837</ele>
        <time>2021-12-19T09:54:04.000Z</time>
      </trkpt>
      <trkpt lat="47.29104" lon="-2.23055">
        <ele>-3.2000000476837</ele>
        <time>2021-12-19T09:54:05.000Z</time>
      </trkpt>
      <trkpt lat="47.29117" lon="-2.23072">
        <ele>-3.2000000476837</ele>
        <time>2021-12-19T09:54:13.000Z</time>
      </trkpt>
      <trkpt lat="47.29131" lon="-2.23087">
        <ele>-3.2000000476837</ele>
        <time>2021-12-19T09:54:20.000Z</time>
      </trkpt>
      <trkpt lat="47.29145" lon="-2.23106">
        <ele>-3.2000000476837</ele>
        <time>2021-12-19T09:54:28.000Z</time>
      </trkpt>
      <trkpt lat="47.29157" lon="-2.23124">
        <ele>-3.2000000476837</ele>
        <time>2021-12-19T09:54:35.000Z</time>
      </trkpt>
      <trkpt lat="47.29167" lon="-2.23137">
        <ele>-3.2000000476837</ele>
        <time>2021-12-19T09:54:43.000Z</time>
      </trkpt>
      <trkpt lat="47.29168" lon="-2.23141">
        <ele>-3.2000000476837</ele>
        <time>2021-12-19T09:54:48.000Z</time>
      </trkpt>
      <trkpt lat="47.29169" lon="-2.23142">
        <ele>-3.2000000476837</ele>
        <time>2021-12-19T09:55:48.000Z</time>
      </trkpt>
      <trkpt lat="47.29172" lon="-2.23149">
        <ele>-3.2000000476837</ele>
        <time>2021-12-19T09:55:50.000Z</time>
      </trkpt>
      <trkpt lat="47.29191" lon="-2.23176">
        <ele>-3.2000000476837</ele>
        <time>2021-12-19T09:55:57.000Z</time>
      </trkpt>
      <trkpt lat="47.29201" lon="-2.23188">
        <ele>-3.2000000476837</ele>
        <time>2021-12-19T09:56:00.000Z</time>
      </trkpt>
      <trkpt lat="47.29202" lon="-2.23195">
        <ele>-3.2000000476837</ele>
        <time>2021-12-19T09:56:01.000Z</time>
      </trkpt>
      <trkpt lat="47.29205" lon="-2.2322">
        <ele>-3.2000000476837</ele>
        <time>2021-12-19T09:56:05.000Z</time>
      </trkpt>
      <trkpt lat="47.29217" lon="-2.23239">
        <ele>-3.2000000476837</ele>
        <time>2021-12-19T09:56:10.000Z</time>
      </trkpt>
      <trkpt lat="47.29234" lon="-2.23263">
        <ele>-3.2000000476837</ele>
        <time>2021-12-19T09:56:17.000Z</time>
      </trkpt>
      <trkpt lat="47.2925" lon="-2.23285">
        <ele>-3.2000000476837</ele>
        <time>2021-12-19T09:56:24.000Z</time>
      </trkpt>
      <trkpt lat="47.2926" lon="-2.23305">
        <ele>-3.2000000476837</ele>
        <time>2021-12-19T09:56:31.000Z</time>
      </trkpt>
      <trkpt lat="47.29263" lon="-2.23313">
        <ele>-3.2000000476837</ele>
        <time>2021-12-19T09:56:34.000Z</time>
      </trkpt>
      <trkpt lat="47.29265" lon="-2.23321">
        <ele>-3.2000000476837</ele>
        <time>2021-12-19T09:56:37.000Z</time>
      </trkpt>
      <trkpt lat="47.29271" lon="-2.2334">
        <ele>-3.2000000476837</ele>
        <time>2021-12-19T09:56:45.000Z</time>
      </trkpt>
      <trkpt lat="47.29271" lon="-2.23343">
        <ele>-3.2000000476837</ele>
        <time>2021-12-19T09:56:49.000Z</time>
      </trkpt>
      <trkpt lat="47.29271" lon="-2.23345">
        <ele>-3.2000000476837</ele>
        <time>2021-12-19T09:57:59.000Z</time>
      </trkpt>
      <trkpt lat="47.29267" lon="-2.23342">
        <ele>-3.2000000476837</ele>
        <time>2021-12-19T09:58:02.000Z</time>
      </trkpt>
      <trkpt lat="47.29263" lon="-2.23328">
        <ele>-3.2000000476837</ele>
        <time>2021-12-19T09:58:05.000Z</time>
      </trkpt>
      <trkpt lat="47.2926" lon="-2.23317">
        <ele>-3.2000000476837</ele>
        <time>2021-12-19T09:58:07.000Z</time>
      </trkpt>
      <trkpt lat="47.29254" lon="-2.23301">
        <ele>-3.2000000476837</ele>
        <time>2021-12-19T09:58:10.000Z</time>
      </trkpt>
      <trkpt lat="47.29244" lon="-2.23281">
        <ele>-3.2000000476837</ele>
        <time>2021-12-19T09:58:14.000Z</time>
      </trkpt>
      <trkpt lat="47.29222" lon="-2.23252">
        <ele>-3.2000000476837</ele>
        <time>2021-12-19T09:58:21.000Z</time>
      </trkpt>
      <trkpt lat="47.29199" lon="-2.2322">
        <ele>-3.2000000476837</ele>
        <time>2021-12-19T09:58:29.000Z</time>
      </trkpt>
      <trkpt lat="47.29187" lon="-2.23205">
        <ele>-3.2000000476837</ele>
        <time>2021-12-19T09:58:34.000Z</time>
      </trkpt>
      <trkpt lat="47.29185" lon="-2.232">
        <ele>-3.2000000476837</ele>
        <time>2021-12-19T09:58:35.000Z</time>
      </trkpt>
      <trkpt lat="47.2918" lon="-2.23184">
        <ele>-3.2000000476837</ele>
        <time>2021-12-19T09:58:38.000Z</time>
      </trkpt>
      <trkpt lat="47.2917" lon="-2.23161">
        <ele>-3.2000000476837</ele>
        <time>2021-12-19T09:58:43.000Z</time>
      </trkpt>
      <trkpt lat="47.29158" lon="-2.23139">
        <ele>-3.2000000476837</ele>
        <time>2021-12-19T09:58:49.000Z</time>
      </trkpt>
      <trkpt lat="47.29155" lon="-2.23132">
        <ele>-3.2000000476837</ele>
        <time>2021-12-19T09:58:53.000Z</time>
      </trkpt>
      <trkpt lat="47.29165" lon="-2.23134">
        <ele>-3.2000000476837</ele>
        <time>2021-12-19T09:59:42.000Z</time>
      </trkpt>
      <trkpt lat="47.29172" lon="-2.23144">
        <ele>-3.2000000476837</ele>
        <time>2021-12-19T09:59:44.000Z</time>
      </trkpt>
      <trkpt lat="47.29188" lon="-2.23173">
        <ele>-3.2000000476837</ele>
        <time>2021-12-19T09:59:50.000Z</time>
      </trkpt>
      <trkpt lat="47.29196" lon="-2.23179">
        <ele>-3.2000000476837</ele>
        <time>2021-12-19T09:59:52.000Z</time>
      </trkpt>
      <trkpt lat="47.292" lon="-2.23191">
        <ele>-3.2000000476837</ele>
        <time>2021-12-19T09:59:54.000Z</time>
      </trkpt>
      <trkpt lat="47.29201" lon="-2.23206">
        <ele>-3.2000000476837</ele>
        <time>2021-12-19T09:59:56.000Z</time>
      </trkpt>
      <trkpt lat="47.29202" lon="-2.23213">
        <ele>-3.2000000476837</ele>
        <time>2021-12-19T09:59:57.000Z</time>
      </trkpt>
      <trkpt lat="47.29204" lon="-2.23219">
        <ele>-3.2000000476837</ele>
        <time>2021-12-19T09:59:58.000Z</time>
      </trkpt>
      <trkpt lat="47.29217" lon="-2.23241">
        <ele>-3.2000000476837</ele>
        <time>2021-12-19T10:00:02.000Z</time>
      </trkpt>
      <trkpt lat="47.29243" lon="-2.23276">
        <ele>-3.2000000476837</ele>
        <time>2021-12-19T10:00:09.000Z</time>
      </trkpt>
      <trkpt lat="47.29252" lon="-2.23289">
        <ele>-3.2000000476837</ele>
        <time>2021-12-19T10:00:12.000Z</time>
      </trkpt>
      <trkpt lat="47.29259" lon="-2.23307">
        <ele>-3.2000000476837</ele>
        <time>2021-12-19T10:00:15.000Z</time>
      </trkpt>
      <trkpt lat="47.29272" lon="-2.23357">
        <ele>-3.2000000476837</ele>
        <time>2021-12-19T10:00:22.000Z</time>
      </trkpt>
      <trkpt lat="47.29275" lon="-2.23371">
        <ele>-3.2000000476837</ele>
        <time>2021-12-19T10:00:24.000Z</time>
      </trkpt>
      <trkpt lat="47.2928" lon="-2.23397">
        <ele>-3.2000000476837</ele>
        <time>2021-12-19T10:00:28.000Z</time>
      </trkpt>
      <trkpt lat="47.29291" lon="-2.23446">
        <ele>-3.2000000476837</ele>
        <time>2021-12-19T10:00:35.000Z</time>
      </trkpt>
      <trkpt lat="47.29303" lon="-2.23505">
        <ele>-3.2000000476837</ele>
        <time>2021-12-19T10:00:43.000Z</time>
      </trkpt>
      <trkpt lat="47.29311" lon="-2.23558">
        <ele>-3.2000000476837</ele>
        <time>2021-12-19T10:00:50.000Z</time>
      </trkpt>
      <trkpt lat="47.29313" lon="-2.23613">
        <ele>-3.2000000476837</ele>
        <time>2021-12-19T10:00:57.000Z</time>
      </trkpt>
      <trkpt lat="47.29316" lon="-2.23676">
        <ele>-3.2000000476837</ele>
        <time>2021-12-19T10:01:05.000Z</time>
      </trkpt>
      <trkpt lat="47.29315" lon="-2.23728">
        <ele>-3.2000000476837</ele>
        <time>2021-12-19T10:01:12.000Z</time>
      </trkpt>
      <trkpt lat="47.29316" lon="-2.23784">
        <ele>-3.2000000476837</ele>
        <time>2021-12-19T10:01:19.000Z</time>
      </trkpt>
      <trkpt lat="47.29318" lon="-2.23843">
        <ele>-3.2000000476837</ele>
        <time>2021-12-19T10:01:26.000Z</time>
      </trkpt>
      <trkpt lat="47.29321" lon="-2.23868">
        <ele>-3.2000000476837</ele>
        <time>2021-12-19T10:01:29.000Z</time>
      </trkpt>
      <trkpt lat="47.29326" lon="-2.23891">
        <ele>-3.2000000476837</ele>
        <time>2021-12-19T10:01:32.000Z</time>
      </trkpt>
      <trkpt lat="47.29343" lon="-2.2393">
        <ele>-3.2000000476837</ele>
        <time>2021-12-19T10:01:38.000Z</time>
      </trkpt>
      <trkpt lat="47.29359" lon="-2.23959">
        <ele>-3.2000000476837</ele>
        <time>2021-12-19T10:01:43.000Z</time>
      </trkpt>
      <trkpt lat="47.2936" lon="-2.23966">
        <ele>-3.2000000476837</ele>
        <time>2021-12-19T10:01:44.000Z</time>
      </trkpt>
      <trkpt lat="47.29353" lon="-2.23975">
        <ele>-3.2000000476837</ele>
        <time>2021-12-19T10:01:47.000Z</time>
      </trkpt>
      <trkpt lat="47.29348" lon="-2.23975">
        <ele>-3.2000000476837</ele>
        <time>2021-12-19T10:01:48.000Z</time>
      </trkpt>
      <trkpt lat="47.29344" lon="-2.23975">
        <ele>-3.2000000476837</ele>
        <time>2021-12-19T10:01:49.000Z</time>
      </trkpt>
      <trkpt lat="47.29334" lon="-2.23974">
        <ele>-3.2000000476837</ele>
        <time>2021-12-19T10:01:51.000Z</time>
      </trkpt>
      <trkpt lat="47.29328" lon="-2.23973">
        <ele>-3.2000000476837</ele>
        <time>2021-12-19T10:01:52.000Z</time>
      </trkpt>
      <trkpt lat="47.29317" lon="-2.23972">
        <ele>-3.2000000476837</ele>
        <time>2021-12-19T10:01:54.000Z</time>
      </trkpt>
      <trkpt lat="47.29303" lon="-2.23968">
        <ele>-3.2000000476837</ele>
        <time>2021-12-19T10:01:57.000Z</time>
      </trkpt>
      <trkpt lat="47.29299" lon="-2.23966">
        <ele>-3.2000000476837</ele>
        <time>2021-12-19T10:01:58.000Z</time>
      </trkpt>
      <trkpt lat="47.29286" lon="-2.23961">
        <ele>-3.2000000476837</ele>
        <time>2021-12-19T10:02:01.000Z</time>
      </trkpt>
      <trkpt lat="47.29281" lon="-2.2396">
        <ele>-3.2000000476837</ele>
        <time>2021-12-19T10:02:02.000Z</time>
      </trkpt>
      <trkpt lat="47.29267" lon="-2.23965">
        <ele>-3.2000000476837</ele>
        <time>2021-12-19T10:02:05.000Z</time>
      </trkpt>
      <trkpt lat="47.29256" lon="-2.23971">
        <ele>-3.2000000476837</ele>
        <time>2021-12-19T10:02:07.000Z</time>
      </trkpt>
      <trkpt lat="47.29247" lon="-2.2398">
        <ele>-3.2000000476837</ele>
        <time>2021-12-19T10:02:09.000Z</time>
      </trkpt>
      <trkpt lat="47.29242" lon="-2.23984">
        <ele>-3.2000000476837</ele>
        <time>2021-12-19T10:02:10.000Z</time>
      </trkpt>
      <trkpt lat="47.29234" lon="-2.23992">
        <ele>-2.7999999523163</ele>
        <time>2021-12-19T10:02:12.000Z</time>
      </trkpt>
      <trkpt lat="47.2923" lon="-2.23996">
        <ele>-2.4000000953674</ele>
        <time>2021-12-19T10:02:13.000Z</time>
      </trkpt>
      <trkpt lat="47.29225" lon="-2.24">
        <ele>-2</ele>
        <time>2021-12-19T10:02:14.000Z</time>
      </trkpt>
      <trkpt lat="47.29222" lon="-2.24004">
        <ele>-1.6000000238419</ele>
        <time>2021-12-19T10:02:15.000Z</time>
      </trkpt>
      <trkpt lat="47.29218" lon="-2.24009">
        <ele>-1.2000000476837</ele>
        <time>2021-12-19T10:02:16.000Z</time>
      </trkpt>
      <trkpt lat="47.29196" lon="-2.24027">
        <ele>-0.80000001192093</ele>
        <time>2021-12-19T10:02:21.000Z</time>
      </trkpt>
      <trkpt lat="47.29191" lon="-2.24031">
        <ele>-0.40000000596046</ele>
        <time>2021-12-19T10:02:22.000Z</time>
      </trkpt>
      <trkpt lat="47.29187" lon="-2.24034">
        <ele>6.5</ele>
        <time>2021-12-19T10:02:23.000Z</time>
      </trkpt>
      <trkpt lat="47.29182" lon="-2.24037">
        <ele>0.60000002384186</ele>
        <time>2021-12-19T10:02:24.000Z</time>
      </trkpt>
      <trkpt lat="47.29177" lon="-2.24041">
        <ele>1</ele>
        <time>2021-12-19T10:02:25.000Z</time>
      </trkpt>
      <trkpt lat="47.29163" lon="-2.24049">
        <ele>1</ele>
        <time>2021-12-19T10:02:28.000Z</time>
      </trkpt>
      <trkpt lat="47.2915" lon="-2.24056">
        <ele>1.7999999523163</ele>
        <time>2021-12-19T10:02:31.000Z</time>
      </trkpt>
      <trkpt lat="47.29146" lon="-2.24059">
        <ele>2.2000000476837</ele>
        <time>2021-12-19T10:02:32.000Z</time>
      </trkpt>
      <trkpt lat="47.29141" lon="-2.24061">
        <ele>2.5999999046326</ele>
        <time>2021-12-19T10:02:33.000Z</time>
      </trkpt>
      <trkpt lat="47.29136" lon="-2.24063">
        <ele>3</ele>
        <time>2021-12-19T10:02:34.000Z</time>
      </trkpt>
      <trkpt lat="47.29127" lon="-2.24077">
        <ele>3</ele>
        <time>2021-12-19T10:02:37.000Z</time>
      </trkpt>
      <trkpt lat="47.29128" lon="-2.24095">
        <ele>3.4000000953674</ele>
        <time>2021-12-19T10:02:40.000Z</time>
      </trkpt>
      <trkpt lat="47.2913" lon="-2.24101">
        <ele>3.7999999523163</ele>
        <time>2021-12-19T10:02:41.000Z</time>
      </trkpt>
      <trkpt lat="47.29131" lon="-2.24107">
        <ele>4.1999998092651</ele>
        <time>2021-12-19T10:02:42.000Z</time>
      </trkpt>
      <trkpt lat="47.29132" lon="-2.24113">
        <ele>4.5999999046326</ele>
        <time>2021-12-19T10:02:43.000Z</time>
      </trkpt>
      <trkpt lat="47.29134" lon="-2.2412">
        <ele>5</ele>
        <time>2021-12-19T10:02:44.000Z</time>
      </trkpt>
      <trkpt lat="47.29136" lon="-2.24138">
        <ele>5</ele>
        <time>2021-12-19T10:02:47.000Z</time>
      </trkpt>
      <trkpt lat="47.29141" lon="-2.24166">
        <ele>5</ele>
        <time>2021-12-19T10:02:52.000Z</time>
      </trkpt>
      <trkpt lat="47.29143" lon="-2.24172">
        <ele>5</ele>
        <time>2021-12-19T10:02:53.000Z</time>
      </trkpt>
      <trkpt lat="47.2915" lon="-2.24205">
        <ele>5</ele>
        <time>2021-12-19T10:02:58.000Z</time>
      </trkpt>
      <trkpt lat="47.29151" lon="-2.24212">
        <ele>5</ele>
        <time>2021-12-19T10:02:59.000Z</time>
      </trkpt>
      <trkpt lat="47.29161" lon="-2.2425">
        <ele>5</ele>
        <time>2021-12-19T10:03:04.000Z</time>
      </trkpt>
      <trkpt lat="47.29171" lon="-2.24295">
        <ele>5</ele>
        <time>2021-12-19T10:03:10.000Z</time>
      </trkpt>
      <trkpt lat="47.29186" lon="-2.24337">
        <ele>5</ele>
        <time>2021-12-19T10:03:16.000Z</time>
      </trkpt>
      <trkpt lat="47.29205" lon="-2.24379">
        <ele>5</ele>
        <time>2021-12-19T10:03:22.000Z</time>
      </trkpt>
      <trkpt lat="47.29214" lon="-2.24406">
        <ele>5</ele>
        <time>2021-12-19T10:03:26.000Z</time>
      </trkpt>
      <trkpt lat="47.29218" lon="-2.2442">
        <ele>5</ele>
        <time>2021-12-19T10:03:28.000Z</time>
      </trkpt>
      <trkpt lat="47.29229" lon="-2.24462">
        <ele>5</ele>
        <time>2021-12-19T10:03:35.000Z</time>
      </trkpt>
      <trkpt lat="47.29236" lon="-2.24472">
        <ele>5</ele>
        <time>2021-12-19T10:03:39.000Z</time>
      </trkpt>
      <trkpt lat="47.29248" lon="-2.24471">
        <ele>5.4000000953674</ele>
        <time>2021-12-19T10:03:43.000Z</time>
      </trkpt>
      <trkpt lat="47.29252" lon="-2.24469">
        <ele>6.1999998092651</ele>
        <time>2021-12-19T10:03:44.000Z</time>
      </trkpt>
      <trkpt lat="47.29256" lon="-2.24467">
        <ele>6.5999999046326</ele>
        <time>2021-12-19T10:03:45.000Z</time>
      </trkpt>
      <trkpt lat="47.2926" lon="-2.24466">
        <ele>7</ele>
        <time>2021-12-19T10:03:46.000Z</time>
      </trkpt>
      <trkpt lat="47.29281" lon="-2.24457">
        <ele>7</ele>
        <time>2021-12-19T10:03:51.000Z</time>
      </trkpt>
      <trkpt lat="47.29285" lon="-2.24457">
        <ele>7</ele>
        <time>2021-12-19T10:03:52.000Z</time>
      </trkpt>
      <trkpt lat="47.29291" lon="-2.24463">
        <ele>7</ele>
        <time>2021-12-19T10:03:54.000Z</time>
      </trkpt>
      <trkpt lat="47.29294" lon="-2.24483">
        <ele>7</ele>
        <time>2021-12-19T10:03:57.000Z</time>
      </trkpt>
      <trkpt lat="47.29293" lon="-2.24523">
        <ele>7</ele>
        <time>2021-12-19T10:04:02.000Z</time>
      </trkpt>
      <trkpt lat="47.29298" lon="-2.2458">
        <ele>7</ele>
        <time>2021-12-19T10:04:08.000Z</time>
      </trkpt>
      <trkpt lat="47.29299" lon="-2.24609">
        <ele>7</ele>
        <time>2021-12-19T10:04:11.000Z</time>
      </trkpt>
      <trkpt lat="47.29297" lon="-2.24627">
        <ele>7</ele>
        <time>2021-12-19T10:04:13.000Z</time>
      </trkpt>
      <trkpt lat="47.29294" lon="-2.24651">
        <ele>7</ele>
        <time>2021-12-19T10:04:16.000Z</time>
      </trkpt>
      <trkpt lat="47.29294" lon="-2.24667">
        <ele>7</ele>
        <time>2021-12-19T10:04:18.000Z</time>
      </trkpt>
      <trkpt lat="47.29295" lon="-2.24674">
        <ele>7</ele>
        <time>2021-12-19T10:04:19.000Z</time>
      </trkpt>
      <trkpt lat="47.293" lon="-2.24697">
        <ele>7</ele>
        <time>2021-12-19T10:04:22.000Z</time>
      </trkpt>
      <trkpt lat="47.29309" lon="-2.24732">
        <ele>7</ele>
        <time>2021-12-19T10:04:27.000Z</time>
      </trkpt>
      <trkpt lat="47.2931" lon="-2.24739">
        <ele>7</ele>
        <time>2021-12-19T10:04:28.000Z</time>
      </trkpt>
      <trkpt lat="47.29314" lon="-2.24757">
        <ele>7</ele>
        <time>2021-12-19T10:04:31.000Z</time>
      </trkpt>
      <trkpt lat="47.29316" lon="-2.24763">
        <ele>7</ele>
        <time>2021-12-19T10:04:32.000Z</time>
      </trkpt>
      <trkpt lat="47.29326" lon="-2.24797">
        <ele>7</ele>
        <time>2021-12-19T10:04:37.000Z</time>
      </trkpt>
      <trkpt lat="47.29331" lon="-2.24827">
        <ele>7</ele>
        <time>2021-12-19T10:04:41.000Z</time>
      </trkpt>
      <trkpt lat="47.29332" lon="-2.24841">
        <ele>7</ele>
        <time>2021-12-19T10:04:43.000Z</time>
      </trkpt>
      <trkpt lat="47.29334" lon="-2.24873">
        <ele>7</ele>
        <time>2021-12-19T10:04:47.000Z</time>
      </trkpt>
      <trkpt lat="47.29335" lon="-2.2488">
        <ele>7.4000000953674</ele>
        <time>2021-12-19T10:04:48.000Z</time>
      </trkpt>
      <trkpt lat="47.29335" lon="-2.24886">
        <ele>7.8000001907349</ele>
        <time>2021-12-19T10:04:49.000Z</time>
      </trkpt>
      <trkpt lat="47.29335" lon="-2.24892">
        <ele>8.3999996185303</ele>
        <time>2021-12-19T10:04:50.000Z</time>
      </trkpt>
      <trkpt lat="47.29334" lon="-2.24899">
        <ele>8.8000001907349</ele>
        <time>2021-12-19T10:04:51.000Z</time>
      </trkpt>
      <trkpt lat="47.29332" lon="-2.24905">
        <ele>9.1999998092651</ele>
        <time>2021-12-19T10:04:52.000Z</time>
      </trkpt>
      <trkpt lat="47.29329" lon="-2.2491">
        <ele>9.1999998092651</ele>
        <time>2021-12-19T10:04:53.000Z</time>
      </trkpt>
      <trkpt lat="47.29314" lon="-2.24915">
        <ele>9.1999998092651</ele>
        <time>2021-12-19T10:04:57.000Z</time>
      </trkpt>
      <trkpt lat="47.29296" lon="-2.24918">
        <ele>9.1999998092651</ele>
        <time>2021-12-19T10:05:02.000Z</time>
      </trkpt>
      <trkpt lat="47.29266" lon="-2.2492">
        <ele>9.1999998092651</ele>
        <time>2021-12-19T10:05:10.000Z</time>
      </trkpt>
      <trkpt lat="47.29259" lon="-2.24926">
        <ele>9.1999998092651</ele>
        <time>2021-12-19T10:05:12.000Z</time>
      </trkpt>
      <trkpt lat="47.29258" lon="-2.2493">
        <ele>9.1999998092651</ele>
        <time>2021-12-19T10:05:13.000Z</time>
      </trkpt>
      <trkpt lat="47.29258" lon="-2.24948">
        <ele>9.1999998092651</ele>
        <time>2021-12-19T10:05:16.000Z</time>
      </trkpt>
      <trkpt lat="47.29261" lon="-2.24975">
        <ele>9.1999998092651</ele>
        <time>2021-12-19T10:05:20.000Z</time>
      </trkpt>
      <trkpt lat="47.29265" lon="-2.24989">
        <ele>9.1999998092651</ele>
        <time>2021-12-19T10:05:22.000Z</time>
      </trkpt>
      <trkpt lat="47.29278" lon="-2.25042">
        <ele>9.1999998092651</ele>
        <time>2021-12-19T10:05:29.000Z</time>
      </trkpt>
      <trkpt lat="47.29291" lon="-2.25099">
        <ele>9.1999998092651</ele>
        <time>2021-12-19T10:05:36.000Z</time>
      </trkpt>
      <trkpt lat="47.29302" lon="-2.25169">
        <ele>9.1999998092651</ele>
        <time>2021-12-19T10:05:43.000Z</time>
      </trkpt>
      <trkpt lat="47.29303" lon="-2.25178">
        <ele>8.8000001907349</ele>
        <time>2021-12-19T10:05:44.000Z</time>
      </trkpt>
      <trkpt lat="47.29305" lon="-2.25185">
        <ele>8.1999998092651</ele>
        <time>2021-12-19T10:05:45.000Z</time>
      </trkpt>
      <trkpt lat="47.29307" lon="-2.25192">
        <ele>7.8000001907349</ele>
        <time>2021-12-19T10:05:46.000Z</time>
      </trkpt>
      <trkpt lat="47.2931" lon="-2.25195">
        <ele>7</ele>
        <time>2021-12-19T10:05:47.000Z</time>
      </trkpt>
      <trkpt lat="47.29323" lon="-2.25194">
        <ele>7</ele>
        <time>2021-12-19T10:05:50.000Z</time>
      </trkpt>
      <trkpt lat="47.29326" lon="-2.25194">
        <ele>7</ele>
        <time>2021-12-19T10:05:51.000Z</time>
      </trkpt>
      <trkpt lat="47.29336" lon="-2.25195">
        <ele>7</ele>
        <time>2021-12-19T10:05:55.000Z</time>
      </trkpt>
      <trkpt lat="47.29344" lon="-2.25197">
        <ele>7</ele>
        <time>2021-12-19T10:06:01.000Z</time>
      </trkpt>
      <trkpt lat="47.29347" lon="-2.25199">
        <ele>7</ele>
        <time>2021-12-19T10:06:06.000Z</time>
      </trkpt>
      <trkpt lat="47.29355" lon="-2.25202">
        <ele>7</ele>
        <time>2021-12-19T10:06:09.000Z</time>
      </trkpt>
      <trkpt lat="47.29378" lon="-2.25208">
        <ele>7</ele>
        <time>2021-12-19T10:06:15.000Z</time>
      </trkpt>
      <trkpt lat="47.29406" lon="-2.25214">
        <ele>7</ele>
        <time>2021-12-19T10:06:21.000Z</time>
      </trkpt>
      <trkpt lat="47.2941" lon="-2.25213">
        <ele>7</ele>
        <time>2021-12-19T10:06:22.000Z</time>
      </trkpt>
      <trkpt lat="47.29427" lon="-2.25209">
        <ele>7</ele>
        <time>2021-12-19T10:06:26.000Z</time>
      </trkpt>
      <trkpt lat="47.29436" lon="-2.25206">
        <ele>7</ele>
        <time>2021-12-19T10:06:28.000Z</time>
      </trkpt>
      <trkpt lat="47.29454" lon="-2.25204">
        <ele>7</ele>
        <time>2021-12-19T10:06:32.000Z</time>
      </trkpt>
      <trkpt lat="47.29459" lon="-2.25203">
        <ele>7</ele>
        <time>2021-12-19T10:06:33.000Z</time>
      </trkpt>
      <trkpt lat="47.29477" lon="-2.25198">
        <ele>7.8000001907349</ele>
        <time>2021-12-19T10:06:37.000Z</time>
      </trkpt>
      <trkpt lat="47.29482" lon="-2.25196">
        <ele>8.1999998092651</ele>
        <time>2021-12-19T10:06:38.000Z</time>
      </trkpt>
      <trkpt lat="47.29487" lon="-2.25195">
        <ele>8.6000003814697</ele>
        <time>2021-12-19T10:06:39.000Z</time>
      </trkpt>
      <trkpt lat="47.29491" lon="-2.25193">
        <ele>9</ele>
        <time>2021-12-19T10:06:40.000Z</time>
      </trkpt>
      <trkpt lat="47.29513" lon="-2.25186">
        <ele>9</ele>
        <time>2021-12-19T10:06:45.000Z</time>
      </trkpt>
      <trkpt lat="47.29535" lon="-2.25178">
        <ele>9</ele>
        <time>2021-12-19T10:06:51.000Z</time>
      </trkpt>
      <trkpt lat="47.29543" lon="-2.25174">
        <ele>9</ele>
        <time>2021-12-19T10:06:55.000Z</time>
      </trkpt>
      <trkpt lat="47.29544" lon="-2.25172">
        <ele>9</ele>
        <time>2021-12-19T10:06:56.000Z</time>
      </trkpt>
      <trkpt lat="47.29555" lon="-2.25174">
        <ele>9</ele>
        <time>2021-12-19T10:07:02.000Z</time>
      </trkpt>
      <trkpt lat="47.29556" lon="-2.25178">
        <ele>9</ele>
        <time>2021-12-19T10:07:04.000Z</time>
      </trkpt>
      <trkpt lat="47.29556" lon="-2.2518">
        <ele>9</ele>
        <time>2021-12-19T10:07:05.000Z</time>
      </trkpt>
      <trkpt lat="47.29554" lon="-2.2519">
        <ele>9</ele>
        <time>2021-12-19T10:07:08.000Z</time>
      </trkpt>
      <trkpt lat="47.29551" lon="-2.252">
        <ele>9</ele>
        <time>2021-12-19T10:07:10.000Z</time>
      </trkpt>
      <trkpt lat="47.29545" lon="-2.25221">
        <ele>9</ele>
        <time>2021-12-19T10:07:14.000Z</time>
      </trkpt>
      <trkpt lat="47.29542" lon="-2.25239">
        <ele>9</ele>
        <time>2021-12-19T10:07:17.000Z</time>
      </trkpt>
      <trkpt lat="47.29541" lon="-2.25259">
        <ele>9</ele>
        <time>2021-12-19T10:07:20.000Z</time>
      </trkpt>
      <trkpt lat="47.29543" lon="-2.25281">
        <ele>9.3999996185303</ele>
        <time>2021-12-19T10:07:23.000Z</time>
      </trkpt>
      <trkpt lat="47.29544" lon="-2.25288">
        <ele>9.8000001907349</ele>
        <time>2021-12-19T10:07:24.000Z</time>
      </trkpt>
      <trkpt lat="47.29546" lon="-2.25295">
        <ele>10.199999809265</ele>
        <time>2021-12-19T10:07:25.000Z</time>
      </trkpt>
      <trkpt lat="47.29547" lon="-2.25301">
        <ele>11</ele>
        <time>2021-12-19T10:07:26.000Z</time>
      </trkpt>
      <trkpt lat="47.29564" lon="-2.25345">
        <ele>11</ele>
        <time>2021-12-19T10:07:33.000Z</time>
      </trkpt>
      <trkpt lat="47.29574" lon="-2.25369">
        <ele>11.39999961853</ele>
        <time>2021-12-19T10:07:37.000Z</time>
      </trkpt>
      <trkpt lat="47.29576" lon="-2.25375">
        <ele>11.800000190735</ele>
        <time>2021-12-19T10:07:38.000Z</time>
      </trkpt>
      <trkpt lat="47.29578" lon="-2.25382">
        <ele>12.199999809265</ele>
        <time>2021-12-19T10:07:39.000Z</time>
      </trkpt>
      <trkpt lat="47.2958" lon="-2.25388">
        <ele>12.60000038147</ele>
        <time>2021-12-19T10:07:40.000Z</time>
      </trkpt>
      <trkpt lat="47.29582" lon="-2.25395">
        <ele>13</ele>
        <time>2021-12-19T10:07:41.000Z</time>
      </trkpt>
      <trkpt lat="47.29583" lon="-2.25402">
        <ele>13</ele>
        <time>2021-12-19T10:07:42.000Z</time>
      </trkpt>
      <trkpt lat="47.29586" lon="-2.25431">
        <ele>13</ele>
        <time>2021-12-19T10:07:46.000Z</time>
      </trkpt>
      <trkpt lat="47.29589" lon="-2.25483">
        <ele>13.39999961853</ele>
        <time>2021-12-19T10:07:53.000Z</time>
      </trkpt>
      <trkpt lat="47.29589" lon="-2.2549">
        <ele>13.800000190735</ele>
        <time>2021-12-19T10:07:54.000Z</time>
      </trkpt>
      <trkpt lat="47.29588" lon="-2.25497">
        <ele>14.199999809265</ele>
        <time>2021-12-19T10:07:55.000Z</time>
      </trkpt>
      <trkpt lat="47.29586" lon="-2.25504">
        <ele>14.60000038147</ele>
        <time>2021-12-19T10:07:56.000Z</time>
      </trkpt>
      <trkpt lat="47.29585" lon="-2.25511">
        <ele>15</ele>
        <time>2021-12-19T10:07:57.000Z</time>
      </trkpt>
      <trkpt lat="47.29582" lon="-2.25518">
        <ele>15</ele>
        <time>2021-12-19T10:07:58.000Z</time>
      </trkpt>
      <trkpt lat="47.29568" lon="-2.2554">
        <ele>15</ele>
        <time>2021-12-19T10:08:02.000Z</time>
      </trkpt>
      <trkpt lat="47.29555" lon="-2.25551">
        <ele>15</ele>
        <time>2021-12-19T10:08:05.000Z</time>
      </trkpt>
      <trkpt lat="47.29547" lon="-2.25556">
        <ele>15</ele>
        <time>2021-12-19T10:08:07.000Z</time>
      </trkpt>
      <trkpt lat="47.29528" lon="-2.25568">
        <ele>15</ele>
        <time>2021-12-19T10:08:13.000Z</time>
      </trkpt>
      <trkpt lat="47.29508" lon="-2.25581">
        <ele>15.60000038147</ele>
        <time>2021-12-19T10:08:19.000Z</time>
      </trkpt>
      <trkpt lat="47.29505" lon="-2.25583">
        <ele>16</ele>
        <time>2021-12-19T10:08:20.000Z</time>
      </trkpt>
      <trkpt lat="47.29502" lon="-2.25585">
        <ele>16.39999961853</ele>
        <time>2021-12-19T10:08:21.000Z</time>
      </trkpt>
      <trkpt lat="47.29499" lon="-2.25587">
        <ele>16.799999237061</ele>
        <time>2021-12-19T10:08:22.000Z</time>
      </trkpt>
      <trkpt lat="47.29495" lon="-2.25589">
        <ele>17.200000762939</ele>
        <time>2021-12-19T10:08:23.000Z</time>
      </trkpt>
      <trkpt lat="47.29472" lon="-2.25601">
        <ele>17.200000762939</ele>
        <time>2021-12-19T10:08:30.000Z</time>
      </trkpt>
      <trkpt lat="47.2945" lon="-2.2561">
        <ele>17.60000038147</ele>
        <time>2021-12-19T10:08:36.000Z</time>
      </trkpt>
      <trkpt lat="47.29447" lon="-2.25611">
        <ele>18</ele>
        <time>2021-12-19T10:08:37.000Z</time>
      </trkpt>
      <trkpt lat="47.29443" lon="-2.25613">
        <ele>18.39999961853</ele>
        <time>2021-12-19T10:08:38.000Z</time>
      </trkpt>
      <trkpt lat="47.29439" lon="-2.25614">
        <ele>18.799999237061</ele>
        <time>2021-12-19T10:08:39.000Z</time>
      </trkpt>
      <trkpt lat="47.29436" lon="-2.25616">
        <ele>19.200000762939</ele>
        <time>2021-12-19T10:08:40.000Z</time>
      </trkpt>
      <trkpt lat="47.29421" lon="-2.25622">
        <ele>19.200000762939</ele>
        <time>2021-12-19T10:08:44.000Z</time>
      </trkpt>
      <trkpt lat="47.29396" lon="-2.25637">
        <ele>19.200000762939</ele>
        <time>2021-12-19T10:08:51.000Z</time>
      </trkpt>
      <trkpt lat="47.29393" lon="-2.25642">
        <ele>19.200000762939</ele>
        <time>2021-12-19T10:08:53.000Z</time>
      </trkpt>
      <trkpt lat="47.29395" lon="-2.25647">
        <ele>19.200000762939</ele>
        <time>2021-12-19T10:08:55.000Z</time>
      </trkpt>
      <trkpt lat="47.29404" lon="-2.25651">
        <ele>19.200000762939</ele>
        <time>2021-12-19T10:08:59.000Z</time>
      </trkpt>
      <trkpt lat="47.29421" lon="-2.25664">
        <ele>19.200000762939</ele>
        <time>2021-12-19T10:09:04.000Z</time>
      </trkpt>
      <trkpt lat="47.29435" lon="-2.25685">
        <ele>19.200000762939</ele>
        <time>2021-12-19T10:09:08.000Z</time>
      </trkpt>
      <trkpt lat="47.29439" lon="-2.25691">
        <ele>19.200000762939</ele>
        <time>2021-12-19T10:09:09.000Z</time>
      </trkpt>
      <trkpt lat="47.29442" lon="-2.25698">
        <ele>18.799999237061</ele>
        <time>2021-12-19T10:09:10.000Z</time>
      </trkpt>
      <trkpt lat="47.29445" lon="-2.25706">
        <ele>18.39999961853</ele>
        <time>2021-12-19T10:09:11.000Z</time>
      </trkpt>
      <trkpt lat="47.29449" lon="-2.25715">
        <ele>17.799999237061</ele>
        <time>2021-12-19T10:09:12.000Z</time>
      </trkpt>
      <trkpt lat="47.29451" lon="-2.25724">
        <ele>17.39999961853</ele>
        <time>2021-12-19T10:09:13.000Z</time>
      </trkpt>
      <trkpt lat="47.29454" lon="-2.25734">
        <ele>16.799999237061</ele>
        <time>2021-12-19T10:09:14.000Z</time>
      </trkpt>
      <trkpt lat="47.29456" lon="-2.25742">
        <ele>16.39999961853</ele>
        <time>2021-12-19T10:09:15.000Z</time>
      </trkpt>
      <trkpt lat="47.29457" lon="-2.2575">
        <ele>15.800000190735</ele>
        <time>2021-12-19T10:09:16.000Z</time>
      </trkpt>
      <trkpt lat="47.29458" lon="-2.25756">
        <ele>15.199999809265</ele>
        <time>2021-12-19T10:09:17.000Z</time>
      </trkpt>
      <trkpt lat="47.29459" lon="-2.25762">
        <ele>14.60000038147</ele>
        <time>2021-12-19T10:09:18.000Z</time>
      </trkpt>
      <trkpt lat="47.29459" lon="-2.25766">
        <ele>14</ele>
        <time>2021-12-19T10:09:19.000Z</time>
      </trkpt>
      <trkpt lat="47.29458" lon="-2.2577">
        <ele>13.39999961853</ele>
        <time>2021-12-19T10:09:20.000Z</time>
      </trkpt>
      <trkpt lat="47.29458" lon="-2.25772">
        <ele>12.800000190735</ele>
        <time>2021-12-19T10:09:21.000Z</time>
      </trkpt>
      <trkpt lat="47.29448" lon="-2.25778">
        <ele>12.800000190735</ele>
        <time>2021-12-19T10:09:25.000Z</time>
      </trkpt>
      <trkpt lat="47.29442" lon="-2.25792">
        <ele>12.800000190735</ele>
        <time>2021-12-19T10:09:28.000Z</time>
      </trkpt>
      <trkpt lat="47.29445" lon="-2.25816">
        <ele>12.800000190735</ele>
        <time>2021-12-19T10:09:32.000Z</time>
      </trkpt>
      <trkpt lat="47.29442" lon="-2.25828">
        <ele>12.800000190735</ele>
        <time>2021-12-19T10:09:34.000Z</time>
      </trkpt>
      <trkpt lat="47.29439" lon="-2.25838">
        <ele>12.800000190735</ele>
        <time>2021-12-19T10:09:36.000Z</time>
      </trkpt>
      <trkpt lat="47.29437" lon="-2.2585">
        <ele>12.800000190735</ele>
        <time>2021-12-19T10:09:39.000Z</time>
      </trkpt>
      <trkpt lat="47.29439" lon="-2.25856">
        <ele>12.800000190735</ele>
        <time>2021-12-19T10:09:40.000Z</time>
      </trkpt>
      <trkpt lat="47.29448" lon="-2.25894">
        <ele>12.800000190735</ele>
        <time>2021-12-19T10:09:46.000Z</time>
      </trkpt>
      <trkpt lat="47.2945" lon="-2.25923">
        <ele>12.800000190735</ele>
        <time>2021-12-19T10:09:51.000Z</time>
      </trkpt>
      <trkpt lat="47.2944" lon="-2.25934">
        <ele>12.800000190735</ele>
        <time>2021-12-19T10:09:55.000Z</time>
      </trkpt>
      <trkpt lat="47.29436" lon="-2.25936">
        <ele>12.800000190735</ele>
        <time>2021-12-19T10:09:56.000Z</time>
      </trkpt>
      <trkpt lat="47.29419" lon="-2.25946">
        <ele>12.800000190735</ele>
        <time>2021-12-19T10:10:01.000Z</time>
      </trkpt>
      <trkpt lat="47.29415" lon="-2.25944">
        <ele>12.800000190735</ele>
        <time>2021-12-19T10:10:02.000Z</time>
      </trkpt>
      <trkpt lat="47.29405" lon="-2.25948">
        <ele>12.800000190735</ele>
        <time>2021-12-19T10:10:05.000Z</time>
      </trkpt>
      <trkpt lat="47.29406" lon="-2.25958">
        <ele>12.800000190735</ele>
        <time>2021-12-19T10:10:07.000Z</time>
      </trkpt>
      <trkpt lat="47.29408" lon="-2.25977">
        <ele>12.800000190735</ele>
        <time>2021-12-19T10:10:10.000Z</time>
      </trkpt>
      <trkpt lat="47.29408" lon="-2.25984">
        <ele>12.800000190735</ele>
        <time>2021-12-19T10:10:11.000Z</time>
      </trkpt>
      <trkpt lat="47.29404" lon="-2.26022">
        <ele>12.800000190735</ele>
        <time>2021-12-19T10:10:16.000Z</time>
      </trkpt>
      <trkpt lat="47.29413" lon="-2.26044">
        <ele>12.800000190735</ele>
        <time>2021-12-19T10:10:20.000Z</time>
      </trkpt>
      <trkpt lat="47.29424" lon="-2.26069">
        <ele>12.800000190735</ele>
        <time>2021-12-19T10:10:25.000Z</time>
      </trkpt>
      <trkpt lat="47.29429" lon="-2.26094">
        <ele>12.800000190735</ele>
        <time>2021-12-19T10:10:29.000Z</time>
      </trkpt>
      <trkpt lat="47.29425" lon="-2.26122">
        <ele>12.800000190735</ele>
        <time>2021-12-19T10:10:33.000Z</time>
      </trkpt>
      <trkpt lat="47.29411" lon="-2.26153">
        <ele>12.800000190735</ele>
        <time>2021-12-19T10:10:39.000Z</time>
      </trkpt>
      <trkpt lat="47.29408" lon="-2.26155">
        <ele>13.199999809265</ele>
        <time>2021-12-19T10:10:40.000Z</time>
      </trkpt>
      <trkpt lat="47.29404" lon="-2.26156">
        <ele>13.60000038147</ele>
        <time>2021-12-19T10:10:41.000Z</time>
      </trkpt>
      <trkpt lat="47.29402" lon="-2.26158">
        <ele>14</ele>
        <time>2021-12-19T10:10:42.000Z</time>
      </trkpt>
      <trkpt lat="47.294" lon="-2.26158">
        <ele>14.39999961853</ele>
        <time>2021-12-19T10:10:43.000Z</time>
      </trkpt>
      <trkpt lat="47.29397" lon="-2.26158">
        <ele>15</ele>
        <time>2021-12-19T10:10:44.000Z</time>
      </trkpt>
      <trkpt lat="47.2938" lon="-2.26157">
        <ele>15</ele>
        <time>2021-12-19T10:10:51.000Z</time>
      </trkpt>
      <trkpt lat="47.29376" lon="-2.26159">
        <ele>15.39999961853</ele>
        <time>2021-12-19T10:10:52.000Z</time>
      </trkpt>
      <trkpt lat="47.29372" lon="-2.26161">
        <ele>15.800000190735</ele>
        <time>2021-12-19T10:10:53.000Z</time>
      </trkpt>
      <trkpt lat="47.29369" lon="-2.26162">
        <ele>16.200000762939</ele>
        <time>2021-12-19T10:10:54.000Z</time>
      </trkpt>
      <trkpt lat="47.29365" lon="-2.26164">
        <ele>16.60000038147</ele>
        <time>2021-12-19T10:10:55.000Z</time>
      </trkpt>
      <trkpt lat="47.29361" lon="-2.26164">
        <ele>17</ele>
        <time>2021-12-19T10:10:56.000Z</time>
      </trkpt>
      <trkpt lat="47.29352" lon="-2.26164">
        <ele>17</ele>
        <time>2021-12-19T10:10:59.000Z</time>
      </trkpt>
      <trkpt lat="47.29334" lon="-2.26166">
        <ele>17.39999961853</ele>
        <time>2021-12-19T10:11:05.000Z</time>
      </trkpt>
      <trkpt lat="47.29331" lon="-2.26166">
        <ele>17.799999237061</ele>
        <time>2021-12-19T10:11:06.000Z</time>
      </trkpt>
      <trkpt lat="47.29329" lon="-2.26167">
        <ele>18.200000762939</ele>
        <time>2021-12-19T10:11:07.000Z</time>
      </trkpt>
      <trkpt lat="47.29327" lon="-2.26168">
        <ele>18.60000038147</ele>
        <time>2021-12-19T10:11:08.000Z</time>
      </trkpt>
      <trkpt lat="47.29325" lon="-2.26169">
        <ele>19</ele>
        <time>2021-12-19T10:11:09.000Z</time>
      </trkpt>
      <trkpt lat="47.29321" lon="-2.26172">
        <ele>19</ele>
        <time>2021-12-19T10:11:11.000Z</time>
      </trkpt>
      <trkpt lat="47.29321" lon="-2.26174">
        <ele>19</ele>
        <time>2021-12-19T10:11:12.000Z</time>
      </trkpt>
      <trkpt lat="47.29316" lon="-2.2618">
        <ele>19</ele>
        <time>2021-12-19T10:11:15.000Z</time>
      </trkpt>
      <trkpt lat="47.29305" lon="-2.26178">
        <ele>19</ele>
        <time>2021-12-19T10:11:18.000Z</time>
      </trkpt>
      <trkpt lat="47.2929" lon="-2.26178">
        <ele>19</ele>
        <time>2021-12-19T10:11:22.000Z</time>
      </trkpt>
      <trkpt lat="47.29277" lon="-2.26179">
        <ele>19</ele>
        <time>2021-12-19T10:11:26.000Z</time>
      </trkpt>
      <trkpt lat="47.29274" lon="-2.26179">
        <ele>19</ele>
        <time>2021-12-19T10:11:27.000Z</time>
      </trkpt>
      <trkpt lat="47.29267" lon="-2.26175">
        <ele>19</ele>
        <time>2021-12-19T10:11:29.000Z</time>
      </trkpt>
      <trkpt lat="47.29265" lon="-2.26164">
        <ele>19</ele>
        <time>2021-12-19T10:11:31.000Z</time>
      </trkpt>
      <trkpt lat="47.29259" lon="-2.26141">
        <ele>19</ele>
        <time>2021-12-19T10:11:36.000Z</time>
      </trkpt>
      <trkpt lat="47.29248" lon="-2.26119">
        <ele>19</ele>
        <time>2021-12-19T10:11:42.000Z</time>
      </trkpt>
      <trkpt lat="47.29237" lon="-2.26099">
        <ele>19</ele>
        <time>2021-12-19T10:11:48.000Z</time>
      </trkpt>
      <trkpt lat="47.29238" lon="-2.26095">
        <ele>19</ele>
        <time>2021-12-19T10:11:50.000Z</time>
      </trkpt>
      <trkpt lat="47.2924" lon="-2.26092">
        <ele>19</ele>
        <time>2021-12-19T10:11:51.000Z</time>
      </trkpt>
      <trkpt lat="47.2926" lon="-2.26076">
        <ele>19</ele>
        <time>2021-12-19T10:11:57.000Z</time>
      </trkpt>
      <trkpt lat="47.29284" lon="-2.26063">
        <ele>19</ele>
        <time>2021-12-19T10:12:03.000Z</time>
      </trkpt>
      <trkpt lat="47.29287" lon="-2.26054">
        <ele>19</ele>
        <time>2021-12-19T10:12:05.000Z</time>
      </trkpt>
      <trkpt lat="47.29285" lon="-2.26042">
        <ele>19</ele>
        <time>2021-12-19T10:12:07.000Z</time>
      </trkpt>
      <trkpt lat="47.2928" lon="-2.26031">
        <ele>19</ele>
        <time>2021-12-19T10:12:09.000Z</time>
      </trkpt>
      <trkpt lat="47.29278" lon="-2.26025">
        <ele>19</ele>
        <time>2021-12-19T10:12:10.000Z</time>
      </trkpt>
      <trkpt lat="47.29276" lon="-2.26019">
        <ele>19</ele>
        <time>2021-12-19T10:12:11.000Z</time>
      </trkpt>
      <trkpt lat="47.29268" lon="-2.25992">
        <ele>19</ele>
        <time>2021-12-19T10:12:16.000Z</time>
      </trkpt>
      <trkpt lat="47.29268" lon="-2.25982">
        <ele>19</ele>
        <time>2021-12-19T10:12:19.000Z</time>
      </trkpt>
      <trkpt lat="47.29272" lon="-2.25979">
        <ele>19</ele>
        <time>2021-12-19T10:12:20.000Z</time>
      </trkpt>
      <trkpt lat="47.29275" lon="-2.25976">
        <ele>18.60000038147</ele>
        <time>2021-12-19T10:12:21.000Z</time>
      </trkpt>
      <trkpt lat="47.29278" lon="-2.25975">
        <ele>18.200000762939</ele>
        <time>2021-12-19T10:12:22.000Z</time>
      </trkpt>
      <trkpt lat="47.29284" lon="-2.25973">
        <ele>17.799999237061</ele>
        <time>2021-12-19T10:12:23.000Z</time>
      </trkpt>
      <trkpt lat="47.29289" lon="-2.25973">
        <ele>17.39999961853</ele>
        <time>2021-12-19T10:12:24.000Z</time>
      </trkpt>
      <trkpt lat="47.29292" lon="-2.25973">
        <ele>16.799999237061</ele>
        <time>2021-12-19T10:12:25.000Z</time>
      </trkpt>
      <trkpt lat="47.29313" lon="-2.25968">
        <ele>16.799999237061</ele>
        <time>2021-12-19T10:12:29.000Z</time>
      </trkpt>
      <trkpt lat="47.29323" lon="-2.25947">
        <ele>16.799999237061</ele>
        <time>2021-12-19T10:12:33.000Z</time>
      </trkpt>
      <trkpt lat="47.29325" lon="-2.25923">
        <ele>16.799999237061</ele>
        <time>2021-12-19T10:12:37.000Z</time>
      </trkpt>
      <trkpt lat="47.29321" lon="-2.25916">
        <ele>16.799999237061</ele>
        <time>2021-12-19T10:12:38.000Z</time>
      </trkpt>
      <trkpt lat="47.29313" lon="-2.25893">
        <ele>16.799999237061</ele>
        <time>2021-12-19T10:12:42.000Z</time>
      </trkpt>
      <trkpt lat="47.293" lon="-2.25876">
        <ele>16.799999237061</ele>
        <time>2021-12-19T10:12:46.000Z</time>
      </trkpt>
      <trkpt lat="47.29288" lon="-2.2586">
        <ele>16.799999237061</ele>
        <time>2021-12-19T10:12:51.000Z</time>
      </trkpt>
      <trkpt lat="47.29292" lon="-2.25858">
        <ele>16.799999237061</ele>
        <time>2021-12-19T10:12:52.000Z</time>
      </trkpt>
      <trkpt lat="47.29296" lon="-2.25858">
        <ele>16.799999237061</ele>
        <time>2021-12-19T10:12:53.000Z</time>
      </trkpt>
      <trkpt lat="47.29309" lon="-2.25868">
        <ele>16.799999237061</ele>
        <time>2021-12-19T10:12:56.000Z</time>
      </trkpt>
      <trkpt lat="47.29317" lon="-2.2588">
        <ele>16.799999237061</ele>
        <time>2021-12-19T10:12:59.000Z</time>
      </trkpt>
      <trkpt lat="47.29319" lon="-2.25881">
        <ele>16.799999237061</ele>
        <time>2021-12-19T10:13:00.000Z</time>
      </trkpt>
      <trkpt lat="47.29322" lon="-2.2588">
        <ele>16.799999237061</ele>
        <time>2021-12-19T10:13:02.000Z</time>
      </trkpt>
      <trkpt lat="47.29323" lon="-2.25878">
        <ele>16.799999237061</ele>
        <time>2021-12-19T10:13:04.000Z</time>
      </trkpt>
      <trkpt lat="47.29323" lon="-2.25874">
        <ele>16.799999237061</ele>
        <time>2021-12-19T10:13:06.000Z</time>
      </trkpt>
      <trkpt lat="47.29316" lon="-2.25853">
        <ele>16.799999237061</ele>
        <time>2021-12-19T10:13:11.000Z</time>
      </trkpt>
      <trkpt lat="47.29318" lon="-2.25843">
        <ele>16.799999237061</ele>
        <time>2021-12-19T10:13:15.000Z</time>
      </trkpt>
      <trkpt lat="47.29321" lon="-2.25844">
        <ele>16.799999237061</ele>
        <time>2021-12-19T10:13:16.000Z</time>
      </trkpt>
      <trkpt lat="47.29327" lon="-2.25852">
        <ele>16.799999237061</ele>
        <time>2021-12-19T10:13:19.000Z</time>
      </trkpt>
      <trkpt lat="47.29331" lon="-2.25871">
        <ele>16.799999237061</ele>
        <time>2021-12-19T10:13:23.000Z</time>
      </trkpt>
      <trkpt lat="47.2934" lon="-2.25879">
        <ele>16.799999237061</ele>
        <time>2021-12-19T10:13:27.000Z</time>
      </trkpt>
      <trkpt lat="47.29354" lon="-2.25873">
        <ele>16.799999237061</ele>
        <time>2021-12-19T10:13:32.000Z</time>
      </trkpt>
      <trkpt lat="47.29364" lon="-2.25865">
        <ele>16.799999237061</ele>
        <time>2021-12-19T10:13:37.000Z</time>
      </trkpt>
      <trkpt lat="47.29365" lon="-2.25857">
        <ele>16.799999237061</ele>
        <time>2021-12-19T10:13:42.000Z</time>
      </trkpt>
      <trkpt lat="47.29364" lon="-2.25854">
        <ele>16.799999237061</ele>
        <time>2021-12-19T10:13:43.000Z</time>
      </trkpt>
      <trkpt lat="47.29363" lon="-2.25849">
        <ele>16.799999237061</ele>
        <time>2021-12-19T10:13:47.000Z</time>
      </trkpt>
      <trkpt lat="47.29365" lon="-2.25841">
        <ele>16.799999237061</ele>
        <time>2021-12-19T10:13:52.000Z</time>
      </trkpt>
      <trkpt lat="47.29366" lon="-2.2584">
        <ele>16.799999237061</ele>
        <time>2021-12-19T10:13:55.000Z</time>
      </trkpt>
      <trkpt lat="47.29368" lon="-2.25829">
        <ele>16.799999237061</ele>
        <time>2021-12-19T10:16:47.000Z</time>
      </trkpt>
      <trkpt lat="47.29368" lon="-2.25825">
        <ele>16.799999237061</ele>
        <time>2021-12-19T10:16:48.000Z</time>
      </trkpt>
      <trkpt lat="47.2937" lon="-2.25817">
        <ele>16.799999237061</ele>
        <time>2021-12-19T10:16:51.000Z</time>
      </trkpt>
      <trkpt lat="47.29369" lon="-2.25813">
        <ele>16.799999237061</ele>
        <time>2021-12-19T10:16:52.000Z</time>
      </trkpt>
      <trkpt lat="47.29369" lon="-2.25809">
        <ele>16.799999237061</ele>
        <time>2021-12-19T10:16:53.000Z</time>
      </trkpt>
      <trkpt lat="47.29366" lon="-2.25794">
        <ele>16.799999237061</ele>
        <time>2021-12-19T10:16:58.000Z</time>
      </trkpt>
      <trkpt lat="47.29368" lon="-2.2577">
        <ele>16.799999237061</ele>
        <time>2021-12-19T10:17:05.000Z</time>
      </trkpt>
      <trkpt lat="47.29372" lon="-2.25764">
        <ele>16.799999237061</ele>
        <time>2021-12-19T10:17:08.000Z</time>
      </trkpt>
      <trkpt lat="47.29377" lon="-2.25762">
        <ele>16.799999237061</ele>
        <time>2021-12-19T10:17:10.000Z</time>
      </trkpt>
      <trkpt lat="47.29391" lon="-2.25751">
        <ele>16.799999237061</ele>
        <time>2021-12-19T10:17:16.000Z</time>
      </trkpt>
      <trkpt lat="47.29396" lon="-2.25751">
        <ele>16.799999237061</ele>
        <time>2021-12-19T10:17:18.000Z</time>
      </trkpt>
      <trkpt lat="47.29401" lon="-2.25754">
        <ele>16.39999961853</ele>
        <time>2021-12-19T10:17:20.000Z</time>
      </trkpt>
      <trkpt lat="47.29405" lon="-2.25754">
        <ele>16</ele>
        <time>2021-12-19T10:17:21.000Z</time>
      </trkpt>
      <trkpt lat="47.29408" lon="-2.25755">
        <ele>15.60000038147</ele>
        <time>2021-12-19T10:17:22.000Z</time>
      </trkpt>
      <trkpt lat="47.29411" lon="-2.25756">
        <ele>15.199999809265</ele>
        <time>2021-12-19T10:17:23.000Z</time>
      </trkpt>
      <trkpt lat="47.29413" lon="-2.25757">
        <ele>14.800000190735</ele>
        <time>2021-12-19T10:17:24.000Z</time>
      </trkpt>
      <trkpt lat="47.29416" lon="-2.25759">
        <ele>14.800000190735</ele>
        <time>2021-12-19T10:17:25.000Z</time>
      </trkpt>
      <trkpt lat="47.29428" lon="-2.25772">
        <ele>14.800000190735</ele>
        <time>2021-12-19T10:17:30.000Z</time>
      </trkpt>
      <trkpt lat="47.29429" lon="-2.25775">
        <ele>14.199999809265</ele>
        <time>2021-12-19T10:17:31.000Z</time>
      </trkpt>
      <trkpt lat="47.29431" lon="-2.25779">
        <ele>13.800000190735</ele>
        <time>2021-12-19T10:17:32.000Z</time>
      </trkpt>
      <trkpt lat="47.2943" lon="-2.25782">
        <ele>13.39999961853</ele>
        <time>2021-12-19T10:17:33.000Z</time>
      </trkpt>
      <trkpt lat="47.29429" lon="-2.25786">
        <ele>13</ele>
        <time>2021-12-19T10:17:34.000Z</time>
      </trkpt>
      <trkpt lat="47.29428" lon="-2.2579">
        <ele>12.60000038147</ele>
        <time>2021-12-19T10:17:35.000Z</time>
      </trkpt>
      <trkpt lat="47.2943" lon="-2.25807">
        <ele>12.60000038147</ele>
        <time>2021-12-19T10:17:39.000Z</time>
      </trkpt>
      <trkpt lat="47.2943" lon="-2.2583">
        <ele>12.60000038147</ele>
        <time>2021-12-19T10:17:43.000Z</time>
      </trkpt>
      <trkpt lat="47.29425" lon="-2.25848">
        <ele>12.60000038147</ele>
        <time>2021-12-19T10:17:47.000Z</time>
      </trkpt>
      <trkpt lat="47.29422" lon="-2.2585">
        <ele>12.60000038147</ele>
        <time>2021-12-19T10:17:48.000Z</time>
      </trkpt>
      <trkpt lat="47.29412" lon="-2.25855">
        <ele>13</ele>
        <time>2021-12-19T10:17:52.000Z</time>
      </trkpt>
      <trkpt lat="47.29409" lon="-2.25856">
        <ele>13.39999961853</ele>
        <time>2021-12-19T10:17:53.000Z</time>
      </trkpt>
      <trkpt lat="47.29407" lon="-2.25857">
        <ele>13.800000190735</ele>
        <time>2021-12-19T10:17:54.000Z</time>
      </trkpt>
      <trkpt lat="47.29404" lon="-2.25857">
        <ele>14.199999809265</ele>
        <time>2021-12-19T10:17:55.000Z</time>
      </trkpt>
      <trkpt lat="47.29401" lon="-2.25858">
        <ele>14.800000190735</ele>
        <time>2021-12-19T10:17:56.000Z</time>
      </trkpt>
      <trkpt lat="47.29393" lon="-2.25862">
        <ele>14.800000190735</ele>
        <time>2021-12-19T10:17:58.000Z</time>
      </trkpt>
      <trkpt lat="47.29386" lon="-2.25877">
        <ele>14.800000190735</ele>
        <time>2021-12-19T10:18:02.000Z</time>
      </trkpt>
      <trkpt lat="47.29386" lon="-2.2588">
        <ele>14.800000190735</ele>
        <time>2021-12-19T10:18:03.000Z</time>
      </trkpt>
      <trkpt lat="47.29383" lon="-2.25886">
        <ele>14.800000190735</ele>
        <time>2021-12-19T10:18:06.000Z</time>
      </trkpt>
      <trkpt lat="47.29382" lon="-2.25889">
        <ele>14.800000190735</ele>
        <time>2021-12-19T10:18:07.000Z</time>
      </trkpt>
      <trkpt lat="47.29381" lon="-2.25905">
        <ele>14.800000190735</ele>
        <time>2021-12-19T10:18:12.000Z</time>
      </trkpt>
      <trkpt lat="47.29385" lon="-2.25925">
        <ele>14.800000190735</ele>
        <time>2021-12-19T10:18:17.000Z</time>
      </trkpt>
      <trkpt lat="47.29382" lon="-2.25941">
        <ele>14.800000190735</ele>
        <time>2021-12-19T10:18:21.000Z</time>
      </trkpt>
      <trkpt lat="47.29371" lon="-2.25958">
        <ele>14.800000190735</ele>
        <time>2021-12-19T10:18:25.000Z</time>
      </trkpt>
      <trkpt lat="47.29362" lon="-2.2597">
        <ele>14.800000190735</ele>
        <time>2021-12-19T10:18:29.000Z</time>
      </trkpt>
      <trkpt lat="47.29346" lon="-2.2597">
        <ele>14.800000190735</ele>
        <time>2021-12-19T10:18:33.000Z</time>
      </trkpt>
      <trkpt lat="47.29334" lon="-2.25959">
        <ele>14.800000190735</ele>
        <time>2021-12-19T10:18:38.000Z</time>
      </trkpt>
      <trkpt lat="47.2933" lon="-2.25942">
        <ele>14.800000190735</ele>
        <time>2021-12-19T10:18:43.000Z</time>
      </trkpt>
      <trkpt lat="47.29329" lon="-2.25939">
        <ele>14.800000190735</ele>
        <time>2021-12-19T10:18:44.000Z</time>
      </trkpt>
      <trkpt lat="47.29325" lon="-2.25915">
        <ele>14.800000190735</ele>
        <time>2021-12-19T10:18:50.000Z</time>
      </trkpt>
      <trkpt lat="47.29321" lon="-2.25909">
        <ele>14.800000190735</ele>
        <time>2021-12-19T10:18:52.000Z</time>
      </trkpt>
      <trkpt lat="47.29315" lon="-2.25908">
        <ele>15.199999809265</ele>
        <time>2021-12-19T10:18:54.000Z</time>
      </trkpt>
      <trkpt lat="47.29314" lon="-2.25909">
        <ele>15.60000038147</ele>
        <time>2021-12-19T10:18:55.000Z</time>
      </trkpt>
      <trkpt lat="47.29312" lon="-2.25911">
        <ele>16</ele>
        <time>2021-12-19T10:18:56.000Z</time>
      </trkpt>
      <trkpt lat="47.29311" lon="-2.25914">
        <ele>16.39999961853</ele>
        <time>2021-12-19T10:18:57.000Z</time>
      </trkpt>
      <trkpt lat="47.2931" lon="-2.25916">
        <ele>17</ele>
        <time>2021-12-19T10:18:58.000Z</time>
      </trkpt>
      <trkpt lat="47.29306" lon="-2.25916">
        <ele>17</ele>
        <time>2021-12-19T10:19:00.000Z</time>
      </trkpt>
      <trkpt lat="47.29305" lon="-2.25918">
        <ele>17</ele>
        <time>2021-12-19T10:19:01.000Z</time>
      </trkpt>
      <trkpt lat="47.29303" lon="-2.2592">
        <ele>17</ele>
        <time>2021-12-19T10:19:02.000Z</time>
      </trkpt>
      <trkpt lat="47.29296" lon="-2.25925">
        <ele>17</ele>
        <time>2021-12-19T10:19:05.000Z</time>
      </trkpt>
      <trkpt lat="47.29289" lon="-2.25931">
        <ele>17</ele>
        <time>2021-12-19T10:19:07.000Z</time>
      </trkpt>
      <trkpt lat="47.29273" lon="-2.2594">
        <ele>17</ele>
        <time>2021-12-19T10:19:13.000Z</time>
      </trkpt>
      <trkpt lat="47.29259" lon="-2.25945">
        <ele>17</ele>
        <time>2021-12-19T10:19:19.000Z</time>
      </trkpt>
      <trkpt lat="47.29258" lon="-2.25945">
        <ele>17</ele>
        <time>2021-12-19T10:19:22.000Z</time>
      </trkpt>
      <trkpt lat="47.29256" lon="-2.25946">
        <ele>17</ele>
        <time>2021-12-19T10:20:16.000Z</time>
      </trkpt>
      <trkpt lat="47.29254" lon="-2.25947">
        <ele>17</ele>
        <time>2021-12-19T10:20:17.000Z</time>
      </trkpt>
      <trkpt lat="47.29241" lon="-2.25954">
        <ele>17</ele>
        <time>2021-12-19T10:20:22.000Z</time>
      </trkpt>
      <trkpt lat="47.29231" lon="-2.25961">
        <ele>17.39999961853</ele>
        <time>2021-12-19T10:20:24.000Z</time>
      </trkpt>
      <trkpt lat="47.29228" lon="-2.25964">
        <ele>17.799999237061</ele>
        <time>2021-12-19T10:20:25.000Z</time>
      </trkpt>
      <trkpt lat="47.29223" lon="-2.25967">
        <ele>18.200000762939</ele>
        <time>2021-12-19T10:20:26.000Z</time>
      </trkpt>
      <trkpt lat="47.29218" lon="-2.25969">
        <ele>18.60000038147</ele>
        <time>2021-12-19T10:20:27.000Z</time>
      </trkpt>
      <trkpt lat="47.29215" lon="-2.2597">
        <ele>19</ele>
        <time>2021-12-19T10:20:28.000Z</time>
      </trkpt>
      <trkpt lat="47.29196" lon="-2.25975">
        <ele>19</ele>
        <time>2021-12-19T10:20:32.000Z</time>
      </trkpt>
      <trkpt lat="47.29185" lon="-2.25977">
        <ele>19</ele>
        <time>2021-12-19T10:20:35.000Z</time>
      </trkpt>
      <trkpt lat="47.29177" lon="-2.25977">
        <ele>19</ele>
        <time>2021-12-19T10:20:39.000Z</time>
      </trkpt>
      <trkpt lat="47.29175" lon="-2.25978">
        <ele>19</ele>
        <time>2021-12-19T10:21:20.000Z</time>
      </trkpt>
      <trkpt lat="47.29167" lon="-2.25979">
        <ele>19</ele>
        <time>2021-12-19T10:21:23.000Z</time>
      </trkpt>
      <trkpt lat="47.29154" lon="-2.25977">
        <ele>19</ele>
        <time>2021-12-19T10:21:27.000Z</time>
      </trkpt>
      <trkpt lat="47.2912" lon="-2.25973">
        <ele>19</ele>
        <time>2021-12-19T10:21:34.000Z</time>
      </trkpt>
      <trkpt lat="47.2911" lon="-2.25973">
        <ele>19</ele>
        <time>2021-12-19T10:21:36.000Z</time>
      </trkpt>
      <trkpt lat="47.291" lon="-2.25979">
        <ele>19</ele>
        <time>2021-12-19T10:21:38.000Z</time>
      </trkpt>
      <trkpt lat="47.29087" lon="-2.25999">
        <ele>19</ele>
        <time>2021-12-19T10:21:42.000Z</time>
      </trkpt>
      <trkpt lat="47.2909" lon="-2.26018">
        <ele>19</ele>
        <time>2021-12-19T10:21:45.000Z</time>
      </trkpt>
      <trkpt lat="47.29092" lon="-2.26023">
        <ele>19</ele>
        <time>2021-12-19T10:21:46.000Z</time>
      </trkpt>
      <trkpt lat="47.291" lon="-2.26048">
        <ele>19</ele>
        <time>2021-12-19T10:21:50.000Z</time>
      </trkpt>
      <trkpt lat="47.29105" lon="-2.26074">
        <ele>19</ele>
        <time>2021-12-19T10:21:54.000Z</time>
      </trkpt>
      <trkpt lat="47.29107" lon="-2.26093">
        <ele>19</ele>
        <time>2021-12-19T10:21:57.000Z</time>
      </trkpt>
      <trkpt lat="47.29102" lon="-2.26122">
        <ele>19</ele>
        <time>2021-12-19T10:22:01.000Z</time>
      </trkpt>
      <trkpt lat="47.29101" lon="-2.26131">
        <ele>19</ele>
        <time>2021-12-19T10:22:02.000Z</time>
      </trkpt>
      <trkpt lat="47.29096" lon="-2.26171">
        <ele>19</ele>
        <time>2021-12-19T10:22:07.000Z</time>
      </trkpt>
      <trkpt lat="47.29086" lon="-2.26228">
        <ele>19</ele>
        <time>2021-12-19T10:22:14.000Z</time>
      </trkpt>
      <trkpt lat="47.29081" lon="-2.26253">
        <ele>19.39999961853</ele>
        <time>2021-12-19T10:22:17.000Z</time>
      </trkpt>
      <trkpt lat="47.2908" lon="-2.26261">
        <ele>19.799999237061</ele>
        <time>2021-12-19T10:22:18.000Z</time>
      </trkpt>
      <trkpt lat="47.29078" lon="-2.26268">
        <ele>20.200000762939</ele>
        <time>2021-12-19T10:22:19.000Z</time>
      </trkpt>
      <trkpt lat="47.29077" lon="-2.26276">
        <ele>20.799999237061</ele>
        <time>2021-12-19T10:22:20.000Z</time>
      </trkpt>
      <trkpt lat="47.29075" lon="-2.26284">
        <ele>21.200000762939</ele>
        <time>2021-12-19T10:22:21.000Z</time>
      </trkpt>
      <trkpt lat="47.29066" lon="-2.26314">
        <ele>21.200000762939</ele>
        <time>2021-12-19T10:22:25.000Z</time>
      </trkpt>
      <trkpt lat="47.29059" lon="-2.26327">
        <ele>21.200000762939</ele>
        <time>2021-12-19T10:22:27.000Z</time>
      </trkpt>
      <trkpt lat="47.29042" lon="-2.26347">
        <ele>21.200000762939</ele>
        <time>2021-12-19T10:22:31.000Z</time>
      </trkpt>
      <trkpt lat="47.29037" lon="-2.26351">
        <ele>21.200000762939</ele>
        <time>2021-12-19T10:22:32.000Z</time>
      </trkpt>
      <trkpt lat="47.29032" lon="-2.26355">
        <ele>21.200000762939</ele>
        <time>2021-12-19T10:22:33.000Z</time>
      </trkpt>
      <trkpt lat="47.2902" lon="-2.26368">
        <ele>21.200000762939</ele>
        <time>2021-12-19T10:22:36.000Z</time>
      </trkpt>
      <trkpt lat="47.29015" lon="-2.2639">
        <ele>21.200000762939</ele>
        <time>2021-12-19T10:22:39.000Z</time>
      </trkpt>
      <trkpt lat="47.29015" lon="-2.26424">
        <ele>21.200000762939</ele>
        <time>2021-12-19T10:22:43.000Z</time>
      </trkpt>
      <trkpt lat="47.29016" lon="-2.26433">
        <ele>21.200000762939</ele>
        <time>2021-12-19T10:22:44.000Z</time>
      </trkpt>
      <trkpt lat="47.29019" lon="-2.26467">
        <ele>21.200000762939</ele>
        <time>2021-12-19T10:22:47.000Z</time>
      </trkpt>
      <trkpt lat="47.29024" lon="-2.2651">
        <ele>21.200000762939</ele>
        <time>2021-12-19T10:22:51.000Z</time>
      </trkpt>
      <trkpt lat="47.29028" lon="-2.26529">
        <ele>21.200000762939</ele>
        <time>2021-12-19T10:22:53.000Z</time>
      </trkpt>
      <trkpt lat="47.29033" lon="-2.26548">
        <ele>20.799999237061</ele>
        <time>2021-12-19T10:22:55.000Z</time>
      </trkpt>
      <trkpt lat="47.29035" lon="-2.26556">
        <ele>20.39999961853</ele>
        <time>2021-12-19T10:22:56.000Z</time>
      </trkpt>
      <trkpt lat="47.29037" lon="-2.26564">
        <ele>19.60000038147</ele>
        <time>2021-12-19T10:22:57.000Z</time>
      </trkpt>
      <trkpt lat="47.29039" lon="-2.26571">
        <ele>19.200000762939</ele>
        <time>2021-12-19T10:22:58.000Z</time>
      </trkpt>
      <trkpt lat="47.29044" lon="-2.26589">
        <ele>19.200000762939</ele>
        <time>2021-12-19T10:23:01.000Z</time>
      </trkpt>
      <trkpt lat="47.29044" lon="-2.26596">
        <ele>19.200000762939</ele>
        <time>2021-12-19T10:23:02.000Z</time>
      </trkpt>
      <trkpt lat="47.29046" lon="-2.26621">
        <ele>19.200000762939</ele>
        <time>2021-12-19T10:23:05.000Z</time>
      </trkpt>
      <trkpt lat="47.29046" lon="-2.2663">
        <ele>19.200000762939</ele>
        <time>2021-12-19T10:23:06.000Z</time>
      </trkpt>
      <trkpt lat="47.29049" lon="-2.26692">
        <ele>19.200000762939</ele>
        <time>2021-12-19T10:23:12.000Z</time>
      </trkpt>
      <trkpt lat="47.29052" lon="-2.26714">
        <ele>18.60000038147</ele>
        <time>2021-12-19T10:23:14.000Z</time>
      </trkpt>
      <trkpt lat="47.29054" lon="-2.26726">
        <ele>18.200000762939</ele>
        <time>2021-12-19T10:23:15.000Z</time>
      </trkpt>
      <trkpt lat="47.29056" lon="-2.26739">
        <ele>17.799999237061</ele>
        <time>2021-12-19T10:23:16.000Z</time>
      </trkpt>
      <trkpt lat="47.29057" lon="-2.26752">
        <ele>17.200000762939</ele>
        <time>2021-12-19T10:23:17.000Z</time>
      </trkpt>
      <trkpt lat="47.29059" lon="-2.26765">
        <ele>16.799999237061</ele>
        <time>2021-12-19T10:23:18.000Z</time>
      </trkpt>
      <trkpt lat="47.29061" lon="-2.26778">
        <ele>16.200000762939</ele>
        <time>2021-12-19T10:23:19.000Z</time>
      </trkpt>
      <trkpt lat="47.29062" lon="-2.26792">
        <ele>15.60000038147</ele>
        <time>2021-12-19T10:23:20.000Z</time>
      </trkpt>
      <trkpt lat="47.29063" lon="-2.26805">
        <ele>15.199999809265</ele>
        <time>2021-12-19T10:23:21.000Z</time>
      </trkpt>
      <trkpt lat="47.29063" lon="-2.26819">
        <ele>14.199999809265</ele>
        <time>2021-12-19T10:23:22.000Z</time>
      </trkpt>
      <trkpt lat="47.29063" lon="-2.26833">
        <ele>13.800000190735</ele>
        <time>2021-12-19T10:23:23.000Z</time>
      </trkpt>
      <trkpt lat="47.29062" lon="-2.26847">
        <ele>13.39999961853</ele>
        <time>2021-12-19T10:23:24.000Z</time>
      </trkpt>
      <trkpt lat="47.29061" lon="-2.26861">
        <ele>12.800000190735</ele>
        <time>2021-12-19T10:23:25.000Z</time>
      </trkpt>
      <trkpt lat="47.29061" lon="-2.26874">
        <ele>12.39999961853</ele>
        <time>2021-12-19T10:23:26.000Z</time>
      </trkpt>
      <trkpt lat="47.29061" lon="-2.26909">
        <ele>12.39999961853</ele>
        <time>2021-12-19T10:23:29.000Z</time>
      </trkpt>
      <trkpt lat="47.29061" lon="-2.26973">
        <ele>12.39999961853</ele>
        <time>2021-12-19T10:23:35.000Z</time>
      </trkpt>
      <trkpt lat="47.2906" lon="-2.2702">
        <ele>12.39999961853</ele>
        <time>2021-12-19T10:23:40.000Z</time>
      </trkpt>
      <trkpt lat="47.29061" lon="-2.27028">
        <ele>12.39999961853</ele>
        <time>2021-12-19T10:23:41.000Z</time>
      </trkpt>
      <trkpt lat="47.29067" lon="-2.2705">
        <ele>12.39999961853</ele>
        <time>2021-12-19T10:23:45.000Z</time>
      </trkpt>
      <trkpt lat="47.29063" lon="-2.27069">
        <ele>12.39999961853</ele>
        <time>2021-12-19T10:23:49.000Z</time>
      </trkpt>
      <trkpt lat="47.29061" lon="-2.27075">
        <ele>12.39999961853</ele>
        <time>2021-12-19T10:23:50.000Z</time>
      </trkpt>
      <trkpt lat="47.29051" lon="-2.27088">
        <ele>12.39999961853</ele>
        <time>2021-12-19T10:23:53.000Z</time>
      </trkpt>
      <trkpt lat="47.2904" lon="-2.27094">
        <ele>12.39999961853</ele>
        <time>2021-12-19T10:23:56.000Z</time>
      </trkpt>
      <trkpt lat="47.29035" lon="-2.27097">
        <ele>12.39999961853</ele>
        <time>2021-12-19T10:23:57.000Z</time>
      </trkpt>
      <trkpt lat="47.2903" lon="-2.27111">
        <ele>12.39999961853</ele>
        <time>2021-12-19T10:24:00.000Z</time>
      </trkpt>
      <trkpt lat="47.29034" lon="-2.27121">
        <ele>12.39999961853</ele>
        <time>2021-12-19T10:24:02.000Z</time>
      </trkpt>
      <trkpt lat="47.29036" lon="-2.27125">
        <ele>12.39999961853</ele>
        <time>2021-12-19T10:24:03.000Z</time>
      </trkpt>
      <trkpt lat="47.2905" lon="-2.27138">
        <ele>12.39999961853</ele>
        <time>2021-12-19T10:24:07.000Z</time>
      </trkpt>
      <trkpt lat="47.2906" lon="-2.27151">
        <ele>12.39999961853</ele>
        <time>2021-12-19T10:24:10.000Z</time>
      </trkpt>
      <trkpt lat="47.29065" lon="-2.27162">
        <ele>12.39999961853</ele>
        <time>2021-12-19T10:24:12.000Z</time>
      </trkpt>
      <trkpt lat="47.29072" lon="-2.2718">
        <ele>12.39999961853</ele>
        <time>2021-12-19T10:24:16.000Z</time>
      </trkpt>
      <trkpt lat="47.29076" lon="-2.27185">
        <ele>12.39999961853</ele>
        <time>2021-12-19T10:24:17.000Z</time>
      </trkpt>
      <trkpt lat="47.29084" lon="-2.27192">
        <ele>12.39999961853</ele>
        <time>2021-12-19T10:24:19.000Z</time>
      </trkpt>
      <trkpt lat="47.29088" lon="-2.27194">
        <ele>12.39999961853</ele>
        <time>2021-12-19T10:24:20.000Z</time>
      </trkpt>
      <trkpt lat="47.29097" lon="-2.27195">
        <ele>12.39999961853</ele>
        <time>2021-12-19T10:24:23.000Z</time>
      </trkpt>
      <trkpt lat="47.29108" lon="-2.27195">
        <ele>12.39999961853</ele>
        <time>2021-12-19T10:24:28.000Z</time>
      </trkpt>
      <trkpt lat="47.29112" lon="-2.27198">
        <ele>12.39999961853</ele>
        <time>2021-12-19T10:24:32.000Z</time>
      </trkpt>
      <trkpt lat="47.29113" lon="-2.272">
        <ele>12.39999961853</ele>
        <time>2021-12-19T10:24:33.000Z</time>
      </trkpt>
      <trkpt lat="47.29114" lon="-2.27208">
        <ele>12.39999961853</ele>
        <time>2021-12-19T10:24:38.000Z</time>
      </trkpt>
      <trkpt lat="47.29115" lon="-2.27224">
        <ele>12.39999961853</ele>
        <time>2021-12-19T10:24:44.000Z</time>
      </trkpt>
      <trkpt lat="47.29113" lon="-2.2725">
        <ele>12.39999961853</ele>
        <time>2021-12-19T10:24:49.000Z</time>
      </trkpt>
      <trkpt lat="47.29105" lon="-2.27281">
        <ele>12.39999961853</ele>
        <time>2021-12-19T10:24:54.000Z</time>
      </trkpt>
      <trkpt lat="47.29099" lon="-2.2731">
        <ele>12.39999961853</ele>
        <time>2021-12-19T10:24:59.000Z</time>
      </trkpt>
      <trkpt lat="47.29092" lon="-2.27333">
        <ele>12.39999961853</ele>
        <time>2021-12-19T10:25:04.000Z</time>
      </trkpt>
      <trkpt lat="47.29095" lon="-2.27349">
        <ele>12.39999961853</ele>
        <time>2021-12-19T10:25:08.000Z</time>
      </trkpt>
      <trkpt lat="47.29099" lon="-2.27369">
        <ele>12.39999961853</ele>
        <time>2021-12-19T10:25:12.000Z</time>
      </trkpt>
      <trkpt lat="47.29105" lon="-2.2741">
        <ele>12.39999961853</ele>
        <time>2021-12-19T10:25:18.000Z</time>
      </trkpt>
      <trkpt lat="47.29106" lon="-2.27417">
        <ele>12.39999961853</ele>
        <time>2021-12-19T10:25:19.000Z</time>
      </trkpt>
      <trkpt lat="47.29104" lon="-2.27444">
        <ele>12.39999961853</ele>
        <time>2021-12-19T10:25:23.000Z</time>
      </trkpt>
      <trkpt lat="47.29101" lon="-2.27481">
        <ele>12.39999961853</ele>
        <time>2021-12-19T10:25:29.000Z</time>
      </trkpt>
      <trkpt lat="47.29102" lon="-2.27507">
        <ele>12.39999961853</ele>
        <time>2021-12-19T10:25:34.000Z</time>
      </trkpt>
      <trkpt lat="47.29103" lon="-2.27519">
        <ele>12.39999961853</ele>
        <time>2021-12-19T10:25:38.000Z</time>
      </trkpt>
      <trkpt lat="47.29101" lon="-2.27525">
        <ele>12.39999961853</ele>
        <time>2021-12-19T10:25:51.000Z</time>
      </trkpt>
      <trkpt lat="47.29089" lon="-2.27527">
        <ele>12.39999961853</ele>
        <time>2021-12-19T10:25:55.000Z</time>
      </trkpt>
      <trkpt lat="47.29062" lon="-2.27527">
        <ele>12.39999961853</ele>
        <time>2021-12-19T10:26:01.000Z</time>
      </trkpt>
      <trkpt lat="47.29056" lon="-2.27526">
        <ele>12.39999961853</ele>
        <time>2021-12-19T10:26:02.000Z</time>
      </trkpt>
      <trkpt lat="47.29033" lon="-2.27523">
        <ele>12.39999961853</ele>
        <time>2021-12-19T10:26:06.000Z</time>
      </trkpt>
      <trkpt lat="47.2899" lon="-2.27524">
        <ele>12.39999961853</ele>
        <time>2021-12-19T10:26:13.000Z</time>
      </trkpt>
      <trkpt lat="47.28935" lon="-2.27526">
        <ele>12.39999961853</ele>
        <time>2021-12-19T10:26:21.000Z</time>
      </trkpt>
      <trkpt lat="47.28895" lon="-2.27529">
        <ele>12.39999961853</ele>
        <time>2021-12-19T10:26:27.000Z</time>
      </trkpt>
      <trkpt lat="47.28857" lon="-2.27537">
        <ele>12.39999961853</ele>
        <time>2021-12-19T10:26:33.000Z</time>
      </trkpt>
      <trkpt lat="47.28825" lon="-2.27542">
        <ele>12.39999961853</ele>
        <time>2021-12-19T10:26:39.000Z</time>
      </trkpt>
      <trkpt lat="47.28813" lon="-2.27544">
        <ele>12.39999961853</ele>
        <time>2021-12-19T10:26:41.000Z</time>
      </trkpt>
      <trkpt lat="47.28802" lon="-2.27542">
        <ele>12.39999961853</ele>
        <time>2021-12-19T10:26:43.000Z</time>
      </trkpt>
      <trkpt lat="47.28791" lon="-2.27538">
        <ele>12.39999961853</ele>
        <time>2021-12-19T10:26:45.000Z</time>
      </trkpt>
      <trkpt lat="47.28763" lon="-2.27526">
        <ele>12.39999961853</ele>
        <time>2021-12-19T10:26:50.000Z</time>
      </trkpt>
      <trkpt lat="47.28742" lon="-2.27516">
        <ele>12.800000190735</ele>
        <time>2021-12-19T10:26:54.000Z</time>
      </trkpt>
      <trkpt lat="47.28737" lon="-2.27514">
        <ele>13.199999809265</ele>
        <time>2021-12-19T10:26:55.000Z</time>
      </trkpt>
      <trkpt lat="47.28732" lon="-2.27511">
        <ele>13.60000038147</ele>
        <time>2021-12-19T10:26:56.000Z</time>
      </trkpt>
      <trkpt lat="47.28727" lon="-2.27508">
        <ele>14.199999809265</ele>
        <time>2021-12-19T10:26:57.000Z</time>
      </trkpt>
      <trkpt lat="47.28722" lon="-2.27504">
        <ele>14.60000038147</ele>
        <time>2021-12-19T10:26:58.000Z</time>
      </trkpt>
      <trkpt lat="47.28698" lon="-2.27484">
        <ele>14.60000038147</ele>
        <time>2021-12-19T10:27:03.000Z</time>
      </trkpt>
      <trkpt lat="47.28684" lon="-2.27469">
        <ele>15</ele>
        <time>2021-12-19T10:27:06.000Z</time>
      </trkpt>
      <trkpt lat="47.2868" lon="-2.27463">
        <ele>15.39999961853</ele>
        <time>2021-12-19T10:27:07.000Z</time>
      </trkpt>
      <trkpt lat="47.28675" lon="-2.27457">
        <ele>15.800000190735</ele>
        <time>2021-12-19T10:27:08.000Z</time>
      </trkpt>
      <trkpt lat="47.28671" lon="-2.27451">
        <ele>16.200000762939</ele>
        <time>2021-12-19T10:27:09.000Z</time>
      </trkpt>
      <trkpt lat="47.28666" lon="-2.27445">
        <ele>16.60000038147</ele>
        <time>2021-12-19T10:27:10.000Z</time>
      </trkpt>
      <trkpt lat="47.28643" lon="-2.27407">
        <ele>16.60000038147</ele>
        <time>2021-12-19T10:27:16.000Z</time>
      </trkpt>
      <trkpt lat="47.28619" lon="-2.27365">
        <ele>17</ele>
        <time>2021-12-19T10:27:23.000Z</time>
      </trkpt>
      <trkpt lat="47.28616" lon="-2.27359">
        <ele>17.39999961853</ele>
        <time>2021-12-19T10:27:24.000Z</time>
      </trkpt>
      <trkpt lat="47.28613" lon="-2.27354">
        <ele>17.799999237061</ele>
        <time>2021-12-19T10:27:25.000Z</time>
      </trkpt>
      <trkpt lat="47.28609" lon="-2.2735">
        <ele>18.200000762939</ele>
        <time>2021-12-19T10:27:26.000Z</time>
      </trkpt>
      <trkpt lat="47.28605" lon="-2.27348">
        <ele>18.799999237061</ele>
        <time>2021-12-19T10:27:27.000Z</time>
      </trkpt>
      <trkpt lat="47.28585" lon="-2.27352">
        <ele>18.799999237061</ele>
        <time>2021-12-19T10:27:31.000Z</time>
      </trkpt>
      <trkpt lat="47.2856" lon="-2.27363">
        <ele>18.799999237061</ele>
        <time>2021-12-19T10:27:36.000Z</time>
      </trkpt>
      <trkpt lat="47.2855" lon="-2.27365">
        <ele>18.799999237061</ele>
        <time>2021-12-19T10:27:38.000Z</time>
      </trkpt>
      <trkpt lat="47.28519" lon="-2.27364">
        <ele>18.799999237061</ele>
        <time>2021-12-19T10:27:44.000Z</time>
      </trkpt>
      <trkpt lat="47.28509" lon="-2.27362">
        <ele>19.200000762939</ele>
        <time>2021-12-19T10:27:46.000Z</time>
      </trkpt>
      <trkpt lat="47.28504" lon="-2.27362">
        <ele>19.60000038147</ele>
        <time>2021-12-19T10:27:47.000Z</time>
      </trkpt>
      <trkpt lat="47.28499" lon="-2.27361">
        <ele>20</ele>
        <time>2021-12-19T10:27:48.000Z</time>
      </trkpt>
      <trkpt lat="47.28494" lon="-2.27361">
        <ele>20.39999961853</ele>
        <time>2021-12-19T10:27:49.000Z</time>
      </trkpt>
      <trkpt lat="47.28489" lon="-2.2736">
        <ele>20.799999237061</ele>
        <time>2021-12-19T10:27:50.000Z</time>
      </trkpt>
      <trkpt lat="47.2848" lon="-2.27359">
        <ele>20.799999237061</ele>
        <time>2021-12-19T10:27:52.000Z</time>
      </trkpt>
      <trkpt lat="47.28466" lon="-2.27357">
        <ele>21.39999961853</ele>
        <time>2021-12-19T10:27:55.000Z</time>
      </trkpt>
      <trkpt lat="47.28461" lon="-2.27356">
        <ele>21.799999237061</ele>
        <time>2021-12-19T10:27:56.000Z</time>
      </trkpt>
      <trkpt lat="47.28456" lon="-2.27356">
        <ele>22.200000762939</ele>
        <time>2021-12-19T10:27:57.000Z</time>
      </trkpt>
      <trkpt lat="47.28451" lon="-2.27355">
        <ele>22.60000038147</ele>
        <time>2021-12-19T10:27:58.000Z</time>
      </trkpt>
      <trkpt lat="47.28447" lon="-2.27354">
        <ele>23.200000762939</ele>
        <time>2021-12-19T10:27:59.000Z</time>
      </trkpt>
      <trkpt lat="47.28418" lon="-2.27356">
        <ele>23.200000762939</ele>
        <time>2021-12-19T10:28:05.000Z</time>
      </trkpt>
      <trkpt lat="47.28392" lon="-2.27359">
        <ele>23.200000762939</ele>
        <time>2021-12-19T10:28:11.000Z</time>
      </trkpt>
      <trkpt lat="47.28386" lon="-2.27365">
        <ele>23.200000762939</ele>
        <time>2021-12-19T10:28:13.000Z</time>
      </trkpt>
      <trkpt lat="47.28385" lon="-2.27374">
        <ele>23.200000762939</ele>
        <time>2021-12-19T10:28:15.000Z</time>
      </trkpt>
      <trkpt lat="47.28384" lon="-2.27383">
        <ele>23.200000762939</ele>
        <time>2021-12-19T10:28:17.000Z</time>
      </trkpt>
      <trkpt lat="47.28384" lon="-2.27387">
        <ele>24</ele>
        <time>2021-12-19T10:28:18.000Z</time>
      </trkpt>
      <trkpt lat="47.28383" lon="-2.27392">
        <ele>24.60000038147</ele>
        <time>2021-12-19T10:28:19.000Z</time>
      </trkpt>
      <trkpt lat="47.28382" lon="-2.27395">
        <ele>25</ele>
        <time>2021-12-19T10:28:20.000Z</time>
      </trkpt>
      <trkpt lat="47.28382" lon="-2.274">
        <ele>25.39999961853</ele>
        <time>2021-12-19T10:28:21.000Z</time>
      </trkpt>
      <trkpt lat="47.2838" lon="-2.27408">
        <ele>25.799999237061</ele>
        <time>2021-12-19T10:28:23.000Z</time>
      </trkpt>
      <trkpt lat="47.28379" lon="-2.27413">
        <ele>26.200000762939</ele>
        <time>2021-12-19T10:28:24.000Z</time>
      </trkpt>
      <trkpt lat="47.28378" lon="-2.27418">
        <ele>26.799999237061</ele>
        <time>2021-12-19T10:28:25.000Z</time>
      </trkpt>
      <trkpt lat="47.28377" lon="-2.27423">
        <ele>27.200000762939</ele>
        <time>2021-12-19T10:28:26.000Z</time>
      </trkpt>
      <trkpt lat="47.28376" lon="-2.27429">
        <ele>27.60000038147</ele>
        <time>2021-12-19T10:28:27.000Z</time>
      </trkpt>
      <trkpt lat="47.28374" lon="-2.2744">
        <ele>27.60000038147</ele>
        <time>2021-12-19T10:28:29.000Z</time>
      </trkpt>
      <trkpt lat="47.28372" lon="-2.27458">
        <ele>27.60000038147</ele>
        <time>2021-12-19T10:28:32.000Z</time>
      </trkpt>
      <trkpt lat="47.28369" lon="-2.27476">
        <ele>27.60000038147</ele>
        <time>2021-12-19T10:28:35.000Z</time>
      </trkpt>
      <trkpt lat="47.28366" lon="-2.27495">
        <ele>28</ele>
        <time>2021-12-19T10:28:38.000Z</time>
      </trkpt>
      <trkpt lat="47.28365" lon="-2.27501">
        <ele>28.39999961853</ele>
        <time>2021-12-19T10:28:39.000Z</time>
      </trkpt>
      <trkpt lat="47.28364" lon="-2.27508">
        <ele>28.799999237061</ele>
        <time>2021-12-19T10:28:40.000Z</time>
      </trkpt>
      <trkpt lat="47.28364" lon="-2.27514">
        <ele>29.200000762939</ele>
        <time>2021-12-19T10:28:41.000Z</time>
      </trkpt>
      <trkpt lat="47.28363" lon="-2.27521">
        <ele>29.799999237061</ele>
        <time>2021-12-19T10:28:42.000Z</time>
      </trkpt>
      <trkpt lat="47.28358" lon="-2.27561">
        <ele>29.799999237061</ele>
        <time>2021-12-19T10:28:48.000Z</time>
      </trkpt>
      <trkpt lat="47.28356" lon="-2.27568">
        <ele>29.799999237061</ele>
        <time>2021-12-19T10:28:49.000Z</time>
      </trkpt>
      <trkpt lat="47.28353" lon="-2.2759">
        <ele>29.799999237061</ele>
        <time>2021-12-19T10:28:52.000Z</time>
      </trkpt>
      <trkpt lat="47.28353" lon="-2.27597">
        <ele>29.799999237061</ele>
        <time>2021-12-19T10:28:53.000Z</time>
      </trkpt>
      <trkpt lat="47.28353" lon="-2.27611">
        <ele>29.799999237061</ele>
        <time>2021-12-19T10:28:55.000Z</time>
      </trkpt>
      <trkpt lat="47.28352" lon="-2.27624">
        <ele>29.799999237061</ele>
        <time>2021-12-19T10:28:57.000Z</time>
      </trkpt>
      <trkpt lat="47.2835" lon="-2.27658">
        <ele>29.799999237061</ele>
        <time>2021-12-19T10:29:02.000Z</time>
      </trkpt>
      <trkpt lat="47.28349" lon="-2.27665">
        <ele>29.799999237061</ele>
        <time>2021-12-19T10:29:03.000Z</time>
      </trkpt>
      <trkpt lat="47.28343" lon="-2.27705">
        <ele>29.200000762939</ele>
        <time>2021-12-19T10:29:08.000Z</time>
      </trkpt>
      <trkpt lat="47.28343" lon="-2.27714">
        <ele>28.799999237061</ele>
        <time>2021-12-19T10:29:09.000Z</time>
      </trkpt>
      <trkpt lat="47.28342" lon="-2.27722">
        <ele>28.39999961853</ele>
        <time>2021-12-19T10:29:10.000Z</time>
      </trkpt>
      <trkpt lat="47.28341" lon="-2.2773">
        <ele>28</ele>
        <time>2021-12-19T10:29:11.000Z</time>
      </trkpt>
      <trkpt lat="47.28341" lon="-2.27738">
        <ele>27.39999961853</ele>
        <time>2021-12-19T10:29:12.000Z</time>
      </trkpt>
      <trkpt lat="47.28339" lon="-2.27759">
        <ele>27.39999961853</ele>
        <time>2021-12-19T10:29:15.000Z</time>
      </trkpt>
      <trkpt lat="47.28334" lon="-2.27818">
        <ele>27.39999961853</ele>
        <time>2021-12-19T10:29:23.000Z</time>
      </trkpt>
      <trkpt lat="47.2833" lon="-2.27859">
        <ele>27.39999961853</ele>
        <time>2021-12-19T10:29:29.000Z</time>
      </trkpt>
      <trkpt lat="47.28325" lon="-2.27917">
        <ele>27.39999961853</ele>
        <time>2021-12-19T10:29:37.000Z</time>
      </trkpt>
      <trkpt lat="47.28324" lon="-2.27966">
        <ele>27.39999961853</ele>
        <time>2021-12-19T10:29:44.000Z</time>
      </trkpt>
      <trkpt lat="47.28322" lon="-2.27971">
        <ele>27.39999961853</ele>
        <time>2021-12-19T10:29:45.000Z</time>
      </trkpt>
      <trkpt lat="47.28319" lon="-2.27983">
        <ele>27.39999961853</ele>
        <time>2021-12-19T10:29:47.000Z</time>
      </trkpt>
      <trkpt lat="47.2832" lon="-2.2801">
        <ele>27.39999961853</ele>
        <time>2021-12-19T10:29:51.000Z</time>
      </trkpt>
      <trkpt lat="47.28319" lon="-2.28028">
        <ele>27</ele>
        <time>2021-12-19T10:29:53.000Z</time>
      </trkpt>
      <trkpt lat="47.28319" lon="-2.28038">
        <ele>26.60000038147</ele>
        <time>2021-12-19T10:29:54.000Z</time>
      </trkpt>
      <trkpt lat="47.28319" lon="-2.28049">
        <ele>26.200000762939</ele>
        <time>2021-12-19T10:29:55.000Z</time>
      </trkpt>
      <trkpt lat="47.28319" lon="-2.28059">
        <ele>25</ele>
        <time>2021-12-19T10:29:56.000Z</time>
      </trkpt>
      <trkpt lat="47.2832" lon="-2.28067">
        <ele>24.39999961853</ele>
        <time>2021-12-19T10:29:57.000Z</time>
      </trkpt>
      <trkpt lat="47.2832" lon="-2.28075">
        <ele>23.799999237061</ele>
        <time>2021-12-19T10:29:58.000Z</time>
      </trkpt>
      <trkpt lat="47.28321" lon="-2.2808">
        <ele>23.200000762939</ele>
        <time>2021-12-19T10:29:59.000Z</time>
      </trkpt>
      <trkpt lat="47.28321" lon="-2.28084">
        <ele>22.60000038147</ele>
        <time>2021-12-19T10:30:00.000Z</time>
      </trkpt>
      <trkpt lat="47.28323" lon="-2.28087">
        <ele>22.200000762939</ele>
        <time>2021-12-19T10:30:01.000Z</time>
      </trkpt>
      <trkpt lat="47.28325" lon="-2.28087">
        <ele>21.799999237061</ele>
        <time>2021-12-19T10:30:02.000Z</time>
      </trkpt>
      <trkpt lat="47.28327" lon="-2.28087">
        <ele>21.39999961853</ele>
        <time>2021-12-19T10:30:03.000Z</time>
      </trkpt>
      <trkpt lat="47.28329" lon="-2.28087">
        <ele>21</ele>
        <time>2021-12-19T10:30:04.000Z</time>
      </trkpt>
      <trkpt lat="47.28348" lon="-2.28088">
        <ele>21</ele>
        <time>2021-12-19T10:30:12.000Z</time>
      </trkpt>
      <trkpt lat="47.28356" lon="-2.28106">
        <ele>21</ele>
        <time>2021-12-19T10:30:15.000Z</time>
      </trkpt>
      <trkpt lat="47.28358" lon="-2.28113">
        <ele>21</ele>
        <time>2021-12-19T10:30:16.000Z</time>
      </trkpt>
      <trkpt lat="47.28362" lon="-2.28147">
        <ele>21</ele>
        <time>2021-12-19T10:30:21.000Z</time>
      </trkpt>
      <trkpt lat="47.28364" lon="-2.28158">
        <ele>21.39999961853</ele>
        <time>2021-12-19T10:30:23.000Z</time>
      </trkpt>
      <trkpt lat="47.28364" lon="-2.28164">
        <ele>22</ele>
        <time>2021-12-19T10:30:24.000Z</time>
      </trkpt>
      <trkpt lat="47.28365" lon="-2.2817">
        <ele>22.39999961853</ele>
        <time>2021-12-19T10:30:25.000Z</time>
      </trkpt>
      <trkpt lat="47.28365" lon="-2.28177">
        <ele>22.799999237061</ele>
        <time>2021-12-19T10:30:26.000Z</time>
      </trkpt>
      <trkpt lat="47.28365" lon="-2.28183">
        <ele>23.39999961853</ele>
        <time>2021-12-19T10:30:27.000Z</time>
      </trkpt>
      <trkpt lat="47.28366" lon="-2.28189">
        <ele>23.39999961853</ele>
        <time>2021-12-19T10:30:28.000Z</time>
      </trkpt>
      <trkpt lat="47.28366" lon="-2.28195">
        <ele>23.799999237061</ele>
        <time>2021-12-19T10:30:29.000Z</time>
      </trkpt>
      <trkpt lat="47.28367" lon="-2.28201">
        <ele>24.200000762939</ele>
        <time>2021-12-19T10:30:30.000Z</time>
      </trkpt>
      <trkpt lat="47.28368" lon="-2.28207">
        <ele>24.60000038147</ele>
        <time>2021-12-19T10:30:31.000Z</time>
      </trkpt>
      <trkpt lat="47.28368" lon="-2.28212">
        <ele>25</ele>
        <time>2021-12-19T10:30:32.000Z</time>
      </trkpt>
      <trkpt lat="47.28368" lon="-2.28218">
        <ele>25.60000038147</ele>
        <time>2021-12-19T10:30:33.000Z</time>
      </trkpt>
      <trkpt lat="47.28368" lon="-2.28224">
        <ele>25.60000038147</ele>
        <time>2021-12-19T10:30:34.000Z</time>
      </trkpt>
      <trkpt lat="47.2837" lon="-2.28253">
        <ele>25.60000038147</ele>
        <time>2021-12-19T10:30:39.000Z</time>
      </trkpt>
      <trkpt lat="47.2837" lon="-2.2826">
        <ele>26</ele>
        <time>2021-12-19T10:30:40.000Z</time>
      </trkpt>
      <trkpt lat="47.2837" lon="-2.28266">
        <ele>26.39999961853</ele>
        <time>2021-12-19T10:30:41.000Z</time>
      </trkpt>
      <trkpt lat="47.2837" lon="-2.28271">
        <ele>26.799999237061</ele>
        <time>2021-12-19T10:30:42.000Z</time>
      </trkpt>
      <trkpt lat="47.28371" lon="-2.28276">
        <ele>27.200000762939</ele>
        <time>2021-12-19T10:30:43.000Z</time>
      </trkpt>
      <trkpt lat="47.28371" lon="-2.28281">
        <ele>27.60000038147</ele>
        <time>2021-12-19T10:30:44.000Z</time>
      </trkpt>
      <trkpt lat="47.28371" lon="-2.28287">
        <ele>27.60000038147</ele>
        <time>2021-12-19T10:30:45.000Z</time>
      </trkpt>
      <trkpt lat="47.28371" lon="-2.28315">
        <ele>28</ele>
        <time>2021-12-19T10:30:50.000Z</time>
      </trkpt>
      <trkpt lat="47.28371" lon="-2.28321">
        <ele>28.39999961853</ele>
        <time>2021-12-19T10:30:51.000Z</time>
      </trkpt>
      <trkpt lat="47.28371" lon="-2.28326">
        <ele>28.799999237061</ele>
        <time>2021-12-19T10:30:52.000Z</time>
      </trkpt>
      <trkpt lat="47.28371" lon="-2.28332">
        <ele>29.200000762939</ele>
        <time>2021-12-19T10:30:53.000Z</time>
      </trkpt>
      <trkpt lat="47.28371" lon="-2.28338">
        <ele>29.60000038147</ele>
        <time>2021-12-19T10:30:54.000Z</time>
      </trkpt>
      <trkpt lat="47.28372" lon="-2.28374">
        <ele>29.60000038147</ele>
        <time>2021-12-19T10:31:00.000Z</time>
      </trkpt>
      <trkpt lat="47.28373" lon="-2.28381">
        <ele>29.60000038147</ele>
        <time>2021-12-19T10:31:01.000Z</time>
      </trkpt>
      <trkpt lat="47.28376" lon="-2.28408">
        <ele>29.60000038147</ele>
        <time>2021-12-19T10:31:05.000Z</time>
      </trkpt>
      <trkpt lat="47.28375" lon="-2.28415">
        <ele>29.60000038147</ele>
        <time>2021-12-19T10:31:06.000Z</time>
      </trkpt>
      <trkpt lat="47.28377" lon="-2.28464">
        <ele>29.60000038147</ele>
        <time>2021-12-19T10:31:12.000Z</time>
      </trkpt>
      <trkpt lat="47.28379" lon="-2.28525">
        <ele>29.60000038147</ele>
        <time>2021-12-19T10:31:19.000Z</time>
      </trkpt>
      <trkpt lat="47.28381" lon="-2.28587">
        <ele>29.60000038147</ele>
        <time>2021-12-19T10:31:26.000Z</time>
      </trkpt>
      <trkpt lat="47.28383" lon="-2.2865">
        <ele>29.60000038147</ele>
        <time>2021-12-19T10:31:33.000Z</time>
      </trkpt>
      <trkpt lat="47.28385" lon="-2.28722">
        <ele>29.60000038147</ele>
        <time>2021-12-19T10:31:41.000Z</time>
      </trkpt>
      <trkpt lat="47.28388" lon="-2.28787">
        <ele>29.60000038147</ele>
        <time>2021-12-19T10:31:48.000Z</time>
      </trkpt>
      <trkpt lat="47.2839" lon="-2.28853">
        <ele>29.60000038147</ele>
        <time>2021-12-19T10:31:55.000Z</time>
      </trkpt>
      <trkpt lat="47.28392" lon="-2.28915">
        <ele>29.60000038147</ele>
        <time>2021-12-19T10:32:01.000Z</time>
      </trkpt>
      <trkpt lat="47.28395" lon="-2.28969">
        <ele>29.60000038147</ele>
        <time>2021-12-19T10:32:07.000Z</time>
      </trkpt>
      <trkpt lat="47.28397" lon="-2.28988">
        <ele>29.60000038147</ele>
        <time>2021-12-19T10:32:10.000Z</time>
      </trkpt>
      <trkpt lat="47.28406" lon="-2.28991">
        <ele>29.60000038147</ele>
        <time>2021-12-19T10:32:13.000Z</time>
      </trkpt>
      <trkpt lat="47.28409" lon="-2.28992">
        <ele>29.200000762939</ele>
        <time>2021-12-19T10:32:14.000Z</time>
      </trkpt>
      <trkpt lat="47.28413" lon="-2.28992">
        <ele>28.799999237061</ele>
        <time>2021-12-19T10:32:15.000Z</time>
      </trkpt>
      <trkpt lat="47.28418" lon="-2.28992">
        <ele>28.39999961853</ele>
        <time>2021-12-19T10:32:16.000Z</time>
      </trkpt>
      <trkpt lat="47.28423" lon="-2.28992">
        <ele>28</ele>
        <time>2021-12-19T10:32:17.000Z</time>
      </trkpt>
      <trkpt lat="47.28428" lon="-2.28993">
        <ele>27.60000038147</ele>
        <time>2021-12-19T10:32:18.000Z</time>
      </trkpt>
      <trkpt lat="47.2845" lon="-2.28993">
        <ele>27</ele>
        <time>2021-12-19T10:32:22.000Z</time>
      </trkpt>
      <trkpt lat="47.28455" lon="-2.28994">
        <ele>26.60000038147</ele>
        <time>2021-12-19T10:32:23.000Z</time>
      </trkpt>
      <trkpt lat="47.28461" lon="-2.28995">
        <ele>25.799999237061</ele>
        <time>2021-12-19T10:32:24.000Z</time>
      </trkpt>
      <trkpt lat="47.28466" lon="-2.28996">
        <ele>25.39999961853</ele>
        <time>2021-12-19T10:32:25.000Z</time>
      </trkpt>
      <trkpt lat="47.28495" lon="-2.29004">
        <ele>25</ele>
        <time>2021-12-19T10:32:30.000Z</time>
      </trkpt>
      <trkpt lat="47.285" lon="-2.29007">
        <ele>24.60000038147</ele>
        <time>2021-12-19T10:32:31.000Z</time>
      </trkpt>
      <trkpt lat="47.28506" lon="-2.2901">
        <ele>24.200000762939</ele>
        <time>2021-12-19T10:32:32.000Z</time>
      </trkpt>
      <trkpt lat="47.28511" lon="-2.29014">
        <ele>23.799999237061</ele>
        <time>2021-12-19T10:32:33.000Z</time>
      </trkpt>
      <trkpt lat="47.28517" lon="-2.29017">
        <ele>23.39999961853</ele>
        <time>2021-12-19T10:32:34.000Z</time>
      </trkpt>
      <trkpt lat="47.28529" lon="-2.29019">
        <ele>23.39999961853</ele>
        <time>2021-12-19T10:32:36.000Z</time>
      </trkpt>
      <trkpt lat="47.2854" lon="-2.29022">
        <ele>23.39999961853</ele>
        <time>2021-12-19T10:32:38.000Z</time>
      </trkpt>
      <trkpt lat="47.28559" lon="-2.29029">
        <ele>23.39999961853</ele>
        <time>2021-12-19T10:32:41.000Z</time>
      </trkpt>
      <trkpt lat="47.28566" lon="-2.29031">
        <ele>23</ele>
        <time>2021-12-19T10:32:42.000Z</time>
      </trkpt>
      <trkpt lat="47.28572" lon="-2.29031">
        <ele>22.60000038147</ele>
        <time>2021-12-19T10:32:43.000Z</time>
      </trkpt>
      <trkpt lat="47.28578" lon="-2.29031">
        <ele>22.200000762939</ele>
        <time>2021-12-19T10:32:44.000Z</time>
      </trkpt>
      <trkpt lat="47.28584" lon="-2.29033">
        <ele>21.799999237061</ele>
        <time>2021-12-19T10:32:45.000Z</time>
      </trkpt>
      <trkpt lat="47.28589" lon="-2.29034">
        <ele>21.39999961853</ele>
        <time>2021-12-19T10:32:46.000Z</time>
      </trkpt>
      <trkpt lat="47.28601" lon="-2.29044">
        <ele>21.39999961853</ele>
        <time>2021-12-19T10:32:49.000Z</time>
      </trkpt>
      <trkpt lat="47.28607" lon="-2.29063">
        <ele>21.39999961853</ele>
        <time>2021-12-19T10:32:53.000Z</time>
      </trkpt>
      <trkpt lat="47.28605" lon="-2.29079">
        <ele>21.39999961853</ele>
        <time>2021-12-19T10:32:56.000Z</time>
      </trkpt>
      <trkpt lat="47.28603" lon="-2.29089">
        <ele>21.39999961853</ele>
        <time>2021-12-19T10:32:58.000Z</time>
      </trkpt>
      <trkpt lat="47.28591" lon="-2.29122">
        <ele>21.39999961853</ele>
        <time>2021-12-19T10:33:04.000Z</time>
      </trkpt>
      <trkpt lat="47.28581" lon="-2.29144">
        <ele>21.39999961853</ele>
        <time>2021-12-19T10:33:09.000Z</time>
      </trkpt>
      <trkpt lat="47.28571" lon="-2.29159">
        <ele>21.39999961853</ele>
        <time>2021-12-19T10:33:13.000Z</time>
      </trkpt>
      <trkpt lat="47.28551" lon="-2.29175">
        <ele>21.39999961853</ele>
        <time>2021-12-19T10:33:19.000Z</time>
      </trkpt>
      <trkpt lat="47.28535" lon="-2.29188">
        <ele>21.39999961853</ele>
        <time>2021-12-19T10:33:24.000Z</time>
      </trkpt>
      <trkpt lat="47.28522" lon="-2.29208">
        <ele>21.39999961853</ele>
        <time>2021-12-19T10:33:29.000Z</time>
      </trkpt>
      <trkpt lat="47.28521" lon="-2.29235">
        <ele>21.39999961853</ele>
        <time>2021-12-19T10:33:34.000Z</time>
      </trkpt>
      <trkpt lat="47.28522" lon="-2.29271">
        <ele>21.39999961853</ele>
        <time>2021-12-19T10:33:41.000Z</time>
      </trkpt>
      <trkpt lat="47.28524" lon="-2.29282">
        <ele>21.39999961853</ele>
        <time>2021-12-19T10:33:44.000Z</time>
      </trkpt>
      <trkpt lat="47.28523" lon="-2.29285">
        <ele>21.39999961853</ele>
        <time>2021-12-19T10:33:45.000Z</time>
      </trkpt>
      <trkpt lat="47.28511" lon="-2.29301">
        <ele>21.39999961853</ele>
        <time>2021-12-19T10:33:50.000Z</time>
      </trkpt>
      <trkpt lat="47.28494" lon="-2.29311">
        <ele>21.39999961853</ele>
        <time>2021-12-19T10:33:55.000Z</time>
      </trkpt>
      <trkpt lat="47.28475" lon="-2.29321">
        <ele>21.799999237061</ele>
        <time>2021-12-19T10:34:00.000Z</time>
      </trkpt>
      <trkpt lat="47.28472" lon="-2.29322">
        <ele>22.39999961853</ele>
        <time>2021-12-19T10:34:01.000Z</time>
      </trkpt>
      <trkpt lat="47.28468" lon="-2.29323">
        <ele>23.200000762939</ele>
        <time>2021-12-19T10:34:02.000Z</time>
      </trkpt>
      <trkpt lat="47.28464" lon="-2.29324">
        <ele>23.60000038147</ele>
        <time>2021-12-19T10:34:03.000Z</time>
      </trkpt>
      <trkpt lat="47.28431" lon="-2.29336">
        <ele>24</ele>
        <time>2021-12-19T10:34:11.000Z</time>
      </trkpt>
      <trkpt lat="47.28427" lon="-2.29338">
        <ele>24.39999961853</ele>
        <time>2021-12-19T10:34:12.000Z</time>
      </trkpt>
      <trkpt lat="47.28423" lon="-2.2934">
        <ele>24.799999237061</ele>
        <time>2021-12-19T10:34:13.000Z</time>
      </trkpt>
      <trkpt lat="47.28418" lon="-2.29342">
        <ele>25.39999961853</ele>
        <time>2021-12-19T10:34:14.000Z</time>
      </trkpt>
      <trkpt lat="47.28414" lon="-2.29344">
        <ele>25.799999237061</ele>
        <time>2021-12-19T10:34:15.000Z</time>
      </trkpt>
      <trkpt lat="47.28398" lon="-2.29354">
        <ele>25.799999237061</ele>
        <time>2021-12-19T10:34:19.000Z</time>
      </trkpt>
      <trkpt lat="47.28364" lon="-2.29376">
        <ele>25.799999237061</ele>
        <time>2021-12-19T10:34:27.000Z</time>
      </trkpt>
      <trkpt lat="47.28335" lon="-2.29405">
        <ele>25.799999237061</ele>
        <time>2021-12-19T10:34:33.000Z</time>
      </trkpt>
      <trkpt lat="47.28301" lon="-2.29441">
        <ele>25.799999237061</ele>
        <time>2021-12-19T10:34:40.000Z</time>
      </trkpt>
      <trkpt lat="47.28269" lon="-2.29463">
        <ele>25.799999237061</ele>
        <time>2021-12-19T10:34:46.000Z</time>
      </trkpt>
      <trkpt lat="47.28236" lon="-2.29483">
        <ele>25.799999237061</ele>
        <time>2021-12-19T10:34:52.000Z</time>
      </trkpt>
      <trkpt lat="47.28226" lon="-2.29489">
        <ele>26.200000762939</ele>
        <time>2021-12-19T10:34:54.000Z</time>
      </trkpt>
      <trkpt lat="47.28221" lon="-2.29493">
        <ele>26.60000038147</ele>
        <time>2021-12-19T10:34:55.000Z</time>
      </trkpt>
      <trkpt lat="47.28216" lon="-2.29495">
        <ele>27</ele>
        <time>2021-12-19T10:34:56.000Z</time>
      </trkpt>
      <trkpt lat="47.28211" lon="-2.29499">
        <ele>27.39999961853</ele>
        <time>2021-12-19T10:34:57.000Z</time>
      </trkpt>
      <trkpt lat="47.28206" lon="-2.29502">
        <ele>27.799999237061</ele>
        <time>2021-12-19T10:34:58.000Z</time>
      </trkpt>
      <trkpt lat="47.28175" lon="-2.29515">
        <ele>27.799999237061</ele>
        <time>2021-12-19T10:35:04.000Z</time>
      </trkpt>
      <trkpt lat="47.2817" lon="-2.29516">
        <ele>27.799999237061</ele>
        <time>2021-12-19T10:35:05.000Z</time>
      </trkpt>
      <trkpt lat="47.28165" lon="-2.29518">
        <ele>28.200000762939</ele>
        <time>2021-12-19T10:35:06.000Z</time>
      </trkpt>
      <trkpt lat="47.2816" lon="-2.2952">
        <ele>28.799999237061</ele>
        <time>2021-12-19T10:35:07.000Z</time>
      </trkpt>
      <trkpt lat="47.28155" lon="-2.29522">
        <ele>29.200000762939</ele>
        <time>2021-12-19T10:35:08.000Z</time>
      </trkpt>
      <trkpt lat="47.28149" lon="-2.29524">
        <ele>29.60000038147</ele>
        <time>2021-12-19T10:35:09.000Z</time>
      </trkpt>
      <trkpt lat="47.28144" lon="-2.29527">
        <ele>30</ele>
        <time>2021-12-19T10:35:10.000Z</time>
      </trkpt>
      <trkpt lat="47.28107" lon="-2.29542">
        <ele>30</ele>
        <time>2021-12-19T10:35:17.000Z</time>
      </trkpt>
      <trkpt lat="47.28068" lon="-2.29557">
        <ele>30</ele>
        <time>2021-12-19T10:35:24.000Z</time>
      </trkpt>
      <trkpt lat="47.28029" lon="-2.29575">
        <ele>30.39999961853</ele>
        <time>2021-12-19T10:35:31.000Z</time>
      </trkpt>
      <trkpt lat="47.28024" lon="-2.29577">
        <ele>30.799999237061</ele>
        <time>2021-12-19T10:35:32.000Z</time>
      </trkpt>
      <trkpt lat="47.28018" lon="-2.2958">
        <ele>31.39999961853</ele>
        <time>2021-12-19T10:35:33.000Z</time>
      </trkpt>
      <trkpt lat="47.28012" lon="-2.29583">
        <ele>31.799999237061</ele>
        <time>2021-12-19T10:35:34.000Z</time>
      </trkpt>
      <trkpt lat="47.28006" lon="-2.29585">
        <ele>32.200000762939</ele>
        <time>2021-12-19T10:35:35.000Z</time>
      </trkpt>
      <trkpt lat="47.27977" lon="-2.29594">
        <ele>32.200000762939</ele>
        <time>2021-12-19T10:35:40.000Z</time>
      </trkpt>
      <trkpt lat="47.27941" lon="-2.29598">
        <ele>32.200000762939</ele>
        <time>2021-12-19T10:35:46.000Z</time>
      </trkpt>
      <trkpt lat="47.27906" lon="-2.29596">
        <ele>32.200000762939</ele>
        <time>2021-12-19T10:35:52.000Z</time>
      </trkpt>
      <trkpt lat="47.27871" lon="-2.29593">
        <ele>32.200000762939</ele>
        <time>2021-12-19T10:35:58.000Z</time>
      </trkpt>
      <trkpt lat="47.27857" lon="-2.29594">
        <ele>32.200000762939</ele>
        <time>2021-12-19T10:36:02.000Z</time>
      </trkpt>
      <trkpt lat="47.27841" lon="-2.29592">
        <ele>31.799999237061</ele>
        <time>2021-12-19T10:36:08.000Z</time>
      </trkpt>
      <trkpt lat="47.27837" lon="-2.29592">
        <ele>31.39999961853</ele>
        <time>2021-12-19T10:36:09.000Z</time>
      </trkpt>
      <trkpt lat="47.27833" lon="-2.29591">
        <ele>31</ele>
        <time>2021-12-19T10:36:10.000Z</time>
      </trkpt>
      <trkpt lat="47.27829" lon="-2.29591">
        <ele>30.60000038147</ele>
        <time>2021-12-19T10:36:11.000Z</time>
      </trkpt>
      <trkpt lat="47.27825" lon="-2.29591">
        <ele>30</ele>
        <time>2021-12-19T10:36:13.000Z</time>
      </trkpt>
      <trkpt lat="47.27821" lon="-2.29592">
        <ele>30</ele>
        <time>2021-12-19T10:36:14.000Z</time>
      </trkpt>
      <trkpt lat="47.27802" lon="-2.29593">
        <ele>30</ele>
        <time>2021-12-19T10:36:19.000Z</time>
      </trkpt>
      <trkpt lat="47.27773" lon="-2.29593">
        <ele>30</ele>
        <time>2021-12-19T10:36:27.000Z</time>
      </trkpt>
      <trkpt lat="47.27747" lon="-2.29594">
        <ele>30</ele>
        <time>2021-12-19T10:36:33.000Z</time>
      </trkpt>
      <trkpt lat="47.27712" lon="-2.29593">
        <ele>30</ele>
        <time>2021-12-19T10:36:41.000Z</time>
      </trkpt>
      <trkpt lat="47.27675" lon="-2.29593">
        <ele>30</ele>
        <time>2021-12-19T10:36:49.000Z</time>
      </trkpt>
      <trkpt lat="47.27643" lon="-2.29593">
        <ele>30</ele>
        <time>2021-12-19T10:36:56.000Z</time>
      </trkpt>
      <trkpt lat="47.27598" lon="-2.29594">
        <ele>30</ele>
        <time>2021-12-19T10:37:05.000Z</time>
      </trkpt>
      <trkpt lat="47.27564" lon="-2.29595">
        <ele>30</ele>
        <time>2021-12-19T10:37:12.000Z</time>
      </trkpt>
      <trkpt lat="47.27532" lon="-2.29595">
        <ele>30</ele>
        <time>2021-12-19T10:37:18.000Z</time>
      </trkpt>
      <trkpt lat="47.27522" lon="-2.29596">
        <ele>30</ele>
        <time>2021-12-19T10:37:20.000Z</time>
      </trkpt>
      <trkpt lat="47.27484" lon="-2.29605">
        <ele>30</ele>
        <time>2021-12-19T10:37:27.000Z</time>
      </trkpt>
      <trkpt lat="47.27444" lon="-2.29616">
        <ele>30</ele>
        <time>2021-12-19T10:37:35.000Z</time>
      </trkpt>
      <trkpt lat="47.27413" lon="-2.29623">
        <ele>30</ele>
        <time>2021-12-19T10:37:41.000Z</time>
      </trkpt>
      <trkpt lat="47.27378" lon="-2.2963">
        <ele>30</ele>
        <time>2021-12-19T10:37:48.000Z</time>
      </trkpt>
      <trkpt lat="47.27373" lon="-2.29631">
        <ele>30</ele>
        <time>2021-12-19T10:37:49.000Z</time>
      </trkpt>
      <trkpt lat="47.27332" lon="-2.29636">
        <ele>30</ele>
        <time>2021-12-19T10:37:57.000Z</time>
      </trkpt>
      <trkpt lat="47.27292" lon="-2.2964">
        <ele>30</ele>
        <time>2021-12-19T10:38:05.000Z</time>
      </trkpt>
      <trkpt lat="47.27269" lon="-2.29645">
        <ele>30</ele>
        <time>2021-12-19T10:38:10.000Z</time>
      </trkpt>
      <trkpt lat="47.27267" lon="-2.2965">
        <ele>30</ele>
        <time>2021-12-19T10:38:11.000Z</time>
      </trkpt>
      <trkpt lat="47.27267" lon="-2.29661">
        <ele>30</ele>
        <time>2021-12-19T10:38:14.000Z</time>
      </trkpt>
      <trkpt lat="47.27268" lon="-2.29665">
        <ele>30</ele>
        <time>2021-12-19T10:38:18.000Z</time>
      </trkpt>
      <trkpt lat="47.27269" lon="-2.29669">
        <ele>30</ele>
        <time>2021-12-19T10:39:03.000Z</time>
      </trkpt>
      <trkpt lat="47.27271" lon="-2.29681">
        <ele>30</ele>
        <time>2021-12-19T10:39:06.000Z</time>
      </trkpt>
      <trkpt lat="47.27275" lon="-2.297">
        <ele>30</ele>
        <time>2021-12-19T10:39:09.000Z</time>
      </trkpt>
      <trkpt lat="47.27277" lon="-2.29707">
        <ele>30</ele>
        <time>2021-12-19T10:39:10.000Z</time>
      </trkpt>
      <trkpt lat="47.27282" lon="-2.29727">
        <ele>30</ele>
        <time>2021-12-19T10:39:13.000Z</time>
      </trkpt>
      <trkpt lat="47.27287" lon="-2.29743">
        <ele>30</ele>
        <time>2021-12-19T10:39:15.000Z</time>
      </trkpt>
      <trkpt lat="47.27298" lon="-2.29784">
        <ele>30</ele>
        <time>2021-12-19T10:39:20.000Z</time>
      </trkpt>
      <trkpt lat="47.27301" lon="-2.29792">
        <ele>30</ele>
        <time>2021-12-19T10:39:21.000Z</time>
      </trkpt>
      <trkpt lat="47.27313" lon="-2.29812">
        <ele>30</ele>
        <time>2021-12-19T10:39:24.000Z</time>
      </trkpt>
      <trkpt lat="47.27335" lon="-2.29845">
        <ele>30</ele>
        <time>2021-12-19T10:39:29.000Z</time>
      </trkpt>
      <trkpt lat="47.27359" lon="-2.29891">
        <ele>30</ele>
        <time>2021-12-19T10:39:35.000Z</time>
      </trkpt>
      <trkpt lat="47.27382" lon="-2.29947">
        <ele>30</ele>
        <time>2021-12-19T10:39:42.000Z</time>
      </trkpt>
      <trkpt lat="47.27392" lon="-2.29969">
        <ele>30</ele>
        <time>2021-12-19T10:39:45.000Z</time>
      </trkpt>
      <trkpt lat="47.27401" lon="-2.29991">
        <ele>30</ele>
        <time>2021-12-19T10:39:48.000Z</time>
      </trkpt>
      <trkpt lat="47.27422" lon="-2.30048">
        <ele>30</ele>
        <time>2021-12-19T10:39:55.000Z</time>
      </trkpt>
      <trkpt lat="47.27436" lon="-2.3009">
        <ele>29.60000038147</ele>
        <time>2021-12-19T10:40:00.000Z</time>
      </trkpt>
      <trkpt lat="47.27439" lon="-2.30099">
        <ele>29.200000762939</ele>
        <time>2021-12-19T10:40:01.000Z</time>
      </trkpt>
      <trkpt lat="47.27441" lon="-2.30108">
        <ele>28.799999237061</ele>
        <time>2021-12-19T10:40:02.000Z</time>
      </trkpt>
      <trkpt lat="47.27443" lon="-2.30116">
        <ele>28.39999961853</ele>
        <time>2021-12-19T10:40:03.000Z</time>
      </trkpt>
      <trkpt lat="47.27445" lon="-2.30124">
        <ele>27.799999237061</ele>
        <time>2021-12-19T10:40:04.000Z</time>
      </trkpt>
      <trkpt lat="47.27448" lon="-2.3014">
        <ele>27.799999237061</ele>
        <time>2021-12-19T10:40:06.000Z</time>
      </trkpt>
      <trkpt lat="47.27449" lon="-2.30154">
        <ele>27.799999237061</ele>
        <time>2021-12-19T10:40:08.000Z</time>
      </trkpt>
      <trkpt lat="47.27454" lon="-2.30188">
        <ele>27</ele>
        <time>2021-12-19T10:40:12.000Z</time>
      </trkpt>
      <trkpt lat="47.27456" lon="-2.30198">
        <ele>26.60000038147</ele>
        <time>2021-12-19T10:40:13.000Z</time>
      </trkpt>
      <trkpt lat="47.27458" lon="-2.30207">
        <ele>26.200000762939</ele>
        <time>2021-12-19T10:40:14.000Z</time>
      </trkpt>
      <trkpt lat="47.2746" lon="-2.30217">
        <ele>25.799999237061</ele>
        <time>2021-12-19T10:40:15.000Z</time>
      </trkpt>
      <trkpt lat="47.27469" lon="-2.30248">
        <ele>25.799999237061</ele>
        <time>2021-12-19T10:40:18.000Z</time>
      </trkpt>
      <trkpt lat="47.27475" lon="-2.30279">
        <ele>25.200000762939</ele>
        <time>2021-12-19T10:40:21.000Z</time>
      </trkpt>
      <trkpt lat="47.27477" lon="-2.30289">
        <ele>24.799999237061</ele>
        <time>2021-12-19T10:40:22.000Z</time>
      </trkpt>
      <trkpt lat="47.27479" lon="-2.30299">
        <ele>24.39999961853</ele>
        <time>2021-12-19T10:40:23.000Z</time>
      </trkpt>
      <trkpt lat="47.2748" lon="-2.3031">
        <ele>24</ele>
        <time>2021-12-19T10:40:24.000Z</time>
      </trkpt>
      <trkpt lat="47.27482" lon="-2.3032">
        <ele>23.39999961853</ele>
        <time>2021-12-19T10:40:25.000Z</time>
      </trkpt>
      <trkpt lat="47.27484" lon="-2.30331">
        <ele>23</ele>
        <time>2021-12-19T10:40:26.000Z</time>
      </trkpt>
      <trkpt lat="47.27486" lon="-2.30342">
        <ele>22.60000038147</ele>
        <time>2021-12-19T10:40:27.000Z</time>
      </trkpt>
      <trkpt lat="47.27488" lon="-2.30352">
        <ele>22.200000762939</ele>
        <time>2021-12-19T10:40:28.000Z</time>
      </trkpt>
      <trkpt lat="47.27491" lon="-2.30362">
        <ele>21.799999237061</ele>
        <time>2021-12-19T10:40:29.000Z</time>
      </trkpt>
      <trkpt lat="47.27493" lon="-2.30372">
        <ele>21.39999961853</ele>
        <time>2021-12-19T10:40:30.000Z</time>
      </trkpt>
      <trkpt lat="47.27497" lon="-2.30403">
        <ele>21</ele>
        <time>2021-12-19T10:40:33.000Z</time>
      </trkpt>
      <trkpt lat="47.27499" lon="-2.30414">
        <ele>20.39999961853</ele>
        <time>2021-12-19T10:40:34.000Z</time>
      </trkpt>
      <trkpt lat="47.27501" lon="-2.30426">
        <ele>20</ele>
        <time>2021-12-19T10:40:35.000Z</time>
      </trkpt>
      <trkpt lat="47.27503" lon="-2.30437">
        <ele>19.60000038147</ele>
        <time>2021-12-19T10:40:36.000Z</time>
      </trkpt>
      <trkpt lat="47.27506" lon="-2.30448">
        <ele>19.200000762939</ele>
        <time>2021-12-19T10:40:37.000Z</time>
      </trkpt>
      <trkpt lat="47.27516" lon="-2.30491">
        <ele>19.200000762939</ele>
        <time>2021-12-19T10:40:41.000Z</time>
      </trkpt>
      <trkpt lat="47.27526" lon="-2.30531">
        <ele>18.799999237061</ele>
        <time>2021-12-19T10:40:45.000Z</time>
      </trkpt>
      <trkpt lat="47.27528" lon="-2.30539">
        <ele>18.39999961853</ele>
        <time>2021-12-19T10:40:46.000Z</time>
      </trkpt>
      <trkpt lat="47.27531" lon="-2.30548">
        <ele>18</ele>
        <time>2021-12-19T10:40:47.000Z</time>
      </trkpt>
      <trkpt lat="47.27533" lon="-2.30556">
        <ele>17.60000038147</ele>
        <time>2021-12-19T10:40:48.000Z</time>
      </trkpt>
      <trkpt lat="47.27536" lon="-2.30564">
        <ele>17</ele>
        <time>2021-12-19T10:40:49.000Z</time>
      </trkpt>
      <trkpt lat="47.27544" lon="-2.30584">
        <ele>17</ele>
        <time>2021-12-19T10:40:52.000Z</time>
      </trkpt>
      <trkpt lat="47.27547" lon="-2.30595">
        <ele>17</ele>
        <time>2021-12-19T10:40:54.000Z</time>
      </trkpt>
      <trkpt lat="47.27549" lon="-2.3061">
        <ele>17</ele>
        <time>2021-12-19T10:40:57.000Z</time>
      </trkpt>
      <trkpt lat="47.27556" lon="-2.30629">
        <ele>17</ele>
        <time>2021-12-19T10:41:01.000Z</time>
      </trkpt>
      <trkpt lat="47.27557" lon="-2.30635">
        <ele>17</ele>
        <time>2021-12-19T10:41:02.000Z</time>
      </trkpt>
      <trkpt lat="47.27563" lon="-2.30658">
        <ele>17</ele>
        <time>2021-12-19T10:41:05.000Z</time>
      </trkpt>
      <trkpt lat="47.27573" lon="-2.30707">
        <ele>17</ele>
        <time>2021-12-19T10:41:11.000Z</time>
      </trkpt>
      <trkpt lat="47.27585" lon="-2.30754">
        <ele>17.39999961853</ele>
        <time>2021-12-19T10:41:17.000Z</time>
      </trkpt>
      <trkpt lat="47.27588" lon="-2.30762">
        <ele>18</ele>
        <time>2021-12-19T10:41:18.000Z</time>
      </trkpt>
      <trkpt lat="47.27591" lon="-2.3077">
        <ele>18.39999961853</ele>
        <time>2021-12-19T10:41:19.000Z</time>
      </trkpt>
      <trkpt lat="47.27594" lon="-2.30778">
        <ele>18.799999237061</ele>
        <time>2021-12-19T10:41:20.000Z</time>
      </trkpt>
      <trkpt lat="47.27597" lon="-2.30786">
        <ele>19.200000762939</ele>
        <time>2021-12-19T10:41:21.000Z</time>
      </trkpt>
      <trkpt lat="47.27606" lon="-2.30809">
        <ele>19.200000762939</ele>
        <time>2021-12-19T10:41:24.000Z</time>
      </trkpt>
      <trkpt lat="47.27628" lon="-2.30861">
        <ele>19.200000762939</ele>
        <time>2021-12-19T10:41:31.000Z</time>
      </trkpt>
      <trkpt lat="47.27652" lon="-2.30915">
        <ele>19.200000762939</ele>
        <time>2021-12-19T10:41:38.000Z</time>
      </trkpt>
      <trkpt lat="47.27671" lon="-2.30959">
        <ele>19.200000762939</ele>
        <time>2021-12-19T10:41:44.000Z</time>
      </trkpt>
      <trkpt lat="47.27689" lon="-2.31004">
        <ele>19.200000762939</ele>
        <time>2021-12-19T10:41:50.000Z</time>
      </trkpt>
      <trkpt lat="47.27702" lon="-2.31042">
        <ele>19.200000762939</ele>
        <time>2021-12-19T10:41:55.000Z</time>
      </trkpt>
      <trkpt lat="47.2771" lon="-2.31062">
        <ele>19.200000762939</ele>
        <time>2021-12-19T10:41:58.000Z</time>
      </trkpt>
      <trkpt lat="47.27715" lon="-2.31076">
        <ele>19.200000762939</ele>
        <time>2021-12-19T10:42:00.000Z</time>
      </trkpt>
      <trkpt lat="47.27713" lon="-2.31098">
        <ele>19.200000762939</ele>
        <time>2021-12-19T10:42:03.000Z</time>
      </trkpt>
      <trkpt lat="47.27705" lon="-2.31128">
        <ele>19.200000762939</ele>
        <time>2021-12-19T10:42:07.000Z</time>
      </trkpt>
      <trkpt lat="47.27703" lon="-2.31135">
        <ele>19.200000762939</ele>
        <time>2021-12-19T10:42:08.000Z</time>
      </trkpt>
      <trkpt lat="47.27695" lon="-2.31166">
        <ele>19.200000762939</ele>
        <time>2021-12-19T10:42:12.000Z</time>
      </trkpt>
      <trkpt lat="47.27691" lon="-2.31184">
        <ele>18.60000038147</ele>
        <time>2021-12-19T10:42:14.000Z</time>
      </trkpt>
      <trkpt lat="47.27689" lon="-2.31194">
        <ele>18.200000762939</ele>
        <time>2021-12-19T10:42:15.000Z</time>
      </trkpt>
      <trkpt lat="47.27687" lon="-2.31204">
        <ele>17.39999961853</ele>
        <time>2021-12-19T10:42:16.000Z</time>
      </trkpt>
      <trkpt lat="47.27685" lon="-2.31213">
        <ele>16.799999237061</ele>
        <time>2021-12-19T10:42:17.000Z</time>
      </trkpt>
      <trkpt lat="47.27684" lon="-2.31223">
        <ele>16.799999237061</ele>
        <time>2021-12-19T10:42:18.000Z</time>
      </trkpt>
      <trkpt lat="47.27674" lon="-2.31262">
        <ele>16.799999237061</ele>
        <time>2021-12-19T10:42:22.000Z</time>
      </trkpt>
      <trkpt lat="47.27663" lon="-2.31302">
        <ele>16.39999961853</ele>
        <time>2021-12-19T10:42:26.000Z</time>
      </trkpt>
      <trkpt lat="47.2766" lon="-2.31313">
        <ele>16</ele>
        <time>2021-12-19T10:42:27.000Z</time>
      </trkpt>
      <trkpt lat="47.27656" lon="-2.31323">
        <ele>15.60000038147</ele>
        <time>2021-12-19T10:42:28.000Z</time>
      </trkpt>
      <trkpt lat="47.27653" lon="-2.31334">
        <ele>15.199999809265</ele>
        <time>2021-12-19T10:42:29.000Z</time>
      </trkpt>
      <trkpt lat="47.27649" lon="-2.31345">
        <ele>14.800000190735</ele>
        <time>2021-12-19T10:42:30.000Z</time>
      </trkpt>
      <trkpt lat="47.27631" lon="-2.31403">
        <ele>14.39999961853</ele>
        <time>2021-12-19T10:42:35.000Z</time>
      </trkpt>
      <trkpt lat="47.27628" lon="-2.31414">
        <ele>13.800000190735</ele>
        <time>2021-12-19T10:42:36.000Z</time>
      </trkpt>
      <trkpt lat="47.27625" lon="-2.31426">
        <ele>13.39999961853</ele>
        <time>2021-12-19T10:42:37.000Z</time>
      </trkpt>
      <trkpt lat="47.27622" lon="-2.31439">
        <ele>13</ele>
        <time>2021-12-19T10:42:38.000Z</time>
      </trkpt>
      <trkpt lat="47.27619" lon="-2.31451">
        <ele>12.60000038147</ele>
        <time>2021-12-19T10:42:39.000Z</time>
      </trkpt>
      <trkpt lat="47.27616" lon="-2.31464">
        <ele>12.60000038147</ele>
        <time>2021-12-19T10:42:40.000Z</time>
      </trkpt>
      <trkpt lat="47.27597" lon="-2.31538">
        <ele>12.60000038147</ele>
        <time>2021-12-19T10:42:46.000Z</time>
      </trkpt>
      <trkpt lat="47.27589" lon="-2.3156">
        <ele>12.60000038147</ele>
        <time>2021-12-19T10:42:48.000Z</time>
      </trkpt>
      <trkpt lat="47.2758" lon="-2.3158">
        <ele>12.60000038147</ele>
        <time>2021-12-19T10:42:50.000Z</time>
      </trkpt>
      <trkpt lat="47.27572" lon="-2.31599">
        <ele>12.199999809265</ele>
        <time>2021-12-19T10:42:52.000Z</time>
      </trkpt>
      <trkpt lat="47.27569" lon="-2.3161">
        <ele>11.800000190735</ele>
        <time>2021-12-19T10:42:53.000Z</time>
      </trkpt>
      <trkpt lat="47.27566" lon="-2.3162">
        <ele>11.39999961853</ele>
        <time>2021-12-19T10:42:54.000Z</time>
      </trkpt>
      <trkpt lat="47.27563" lon="-2.3163">
        <ele>11</ele>
        <time>2021-12-19T10:42:55.000Z</time>
      </trkpt>
      <trkpt lat="47.27561" lon="-2.31641">
        <ele>10.60000038147</ele>
        <time>2021-12-19T10:42:56.000Z</time>
      </trkpt>
      <trkpt lat="47.27546" lon="-2.31696">
        <ele>10.60000038147</ele>
        <time>2021-12-19T10:43:01.000Z</time>
      </trkpt>
      <trkpt lat="47.27532" lon="-2.31759">
        <ele>10</ele>
        <time>2021-12-19T10:43:06.000Z</time>
      </trkpt>
      <trkpt lat="47.27529" lon="-2.31773">
        <ele>9.6000003814697</ele>
        <time>2021-12-19T10:43:07.000Z</time>
      </trkpt>
      <trkpt lat="47.27526" lon="-2.31785">
        <ele>9.1999998092651</ele>
        <time>2021-12-19T10:43:08.000Z</time>
      </trkpt>
      <trkpt lat="47.27522" lon="-2.31798">
        <ele>8.6000003814697</ele>
        <time>2021-12-19T10:43:09.000Z</time>
      </trkpt>
      <trkpt lat="47.27519" lon="-2.3181">
        <ele>8.1999998092651</ele>
        <time>2021-12-19T10:43:10.000Z</time>
      </trkpt>
      <trkpt lat="47.27508" lon="-2.31846">
        <ele>8.1999998092651</ele>
        <time>2021-12-19T10:43:13.000Z</time>
      </trkpt>
      <trkpt lat="47.275" lon="-2.3187">
        <ele>7.8000001907349</ele>
        <time>2021-12-19T10:43:15.000Z</time>
      </trkpt>
      <trkpt lat="47.27495" lon="-2.31882">
        <ele>7.4000000953674</ele>
        <time>2021-12-19T10:43:16.000Z</time>
      </trkpt>
      <trkpt lat="47.27491" lon="-2.31894">
        <ele>7</ele>
        <time>2021-12-19T10:43:17.000Z</time>
      </trkpt>
      <trkpt lat="47.27487" lon="-2.31906">
        <ele>6.5999999046326</ele>
        <time>2021-12-19T10:43:18.000Z</time>
      </trkpt>
      <trkpt lat="47.27482" lon="-2.31918">
        <ele>6.1999998092651</ele>
        <time>2021-12-19T10:43:19.000Z</time>
      </trkpt>
      <trkpt lat="47.27477" lon="-2.3193">
        <ele>6.1999998092651</ele>
        <time>2021-12-19T10:43:20.000Z</time>
      </trkpt>
      <trkpt lat="47.2745" lon="-2.31992">
        <ele>6.1999998092651</ele>
        <time>2021-12-19T10:43:26.000Z</time>
      </trkpt>
      <trkpt lat="47.27429" lon="-2.32036">
        <ele>5.1999998092651</ele>
        <time>2021-12-19T10:43:31.000Z</time>
      </trkpt>
      <trkpt lat="47.27424" lon="-2.32041">
        <ele>4.8000001907349</ele>
        <time>2021-12-19T10:43:32.000Z</time>
      </trkpt>
      <trkpt lat="47.27419" lon="-2.32044">
        <ele>4.4000000953674</ele>
        <time>2021-12-19T10:43:33.000Z</time>
      </trkpt>
      <trkpt lat="47.27415" lon="-2.32046">
        <ele>4</ele>
        <time>2021-12-19T10:43:34.000Z</time>
      </trkpt>
      <trkpt lat="47.27411" lon="-2.32045">
        <ele>4</ele>
        <time>2021-12-19T10:43:35.000Z</time>
      </trkpt>
      <trkpt lat="47.274" lon="-2.32033">
        <ele>4</ele>
        <time>2021-12-19T10:43:37.000Z</time>
      </trkpt>
      <trkpt lat="47.27382" lon="-2.32018">
        <ele>4</ele>
        <time>2021-12-19T10:43:40.000Z</time>
      </trkpt>
      <trkpt lat="47.27372" lon="-2.32008">
        <ele>4</ele>
        <time>2021-12-19T10:43:42.000Z</time>
      </trkpt>
      <trkpt lat="47.2735" lon="-2.31989">
        <ele>4</ele>
        <time>2021-12-19T10:43:47.000Z</time>
      </trkpt>
      <trkpt lat="47.27348" lon="-2.31995">
        <ele>4</ele>
        <time>2021-12-19T10:43:49.000Z</time>
      </trkpt>
      <trkpt lat="47.27352" lon="-2.31999">
        <ele>4</ele>
        <time>2021-12-19T10:43:51.000Z</time>
      </trkpt>
      <trkpt lat="47.27355" lon="-2.32001">
        <ele>4</ele>
        <time>2021-12-19T10:43:52.000Z</time>
      </trkpt>
      <trkpt lat="47.27371" lon="-2.32019">
        <ele>4</ele>
        <time>2021-12-19T10:43:57.000Z</time>
      </trkpt>
      <trkpt lat="47.27385" lon="-2.32033">
        <ele>4.4000000953674</ele>
        <time>2021-12-19T10:44:01.000Z</time>
      </trkpt>
      <trkpt lat="47.27389" lon="-2.32038">
        <ele>4.8000001907349</ele>
        <time>2021-12-19T10:44:02.000Z</time>
      </trkpt>
      <trkpt lat="47.27393" lon="-2.32041">
        <ele>5.1999998092651</ele>
        <time>2021-12-19T10:44:03.000Z</time>
      </trkpt>
      <trkpt lat="47.27396" lon="-2.32046">
        <ele>5.5999999046326</ele>
        <time>2021-12-19T10:44:04.000Z</time>
      </trkpt>
      <trkpt lat="47.274" lon="-2.3205">
        <ele>6</ele>
        <time>2021-12-19T10:44:05.000Z</time>
      </trkpt>
      <trkpt lat="47.2741" lon="-2.3206">
        <ele>6.5999999046326</ele>
        <time>2021-12-19T10:44:08.000Z</time>
      </trkpt>
      <trkpt lat="47.27413" lon="-2.32063">
        <ele>7</ele>
        <time>2021-12-19T10:44:09.000Z</time>
      </trkpt>
      <trkpt lat="47.27416" lon="-2.32067">
        <ele>7.4000000953674</ele>
        <time>2021-12-19T10:44:10.000Z</time>
      </trkpt>
      <trkpt lat="47.2742" lon="-2.3207">
        <ele>7.8000001907349</ele>
        <time>2021-12-19T10:44:11.000Z</time>
      </trkpt>
      <trkpt lat="47.27424" lon="-2.32073">
        <ele>8.3999996185303</ele>
        <time>2021-12-19T10:44:12.000Z</time>
      </trkpt>
      <trkpt lat="47.27448" lon="-2.32104">
        <ele>8.3999996185303</ele>
        <time>2021-12-19T10:44:19.000Z</time>
      </trkpt>
      <trkpt lat="47.2747" lon="-2.32134">
        <ele>8.8000001907349</ele>
        <time>2021-12-19T10:44:25.000Z</time>
      </trkpt>
      <trkpt lat="47.27474" lon="-2.32139">
        <ele>9.1999998092651</ele>
        <time>2021-12-19T10:44:26.000Z</time>
      </trkpt>
      <trkpt lat="47.27478" lon="-2.32144">
        <ele>9.6000003814697</ele>
        <time>2021-12-19T10:44:27.000Z</time>
      </trkpt>
      <trkpt lat="47.27482" lon="-2.32149">
        <ele>10</ele>
        <time>2021-12-19T10:44:28.000Z</time>
      </trkpt>
      <trkpt lat="47.27486" lon="-2.32153">
        <ele>10.39999961853</ele>
        <time>2021-12-19T10:44:29.000Z</time>
      </trkpt>
      <trkpt lat="47.27511" lon="-2.32186">
        <ele>10.39999961853</ele>
        <time>2021-12-19T10:44:36.000Z</time>
      </trkpt>
      <trkpt lat="47.27525" lon="-2.32203">
        <ele>10.800000190735</ele>
        <time>2021-12-19T10:44:40.000Z</time>
      </trkpt>
      <trkpt lat="47.27529" lon="-2.32207">
        <ele>11.39999961853</ele>
        <time>2021-12-19T10:44:41.000Z</time>
      </trkpt>
      <trkpt lat="47.27533" lon="-2.32211">
        <ele>11.800000190735</ele>
        <time>2021-12-19T10:44:42.000Z</time>
      </trkpt>
      <trkpt lat="47.27536" lon="-2.32215">
        <ele>12.199999809265</ele>
        <time>2021-12-19T10:44:43.000Z</time>
      </trkpt>
      <trkpt lat="47.2754" lon="-2.32219">
        <ele>12.60000038147</ele>
        <time>2021-12-19T10:44:44.000Z</time>
      </trkpt>
      <trkpt lat="47.27543" lon="-2.32223">
        <ele>12.60000038147</ele>
        <time>2021-12-19T10:44:45.000Z</time>
      </trkpt>
      <trkpt lat="47.27551" lon="-2.32231">
        <ele>12.60000038147</ele>
        <time>2021-12-19T10:44:47.000Z</time>
      </trkpt>
      <trkpt lat="47.27568" lon="-2.32244">
        <ele>13</ele>
        <time>2021-12-19T10:44:51.000Z</time>
      </trkpt>
      <trkpt lat="47.27572" lon="-2.32247">
        <ele>13.60000038147</ele>
        <time>2021-12-19T10:44:52.000Z</time>
      </trkpt>
      <trkpt lat="47.27576" lon="-2.32251">
        <ele>14</ele>
        <time>2021-12-19T10:44:53.000Z</time>
      </trkpt>
      <trkpt lat="47.2758" lon="-2.32254">
        <ele>14.39999961853</ele>
        <time>2021-12-19T10:44:54.000Z</time>
      </trkpt>
      <trkpt lat="47.27583" lon="-2.32257">
        <ele>14.800000190735</ele>
        <time>2021-12-19T10:44:55.000Z</time>
      </trkpt>
      <trkpt lat="47.27591" lon="-2.32264">
        <ele>15.39999961853</ele>
        <time>2021-12-19T10:44:57.000Z</time>
      </trkpt>
      <trkpt lat="47.27595" lon="-2.32267">
        <ele>15.800000190735</ele>
        <time>2021-12-19T10:44:58.000Z</time>
      </trkpt>
      <trkpt lat="47.27598" lon="-2.32271">
        <ele>16.200000762939</ele>
        <time>2021-12-19T10:44:59.000Z</time>
      </trkpt>
      <trkpt lat="47.27602" lon="-2.32273">
        <ele>16.60000038147</ele>
        <time>2021-12-19T10:45:00.000Z</time>
      </trkpt>
      <trkpt lat="47.27606" lon="-2.32276">
        <ele>17</ele>
        <time>2021-12-19T10:45:01.000Z</time>
      </trkpt>
      <trkpt lat="47.2762" lon="-2.3229">
        <ele>17</ele>
        <time>2021-12-19T10:45:05.000Z</time>
      </trkpt>
      <trkpt lat="47.27639" lon="-2.32304">
        <ele>17</ele>
        <time>2021-12-19T10:45:11.000Z</time>
      </trkpt>
      <trkpt lat="47.27646" lon="-2.32306">
        <ele>17.39999961853</ele>
        <time>2021-12-19T10:45:13.000Z</time>
      </trkpt>
      <trkpt lat="47.27649" lon="-2.32307">
        <ele>17.799999237061</ele>
        <time>2021-12-19T10:45:14.000Z</time>
      </trkpt>
      <trkpt lat="47.27652" lon="-2.32308">
        <ele>18.39999961853</ele>
        <time>2021-12-19T10:45:15.000Z</time>
      </trkpt>
      <trkpt lat="47.27655" lon="-2.32309">
        <ele>18.799999237061</ele>
        <time>2021-12-19T10:45:16.000Z</time>
      </trkpt>
      <trkpt lat="47.27658" lon="-2.3231">
        <ele>19.200000762939</ele>
        <time>2021-12-19T10:45:17.000Z</time>
      </trkpt>
      <trkpt lat="47.27661" lon="-2.32311">
        <ele>19.200000762939</ele>
        <time>2021-12-19T10:45:18.000Z</time>
      </trkpt>
      <trkpt lat="47.27684" lon="-2.32318">
        <ele>19.200000762939</ele>
        <time>2021-12-19T10:45:24.000Z</time>
      </trkpt>
      <trkpt lat="47.27701" lon="-2.32326">
        <ele>19.200000762939</ele>
        <time>2021-12-19T10:45:29.000Z</time>
      </trkpt>
      <trkpt lat="47.27708" lon="-2.3233">
        <ele>19.60000038147</ele>
        <time>2021-12-19T10:45:31.000Z</time>
      </trkpt>
      <trkpt lat="47.27711" lon="-2.32332">
        <ele>20</ele>
        <time>2021-12-19T10:45:32.000Z</time>
      </trkpt>
      <trkpt lat="47.27715" lon="-2.32335">
        <ele>20.39999961853</ele>
        <time>2021-12-19T10:45:33.000Z</time>
      </trkpt>
      <trkpt lat="47.27718" lon="-2.32337">
        <ele>21.200000762939</ele>
        <time>2021-12-19T10:45:34.000Z</time>
      </trkpt>
      <trkpt lat="47.27744" lon="-2.32355">
        <ele>21.200000762939</ele>
        <time>2021-12-19T10:45:41.000Z</time>
      </trkpt>
      <trkpt lat="47.27766" lon="-2.32373">
        <ele>21.200000762939</ele>
        <time>2021-12-19T10:45:47.000Z</time>
      </trkpt>
      <trkpt lat="47.27771" lon="-2.32378">
        <ele>21.200000762939</ele>
        <time>2021-12-19T10:45:49.000Z</time>
      </trkpt>
      <trkpt lat="47.27778" lon="-2.32378">
        <ele>21.200000762939</ele>
        <time>2021-12-19T10:45:51.000Z</time>
      </trkpt>
      <trkpt lat="47.27802" lon="-2.32379">
        <ele>21.200000762939</ele>
        <time>2021-12-19T10:45:58.000Z</time>
      </trkpt>
      <trkpt lat="47.27825" lon="-2.32376">
        <ele>21.200000762939</ele>
        <time>2021-12-19T10:46:04.000Z</time>
      </trkpt>
      <trkpt lat="47.27837" lon="-2.32373">
        <ele>20.799999237061</ele>
        <time>2021-12-19T10:46:07.000Z</time>
      </trkpt>
      <trkpt lat="47.27842" lon="-2.32374">
        <ele>20.200000762939</ele>
        <time>2021-12-19T10:46:08.000Z</time>
      </trkpt>
      <trkpt lat="47.27847" lon="-2.32375">
        <ele>19.799999237061</ele>
        <time>2021-12-19T10:46:09.000Z</time>
      </trkpt>
      <trkpt lat="47.27852" lon="-2.32376">
        <ele>19.39999961853</ele>
        <time>2021-12-19T10:46:10.000Z</time>
      </trkpt>
      <trkpt lat="47.27856" lon="-2.32377">
        <ele>19</ele>
        <time>2021-12-19T10:46:11.000Z</time>
      </trkpt>
      <trkpt lat="47.27866" lon="-2.32382">
        <ele>19</ele>
        <time>2021-12-19T10:46:14.000Z</time>
      </trkpt>
      <trkpt lat="47.27887" lon="-2.32385">
        <ele>19</ele>
        <time>2021-12-19T10:46:19.000Z</time>
      </trkpt>
      <trkpt lat="47.27899" lon="-2.32381">
        <ele>19</ele>
        <time>2021-12-19T10:46:23.000Z</time>
      </trkpt>
      <trkpt lat="47.27901" lon="-2.32383">
        <ele>19</ele>
        <time>2021-12-19T10:46:24.000Z</time>
      </trkpt>
      <trkpt lat="47.27904" lon="-2.32388">
        <ele>19</ele>
        <time>2021-12-19T10:46:26.000Z</time>
      </trkpt>
      <trkpt lat="47.27902" lon="-2.32401">
        <ele>19</ele>
        <time>2021-12-19T10:46:31.000Z</time>
      </trkpt>
      <trkpt lat="47.27893" lon="-2.32417">
        <ele>19</ele>
        <time>2021-12-19T10:46:35.000Z</time>
      </trkpt>
      <trkpt lat="47.27891" lon="-2.3242">
        <ele>19</ele>
        <time>2021-12-19T10:46:36.000Z</time>
      </trkpt>
      <trkpt lat="47.27876" lon="-2.32445">
        <ele>19</ele>
        <time>2021-12-19T10:46:42.000Z</time>
      </trkpt>
      <trkpt lat="47.27869" lon="-2.32454">
        <ele>19</ele>
        <time>2021-12-19T10:46:44.000Z</time>
      </trkpt>
      <trkpt lat="47.27858" lon="-2.32467">
        <ele>19</ele>
        <time>2021-12-19T10:46:47.000Z</time>
      </trkpt>
      <trkpt lat="47.27855" lon="-2.32472">
        <ele>19</ele>
        <time>2021-12-19T10:46:48.000Z</time>
      </trkpt>
      <trkpt lat="47.27839" lon="-2.32497">
        <ele>19</ele>
        <time>2021-12-19T10:46:53.000Z</time>
      </trkpt>
      <trkpt lat="47.27813" lon="-2.32534">
        <ele>19</ele>
        <time>2021-12-19T10:47:00.000Z</time>
      </trkpt>
      <trkpt lat="47.27789" lon="-2.32569">
        <ele>19</ele>
        <time>2021-12-19T10:47:06.000Z</time>
      </trkpt>
      <trkpt lat="47.27772" lon="-2.32599">
        <ele>19</ele>
        <time>2021-12-19T10:47:11.000Z</time>
      </trkpt>
      <trkpt lat="47.27756" lon="-2.32628">
        <ele>18.60000038147</ele>
        <time>2021-12-19T10:47:16.000Z</time>
      </trkpt>
      <trkpt lat="47.27753" lon="-2.32634">
        <ele>18.200000762939</ele>
        <time>2021-12-19T10:47:17.000Z</time>
      </trkpt>
      <trkpt lat="47.2775" lon="-2.32642">
        <ele>17.799999237061</ele>
        <time>2021-12-19T10:47:18.000Z</time>
      </trkpt>
      <trkpt lat="47.27747" lon="-2.32651">
        <ele>17.39999961853</ele>
        <time>2021-12-19T10:47:19.000Z</time>
      </trkpt>
      <trkpt lat="47.27744" lon="-2.3266">
        <ele>16.799999237061</ele>
        <time>2021-12-19T10:47:20.000Z</time>
      </trkpt>
      <trkpt lat="47.2774" lon="-2.32669">
        <ele>16.200000762939</ele>
        <time>2021-12-19T10:47:21.000Z</time>
      </trkpt>
      <trkpt lat="47.27736" lon="-2.32677">
        <ele>15.60000038147</ele>
        <time>2021-12-19T10:47:22.000Z</time>
      </trkpt>
      <trkpt lat="47.27731" lon="-2.32684">
        <ele>14.800000190735</ele>
        <time>2021-12-19T10:47:23.000Z</time>
      </trkpt>
      <trkpt lat="47.27727" lon="-2.32689">
        <ele>14</ele>
        <time>2021-12-19T10:47:24.000Z</time>
      </trkpt>
      <trkpt lat="47.27723" lon="-2.32693">
        <ele>13.199999809265</ele>
        <time>2021-12-19T10:47:25.000Z</time>
      </trkpt>
      <trkpt lat="47.27719" lon="-2.32698">
        <ele>12.39999961853</ele>
        <time>2021-12-19T10:47:26.000Z</time>
      </trkpt>
      <trkpt lat="47.27718" lon="-2.32703">
        <ele>11.60000038147</ele>
        <time>2021-12-19T10:47:27.000Z</time>
      </trkpt>
      <trkpt lat="47.27716" lon="-2.32706">
        <ele>10.800000190735</ele>
        <time>2021-12-19T10:47:28.000Z</time>
      </trkpt>
      <trkpt lat="47.27714" lon="-2.32709">
        <ele>10</ele>
        <time>2021-12-19T10:47:29.000Z</time>
      </trkpt>
      <trkpt lat="47.27711" lon="-2.32713">
        <ele>9.1999998092651</ele>
        <time>2021-12-19T10:47:30.000Z</time>
      </trkpt>
      <trkpt lat="47.27696" lon="-2.32726">
        <ele>9.1999998092651</ele>
        <time>2021-12-19T10:47:34.000Z</time>
      </trkpt>
      <trkpt lat="47.27686" lon="-2.32729">
        <ele>9.1999998092651</ele>
        <time>2021-12-19T10:47:36.000Z</time>
      </trkpt>
      <trkpt lat="47.27679" lon="-2.32726">
        <ele>9.1999998092651</ele>
        <time>2021-12-19T10:47:38.000Z</time>
      </trkpt>
      <trkpt lat="47.27665" lon="-2.32718">
        <ele>9.1999998092651</ele>
        <time>2021-12-19T10:47:41.000Z</time>
      </trkpt>
      <trkpt lat="47.2766" lon="-2.32716">
        <ele>9.1999998092651</ele>
        <time>2021-12-19T10:47:42.000Z</time>
      </trkpt>
      <trkpt lat="47.27655" lon="-2.32714">
        <ele>9.1999998092651</ele>
        <time>2021-12-19T10:47:43.000Z</time>
      </trkpt>
      <trkpt lat="47.27651" lon="-2.32713">
        <ele>9.1999998092651</ele>
        <time>2021-12-19T10:47:44.000Z</time>
      </trkpt>
      <trkpt lat="47.27637" lon="-2.32707">
        <ele>9.1999998092651</ele>
        <time>2021-12-19T10:47:47.000Z</time>
      </trkpt>
      <trkpt lat="47.27634" lon="-2.32702">
        <ele>9.1999998092651</ele>
        <time>2021-12-19T10:47:48.000Z</time>
      </trkpt>
      <trkpt lat="47.27615" lon="-2.32693">
        <ele>9.1999998092651</ele>
        <time>2021-12-19T10:47:53.000Z</time>
      </trkpt>
      <trkpt lat="47.27606" lon="-2.32705">
        <ele>9.1999998092651</ele>
        <time>2021-12-19T10:47:57.000Z</time>
      </trkpt>
      <trkpt lat="47.27598" lon="-2.32724">
        <ele>9.1999998092651</ele>
        <time>2021-12-19T10:48:02.000Z</time>
      </trkpt>
      <trkpt lat="47.27593" lon="-2.32739">
        <ele>9.6000003814697</ele>
        <time>2021-12-19T10:48:06.000Z</time>
      </trkpt>
      <trkpt lat="47.27592" lon="-2.32743">
        <ele>10</ele>
        <time>2021-12-19T10:48:07.000Z</time>
      </trkpt>
      <trkpt lat="47.27592" lon="-2.32747">
        <ele>10.39999961853</ele>
        <time>2021-12-19T10:48:08.000Z</time>
      </trkpt>
      <trkpt lat="47.27592" lon="-2.3275">
        <ele>11</ele>
        <time>2021-12-19T10:48:09.000Z</time>
      </trkpt>
      <trkpt lat="47.27592" lon="-2.32753">
        <ele>11.39999961853</ele>
        <time>2021-12-19T10:48:10.000Z</time>
      </trkpt>
      <trkpt lat="47.27591" lon="-2.32757">
        <ele>11.800000190735</ele>
        <time>2021-12-19T10:48:11.000Z</time>
      </trkpt>
      <trkpt lat="47.27591" lon="-2.3276">
        <ele>12.199999809265</ele>
        <time>2021-12-19T10:48:12.000Z</time>
      </trkpt>
      <trkpt lat="47.27589" lon="-2.32764">
        <ele>12.800000190735</ele>
        <time>2021-12-19T10:48:13.000Z</time>
      </trkpt>
      <trkpt lat="47.27588" lon="-2.32767">
        <ele>13.199999809265</ele>
        <time>2021-12-19T10:48:14.000Z</time>
      </trkpt>
      <trkpt lat="47.27586" lon="-2.32772">
        <ele>13.800000190735</ele>
        <time>2021-12-19T10:48:15.000Z</time>
      </trkpt>
      <trkpt lat="47.27576" lon="-2.32796">
        <ele>13.800000190735</ele>
        <time>2021-12-19T10:48:20.000Z</time>
      </trkpt>
      <trkpt lat="47.27571" lon="-2.32812">
        <ele>13.800000190735</ele>
        <time>2021-12-19T10:48:24.000Z</time>
      </trkpt>
      <trkpt lat="47.27569" lon="-2.32815">
        <ele>14.199999809265</ele>
        <time>2021-12-19T10:48:25.000Z</time>
      </trkpt>
      <trkpt lat="47.27568" lon="-2.3282">
        <ele>14.60000038147</ele>
        <time>2021-12-19T10:48:26.000Z</time>
      </trkpt>
      <trkpt lat="47.27567" lon="-2.32823">
        <ele>15.39999961853</ele>
        <time>2021-12-19T10:48:27.000Z</time>
      </trkpt>
      <trkpt lat="47.27565" lon="-2.32826">
        <ele>15.800000190735</ele>
        <time>2021-12-19T10:48:28.000Z</time>
      </trkpt>
      <trkpt lat="47.27561" lon="-2.32834">
        <ele>15.800000190735</ele>
        <time>2021-12-19T10:48:30.000Z</time>
      </trkpt>
      <trkpt lat="47.27542" lon="-2.32851">
        <ele>15.800000190735</ele>
        <time>2021-12-19T10:48:36.000Z</time>
      </trkpt>
      <trkpt lat="47.27532" lon="-2.32863">
        <ele>15.800000190735</ele>
        <time>2021-12-19T10:48:39.000Z</time>
      </trkpt>
      <trkpt lat="47.27528" lon="-2.32868">
        <ele>15.800000190735</ele>
        <time>2021-12-19T10:48:40.000Z</time>
      </trkpt>
      <trkpt lat="47.27516" lon="-2.32894">
        <ele>15.800000190735</ele>
        <time>2021-12-19T10:48:45.000Z</time>
      </trkpt>
      <trkpt lat="47.27513" lon="-2.32899">
        <ele>16.39999961853</ele>
        <time>2021-12-19T10:48:46.000Z</time>
      </trkpt>
      <trkpt lat="47.27511" lon="-2.32905">
        <ele>16.799999237061</ele>
        <time>2021-12-19T10:48:47.000Z</time>
      </trkpt>
      <trkpt lat="47.27509" lon="-2.3291">
        <ele>17.200000762939</ele>
        <time>2021-12-19T10:48:48.000Z</time>
      </trkpt>
      <trkpt lat="47.27507" lon="-2.32916">
        <ele>17.60000038147</ele>
        <time>2021-12-19T10:48:49.000Z</time>
      </trkpt>
      <trkpt lat="47.27505" lon="-2.32922">
        <ele>18</ele>
        <time>2021-12-19T10:48:50.000Z</time>
      </trkpt>
      <trkpt lat="47.27498" lon="-2.32939">
        <ele>18</ele>
        <time>2021-12-19T10:48:53.000Z</time>
      </trkpt>
      <trkpt lat="47.27485" lon="-2.32967">
        <ele>18.39999961853</ele>
        <time>2021-12-19T10:48:59.000Z</time>
      </trkpt>
      <trkpt lat="47.27484" lon="-2.32972">
        <ele>18.799999237061</ele>
        <time>2021-12-19T10:49:00.000Z</time>
      </trkpt>
      <trkpt lat="47.27482" lon="-2.32977">
        <ele>19.200000762939</ele>
        <time>2021-12-19T10:49:01.000Z</time>
      </trkpt>
      <trkpt lat="47.2748" lon="-2.32983">
        <ele>19.60000038147</ele>
        <time>2021-12-19T10:49:02.000Z</time>
      </trkpt>
      <trkpt lat="47.27478" lon="-2.32988">
        <ele>20</ele>
        <time>2021-12-19T10:49:03.000Z</time>
      </trkpt>
      <trkpt lat="47.2747" lon="-2.33009">
        <ele>20</ele>
        <time>2021-12-19T10:49:07.000Z</time>
      </trkpt>
      <trkpt lat="47.27457" lon="-2.33027">
        <ele>20.39999961853</ele>
        <time>2021-12-19T10:49:12.000Z</time>
      </trkpt>
      <trkpt lat="47.27455" lon="-2.33029">
        <ele>21</ele>
        <time>2021-12-19T10:49:13.000Z</time>
      </trkpt>
      <trkpt lat="47.27451" lon="-2.33031">
        <ele>21.39999961853</ele>
        <time>2021-12-19T10:49:14.000Z</time>
      </trkpt>
      <trkpt lat="47.27448" lon="-2.33034">
        <ele>21.799999237061</ele>
        <time>2021-12-19T10:49:15.000Z</time>
      </trkpt>
      <trkpt lat="47.27444" lon="-2.33036">
        <ele>22.200000762939</ele>
        <time>2021-12-19T10:49:16.000Z</time>
      </trkpt>
      <trkpt lat="47.27439" lon="-2.3304">
        <ele>22.200000762939</ele>
        <time>2021-12-19T10:49:18.000Z</time>
      </trkpt>
      <trkpt lat="47.27434" lon="-2.33045">
        <ele>22.200000762939</ele>
        <time>2021-12-19T10:49:22.000Z</time>
      </trkpt>
      <trkpt lat="47.27433" lon="-2.33044">
        <ele>22.200000762939</ele>
        <time>2021-12-19T10:49:23.000Z</time>
      </trkpt>
      <trkpt lat="47.27428" lon="-2.33036">
        <ele>22.200000762939</ele>
        <time>2021-12-19T10:49:26.000Z</time>
      </trkpt>
      <trkpt lat="47.27426" lon="-2.33031">
        <ele>22.200000762939</ele>
        <time>2021-12-19T10:49:27.000Z</time>
      </trkpt>
      <trkpt lat="47.27421" lon="-2.3301">
        <ele>22.200000762939</ele>
        <time>2021-12-19T10:49:31.000Z</time>
      </trkpt>
      <trkpt lat="47.27409" lon="-2.32968">
        <ele>22.200000762939</ele>
        <time>2021-12-19T10:49:38.000Z</time>
      </trkpt>
      <trkpt lat="47.27404" lon="-2.3295">
        <ele>21.799999237061</ele>
        <time>2021-12-19T10:49:41.000Z</time>
      </trkpt>
      <trkpt lat="47.27403" lon="-2.32942">
        <ele>21.39999961853</ele>
        <time>2021-12-19T10:49:42.000Z</time>
      </trkpt>
      <trkpt lat="47.27401" lon="-2.32936">
        <ele>21</ele>
        <time>2021-12-19T10:49:43.000Z</time>
      </trkpt>
      <trkpt lat="47.274" lon="-2.32931">
        <ele>20.60000038147</ele>
        <time>2021-12-19T10:49:44.000Z</time>
      </trkpt>
      <trkpt lat="47.27399" lon="-2.32928">
        <ele>20.200000762939</ele>
        <time>2021-12-19T10:49:45.000Z</time>
      </trkpt>
      <trkpt lat="47.27396" lon="-2.32927">
        <ele>20.200000762939</ele>
        <time>2021-12-19T10:49:46.000Z</time>
      </trkpt>
      <trkpt lat="47.27392" lon="-2.32927">
        <ele>20.200000762939</ele>
        <time>2021-12-19T10:49:48.000Z</time>
      </trkpt>
      <trkpt lat="47.2738" lon="-2.32941">
        <ele>20.200000762939</ele>
        <time>2021-12-19T10:49:53.000Z</time>
      </trkpt>
      <trkpt lat="47.27376" lon="-2.32952">
        <ele>20.200000762939</ele>
        <time>2021-12-19T10:49:55.000Z</time>
      </trkpt>
      <trkpt lat="47.27368" lon="-2.3297">
        <ele>20.200000762939</ele>
        <time>2021-12-19T10:49:58.000Z</time>
      </trkpt>
      <trkpt lat="47.27354" lon="-2.32999">
        <ele>20.200000762939</ele>
        <time>2021-12-19T10:50:03.000Z</time>
      </trkpt>
      <trkpt lat="47.27337" lon="-2.33049">
        <ele>20.200000762939</ele>
        <time>2021-12-19T10:50:10.000Z</time>
      </trkpt>
      <trkpt lat="47.2732" lon="-2.33095">
        <ele>20.200000762939</ele>
        <time>2021-12-19T10:50:17.000Z</time>
      </trkpt>
      <trkpt lat="47.27311" lon="-2.33112">
        <ele>20.200000762939</ele>
        <time>2021-12-19T10:50:20.000Z</time>
      </trkpt>
      <trkpt lat="47.27307" lon="-2.33113">
        <ele>20.60000038147</ele>
        <time>2021-12-19T10:50:21.000Z</time>
      </trkpt>
      <trkpt lat="47.27302" lon="-2.33111">
        <ele>21</ele>
        <time>2021-12-19T10:50:22.000Z</time>
      </trkpt>
      <trkpt lat="47.27298" lon="-2.33107">
        <ele>21.39999961853</ele>
        <time>2021-12-19T10:50:23.000Z</time>
      </trkpt>
      <trkpt lat="47.27294" lon="-2.33101">
        <ele>21.799999237061</ele>
        <time>2021-12-19T10:50:24.000Z</time>
      </trkpt>
      <trkpt lat="47.27291" lon="-2.33096">
        <ele>22.200000762939</ele>
        <time>2021-12-19T10:50:25.000Z</time>
      </trkpt>
      <trkpt lat="47.27275" lon="-2.33069">
        <ele>22.200000762939</ele>
        <time>2021-12-19T10:50:30.000Z</time>
      </trkpt>
      <trkpt lat="47.27271" lon="-2.33064">
        <ele>22.200000762939</ele>
        <time>2021-12-19T10:50:31.000Z</time>
      </trkpt>
      <trkpt lat="47.27249" lon="-2.33034">
        <ele>22.200000762939</ele>
        <time>2021-12-19T10:50:36.000Z</time>
      </trkpt>
      <trkpt lat="47.27223" lon="-2.32989">
        <ele>21.799999237061</ele>
        <time>2021-12-19T10:50:42.000Z</time>
      </trkpt>
      <trkpt lat="47.27218" lon="-2.32983">
        <ele>21.39999961853</ele>
        <time>2021-12-19T10:50:43.000Z</time>
      </trkpt>
      <trkpt lat="47.27213" lon="-2.32981">
        <ele>21</ele>
        <time>2021-12-19T10:50:44.000Z</time>
      </trkpt>
      <trkpt lat="47.27206" lon="-2.32982">
        <ele>20.60000038147</ele>
        <time>2021-12-19T10:50:45.000Z</time>
      </trkpt>
      <trkpt lat="47.27201" lon="-2.32986">
        <ele>20</ele>
        <time>2021-12-19T10:50:46.000Z</time>
      </trkpt>
      <trkpt lat="47.27191" lon="-2.32994">
        <ele>20</ele>
        <time>2021-12-19T10:50:48.000Z</time>
      </trkpt>
      <trkpt lat="47.27172" lon="-2.3301">
        <ele>20</ele>
        <time>2021-12-19T10:50:52.000Z</time>
      </trkpt>
      <trkpt lat="47.27142" lon="-2.33035">
        <ele>20</ele>
        <time>2021-12-19T10:50:58.000Z</time>
      </trkpt>
      <trkpt lat="47.27137" lon="-2.33038">
        <ele>20</ele>
        <time>2021-12-19T10:50:59.000Z</time>
      </trkpt>
      <trkpt lat="47.27115" lon="-2.33055">
        <ele>20</ele>
        <time>2021-12-19T10:51:03.000Z</time>
      </trkpt>
      <trkpt lat="47.27082" lon="-2.33084">
        <ele>20</ele>
        <time>2021-12-19T10:51:09.000Z</time>
      </trkpt>
      <trkpt lat="47.27041" lon="-2.33128">
        <ele>20</ele>
        <time>2021-12-19T10:51:17.000Z</time>
      </trkpt>
      <trkpt lat="47.27021" lon="-2.33148">
        <ele>20</ele>
        <time>2021-12-19T10:51:21.000Z</time>
      </trkpt>
      <trkpt lat="47.27011" lon="-2.33156">
        <ele>20</ele>
        <time>2021-12-19T10:51:23.000Z</time>
      </trkpt>
      <trkpt lat="47.26981" lon="-2.33182">
        <ele>20</ele>
        <time>2021-12-19T10:51:29.000Z</time>
      </trkpt>
      <trkpt lat="47.26976" lon="-2.33188">
        <ele>20</ele>
        <time>2021-12-19T10:51:30.000Z</time>
      </trkpt>
      <trkpt lat="47.26962" lon="-2.33201">
        <ele>20</ele>
        <time>2021-12-19T10:51:33.000Z</time>
      </trkpt>
      <trkpt lat="47.26956" lon="-2.33205">
        <ele>20</ele>
        <time>2021-12-19T10:51:34.000Z</time>
      </trkpt>
      <trkpt lat="47.2694" lon="-2.33215">
        <ele>20</ele>
        <time>2021-12-19T10:51:37.000Z</time>
      </trkpt>
      <trkpt lat="47.2693" lon="-2.33226">
        <ele>20</ele>
        <time>2021-12-19T10:51:39.000Z</time>
      </trkpt>
      <trkpt lat="47.2693" lon="-2.3325">
        <ele>20</ele>
        <time>2021-12-19T10:51:42.000Z</time>
      </trkpt>
      <trkpt lat="47.26939" lon="-2.33273">
        <ele>20</ele>
        <time>2021-12-19T10:51:45.000Z</time>
      </trkpt>
      <trkpt lat="47.26942" lon="-2.33281">
        <ele>20</ele>
        <time>2021-12-19T10:51:46.000Z</time>
      </trkpt>
      <trkpt lat="47.26959" lon="-2.33328">
        <ele>20</ele>
        <time>2021-12-19T10:51:52.000Z</time>
      </trkpt>
      <trkpt lat="47.26972" lon="-2.33368">
        <ele>20</ele>
        <time>2021-12-19T10:51:58.000Z</time>
      </trkpt>
      <trkpt lat="47.26964" lon="-2.33382">
        <ele>20</ele>
        <time>2021-12-19T10:52:01.000Z</time>
      </trkpt>
      <trkpt lat="47.26953" lon="-2.33385">
        <ele>20</ele>
        <time>2021-12-19T10:52:03.000Z</time>
      </trkpt>
      <trkpt lat="47.26948" lon="-2.33388">
        <ele>20</ele>
        <time>2021-12-19T10:52:04.000Z</time>
      </trkpt>
      <trkpt lat="47.26942" lon="-2.3339">
        <ele>20</ele>
        <time>2021-12-19T10:52:05.000Z</time>
      </trkpt>
      <trkpt lat="47.26911" lon="-2.33406">
        <ele>19.60000038147</ele>
        <time>2021-12-19T10:52:10.000Z</time>
      </trkpt>
      <trkpt lat="47.26905" lon="-2.33409">
        <ele>19.200000762939</ele>
        <time>2021-12-19T10:52:11.000Z</time>
      </trkpt>
      <trkpt lat="47.26898" lon="-2.33412">
        <ele>18.799999237061</ele>
        <time>2021-12-19T10:52:12.000Z</time>
      </trkpt>
      <trkpt lat="47.26891" lon="-2.33414">
        <ele>18.39999961853</ele>
        <time>2021-12-19T10:52:13.000Z</time>
      </trkpt>
      <trkpt lat="47.26886" lon="-2.33419">
        <ele>18</ele>
        <time>2021-12-19T10:52:14.000Z</time>
      </trkpt>
      <trkpt lat="47.26882" lon="-2.33423">
        <ele>17.60000038147</ele>
        <time>2021-12-19T10:52:15.000Z</time>
      </trkpt>
      <trkpt lat="47.2688" lon="-2.33428">
        <ele>17</ele>
        <time>2021-12-19T10:52:16.000Z</time>
      </trkpt>
      <trkpt lat="47.26877" lon="-2.33432">
        <ele>16.60000038147</ele>
        <time>2021-12-19T10:52:17.000Z</time>
      </trkpt>
      <trkpt lat="47.26876" lon="-2.33437">
        <ele>16.200000762939</ele>
        <time>2021-12-19T10:52:18.000Z</time>
      </trkpt>
      <trkpt lat="47.26876" lon="-2.33445">
        <ele>15.60000038147</ele>
        <time>2021-12-19T10:52:19.000Z</time>
      </trkpt>
      <trkpt lat="47.26878" lon="-2.33453">
        <ele>15.199999809265</ele>
        <time>2021-12-19T10:52:20.000Z</time>
      </trkpt>
      <trkpt lat="47.2688" lon="-2.33463">
        <ele>14.60000038147</ele>
        <time>2021-12-19T10:52:21.000Z</time>
      </trkpt>
      <trkpt lat="47.26882" lon="-2.33473">
        <ele>14</ele>
        <time>2021-12-19T10:52:22.000Z</time>
      </trkpt>
      <trkpt lat="47.26884" lon="-2.33484">
        <ele>13.39999961853</ele>
        <time>2021-12-19T10:52:23.000Z</time>
      </trkpt>
      <trkpt lat="47.26886" lon="-2.33496">
        <ele>12.800000190735</ele>
        <time>2021-12-19T10:52:24.000Z</time>
      </trkpt>
      <trkpt lat="47.26889" lon="-2.33509">
        <ele>12.39999961853</ele>
        <time>2021-12-19T10:52:25.000Z</time>
      </trkpt>
      <trkpt lat="47.26891" lon="-2.33522">
        <ele>11.800000190735</ele>
        <time>2021-12-19T10:52:26.000Z</time>
      </trkpt>
      <trkpt lat="47.26893" lon="-2.33536">
        <ele>11</ele>
        <time>2021-12-19T10:52:27.000Z</time>
      </trkpt>
      <trkpt lat="47.26897" lon="-2.33549">
        <ele>10.39999961853</ele>
        <time>2021-12-19T10:52:28.000Z</time>
      </trkpt>
      <trkpt lat="47.269" lon="-2.33561">
        <ele>9.6000003814697</ele>
        <time>2021-12-19T10:52:29.000Z</time>
      </trkpt>
      <trkpt lat="47.26904" lon="-2.33571">
        <ele>9</ele>
        <time>2021-12-19T10:52:30.000Z</time>
      </trkpt>
      <trkpt lat="47.26907" lon="-2.33581">
        <ele>8.1999998092651</ele>
        <time>2021-12-19T10:52:31.000Z</time>
      </trkpt>
      <trkpt lat="47.26922" lon="-2.33618">
        <ele>8.1999998092651</ele>
        <time>2021-12-19T10:52:35.000Z</time>
      </trkpt>
      <trkpt lat="47.26931" lon="-2.33662">
        <ele>8.1999998092651</ele>
        <time>2021-12-19T10:52:40.000Z</time>
      </trkpt>
      <trkpt lat="47.26935" lon="-2.33687">
        <ele>8.1999998092651</ele>
        <time>2021-12-19T10:52:43.000Z</time>
      </trkpt>
      <trkpt lat="47.26939" lon="-2.33711">
        <ele>8.1999998092651</ele>
        <time>2021-12-19T10:52:46.000Z</time>
      </trkpt>
      <trkpt lat="47.26937" lon="-2.33746">
        <ele>8.1999998092651</ele>
        <time>2021-12-19T10:52:50.000Z</time>
      </trkpt>
      <trkpt lat="47.26935" lon="-2.33755">
        <ele>8.1999998092651</ele>
        <time>2021-12-19T10:52:51.000Z</time>
      </trkpt>
      <trkpt lat="47.26932" lon="-2.33781">
        <ele>8.1999998092651</ele>
        <time>2021-12-19T10:52:54.000Z</time>
      </trkpt>
      <trkpt lat="47.26935" lon="-2.33799">
        <ele>8.1999998092651</ele>
        <time>2021-12-19T10:52:56.000Z</time>
      </trkpt>
      <trkpt lat="47.26947" lon="-2.33818">
        <ele>8.1999998092651</ele>
        <time>2021-12-19T10:52:59.000Z</time>
      </trkpt>
      <trkpt lat="47.26952" lon="-2.33822">
        <ele>8.1999998092651</ele>
        <time>2021-12-19T10:53:00.000Z</time>
      </trkpt>
      <trkpt lat="47.26957" lon="-2.33824">
        <ele>8.1999998092651</ele>
        <time>2021-12-19T10:53:01.000Z</time>
      </trkpt>
      <trkpt lat="47.26972" lon="-2.33831">
        <ele>8.1999998092651</ele>
        <time>2021-12-19T10:53:04.000Z</time>
      </trkpt>
      <trkpt lat="47.26983" lon="-2.33839">
        <ele>8.8000001907349</ele>
        <time>2021-12-19T10:53:07.000Z</time>
      </trkpt>
      <trkpt lat="47.26987" lon="-2.33842">
        <ele>9.1999998092651</ele>
        <time>2021-12-19T10:53:08.000Z</time>
      </trkpt>
      <trkpt lat="47.2699" lon="-2.33844">
        <ele>9.6000003814697</ele>
        <time>2021-12-19T10:53:09.000Z</time>
      </trkpt>
      <trkpt lat="47.26993" lon="-2.33848">
        <ele>10</ele>
        <time>2021-12-19T10:53:10.000Z</time>
      </trkpt>
      <trkpt lat="47.26997" lon="-2.33851">
        <ele>10.39999961853</ele>
        <time>2021-12-19T10:53:11.000Z</time>
      </trkpt>
      <trkpt lat="47.27" lon="-2.33856">
        <ele>10.39999961853</ele>
        <time>2021-12-19T10:53:12.000Z</time>
      </trkpt>
      <trkpt lat="47.27" lon="-2.33863">
        <ele>10.39999961853</ele>
        <time>2021-12-19T10:53:13.000Z</time>
      </trkpt>
      <trkpt lat="47.26994" lon="-2.33891">
        <ele>10.39999961853</ele>
        <time>2021-12-19T10:53:17.000Z</time>
      </trkpt>
      <trkpt lat="47.26984" lon="-2.33926">
        <ele>10.39999961853</ele>
        <time>2021-12-19T10:53:21.000Z</time>
      </trkpt>
      <trkpt lat="47.26981" lon="-2.33935">
        <ele>10.39999961853</ele>
        <time>2021-12-19T10:53:22.000Z</time>
      </trkpt>
      <trkpt lat="47.26971" lon="-2.3397">
        <ele>10.39999961853</ele>
        <time>2021-12-19T10:53:26.000Z</time>
      </trkpt>
      <trkpt lat="47.26968" lon="-2.33989">
        <ele>10.39999961853</ele>
        <time>2021-12-19T10:53:28.000Z</time>
      </trkpt>
      <trkpt lat="47.26966" lon="-2.34008">
        <ele>10.39999961853</ele>
        <time>2021-12-19T10:53:30.000Z</time>
      </trkpt>
      <trkpt lat="47.26967" lon="-2.34014">
        <ele>10.39999961853</ele>
        <time>2021-12-19T10:53:31.000Z</time>
      </trkpt>
      <trkpt lat="47.26974" lon="-2.34022">
        <ele>10</ele>
        <time>2021-12-19T10:53:33.000Z</time>
      </trkpt>
      <trkpt lat="47.26979" lon="-2.34021">
        <ele>9.6000003814697</ele>
        <time>2021-12-19T10:53:34.000Z</time>
      </trkpt>
      <trkpt lat="47.26983" lon="-2.3402">
        <ele>9.1999998092651</ele>
        <time>2021-12-19T10:53:35.000Z</time>
      </trkpt>
      <trkpt lat="47.26988" lon="-2.34019">
        <ele>8.8000001907349</ele>
        <time>2021-12-19T10:53:36.000Z</time>
      </trkpt>
      <trkpt lat="47.26993" lon="-2.34018">
        <ele>8.3999996185303</ele>
        <time>2021-12-19T10:53:37.000Z</time>
      </trkpt>
      <trkpt lat="47.27003" lon="-2.34018">
        <ele>8.3999996185303</ele>
        <time>2021-12-19T10:53:39.000Z</time>
      </trkpt>
      <trkpt lat="47.27033" lon="-2.34015">
        <ele>8.3999996185303</ele>
        <time>2021-12-19T10:53:46.000Z</time>
      </trkpt>
      <trkpt lat="47.27037" lon="-2.34016">
        <ele>8.3999996185303</ele>
        <time>2021-12-19T10:53:47.000Z</time>
      </trkpt>
      <trkpt lat="47.27045" lon="-2.34022">
        <ele>8.3999996185303</ele>
        <time>2021-12-19T10:53:49.000Z</time>
      </trkpt>
      <trkpt lat="47.27047" lon="-2.34028">
        <ele>8.8000001907349</ele>
        <time>2021-12-19T10:53:50.000Z</time>
      </trkpt>
      <trkpt lat="47.27048" lon="-2.34033">
        <ele>9.1999998092651</ele>
        <time>2021-12-19T10:53:51.000Z</time>
      </trkpt>
      <trkpt lat="47.27049" lon="-2.3404">
        <ele>9.6000003814697</ele>
        <time>2021-12-19T10:53:52.000Z</time>
      </trkpt>
      <trkpt lat="47.27049" lon="-2.34048">
        <ele>10</ele>
        <time>2021-12-19T10:53:53.000Z</time>
      </trkpt>
      <trkpt lat="47.27049" lon="-2.34056">
        <ele>10.39999961853</ele>
        <time>2021-12-19T10:53:54.000Z</time>
      </trkpt>
      <trkpt lat="47.27048" lon="-2.34095">
        <ele>10.39999961853</ele>
        <time>2021-12-19T10:53:59.000Z</time>
      </trkpt>
      <trkpt lat="47.27047" lon="-2.34134">
        <ele>10.39999961853</ele>
        <time>2021-12-19T10:54:04.000Z</time>
      </trkpt>
      <trkpt lat="47.27046" lon="-2.34148">
        <ele>10.39999961853</ele>
        <time>2021-12-19T10:54:06.000Z</time>
      </trkpt>
      <trkpt lat="47.2705" lon="-2.34152">
        <ele>10.39999961853</ele>
        <time>2021-12-19T10:54:07.000Z</time>
      </trkpt>
      <trkpt lat="47.27053" lon="-2.34153">
        <ele>10.39999961853</ele>
        <time>2021-12-19T10:54:08.000Z</time>
      </trkpt>
      <trkpt lat="47.27062" lon="-2.34145">
        <ele>10.39999961853</ele>
        <time>2021-12-19T10:54:11.000Z</time>
      </trkpt>
      <trkpt lat="47.27078" lon="-2.34116">
        <ele>10.39999961853</ele>
        <time>2021-12-19T10:54:17.000Z</time>
      </trkpt>
      <trkpt lat="47.27089" lon="-2.34102">
        <ele>10.39999961853</ele>
        <time>2021-12-19T10:54:21.000Z</time>
      </trkpt>
      <trkpt lat="47.27094" lon="-2.34105">
        <ele>10.800000190735</ele>
        <time>2021-12-19T10:54:23.000Z</time>
      </trkpt>
      <trkpt lat="47.27095" lon="-2.34109">
        <ele>11.199999809265</ele>
        <time>2021-12-19T10:54:24.000Z</time>
      </trkpt>
      <trkpt lat="47.27095" lon="-2.34114">
        <ele>11.800000190735</ele>
        <time>2021-12-19T10:54:25.000Z</time>
      </trkpt>
      <trkpt lat="47.27095" lon="-2.34119">
        <ele>12.199999809265</ele>
        <time>2021-12-19T10:54:26.000Z</time>
      </trkpt>
      <trkpt lat="47.27095" lon="-2.34125">
        <ele>12.60000038147</ele>
        <time>2021-12-19T10:54:27.000Z</time>
      </trkpt>
      <trkpt lat="47.27095" lon="-2.34132">
        <ele>12.60000038147</ele>
        <time>2021-12-19T10:54:28.000Z</time>
      </trkpt>
      <trkpt lat="47.27097" lon="-2.3418">
        <ele>12.60000038147</ele>
        <time>2021-12-19T10:54:35.000Z</time>
      </trkpt>
      <trkpt lat="47.27098" lon="-2.34186">
        <ele>12.60000038147</ele>
        <time>2021-12-19T10:54:36.000Z</time>
      </trkpt>
      <trkpt lat="47.27102" lon="-2.34205">
        <ele>12.60000038147</ele>
        <time>2021-12-19T10:54:39.000Z</time>
      </trkpt>
      <trkpt lat="47.27103" lon="-2.34211">
        <ele>12.60000038147</ele>
        <time>2021-12-19T10:54:40.000Z</time>
      </trkpt>
      <trkpt lat="47.2711" lon="-2.34253">
        <ele>12.60000038147</ele>
        <time>2021-12-19T10:54:47.000Z</time>
      </trkpt>
      <trkpt lat="47.27111" lon="-2.34259">
        <ele>12.60000038147</ele>
        <time>2021-12-19T10:54:48.000Z</time>
      </trkpt>
      <trkpt lat="47.27118" lon="-2.34293">
        <ele>12.60000038147</ele>
        <time>2021-12-19T10:54:55.000Z</time>
      </trkpt>
      <trkpt lat="47.2712" lon="-2.34301">
        <ele>12.60000038147</ele>
        <time>2021-12-19T10:54:59.000Z</time>
      </trkpt>
      <trkpt lat="47.2712" lon="-2.34304">
        <ele>12.60000038147</ele>
        <time>2021-12-19T10:55:01.000Z</time>
      </trkpt>
      <trkpt lat="47.2712" lon="-2.34306">
        <ele>12.60000038147</ele>
        <time>2021-12-19T10:55:03.000Z</time>
      </trkpt>
      <trkpt lat="47.2712" lon="-2.34308">
        <ele>12.60000038147</ele>
        <time>2021-12-19T10:55:08.000Z</time>
      </trkpt>
      <trkpt lat="47.27117" lon="-2.3432">
        <ele>12.60000038147</ele>
        <time>2021-12-19T10:55:13.000Z</time>
      </trkpt>
      <trkpt lat="47.27102" lon="-2.34323">
        <ele>12.60000038147</ele>
        <time>2021-12-19T10:55:17.000Z</time>
      </trkpt>
      <trkpt lat="47.27097" lon="-2.34322">
        <ele>12.60000038147</ele>
        <time>2021-12-19T10:55:18.000Z</time>
      </trkpt>
      <trkpt lat="47.27072" lon="-2.34321">
        <ele>12.60000038147</ele>
        <time>2021-12-19T10:55:23.000Z</time>
      </trkpt>
      <trkpt lat="47.27036" lon="-2.3432">
        <ele>12.60000038147</ele>
        <time>2021-12-19T10:55:30.000Z</time>
      </trkpt>
      <trkpt lat="47.2703" lon="-2.34321">
        <ele>12.60000038147</ele>
        <time>2021-12-19T10:55:34.000Z</time>
      </trkpt>
      <trkpt lat="47.27027" lon="-2.34322">
        <ele>12.60000038147</ele>
        <time>2021-12-19T10:56:27.000Z</time>
      </trkpt>
      <trkpt lat="47.27021" lon="-2.34324">
        <ele>12.60000038147</ele>
        <time>2021-12-19T10:56:30.000Z</time>
      </trkpt>
      <trkpt lat="47.27017" lon="-2.34328">
        <ele>12.60000038147</ele>
        <time>2021-12-19T10:56:32.000Z</time>
      </trkpt>
      <trkpt lat="47.27015" lon="-2.34336">
        <ele>12.60000038147</ele>
        <time>2021-12-19T10:56:34.000Z</time>
      </trkpt>
      <trkpt lat="47.27016" lon="-2.34341">
        <ele>12.199999809265</ele>
        <time>2021-12-19T10:56:35.000Z</time>
      </trkpt>
      <trkpt lat="47.27017" lon="-2.34346">
        <ele>11.60000038147</ele>
        <time>2021-12-19T10:56:36.000Z</time>
      </trkpt>
      <trkpt lat="47.27017" lon="-2.34353">
        <ele>11.199999809265</ele>
        <time>2021-12-19T10:56:37.000Z</time>
      </trkpt>
      <trkpt lat="47.27019" lon="-2.34359">
        <ele>10.800000190735</ele>
        <time>2021-12-19T10:56:38.000Z</time>
      </trkpt>
      <trkpt lat="47.2702" lon="-2.34365">
        <ele>10.39999961853</ele>
        <time>2021-12-19T10:56:39.000Z</time>
      </trkpt>
      <trkpt lat="47.27029" lon="-2.34403">
        <ele>10.39999961853</ele>
        <time>2021-12-19T10:56:45.000Z</time>
      </trkpt>
      <trkpt lat="47.27034" lon="-2.34436">
        <ele>10.39999961853</ele>
        <time>2021-12-19T10:56:50.000Z</time>
      </trkpt>
      <trkpt lat="47.27035" lon="-2.34441">
        <ele>10.39999961853</ele>
        <time>2021-12-19T10:56:51.000Z</time>
      </trkpt>
      <trkpt lat="47.2703" lon="-2.34463">
        <ele>10.39999961853</ele>
        <time>2021-12-19T10:56:55.000Z</time>
      </trkpt>
      <trkpt lat="47.27021" lon="-2.34468">
        <ele>10.39999961853</ele>
        <time>2021-12-19T10:56:58.000Z</time>
      </trkpt>
      <trkpt lat="47.27019" lon="-2.34469">
        <ele>10.39999961853</ele>
        <time>2021-12-19T10:56:59.000Z</time>
      </trkpt>
      <trkpt lat="47.27006" lon="-2.34475">
        <ele>10.39999961853</ele>
        <time>2021-12-19T10:57:06.000Z</time>
      </trkpt>
      <trkpt lat="47.26996" lon="-2.34481">
        <ele>10.39999961853</ele>
        <time>2021-12-19T10:57:12.000Z</time>
      </trkpt>
      <trkpt lat="47.26995" lon="-2.34482">
        <ele>10.39999961853</ele>
        <time>2021-12-19T10:57:13.000Z</time>
      </trkpt>
      <trkpt lat="47.26982" lon="-2.34482">
        <ele>14.60000038147</ele>
        <time>2021-12-19T11:43:27.000Z</time>
      </trkpt>
      <trkpt lat="47.2698" lon="-2.34479">
        <ele>14.60000038147</ele>
        <time>2021-12-19T11:43:29.000Z</time>
      </trkpt>
      <trkpt lat="47.26975" lon="-2.34464">
        <ele>14.60000038147</ele>
        <time>2021-12-19T11:43:35.000Z</time>
      </trkpt>
      <trkpt lat="47.26972" lon="-2.3445">
        <ele>14.60000038147</ele>
        <time>2021-12-19T11:43:41.000Z</time>
      </trkpt>
      <trkpt lat="47.26968" lon="-2.34439">
        <ele>14.60000038147</ele>
        <time>2021-12-19T11:43:46.000Z</time>
      </trkpt>
      <trkpt lat="47.26962" lon="-2.34416">
        <ele>14.60000038147</ele>
        <time>2021-12-19T11:43:53.000Z</time>
      </trkpt>
      <trkpt lat="47.26956" lon="-2.34395">
        <ele>14.60000038147</ele>
        <time>2021-12-19T11:43:59.000Z</time>
      </trkpt>
      <trkpt lat="47.26948" lon="-2.34361">
        <ele>14.60000038147</ele>
        <time>2021-12-19T11:44:08.000Z</time>
      </trkpt>
      <trkpt lat="47.26941" lon="-2.34337">
        <ele>14.60000038147</ele>
        <time>2021-12-19T11:44:14.000Z</time>
      </trkpt>
      <trkpt lat="47.26938" lon="-2.34319">
        <ele>14.60000038147</ele>
        <time>2021-12-19T11:44:18.000Z</time>
      </trkpt>
      <trkpt lat="47.26935" lon="-2.34316">
        <ele>14.60000038147</ele>
        <time>2021-12-19T11:44:19.000Z</time>
      </trkpt>
      <trkpt lat="47.26915" lon="-2.34304">
        <ele>14.60000038147</ele>
        <time>2021-12-19T11:44:24.000Z</time>
      </trkpt>
      <trkpt lat="47.26904" lon="-2.34289">
        <ele>14.60000038147</ele>
        <time>2021-12-19T11:44:28.000Z</time>
      </trkpt>
      <trkpt lat="47.26897" lon="-2.34283">
        <ele>14.60000038147</ele>
        <time>2021-12-19T11:44:30.000Z</time>
      </trkpt>
      <trkpt lat="47.26884" lon="-2.34276">
        <ele>14.60000038147</ele>
        <time>2021-12-19T11:44:33.000Z</time>
      </trkpt>
      <trkpt lat="47.26858" lon="-2.34257">
        <ele>14.60000038147</ele>
        <time>2021-12-19T11:44:40.000Z</time>
      </trkpt>
      <trkpt lat="47.26854" lon="-2.34255">
        <ele>14.60000038147</ele>
        <time>2021-12-19T11:44:41.000Z</time>
      </trkpt>
      <trkpt lat="47.26837" lon="-2.34241">
        <ele>14.60000038147</ele>
        <time>2021-12-19T11:44:45.000Z</time>
      </trkpt>
      <trkpt lat="47.26828" lon="-2.34236">
        <ele>14.60000038147</ele>
        <time>2021-12-19T11:44:47.000Z</time>
      </trkpt>
      <trkpt lat="47.26816" lon="-2.34228">
        <ele>14.60000038147</ele>
        <time>2021-12-19T11:44:50.000Z</time>
      </trkpt>
      <trkpt lat="47.26792" lon="-2.34211">
        <ele>14.60000038147</ele>
        <time>2021-12-19T11:44:56.000Z</time>
      </trkpt>
      <trkpt lat="47.26765" lon="-2.34191">
        <ele>14.60000038147</ele>
        <time>2021-12-19T11:45:03.000Z</time>
      </trkpt>
      <trkpt lat="47.26736" lon="-2.34169">
        <ele>14.60000038147</ele>
        <time>2021-12-19T11:45:10.000Z</time>
      </trkpt>
      <trkpt lat="47.26727" lon="-2.34161">
        <ele>14.60000038147</ele>
        <time>2021-12-19T11:45:12.000Z</time>
      </trkpt>
      <trkpt lat="47.26708" lon="-2.34148">
        <ele>14.60000038147</ele>
        <time>2021-12-19T11:45:16.000Z</time>
      </trkpt>
      <trkpt lat="47.26683" lon="-2.34128">
        <ele>14.60000038147</ele>
        <time>2021-12-19T11:45:22.000Z</time>
      </trkpt>
      <trkpt lat="47.26655" lon="-2.34109">
        <ele>14.60000038147</ele>
        <time>2021-12-19T11:45:28.000Z</time>
      </trkpt>
      <trkpt lat="47.26646" lon="-2.34103">
        <ele>14.60000038147</ele>
        <time>2021-12-19T11:45:30.000Z</time>
      </trkpt>
      <trkpt lat="47.26637" lon="-2.34099">
        <ele>14.60000038147</ele>
        <time>2021-12-19T11:45:32.000Z</time>
      </trkpt>
      <trkpt lat="47.26628" lon="-2.34094">
        <ele>14.60000038147</ele>
        <time>2021-12-19T11:45:34.000Z</time>
      </trkpt>
      <trkpt lat="47.2659" lon="-2.34065">
        <ele>14.60000038147</ele>
        <time>2021-12-19T11:45:42.000Z</time>
      </trkpt>
      <trkpt lat="47.26557" lon="-2.34052">
        <ele>14.60000038147</ele>
        <time>2021-12-19T11:45:48.000Z</time>
      </trkpt>
      <trkpt lat="47.26517" lon="-2.34042">
        <ele>14.60000038147</ele>
        <time>2021-12-19T11:45:55.000Z</time>
      </trkpt>
      <trkpt lat="47.26479" lon="-2.34034">
        <ele>14.60000038147</ele>
        <time>2021-12-19T11:46:02.000Z</time>
      </trkpt>
      <trkpt lat="47.26447" lon="-2.34026">
        <ele>14.60000038147</ele>
        <time>2021-12-19T11:46:08.000Z</time>
      </trkpt>
      <trkpt lat="47.2641" lon="-2.34019">
        <ele>14.60000038147</ele>
        <time>2021-12-19T11:46:15.000Z</time>
      </trkpt>
      <trkpt lat="47.2637" lon="-2.34011">
        <ele>14.60000038147</ele>
        <time>2021-12-19T11:46:22.000Z</time>
      </trkpt>
      <trkpt lat="47.26364" lon="-2.34009">
        <ele>14.199999809265</ele>
        <time>2021-12-19T11:46:23.000Z</time>
      </trkpt>
      <trkpt lat="47.26359" lon="-2.34008">
        <ele>13.800000190735</ele>
        <time>2021-12-19T11:46:24.000Z</time>
      </trkpt>
      <trkpt lat="47.26353" lon="-2.34007">
        <ele>13.39999961853</ele>
        <time>2021-12-19T11:46:25.000Z</time>
      </trkpt>
      <trkpt lat="47.26348" lon="-2.34005">
        <ele>13</ele>
        <time>2021-12-19T11:46:26.000Z</time>
      </trkpt>
      <trkpt lat="47.26342" lon="-2.34004">
        <ele>12.60000038147</ele>
        <time>2021-12-19T11:46:27.000Z</time>
      </trkpt>
      <trkpt lat="47.26331" lon="-2.34002">
        <ele>12.60000038147</ele>
        <time>2021-12-19T11:46:29.000Z</time>
      </trkpt>
      <trkpt lat="47.26297" lon="-2.33996">
        <ele>12.60000038147</ele>
        <time>2021-12-19T11:46:35.000Z</time>
      </trkpt>
      <trkpt lat="47.26291" lon="-2.33994">
        <ele>12.60000038147</ele>
        <time>2021-12-19T11:46:36.000Z</time>
      </trkpt>
      <trkpt lat="47.2627" lon="-2.33988">
        <ele>12.60000038147</ele>
        <time>2021-12-19T11:46:39.000Z</time>
      </trkpt>
      <trkpt lat="47.26264" lon="-2.33986">
        <ele>12.199999809265</ele>
        <time>2021-12-19T11:46:40.000Z</time>
      </trkpt>
      <trkpt lat="47.26257" lon="-2.33985">
        <ele>11.800000190735</ele>
        <time>2021-12-19T11:46:41.000Z</time>
      </trkpt>
      <trkpt lat="47.2625" lon="-2.33983">
        <ele>11.39999961853</ele>
        <time>2021-12-19T11:46:42.000Z</time>
      </trkpt>
      <trkpt lat="47.26243" lon="-2.33981">
        <ele>10.800000190735</ele>
        <time>2021-12-19T11:46:43.000Z</time>
      </trkpt>
      <trkpt lat="47.26236" lon="-2.3398">
        <ele>10.39999961853</ele>
        <time>2021-12-19T11:46:44.000Z</time>
      </trkpt>
      <trkpt lat="47.26231" lon="-2.33979">
        <ele>10.39999961853</ele>
        <time>2021-12-19T11:46:45.000Z</time>
      </trkpt>
      <trkpt lat="47.26221" lon="-2.33976">
        <ele>10</ele>
        <time>2021-12-19T11:46:47.000Z</time>
      </trkpt>
      <trkpt lat="47.26216" lon="-2.33975">
        <ele>9.6000003814697</ele>
        <time>2021-12-19T11:46:48.000Z</time>
      </trkpt>
      <trkpt lat="47.26211" lon="-2.33974">
        <ele>9.1999998092651</ele>
        <time>2021-12-19T11:46:49.000Z</time>
      </trkpt>
      <trkpt lat="47.26206" lon="-2.33973">
        <ele>8.8000001907349</ele>
        <time>2021-12-19T11:46:50.000Z</time>
      </trkpt>
      <trkpt lat="47.262" lon="-2.33972">
        <ele>8.3999996185303</ele>
        <time>2021-12-19T11:46:51.000Z</time>
      </trkpt>
      <trkpt lat="47.26177" lon="-2.33967">
        <ele>8.3999996185303</ele>
        <time>2021-12-19T11:46:55.000Z</time>
      </trkpt>
      <trkpt lat="47.26134" lon="-2.33958">
        <ele>8.3999996185303</ele>
        <time>2021-12-19T11:47:03.000Z</time>
      </trkpt>
      <trkpt lat="47.26109" lon="-2.33951">
        <ele>8.3999996185303</ele>
        <time>2021-12-19T11:47:08.000Z</time>
      </trkpt>
      <trkpt lat="47.26072" lon="-2.33943">
        <ele>8.3999996185303</ele>
        <time>2021-12-19T11:47:15.000Z</time>
      </trkpt>
      <trkpt lat="47.26039" lon="-2.33935">
        <ele>8.3999996185303</ele>
        <time>2021-12-19T11:47:21.000Z</time>
      </trkpt>
      <trkpt lat="47.26003" lon="-2.33925">
        <ele>8.3999996185303</ele>
        <time>2021-12-19T11:47:28.000Z</time>
      </trkpt>
      <trkpt lat="47.25963" lon="-2.33917">
        <ele>8.3999996185303</ele>
        <time>2021-12-19T11:47:36.000Z</time>
      </trkpt>
      <trkpt lat="47.25958" lon="-2.33916">
        <ele>8.3999996185303</ele>
        <time>2021-12-19T11:47:37.000Z</time>
      </trkpt>
      <trkpt lat="47.25943" lon="-2.33907">
        <ele>8.3999996185303</ele>
        <time>2021-12-19T11:47:40.000Z</time>
      </trkpt>
      <trkpt lat="47.25939" lon="-2.33904">
        <ele>8.3999996185303</ele>
        <time>2021-12-19T11:47:41.000Z</time>
      </trkpt>
      <trkpt lat="47.25908" lon="-2.33887">
        <ele>8.3999996185303</ele>
        <time>2021-12-19T11:47:47.000Z</time>
      </trkpt>
      <trkpt lat="47.2586" lon="-2.33868">
        <ele>8.3999996185303</ele>
        <time>2021-12-19T11:47:56.000Z</time>
      </trkpt>
      <trkpt lat="47.25819" lon="-2.33849">
        <ele>8.3999996185303</ele>
        <time>2021-12-19T11:48:04.000Z</time>
      </trkpt>
      <trkpt lat="47.25814" lon="-2.33847">
        <ele>8.3999996185303</ele>
        <time>2021-12-19T11:48:05.000Z</time>
      </trkpt>
      <trkpt lat="47.25787" lon="-2.33836">
        <ele>8.3999996185303</ele>
        <time>2021-12-19T11:48:10.000Z</time>
      </trkpt>
      <trkpt lat="47.25745" lon="-2.33818">
        <ele>8.3999996185303</ele>
        <time>2021-12-19T11:48:18.000Z</time>
      </trkpt>
      <trkpt lat="47.25697" lon="-2.33799">
        <ele>8.3999996185303</ele>
        <time>2021-12-19T11:48:27.000Z</time>
      </trkpt>
      <trkpt lat="47.25659" lon="-2.33784">
        <ele>8.3999996185303</ele>
        <time>2021-12-19T11:48:34.000Z</time>
      </trkpt>
      <trkpt lat="47.25649" lon="-2.3378">
        <ele>8.8000001907349</ele>
        <time>2021-12-19T11:48:36.000Z</time>
      </trkpt>
      <trkpt lat="47.25644" lon="-2.33778">
        <ele>9.1999998092651</ele>
        <time>2021-12-19T11:48:37.000Z</time>
      </trkpt>
      <trkpt lat="47.25639" lon="-2.33777">
        <ele>9.8000001907349</ele>
        <time>2021-12-19T11:48:38.000Z</time>
      </trkpt>
      <trkpt lat="47.25634" lon="-2.33776">
        <ele>10.199999809265</ele>
        <time>2021-12-19T11:48:39.000Z</time>
      </trkpt>
      <trkpt lat="47.25629" lon="-2.33775">
        <ele>10.60000038147</ele>
        <time>2021-12-19T11:48:40.000Z</time>
      </trkpt>
      <trkpt lat="47.25624" lon="-2.33772">
        <ele>10.60000038147</ele>
        <time>2021-12-19T11:48:41.000Z</time>
      </trkpt>
      <trkpt lat="47.2561" lon="-2.33767">
        <ele>10.60000038147</ele>
        <time>2021-12-19T11:48:44.000Z</time>
      </trkpt>
      <trkpt lat="47.25601" lon="-2.33764">
        <ele>10.60000038147</ele>
        <time>2021-12-19T11:48:46.000Z</time>
      </trkpt>
      <trkpt lat="47.25569" lon="-2.33759">
        <ele>10.60000038147</ele>
        <time>2021-12-19T11:48:52.000Z</time>
      </trkpt>
      <trkpt lat="47.25531" lon="-2.3376">
        <ele>10.60000038147</ele>
        <time>2021-12-19T11:48:59.000Z</time>
      </trkpt>
      <trkpt lat="47.2549" lon="-2.33757">
        <ele>10.60000038147</ele>
        <time>2021-12-19T11:49:06.000Z</time>
      </trkpt>
      <trkpt lat="47.25483" lon="-2.33756">
        <ele>10.60000038147</ele>
        <time>2021-12-19T11:49:07.000Z</time>
      </trkpt>
      <trkpt lat="47.25465" lon="-2.33747">
        <ele>10.60000038147</ele>
        <time>2021-12-19T11:49:10.000Z</time>
      </trkpt>
      <trkpt lat="47.2546" lon="-2.33743">
        <ele>10.60000038147</ele>
        <time>2021-12-19T11:49:11.000Z</time>
      </trkpt>
      <trkpt lat="47.25455" lon="-2.3373">
        <ele>10.60000038147</ele>
        <time>2021-12-19T11:49:13.000Z</time>
      </trkpt>
      <trkpt lat="47.25453" lon="-2.33711">
        <ele>10.60000038147</ele>
        <time>2021-12-19T11:49:15.000Z</time>
      </trkpt>
      <trkpt lat="47.2545" lon="-2.33693">
        <ele>10.60000038147</ele>
        <time>2021-12-19T11:49:17.000Z</time>
      </trkpt>
      <trkpt lat="47.25445" lon="-2.33648">
        <ele>10.60000038147</ele>
        <time>2021-12-19T11:49:23.000Z</time>
      </trkpt>
      <trkpt lat="47.25442" lon="-2.33612">
        <ele>10.60000038147</ele>
        <time>2021-12-19T11:49:28.000Z</time>
      </trkpt>
      <trkpt lat="47.25443" lon="-2.33582">
        <ele>10.60000038147</ele>
        <time>2021-12-19T11:49:33.000Z</time>
      </trkpt>
      <trkpt lat="47.25446" lon="-2.33579">
        <ele>10.60000038147</ele>
        <time>2021-12-19T11:49:34.000Z</time>
      </trkpt>
      <trkpt lat="47.25457" lon="-2.33577">
        <ele>10.60000038147</ele>
        <time>2021-12-19T11:49:37.000Z</time>
      </trkpt>
      <trkpt lat="47.25459" lon="-2.33567">
        <ele>10.60000038147</ele>
        <time>2021-12-19T11:49:39.000Z</time>
      </trkpt>
      <trkpt lat="47.25455" lon="-2.33546">
        <ele>10.60000038147</ele>
        <time>2021-12-19T11:49:43.000Z</time>
      </trkpt>
      <trkpt lat="47.25454" lon="-2.3354">
        <ele>10.60000038147</ele>
        <time>2021-12-19T11:49:44.000Z</time>
      </trkpt>
      <trkpt lat="47.25446" lon="-2.33501">
        <ele>10.60000038147</ele>
        <time>2021-12-19T11:49:50.000Z</time>
      </trkpt>
      <trkpt lat="47.25434" lon="-2.33456">
        <ele>10.60000038147</ele>
        <time>2021-12-19T11:49:57.000Z</time>
      </trkpt>
      <trkpt lat="47.2543" lon="-2.33401">
        <ele>10.60000038147</ele>
        <time>2021-12-19T11:50:04.000Z</time>
      </trkpt>
      <trkpt lat="47.25431" lon="-2.33386">
        <ele>10.60000038147</ele>
        <time>2021-12-19T11:50:06.000Z</time>
      </trkpt>
      <trkpt lat="47.25432" lon="-2.33356">
        <ele>10.60000038147</ele>
        <time>2021-12-19T11:50:10.000Z</time>
      </trkpt>
      <trkpt lat="47.25433" lon="-2.33343">
        <ele>10.60000038147</ele>
        <time>2021-12-19T11:50:12.000Z</time>
      </trkpt>
      <trkpt lat="47.25439" lon="-2.33326">
        <ele>10.60000038147</ele>
        <time>2021-12-19T11:50:15.000Z</time>
      </trkpt>
      <trkpt lat="47.25449" lon="-2.33287">
        <ele>10.60000038147</ele>
        <time>2021-12-19T11:50:21.000Z</time>
      </trkpt>
      <trkpt lat="47.25448" lon="-2.3328">
        <ele>10.60000038147</ele>
        <time>2021-12-19T11:50:22.000Z</time>
      </trkpt>
      <trkpt lat="47.25441" lon="-2.33261">
        <ele>10.60000038147</ele>
        <time>2021-12-19T11:50:25.000Z</time>
      </trkpt>
      <trkpt lat="47.25438" lon="-2.33254">
        <ele>10.60000038147</ele>
        <time>2021-12-19T11:50:26.000Z</time>
      </trkpt>
      <trkpt lat="47.25429" lon="-2.33237">
        <ele>10.60000038147</ele>
        <time>2021-12-19T11:50:29.000Z</time>
      </trkpt>
      <trkpt lat="47.25426" lon="-2.33231">
        <ele>11.199999809265</ele>
        <time>2021-12-19T11:50:30.000Z</time>
      </trkpt>
      <trkpt lat="47.25423" lon="-2.33225">
        <ele>11.60000038147</ele>
        <time>2021-12-19T11:50:31.000Z</time>
      </trkpt>
      <trkpt lat="47.2542" lon="-2.33219">
        <ele>12</ele>
        <time>2021-12-19T11:50:32.000Z</time>
      </trkpt>
      <trkpt lat="47.25417" lon="-2.33212">
        <ele>12.39999961853</ele>
        <time>2021-12-19T11:50:33.000Z</time>
      </trkpt>
      <trkpt lat="47.25414" lon="-2.33206">
        <ele>12.800000190735</ele>
        <time>2021-12-19T11:50:34.000Z</time>
      </trkpt>
      <trkpt lat="47.25406" lon="-2.33185">
        <ele>12</ele>
        <time>2021-12-19T11:50:37.000Z</time>
      </trkpt>
      <trkpt lat="47.25403" lon="-2.33178">
        <ele>11.60000038147</ele>
        <time>2021-12-19T11:50:38.000Z</time>
      </trkpt>
      <trkpt lat="47.25401" lon="-2.33172">
        <ele>11.199999809265</ele>
        <time>2021-12-19T11:50:39.000Z</time>
      </trkpt>
      <trkpt lat="47.25399" lon="-2.33166">
        <ele>10.800000190735</ele>
        <time>2021-12-19T11:50:40.000Z</time>
      </trkpt>
      <trkpt lat="47.25394" lon="-2.33155">
        <ele>10.800000190735</ele>
        <time>2021-12-19T11:50:42.000Z</time>
      </trkpt>
      <trkpt lat="47.25389" lon="-2.33149">
        <ele>10.800000190735</ele>
        <time>2021-12-19T11:50:44.000Z</time>
      </trkpt>
      <trkpt lat="47.25384" lon="-2.33142">
        <ele>10.800000190735</ele>
        <time>2021-12-19T11:50:47.000Z</time>
      </trkpt>
      <trkpt lat="47.25384" lon="-2.33139">
        <ele>10.800000190735</ele>
        <time>2021-12-19T11:50:48.000Z</time>
      </trkpt>
      <trkpt lat="47.25379" lon="-2.33123">
        <ele>10.800000190735</ele>
        <time>2021-12-19T11:50:52.000Z</time>
      </trkpt>
      <trkpt lat="47.25376" lon="-2.33116">
        <ele>10.800000190735</ele>
        <time>2021-12-19T11:50:54.000Z</time>
      </trkpt>
      <trkpt lat="47.2537" lon="-2.33106">
        <ele>10.800000190735</ele>
        <time>2021-12-19T11:50:59.000Z</time>
      </trkpt>
      <trkpt lat="47.2537" lon="-2.33105">
        <ele>10.800000190735</ele>
        <time>2021-12-19T11:51:01.000Z</time>
      </trkpt>
      <trkpt lat="47.25368" lon="-2.331">
        <ele>8.8000001907349</ele>
        <time>2021-12-19T11:57:10.000Z</time>
      </trkpt>
      <trkpt lat="47.25366" lon="-2.33097">
        <ele>8.8000001907349</ele>
        <time>2021-12-19T11:57:12.000Z</time>
      </trkpt>
      <trkpt lat="47.25361" lon="-2.33079">
        <ele>8.8000001907349</ele>
        <time>2021-12-19T11:57:16.000Z</time>
      </trkpt>
      <trkpt lat="47.25348" lon="-2.33042">
        <ele>8.8000001907349</ele>
        <time>2021-12-19T11:57:22.000Z</time>
      </trkpt>
      <trkpt lat="47.25334" lon="-2.33007">
        <ele>9.1999998092651</ele>
        <time>2021-12-19T11:57:28.000Z</time>
      </trkpt>
      <trkpt lat="47.25332" lon="-2.33001">
        <ele>9.6000003814697</ele>
        <time>2021-12-19T11:57:29.000Z</time>
      </trkpt>
      <trkpt lat="47.25329" lon="-2.32995">
        <ele>10</ele>
        <time>2021-12-19T11:57:30.000Z</time>
      </trkpt>
      <trkpt lat="47.25327" lon="-2.32989">
        <ele>10.39999961853</ele>
        <time>2021-12-19T11:57:31.000Z</time>
      </trkpt>
      <trkpt lat="47.25325" lon="-2.32982">
        <ele>10.800000190735</ele>
        <time>2021-12-19T11:57:32.000Z</time>
      </trkpt>
      <trkpt lat="47.2531" lon="-2.32943">
        <ele>10.800000190735</ele>
        <time>2021-12-19T11:57:39.000Z</time>
      </trkpt>
      <trkpt lat="47.25308" lon="-2.3293">
        <ele>10.800000190735</ele>
        <time>2021-12-19T11:57:41.000Z</time>
      </trkpt>
      <trkpt lat="47.25312" lon="-2.32919">
        <ele>10.800000190735</ele>
        <time>2021-12-19T11:57:43.000Z</time>
      </trkpt>
      <trkpt lat="47.25324" lon="-2.32905">
        <ele>10.800000190735</ele>
        <time>2021-12-19T11:57:46.000Z</time>
      </trkpt>
      <trkpt lat="47.25328" lon="-2.32901">
        <ele>10.800000190735</ele>
        <time>2021-12-19T11:57:47.000Z</time>
      </trkpt>
      <trkpt lat="47.2535" lon="-2.32882">
        <ele>10.800000190735</ele>
        <time>2021-12-19T11:57:52.000Z</time>
      </trkpt>
      <trkpt lat="47.25362" lon="-2.32869">
        <ele>10.800000190735</ele>
        <time>2021-12-19T11:57:55.000Z</time>
      </trkpt>
      <trkpt lat="47.25373" lon="-2.32855">
        <ele>10.800000190735</ele>
        <time>2021-12-19T11:57:58.000Z</time>
      </trkpt>
      <trkpt lat="47.25381" lon="-2.32846">
        <ele>10.800000190735</ele>
        <time>2021-12-19T11:58:00.000Z</time>
      </trkpt>
      <trkpt lat="47.25398" lon="-2.32827">
        <ele>10.800000190735</ele>
        <time>2021-12-19T11:58:04.000Z</time>
      </trkpt>
      <trkpt lat="47.25406" lon="-2.32817">
        <ele>10.800000190735</ele>
        <time>2021-12-19T11:58:06.000Z</time>
      </trkpt>
      <trkpt lat="47.25419" lon="-2.32797">
        <ele>10.800000190735</ele>
        <time>2021-12-19T11:58:10.000Z</time>
      </trkpt>
      <trkpt lat="47.25428" lon="-2.32784">
        <ele>10.800000190735</ele>
        <time>2021-12-19T11:58:13.000Z</time>
      </trkpt>
      <trkpt lat="47.25431" lon="-2.32773">
        <ele>10.800000190735</ele>
        <time>2021-12-19T11:58:15.000Z</time>
      </trkpt>
      <trkpt lat="47.25435" lon="-2.32763">
        <ele>10.800000190735</ele>
        <time>2021-12-19T11:58:17.000Z</time>
      </trkpt>
      <trkpt lat="47.25443" lon="-2.32756">
        <ele>10.800000190735</ele>
        <time>2021-12-19T11:58:19.000Z</time>
      </trkpt>
      <trkpt lat="47.25446" lon="-2.3275">
        <ele>11.199999809265</ele>
        <time>2021-12-19T11:58:20.000Z</time>
      </trkpt>
      <trkpt lat="47.25449" lon="-2.32745">
        <ele>11.60000038147</ele>
        <time>2021-12-19T11:58:21.000Z</time>
      </trkpt>
      <trkpt lat="47.25452" lon="-2.3274">
        <ele>12.199999809265</ele>
        <time>2021-12-19T11:58:22.000Z</time>
      </trkpt>
      <trkpt lat="47.25455" lon="-2.32735">
        <ele>12.60000038147</ele>
        <time>2021-12-19T11:58:23.000Z</time>
      </trkpt>
      <trkpt lat="47.25459" lon="-2.32731">
        <ele>13</ele>
        <time>2021-12-19T11:58:24.000Z</time>
      </trkpt>
      <trkpt lat="47.2548" lon="-2.32704">
        <ele>13</ele>
        <time>2021-12-19T11:58:30.000Z</time>
      </trkpt>
      <trkpt lat="47.25486" lon="-2.32693">
        <ele>13</ele>
        <time>2021-12-19T11:58:32.000Z</time>
      </trkpt>
      <trkpt lat="47.25491" lon="-2.32673">
        <ele>13</ele>
        <time>2021-12-19T11:58:35.000Z</time>
      </trkpt>
      <trkpt lat="47.25489" lon="-2.32639">
        <ele>13</ele>
        <time>2021-12-19T11:58:40.000Z</time>
      </trkpt>
      <trkpt lat="47.25488" lon="-2.32632">
        <ele>13</ele>
        <time>2021-12-19T11:58:41.000Z</time>
      </trkpt>
      <trkpt lat="47.25481" lon="-2.32591">
        <ele>13</ele>
        <time>2021-12-19T11:58:47.000Z</time>
      </trkpt>
      <trkpt lat="47.25482" lon="-2.32578">
        <ele>13</ele>
        <time>2021-12-19T11:58:49.000Z</time>
      </trkpt>
      <trkpt lat="47.25493" lon="-2.32551">
        <ele>13</ele>
        <time>2021-12-19T11:58:54.000Z</time>
      </trkpt>
      <trkpt lat="47.25501" lon="-2.32542">
        <ele>13</ele>
        <time>2021-12-19T11:58:56.000Z</time>
      </trkpt>
      <trkpt lat="47.25514" lon="-2.32529">
        <ele>13</ele>
        <time>2021-12-19T11:58:59.000Z</time>
      </trkpt>
      <trkpt lat="47.25553" lon="-2.32493">
        <ele>13</ele>
        <time>2021-12-19T11:59:07.000Z</time>
      </trkpt>
      <trkpt lat="47.25558" lon="-2.32487">
        <ele>13</ele>
        <time>2021-12-19T11:59:08.000Z</time>
      </trkpt>
      <trkpt lat="47.2558" lon="-2.32465">
        <ele>12.39999961853</ele>
        <time>2021-12-19T11:59:12.000Z</time>
      </trkpt>
      <trkpt lat="47.25585" lon="-2.3246">
        <ele>12</ele>
        <time>2021-12-19T11:59:13.000Z</time>
      </trkpt>
      <trkpt lat="47.25591" lon="-2.32455">
        <ele>11.60000038147</ele>
        <time>2021-12-19T11:59:14.000Z</time>
      </trkpt>
      <trkpt lat="47.25596" lon="-2.32449">
        <ele>10.60000038147</ele>
        <time>2021-12-19T11:59:15.000Z</time>
      </trkpt>
      <trkpt lat="47.25613" lon="-2.3243">
        <ele>10.199999809265</ele>
        <time>2021-12-19T11:59:18.000Z</time>
      </trkpt>
      <trkpt lat="47.25619" lon="-2.32424">
        <ele>9.8000001907349</ele>
        <time>2021-12-19T11:59:19.000Z</time>
      </trkpt>
      <trkpt lat="47.25625" lon="-2.32418">
        <ele>9.3999996185303</ele>
        <time>2021-12-19T11:59:20.000Z</time>
      </trkpt>
      <trkpt lat="47.2563" lon="-2.32413">
        <ele>9</ele>
        <time>2021-12-19T11:59:21.000Z</time>
      </trkpt>
      <trkpt lat="47.25636" lon="-2.32407">
        <ele>8.3999996185303</ele>
        <time>2021-12-19T11:59:22.000Z</time>
      </trkpt>
      <trkpt lat="47.25648" lon="-2.32401">
        <ele>8.3999996185303</ele>
        <time>2021-12-19T11:59:24.000Z</time>
      </trkpt>
      <trkpt lat="47.25654" lon="-2.324">
        <ele>8.3999996185303</ele>
        <time>2021-12-19T11:59:25.000Z</time>
      </trkpt>
      <trkpt lat="47.2566" lon="-2.324">
        <ele>8</ele>
        <time>2021-12-19T11:59:26.000Z</time>
      </trkpt>
      <trkpt lat="47.25665" lon="-2.32401">
        <ele>7.5999999046326</ele>
        <time>2021-12-19T11:59:27.000Z</time>
      </trkpt>
      <trkpt lat="47.25669" lon="-2.32404">
        <ele>7.1999998092651</ele>
        <time>2021-12-19T11:59:28.000Z</time>
      </trkpt>
      <trkpt lat="47.25674" lon="-2.32409">
        <ele>6.5999999046326</ele>
        <time>2021-12-19T11:59:29.000Z</time>
      </trkpt>
      <trkpt lat="47.25678" lon="-2.32414">
        <ele>6.1999998092651</ele>
        <time>2021-12-19T11:59:30.000Z</time>
      </trkpt>
      <trkpt lat="47.25697" lon="-2.32418">
        <ele>6.1999998092651</ele>
        <time>2021-12-19T11:59:33.000Z</time>
      </trkpt>
      <trkpt lat="47.25703" lon="-2.32419">
        <ele>6.1999998092651</ele>
        <time>2021-12-19T11:59:34.000Z</time>
      </trkpt>
      <trkpt lat="47.25747" lon="-2.32421">
        <ele>6.1999998092651</ele>
        <time>2021-12-19T11:59:41.000Z</time>
      </trkpt>
      <trkpt lat="47.25769" lon="-2.32415">
        <ele>6.1999998092651</ele>
        <time>2021-12-19T11:59:46.000Z</time>
      </trkpt>
      <trkpt lat="47.25786" lon="-2.32416">
        <ele>6.1999998092651</ele>
        <time>2021-12-19T11:59:51.000Z</time>
      </trkpt>
      <trkpt lat="47.25794" lon="-2.32435">
        <ele>6.1999998092651</ele>
        <time>2021-12-19T11:59:54.000Z</time>
      </trkpt>
      <trkpt lat="47.25799" lon="-2.32442">
        <ele>6.1999998092651</ele>
        <time>2021-12-19T11:59:55.000Z</time>
      </trkpt>
      <trkpt lat="47.25808" lon="-2.32452">
        <ele>6.1999998092651</ele>
        <time>2021-12-19T11:59:57.000Z</time>
      </trkpt>
      <trkpt lat="47.25814" lon="-2.32456">
        <ele>6.1999998092651</ele>
        <time>2021-12-19T11:59:58.000Z</time>
      </trkpt>
      <trkpt lat="47.25843" lon="-2.32472">
        <ele>6.1999998092651</ele>
        <time>2021-12-19T12:00:03.000Z</time>
      </trkpt>
      <trkpt lat="47.25849" lon="-2.32473">
        <ele>6.1999998092651</ele>
        <time>2021-12-19T12:00:04.000Z</time>
      </trkpt>
      <trkpt lat="47.25877" lon="-2.32472">
        <ele>6.1999998092651</ele>
        <time>2021-12-19T12:00:09.000Z</time>
      </trkpt>
      <trkpt lat="47.25894" lon="-2.32464">
        <ele>6.1999998092651</ele>
        <time>2021-12-19T12:00:12.000Z</time>
      </trkpt>
      <trkpt lat="47.25904" lon="-2.32455">
        <ele>6.1999998092651</ele>
        <time>2021-12-19T12:00:14.000Z</time>
      </trkpt>
      <trkpt lat="47.25931" lon="-2.32419">
        <ele>6.1999998092651</ele>
        <time>2021-12-19T12:00:20.000Z</time>
      </trkpt>
      <trkpt lat="47.25956" lon="-2.32387">
        <ele>6.1999998092651</ele>
        <time>2021-12-19T12:00:26.000Z</time>
      </trkpt>
      <trkpt lat="47.25961" lon="-2.32382">
        <ele>6.1999998092651</ele>
        <time>2021-12-19T12:00:27.000Z</time>
      </trkpt>
      <trkpt lat="47.25994" lon="-2.32339">
        <ele>6.1999998092651</ele>
        <time>2021-12-19T12:00:35.000Z</time>
      </trkpt>
      <trkpt lat="47.26023" lon="-2.32302">
        <ele>6.1999998092651</ele>
        <time>2021-12-19T12:00:42.000Z</time>
      </trkpt>
      <trkpt lat="47.26052" lon="-2.32267">
        <ele>6.1999998092651</ele>
        <time>2021-12-19T12:00:49.000Z</time>
      </trkpt>
      <trkpt lat="47.26056" lon="-2.32262">
        <ele>6.1999998092651</ele>
        <time>2021-12-19T12:00:50.000Z</time>
      </trkpt>
      <trkpt lat="47.26072" lon="-2.32245">
        <ele>6.1999998092651</ele>
        <time>2021-12-19T12:00:54.000Z</time>
      </trkpt>
      <trkpt lat="47.26096" lon="-2.3221">
        <ele>6.1999998092651</ele>
        <time>2021-12-19T12:01:00.000Z</time>
      </trkpt>
      <trkpt lat="47.26099" lon="-2.32203">
        <ele>6.1999998092651</ele>
        <time>2021-12-19T12:01:01.000Z</time>
      </trkpt>
      <trkpt lat="47.26113" lon="-2.32171">
        <ele>6.1999998092651</ele>
        <time>2021-12-19T12:01:06.000Z</time>
      </trkpt>
      <trkpt lat="47.26128" lon="-2.32131">
        <ele>6.1999998092651</ele>
        <time>2021-12-19T12:01:12.000Z</time>
      </trkpt>
      <trkpt lat="47.26139" lon="-2.32093">
        <ele>6.1999998092651</ele>
        <time>2021-12-19T12:01:18.000Z</time>
      </trkpt>
      <trkpt lat="47.26155" lon="-2.32046">
        <ele>6.1999998092651</ele>
        <time>2021-12-19T12:01:25.000Z</time>
      </trkpt>
      <trkpt lat="47.26158" lon="-2.3204">
        <ele>6.1999998092651</ele>
        <time>2021-12-19T12:01:26.000Z</time>
      </trkpt>
      <trkpt lat="47.26164" lon="-2.32029">
        <ele>6.1999998092651</ele>
        <time>2021-12-19T12:01:28.000Z</time>
      </trkpt>
      <trkpt lat="47.26171" lon="-2.32023">
        <ele>6.1999998092651</ele>
        <time>2021-12-19T12:01:30.000Z</time>
      </trkpt>
      <trkpt lat="47.2618" lon="-2.32022">
        <ele>6.1999998092651</ele>
        <time>2021-12-19T12:01:32.000Z</time>
      </trkpt>
      <trkpt lat="47.26189" lon="-2.32023">
        <ele>6.1999998092651</ele>
        <time>2021-12-19T12:01:35.000Z</time>
      </trkpt>
      <trkpt lat="47.26194" lon="-2.32022">
        <ele>6.1999998092651</ele>
        <time>2021-12-19T12:01:38.000Z</time>
      </trkpt>
      <trkpt lat="47.26195" lon="-2.3202">
        <ele>5.8000001907349</ele>
        <time>2021-12-19T12:01:39.000Z</time>
      </trkpt>
      <trkpt lat="47.26196" lon="-2.32016">
        <ele>5.4000000953674</ele>
        <time>2021-12-19T12:01:40.000Z</time>
      </trkpt>
      <trkpt lat="47.26197" lon="-2.32011">
        <ele>5</ele>
        <time>2021-12-19T12:01:41.000Z</time>
      </trkpt>
      <trkpt lat="47.26197" lon="-2.32008">
        <ele>4.1999998092651</ele>
        <time>2021-12-19T12:01:42.000Z</time>
      </trkpt>
      <trkpt lat="47.26199" lon="-2.32005">
        <ele>4.1999998092651</ele>
        <time>2021-12-19T12:01:43.000Z</time>
      </trkpt>
      <trkpt lat="47.26201" lon="-2.32003">
        <ele>4.1999998092651</ele>
        <time>2021-12-19T12:01:44.000Z</time>
      </trkpt>
      <trkpt lat="47.26215" lon="-2.31988">
        <ele>4.1999998092651</ele>
        <time>2021-12-19T12:01:50.000Z</time>
      </trkpt>
      <trkpt lat="47.26222" lon="-2.31977">
        <ele>4.1999998092651</ele>
        <time>2021-12-19T12:01:52.000Z</time>
      </trkpt>
      <trkpt lat="47.26236" lon="-2.31964">
        <ele>4.1999998092651</ele>
        <time>2021-12-19T12:01:55.000Z</time>
      </trkpt>
      <trkpt lat="47.2624" lon="-2.3196">
        <ele>4.1999998092651</ele>
        <time>2021-12-19T12:01:56.000Z</time>
      </trkpt>
      <trkpt lat="47.26247" lon="-2.31948">
        <ele>4.1999998092651</ele>
        <time>2021-12-19T12:01:59.000Z</time>
      </trkpt>
      <trkpt lat="47.26256" lon="-2.31932">
        <ele>4.1999998092651</ele>
        <time>2021-12-19T12:02:04.000Z</time>
      </trkpt>
      <trkpt lat="47.2627" lon="-2.31908">
        <ele>4.1999998092651</ele>
        <time>2021-12-19T12:02:10.000Z</time>
      </trkpt>
      <trkpt lat="47.26294" lon="-2.31886">
        <ele>4.1999998092651</ele>
        <time>2021-12-19T12:02:15.000Z</time>
      </trkpt>
      <trkpt lat="47.26297" lon="-2.31859">
        <ele>4.1999998092651</ele>
        <time>2021-12-19T12:02:20.000Z</time>
      </trkpt>
      <trkpt lat="47.26295" lon="-2.31822">
        <ele>4.1999998092651</ele>
        <time>2021-12-19T12:02:27.000Z</time>
      </trkpt>
      <trkpt lat="47.26299" lon="-2.31782">
        <ele>4.1999998092651</ele>
        <time>2021-12-19T12:02:33.000Z</time>
      </trkpt>
      <trkpt lat="47.263" lon="-2.31735">
        <ele>4.1999998092651</ele>
        <time>2021-12-19T12:02:40.000Z</time>
      </trkpt>
      <trkpt lat="47.26304" lon="-2.31717">
        <ele>4.1999998092651</ele>
        <time>2021-12-19T12:02:43.000Z</time>
      </trkpt>
      <trkpt lat="47.26307" lon="-2.31715">
        <ele>4.1999998092651</ele>
        <time>2021-12-19T12:02:44.000Z</time>
      </trkpt>
      <trkpt lat="47.26315" lon="-2.3171">
        <ele>4.5999999046326</ele>
        <time>2021-12-19T12:02:46.000Z</time>
      </trkpt>
      <trkpt lat="47.26318" lon="-2.31708">
        <ele>5</ele>
        <time>2021-12-19T12:02:47.000Z</time>
      </trkpt>
      <trkpt lat="47.26322" lon="-2.31706">
        <ele>5.4000000953674</ele>
        <time>2021-12-19T12:02:48.000Z</time>
      </trkpt>
      <trkpt lat="47.26326" lon="-2.31704">
        <ele>5.8000001907349</ele>
        <time>2021-12-19T12:02:49.000Z</time>
      </trkpt>
      <trkpt lat="47.2633" lon="-2.317">
        <ele>6.1999998092651</ele>
        <time>2021-12-19T12:02:50.000Z</time>
      </trkpt>
      <trkpt lat="47.26335" lon="-2.31687">
        <ele>6.1999998092651</ele>
        <time>2021-12-19T12:02:53.000Z</time>
      </trkpt>
      <trkpt lat="47.26338" lon="-2.31684">
        <ele>6.1999998092651</ele>
        <time>2021-12-19T12:02:54.000Z</time>
      </trkpt>
      <trkpt lat="47.26351" lon="-2.31677">
        <ele>6.1999998092651</ele>
        <time>2021-12-19T12:02:58.000Z</time>
      </trkpt>
      <trkpt lat="47.26359" lon="-2.31675">
        <ele>6.5999999046326</ele>
        <time>2021-12-19T12:03:00.000Z</time>
      </trkpt>
      <trkpt lat="47.26363" lon="-2.31673">
        <ele>7</ele>
        <time>2021-12-19T12:03:01.000Z</time>
      </trkpt>
      <trkpt lat="47.26367" lon="-2.31672">
        <ele>7.5999999046326</ele>
        <time>2021-12-19T12:03:02.000Z</time>
      </trkpt>
      <trkpt lat="47.26371" lon="-2.31671">
        <ele>8</ele>
        <time>2021-12-19T12:03:03.000Z</time>
      </trkpt>
      <trkpt lat="47.26375" lon="-2.31669">
        <ele>8.3999996185303</ele>
        <time>2021-12-19T12:03:04.000Z</time>
      </trkpt>
      <trkpt lat="47.26396" lon="-2.31657">
        <ele>8.3999996185303</ele>
        <time>2021-12-19T12:03:10.000Z</time>
      </trkpt>
      <trkpt lat="47.26412" lon="-2.31645">
        <ele>8.3999996185303</ele>
        <time>2021-12-19T12:03:15.000Z</time>
      </trkpt>
      <trkpt lat="47.26413" lon="-2.31631">
        <ele>8.8000001907349</ele>
        <time>2021-12-19T12:03:18.000Z</time>
      </trkpt>
      <trkpt lat="47.26413" lon="-2.31626">
        <ele>9.1999998092651</ele>
        <time>2021-12-19T12:03:19.000Z</time>
      </trkpt>
      <trkpt lat="47.26412" lon="-2.31621">
        <ele>9.6000003814697</ele>
        <time>2021-12-19T12:03:20.000Z</time>
      </trkpt>
      <trkpt lat="47.26412" lon="-2.31617">
        <ele>10.39999961853</ele>
        <time>2021-12-19T12:03:21.000Z</time>
      </trkpt>
      <trkpt lat="47.26412" lon="-2.31601">
        <ele>10.39999961853</ele>
        <time>2021-12-19T12:03:24.000Z</time>
      </trkpt>
      <trkpt lat="47.26412" lon="-2.31572">
        <ele>10.39999961853</ele>
        <time>2021-12-19T12:03:30.000Z</time>
      </trkpt>
      <trkpt lat="47.26413" lon="-2.31552">
        <ele>10.39999961853</ele>
        <time>2021-12-19T12:03:35.000Z</time>
      </trkpt>
      <trkpt lat="47.26418" lon="-2.31552">
        <ele>10.39999961853</ele>
        <time>2021-12-19T12:03:38.000Z</time>
      </trkpt>
      <trkpt lat="47.26418" lon="-2.31552">
        <ele>10.39999961853</ele>
        <time>2021-12-19T12:03:39.000Z</time>
      </trkpt>
    </trkseg>
  </trk>
</gpx>